<?xml version="1.0" encoding="UTF-8"?>
<gpx creator="Garmin Connect" version="1.1"
  xsi:schemaLocation="http://www.topografix.com/GPX/1/1 http://www.topografix.com/GPX/11.xsd"
  xmlns:ns3="http://www.garmin.com/xmlschemas/TrackPointExtension/v1"
  xmlns="http://www.topografix.com/GPX/1/1"
  xmlns:xsi="http://www.w3.org/2001/XMLSchema-instance" xmlns:ns2="http://www.garmin.com/xmlschemas/GpxExtensions/v3">
  <metadata>
    <link href="connect.garmin.com">
      <text>Garmin Connect</text>
    </link>
    <time>2026-08-01T08:30:36.000Z</time>
  </metadata>
  <trk>
    <name>Joniskelis Hiking</name>
    <type>hiking</type>
    <trkseg>
      <trkpt lat="56.0241048596799373626708984375" lon="24.16819796897470951080322265625">
        <ele>48.59999847412109375</ele>
        <time>2026-08-01T08:30:42.000Z</time>
        <extensions>
          <ns3:TrackPointExtension>
            <ns3:hr>96</ns3:hr>
            <ns3:cad>0</ns3:cad>
          </ns3:TrackPointExtension>
        </extensions>
      </trkpt>
      <trkpt lat="56.024150289595127105712890625" lon="24.1681742481887340545654296875">
        <ele>48.799999237060546875</ele>
        <time>2026-08-01T08:30:43.000Z</time>
        <extensions>
          <ns3:TrackPointExtension>
            <ns3:hr>97</ns3:hr>
            <ns3:cad>0</ns3:cad>
          </ns3:TrackPointExtension>
        </extensions>
      </trkpt>
      <trkpt lat="56.0242476873099803924560546875" lon="24.1684666089713573455810546875">
        <ele>48.799999237060546875</ele>
        <time>2026-08-01T08:30:50.000Z</time>
        <extensions>
          <ns3:TrackPointExtension>
            <ns3:hr>97</ns3:hr>
            <ns3:cad>55</ns3:cad>
          </ns3:TrackPointExtension>
        </extensions>
      </trkpt>
      <trkpt lat="56.0242614336311817169189453125" lon="24.1684780083596706390380859375">
        <ele>48.799999237060546875</ele>
        <time>2026-08-01T08:30:51.000Z</time>
        <extensions>
          <ns3:TrackPointExtension>
            <ns3:hr>98</ns3:hr>
            <ns3:cad>55</ns3:cad>
          </ns3:TrackPointExtension>
        </extensions>
      </trkpt>
      <trkpt lat="56.02437551133334636688232421875" lon="24.1685142181813716888427734375">
        <ele>48.40000152587890625</ele>
        <time>2026-08-01T08:31:01.000Z</time>
        <extensions>
          <ns3:TrackPointExtension>
            <ns3:hr>99</ns3:hr>
            <ns3:cad>53</ns3:cad>
          </ns3:TrackPointExtension>
        </extensions>
      </trkpt>
      <trkpt lat="56.02439403533935546875" lon="24.16851413436233997344970703125">
        <ele>48.40000152587890625</ele>
        <time>2026-08-01T08:31:10.000Z</time>
        <extensions>
          <ns3:TrackPointExtension>
            <ns3:hr>98</ns3:hr>
            <ns3:cad>0</ns3:cad>
          </ns3:TrackPointExtension>
        </extensions>
      </trkpt>
      <trkpt lat="56.02435857988893985748291015625" lon="24.16852184571325778961181640625">
        <ele>48.200000762939453125</ele>
        <time>2026-08-01T08:31:18.000Z</time>
        <extensions>
          <ns3:TrackPointExtension>
            <ns3:hr>98</ns3:hr>
            <ns3:cad>0</ns3:cad>
          </ns3:TrackPointExtension>
        </extensions>
      </trkpt>
      <trkpt lat="56.02434785105288028717041015625" lon="24.168525449931621551513671875">
        <ele>48.200000762939453125</ele>
        <time>2026-08-01T08:31:19.000Z</time>
        <extensions>
          <ns3:TrackPointExtension>
            <ns3:hr>97</ns3:hr>
            <ns3:cad>0</ns3:cad>
          </ns3:TrackPointExtension>
        </extensions>
      </trkpt>
      <trkpt lat="56.024260930716991424560546875" lon="24.16854397393763065338134765625">
        <ele>48</ele>
        <time>2026-08-01T08:31:26.000Z</time>
        <extensions>
          <ns3:TrackPointExtension>
            <ns3:hr>95</ns3:hr>
            <ns3:cad>53</ns3:cad>
          </ns3:TrackPointExtension>
        </extensions>
      </trkpt>
      <trkpt lat="56.02417367510497570037841796875" lon="24.16859845630824565887451171875">
        <ele>48</ele>
        <time>2026-08-01T08:31:33.000Z</time>
        <extensions>
          <ns3:TrackPointExtension>
            <ns3:hr>92</ns3:hr>
            <ns3:cad>56</ns3:cad>
          </ns3:TrackPointExtension>
        </extensions>
      </trkpt>
      <trkpt lat="56.0241729207336902618408203125" lon="24.1686148010194301605224609375">
        <ele>48</ele>
        <time>2026-08-01T08:31:34.000Z</time>
        <extensions>
          <ns3:TrackPointExtension>
            <ns3:hr>92</ns3:hr>
            <ns3:cad>56</ns3:cad>
          </ns3:TrackPointExtension>
        </extensions>
      </trkpt>
      <trkpt lat="56.024177782237529754638671875" lon="24.168671630322933197021484375">
        <ele>48.59999847412109375</ele>
        <time>2026-08-01T08:31:42.000Z</time>
        <extensions>
          <ns3:TrackPointExtension>
            <ns3:hr>91</ns3:hr>
            <ns3:cad>0</ns3:cad>
          </ns3:TrackPointExtension>
        </extensions>
      </trkpt>
      <trkpt lat="56.024142913520336151123046875" lon="24.16874849237501621246337890625">
        <ele>48</ele>
        <time>2026-08-01T08:31:48.000Z</time>
        <extensions>
          <ns3:TrackPointExtension>
            <ns3:hr>91</ns3:hr>
            <ns3:cad>0</ns3:cad>
          </ns3:TrackPointExtension>
        </extensions>
      </trkpt>
      <trkpt lat="56.02409505285322666168212890625" lon="24.16879408992826938629150390625">
        <ele>48</ele>
        <time>2026-08-01T08:31:52.000Z</time>
        <extensions>
          <ns3:TrackPointExtension>
            <ns3:hr>95</ns3:hr>
            <ns3:cad>56</ns3:cad>
          </ns3:TrackPointExtension>
        </extensions>
      </trkpt>
      <trkpt lat="56.02410980500280857086181640625" lon="24.168833903968334197998046875">
        <ele>48</ele>
        <time>2026-08-01T08:31:54.000Z</time>
        <extensions>
          <ns3:TrackPointExtension>
            <ns3:hr>98</ns3:hr>
            <ns3:cad>56</ns3:cad>
          </ns3:TrackPointExtension>
        </extensions>
      </trkpt>
      <trkpt lat="56.024112068116664886474609375" lon="24.16884873993694782257080078125">
        <ele>48</ele>
        <time>2026-08-01T08:31:55.000Z</time>
        <extensions>
          <ns3:TrackPointExtension>
            <ns3:hr>98</ns3:hr>
            <ns3:cad>56</ns3:cad>
          </ns3:TrackPointExtension>
        </extensions>
      </trkpt>
      <trkpt lat="56.024185158312320709228515625" lon="24.16897698305547237396240234375">
        <ele>47.799999237060546875</ele>
        <time>2026-08-01T08:32:03.000Z</time>
        <extensions>
          <ns3:TrackPointExtension>
            <ns3:hr>97</ns3:hr>
            <ns3:cad>56</ns3:cad>
          </ns3:TrackPointExtension>
        </extensions>
      </trkpt>
      <trkpt lat="56.02422631345689296722412109375" lon="24.16905627585947513580322265625">
        <ele>47.799999237060546875</ele>
        <time>2026-08-01T08:32:07.000Z</time>
        <extensions>
          <ns3:TrackPointExtension>
            <ns3:hr>94</ns3:hr>
            <ns3:cad>57</ns3:cad>
          </ns3:TrackPointExtension>
        </extensions>
      </trkpt>
      <trkpt lat="56.024246513843536376953125" lon="24.16908745653927326202392578125">
        <ele>47.799999237060546875</ele>
        <time>2026-08-01T08:32:09.000Z</time>
        <extensions>
          <ns3:TrackPointExtension>
            <ns3:hr>93</ns3:hr>
            <ns3:cad>56</ns3:cad>
          </ns3:TrackPointExtension>
        </extensions>
      </trkpt>
      <trkpt lat="56.02428817190229892730712890625" lon="24.16916054673492908477783203125">
        <ele>47.59999847412109375</ele>
        <time>2026-08-01T08:32:13.000Z</time>
        <extensions>
          <ns3:TrackPointExtension>
            <ns3:hr>91</ns3:hr>
            <ns3:cad>57</ns3:cad>
          </ns3:TrackPointExtension>
        </extensions>
      </trkpt>
      <trkpt lat="56.02432899177074432373046875" lon="24.169348888099193572998046875">
        <ele>47.799999237060546875</ele>
        <time>2026-08-01T08:32:21.000Z</time>
        <extensions>
          <ns3:TrackPointExtension>
            <ns3:hr>90</ns3:hr>
            <ns3:cad>58</ns3:cad>
          </ns3:TrackPointExtension>
        </extensions>
      </trkpt>
      <trkpt lat="56.02435086853802204132080078125" lon="24.16959657333791255950927734375">
        <ele>47.799999237060546875</ele>
        <time>2026-08-01T08:32:31.000Z</time>
        <extensions>
          <ns3:TrackPointExtension>
            <ns3:hr>87</ns3:hr>
            <ns3:cad>56</ns3:cad>
          </ns3:TrackPointExtension>
        </extensions>
      </trkpt>
      <trkpt lat="56.02435992099344730377197265625" lon="24.16964200325310230255126953125">
        <ele>47.799999237060546875</ele>
        <time>2026-08-01T08:32:33.000Z</time>
        <extensions>
          <ns3:TrackPointExtension>
            <ns3:hr>84</ns3:hr>
            <ns3:cad>56</ns3:cad>
          </ns3:TrackPointExtension>
        </extensions>
      </trkpt>
      <trkpt lat="56.02439680136740207672119140625" lon="24.1698466055095195770263671875">
        <ele>48</ele>
        <time>2026-08-01T08:32:42.000Z</time>
        <extensions>
          <ns3:TrackPointExtension>
            <ns3:hr>84</ns3:hr>
            <ns3:cad>57</ns3:cad>
          </ns3:TrackPointExtension>
        </extensions>
      </trkpt>
      <trkpt lat="56.024439297616481781005859375" lon="24.17003846727311611175537109375">
        <ele>48.200000762939453125</ele>
        <time>2026-08-01T08:32:50.000Z</time>
        <extensions>
          <ns3:TrackPointExtension>
            <ns3:hr>82</ns3:hr>
            <ns3:cad>57</ns3:cad>
          </ns3:TrackPointExtension>
        </extensions>
      </trkpt>
      <trkpt lat="56.0244988091289997100830078125" lon="24.17023661546409130096435546875">
        <ele>48</ele>
        <time>2026-08-01T08:32:59.000Z</time>
        <extensions>
          <ns3:TrackPointExtension>
            <ns3:hr>83</ns3:hr>
            <ns3:cad>0</ns3:cad>
          </ns3:TrackPointExtension>
        </extensions>
      </trkpt>
      <trkpt lat="56.0245641879737377166748046875" lon="24.17046208865940570831298828125">
        <ele>48.200000762939453125</ele>
        <time>2026-08-01T08:33:08.000Z</time>
        <extensions>
          <ns3:TrackPointExtension>
            <ns3:hr>83</ns3:hr>
            <ns3:cad>59</ns3:cad>
          </ns3:TrackPointExtension>
        </extensions>
      </trkpt>
      <trkpt lat="56.0246335901319980621337890625" lon="24.17064079083502292633056640625">
        <ele>48.40000152587890625</ele>
        <time>2026-08-01T08:33:17.000Z</time>
        <extensions>
          <ns3:TrackPointExtension>
            <ns3:hr>84</ns3:hr>
            <ns3:cad>58</ns3:cad>
          </ns3:TrackPointExtension>
        </extensions>
      </trkpt>
      <trkpt lat="56.0246899165213108062744140625" lon="24.17085737921297550201416015625">
        <ele>48.59999847412109375</ele>
        <time>2026-08-01T08:33:26.000Z</time>
        <extensions>
          <ns3:TrackPointExtension>
            <ns3:hr>84</ns3:hr>
            <ns3:cad>57</ns3:cad>
          </ns3:TrackPointExtension>
        </extensions>
      </trkpt>
      <trkpt lat="56.02471849881112575531005859375" lon="24.17097799479961395263671875">
        <ele>48.59999847412109375</ele>
        <time>2026-08-01T08:33:31.000Z</time>
        <extensions>
          <ns3:TrackPointExtension>
            <ns3:hr>84</ns3:hr>
            <ns3:cad>58</ns3:cad>
          </ns3:TrackPointExtension>
        </extensions>
      </trkpt>
      <trkpt lat="56.02478588931262493133544921875" lon="24.17120237834751605987548828125">
        <ele>48.799999237060546875</ele>
        <time>2026-08-01T08:33:40.000Z</time>
        <extensions>
          <ns3:TrackPointExtension>
            <ns3:hr>84</ns3:hr>
            <ns3:cad>59</ns3:cad>
          </ns3:TrackPointExtension>
        </extensions>
      </trkpt>
      <trkpt lat="56.02480215020477771759033203125" lon="24.17125233449041843414306640625">
        <ele>48.799999237060546875</ele>
        <time>2026-08-01T08:33:42.000Z</time>
        <extensions>
          <ns3:TrackPointExtension>
            <ns3:hr>85</ns3:hr>
            <ns3:cad>59</ns3:cad>
          </ns3:TrackPointExtension>
        </extensions>
      </trkpt>
      <trkpt lat="56.02485009469091892242431640625" lon="24.171449728310108184814453125">
        <ele>49.200000762939453125</ele>
        <time>2026-08-01T08:33:50.000Z</time>
        <extensions>
          <ns3:TrackPointExtension>
            <ns3:hr>87</ns3:hr>
            <ns3:cad>59</ns3:cad>
          </ns3:TrackPointExtension>
        </extensions>
      </trkpt>
      <trkpt lat="56.02489233948290348052978515625" lon="24.17160018347203731536865234375">
        <ele>49.40000152587890625</ele>
        <time>2026-08-01T08:33:57.000Z</time>
        <extensions>
          <ns3:TrackPointExtension>
            <ns3:hr>89</ns3:hr>
            <ns3:cad>59</ns3:cad>
          </ns3:TrackPointExtension>
        </extensions>
      </trkpt>
      <trkpt lat="56.02490155957639217376708984375" lon="24.17166070081293582916259765625">
        <ele>49.799999237060546875</ele>
        <time>2026-08-01T08:34:03.000Z</time>
        <extensions>
          <ns3:TrackPointExtension>
            <ns3:hr>90</ns3:hr>
            <ns3:cad>0</ns3:cad>
          </ns3:TrackPointExtension>
        </extensions>
      </trkpt>
      <trkpt lat="56.02493114769458770751953125" lon="24.1717900335788726806640625">
        <ele>49.40000152587890625</ele>
        <time>2026-08-01T08:34:09.000Z</time>
        <extensions>
          <ns3:TrackPointExtension>
            <ns3:hr>90</ns3:hr>
            <ns3:cad>57</ns3:cad>
          </ns3:TrackPointExtension>
        </extensions>
      </trkpt>
      <trkpt lat="56.0249678604304790496826171875" lon="24.17191400192677974700927734375">
        <ele>49.59999847412109375</ele>
        <time>2026-08-01T08:34:15.000Z</time>
        <extensions>
          <ns3:TrackPointExtension>
            <ns3:hr>93</ns3:hr>
            <ns3:cad>58</ns3:cad>
          </ns3:TrackPointExtension>
        </extensions>
      </trkpt>
      <trkpt lat="56.02498487569391727447509765625" lon="24.17194400914013385772705078125">
        <ele>49.799999237060546875</ele>
        <time>2026-08-01T08:34:17.000Z</time>
        <extensions>
          <ns3:TrackPointExtension>
            <ns3:hr>94</ns3:hr>
            <ns3:cad>58</ns3:cad>
          </ns3:TrackPointExtension>
        </extensions>
      </trkpt>
      <trkpt lat="56.02498856373131275177001953125" lon="24.1719496250152587890625">
        <ele>50</ele>
        <time>2026-08-01T08:34:18.000Z</time>
        <extensions>
          <ns3:TrackPointExtension>
            <ns3:hr>95</ns3:hr>
            <ns3:cad>58</ns3:cad>
          </ns3:TrackPointExtension>
        </extensions>
      </trkpt>
      <trkpt lat="56.0250161401927471160888671875" lon="24.17204677127301692962646484375">
        <ele>50</ele>
        <time>2026-08-01T08:34:24.000Z</time>
        <extensions>
          <ns3:TrackPointExtension>
            <ns3:hr>96</ns3:hr>
            <ns3:cad>0</ns3:cad>
          </ns3:TrackPointExtension>
        </extensions>
      </trkpt>
      <trkpt lat="56.02509551681578159332275390625" lon="24.1723155789077281951904296875">
        <ele>50</ele>
        <time>2026-08-01T08:34:36.000Z</time>
        <extensions>
          <ns3:TrackPointExtension>
            <ns3:hr>97</ns3:hr>
            <ns3:cad>59</ns3:cad>
          </ns3:TrackPointExtension>
        </extensions>
      </trkpt>
      <trkpt lat="56.0251663438975811004638671875" lon="24.1725807823240756988525390625">
        <ele>50.200000762939453125</ele>
        <time>2026-08-01T08:34:46.000Z</time>
        <extensions>
          <ns3:TrackPointExtension>
            <ns3:hr>94</ns3:hr>
            <ns3:cad>59</ns3:cad>
          </ns3:TrackPointExtension>
        </extensions>
      </trkpt>
      <trkpt lat="56.02517195977270603179931640625" lon="24.1726022399961948394775390625">
        <ele>50.200000762939453125</ele>
        <time>2026-08-01T08:34:47.000Z</time>
        <extensions>
          <ns3:TrackPointExtension>
            <ns3:hr>95</ns3:hr>
            <ns3:cad>59</ns3:cad>
          </ns3:TrackPointExtension>
        </extensions>
      </trkpt>
      <trkpt lat="56.025237925350666046142578125" lon="24.17284439317882061004638671875">
        <ele>50.200000762939453125</ele>
        <time>2026-08-01T08:34:57.000Z</time>
        <extensions>
          <ns3:TrackPointExtension>
            <ns3:hr>94</ns3:hr>
            <ns3:cad>59</ns3:cad>
          </ns3:TrackPointExtension>
        </extensions>
      </trkpt>
      <trkpt lat="56.0253118537366390228271484375" lon="24.17309425771236419677734375">
        <ele>50.40000152587890625</ele>
        <time>2026-08-01T08:35:08.000Z</time>
        <extensions>
          <ns3:TrackPointExtension>
            <ns3:hr>97</ns3:hr>
            <ns3:cad>59</ns3:cad>
          </ns3:TrackPointExtension>
        </extensions>
      </trkpt>
      <trkpt lat="56.0253735445439815521240234375" lon="24.17329399846494197845458984375">
        <ele>50.799999237060546875</ele>
        <time>2026-08-01T08:35:16.000Z</time>
        <extensions>
          <ns3:TrackPointExtension>
            <ns3:hr>95</ns3:hr>
            <ns3:cad>59</ns3:cad>
          </ns3:TrackPointExtension>
        </extensions>
      </trkpt>
      <trkpt lat="56.025411598384380340576171875" lon="24.17340095154941082000732421875">
        <ele>50.799999237060546875</ele>
        <time>2026-08-01T08:35:21.000Z</time>
        <extensions>
          <ns3:TrackPointExtension>
            <ns3:hr>95</ns3:hr>
            <ns3:cad>59</ns3:cad>
          </ns3:TrackPointExtension>
        </extensions>
      </trkpt>
      <trkpt lat="56.02544738911092281341552734375" lon="24.17352668009698390960693359375">
        <ele>50.799999237060546875</ele>
        <time>2026-08-01T08:35:26.000Z</time>
        <extensions>
          <ns3:TrackPointExtension>
            <ns3:hr>95</ns3:hr>
            <ns3:cad>59</ns3:cad>
          </ns3:TrackPointExtension>
        </extensions>
      </trkpt>
      <trkpt lat="56.02549751289188861846923828125" lon="24.1736727766692638397216796875">
        <ele>50.799999237060546875</ele>
        <time>2026-08-01T08:35:33.000Z</time>
        <extensions>
          <ns3:TrackPointExtension>
            <ns3:hr>96</ns3:hr>
            <ns3:cad>58</ns3:cad>
          </ns3:TrackPointExtension>
        </extensions>
      </trkpt>
      <trkpt lat="56.0255138576030731201171875" lon="24.17366967536509037017822265625">
        <ele>50.799999237060546875</ele>
        <time>2026-08-01T08:35:34.000Z</time>
        <extensions>
          <ns3:TrackPointExtension>
            <ns3:hr>96</ns3:hr>
            <ns3:cad>58</ns3:cad>
          </ns3:TrackPointExtension>
        </extensions>
      </trkpt>
      <trkpt lat="56.02555970661342144012451171875" lon="24.17363329790532588958740234375">
        <ele>50.59999847412109375</ele>
        <time>2026-08-01T08:35:38.000Z</time>
        <extensions>
          <ns3:TrackPointExtension>
            <ns3:hr>95</ns3:hr>
            <ns3:cad>58</ns3:cad>
          </ns3:TrackPointExtension>
        </extensions>
      </trkpt>
      <trkpt lat="56.02562776766717433929443359375" lon="24.1735656559467315673828125">
        <ele>51.200000762939453125</ele>
        <time>2026-08-01T08:35:46.000Z</time>
        <extensions>
          <ns3:TrackPointExtension>
            <ns3:hr>96</ns3:hr>
            <ns3:cad>0</ns3:cad>
          </ns3:TrackPointExtension>
        </extensions>
      </trkpt>
      <trkpt lat="56.02563128806650638580322265625" lon="24.17355752550065517425537109375">
        <ele>51.200000762939453125</ele>
        <time>2026-08-01T08:35:47.000Z</time>
        <extensions>
          <ns3:TrackPointExtension>
            <ns3:hr>95</ns3:hr>
            <ns3:cad>0</ns3:cad>
          </ns3:TrackPointExtension>
        </extensions>
      </trkpt>
      <trkpt lat="56.0256645642220973968505859375" lon="24.17345593683421611785888671875">
        <ele>50.59999847412109375</ele>
        <time>2026-08-01T08:35:52.000Z</time>
        <extensions>
          <ns3:TrackPointExtension>
            <ns3:hr>95</ns3:hr>
            <ns3:cad>0</ns3:cad>
          </ns3:TrackPointExtension>
        </extensions>
      </trkpt>
      <trkpt lat="56.02573505602777004241943359375" lon="24.173276312649250030517578125">
        <ele>50.799999237060546875</ele>
        <time>2026-08-01T08:36:00.000Z</time>
        <extensions>
          <ns3:TrackPointExtension>
            <ns3:hr>95</ns3:hr>
            <ns3:cad>58</ns3:cad>
          </ns3:TrackPointExtension>
        </extensions>
      </trkpt>
      <trkpt lat="56.02583178319036960601806640625" lon="24.17312099598348140716552734375">
        <ele>50.799999237060546875</ele>
        <time>2026-08-01T08:36:09.000Z</time>
        <extensions>
          <ns3:TrackPointExtension>
            <ns3:hr>96</ns3:hr>
            <ns3:cad>57</ns3:cad>
          </ns3:TrackPointExtension>
        </extensions>
      </trkpt>
      <trkpt lat="56.025890372693538665771484375" lon="24.172951765358448028564453125">
        <ele>50.59999847412109375</ele>
        <time>2026-08-01T08:36:17.000Z</time>
        <extensions>
          <ns3:TrackPointExtension>
            <ns3:hr>96</ns3:hr>
            <ns3:cad>58</ns3:cad>
          </ns3:TrackPointExtension>
        </extensions>
      </trkpt>
      <trkpt lat="56.02594091556966304779052734375" lon="24.172772727906703948974609375">
        <ele>50.40000152587890625</ele>
        <time>2026-08-01T08:36:25.000Z</time>
        <extensions>
          <ns3:TrackPointExtension>
            <ns3:hr>92</ns3:hr>
            <ns3:cad>59</ns3:cad>
          </ns3:TrackPointExtension>
        </extensions>
      </trkpt>
      <trkpt lat="56.0259505547583103179931640625" lon="24.17272134684026241302490234375">
        <ele>50.40000152587890625</ele>
        <time>2026-08-01T08:36:27.000Z</time>
        <extensions>
          <ns3:TrackPointExtension>
            <ns3:hr>90</ns3:hr>
            <ns3:cad>59</ns3:cad>
          </ns3:TrackPointExtension>
        </extensions>
      </trkpt>
      <trkpt lat="56.02595868520438671112060546875" lon="24.17262193746864795684814453125">
        <ele>50.200000762939453125</ele>
        <time>2026-08-01T08:36:32.000Z</time>
        <extensions>
          <ns3:TrackPointExtension>
            <ns3:hr>93</ns3:hr>
            <ns3:cad>58</ns3:cad>
          </ns3:TrackPointExtension>
        </extensions>
      </trkpt>
      <trkpt lat="56.025963127613067626953125" lon="24.172561168670654296875">
        <ele>49.799999237060546875</ele>
        <time>2026-08-01T08:36:35.000Z</time>
        <extensions>
          <ns3:TrackPointExtension>
            <ns3:hr>94</ns3:hr>
            <ns3:cad>58</ns3:cad>
          </ns3:TrackPointExtension>
        </extensions>
      </trkpt>
      <trkpt lat="56.025965474545955657958984375" lon="24.17253979481756687164306640625">
        <ele>49.799999237060546875</ele>
        <time>2026-08-01T08:36:36.000Z</time>
        <extensions>
          <ns3:TrackPointExtension>
            <ns3:hr>94</ns3:hr>
            <ns3:cad>58</ns3:cad>
          </ns3:TrackPointExtension>
        </extensions>
      </trkpt>
      <trkpt lat="56.0259968228638172149658203125" lon="24.1722594201564788818359375">
        <ele>50</ele>
        <time>2026-08-01T08:36:47.000Z</time>
        <extensions>
          <ns3:TrackPointExtension>
            <ns3:hr>94</ns3:hr>
            <ns3:cad>59</ns3:cad>
          </ns3:TrackPointExtension>
        </extensions>
      </trkpt>
      <trkpt lat="56.02600327692925930023193359375" lon="24.17212438769638538360595703125">
        <ele>49.799999237060546875</ele>
        <time>2026-08-01T08:36:54.000Z</time>
        <extensions>
          <ns3:TrackPointExtension>
            <ns3:hr>93</ns3:hr>
            <ns3:cad>59</ns3:cad>
          </ns3:TrackPointExtension>
        </extensions>
      </trkpt>
      <trkpt lat="56.02600092999637126922607421875" lon="24.17212036438286304473876953125">
        <ele>49.59999847412109375</ele>
        <time>2026-08-01T08:36:55.000Z</time>
        <extensions>
          <ns3:TrackPointExtension>
            <ns3:hr>93</ns3:hr>
            <ns3:cad>59</ns3:cad>
          </ns3:TrackPointExtension>
        </extensions>
      </trkpt>
      <trkpt lat="56.0259958170354366302490234375" lon="24.17210745625197887420654296875">
        <ele>49.799999237060546875</ele>
        <time>2026-08-01T08:37:01.000Z</time>
        <extensions>
          <ns3:TrackPointExtension>
            <ns3:hr>93</ns3:hr>
            <ns3:cad>0</ns3:cad>
          </ns3:TrackPointExtension>
        </extensions>
      </trkpt>
      <trkpt lat="56.02599690668284893035888671875" lon="24.1721013374626636505126953125">
        <ele>49.799999237060546875</ele>
        <time>2026-08-01T08:37:02.000Z</time>
        <extensions>
          <ns3:TrackPointExtension>
            <ns3:hr>93</ns3:hr>
            <ns3:cad>0</ns3:cad>
          </ns3:TrackPointExtension>
        </extensions>
      </trkpt>
      <trkpt lat="56.02600512094795703887939453125" lon="24.17207099497318267822265625">
        <ele>49.59999847412109375</ele>
        <time>2026-08-01T08:37:07.000Z</time>
        <extensions>
          <ns3:TrackPointExtension>
            <ns3:hr>92</ns3:hr>
            <ns3:cad>0</ns3:cad>
          </ns3:TrackPointExtension>
        </extensions>
      </trkpt>
      <trkpt lat="56.02601367048919200897216796875" lon="24.1720877587795257568359375">
        <ele>49.59999847412109375</ele>
        <time>2026-08-01T08:37:15.000Z</time>
        <extensions>
          <ns3:TrackPointExtension>
            <ns3:hr>91</ns3:hr>
            <ns3:cad>0</ns3:cad>
          </ns3:TrackPointExtension>
        </extensions>
      </trkpt>
      <trkpt lat="56.026017777621746063232421875" lon="24.1720584221184253692626953125">
        <ele>49.200000762939453125</ele>
        <time>2026-08-01T08:37:29.000Z</time>
        <extensions>
          <ns3:TrackPointExtension>
            <ns3:hr>89</ns3:hr>
            <ns3:cad>0</ns3:cad>
          </ns3:TrackPointExtension>
        </extensions>
      </trkpt>
      <trkpt lat="56.02603345178067684173583984375" lon="24.17191215790808200836181640625">
        <ele>49.200000762939453125</ele>
        <time>2026-08-01T08:37:37.000Z</time>
        <extensions>
          <ns3:TrackPointExtension>
            <ns3:hr>90</ns3:hr>
            <ns3:cad>57</ns3:cad>
          </ns3:TrackPointExtension>
        </extensions>
      </trkpt>
      <trkpt lat="56.026039905846118927001953125" lon="24.17182289063930511474609375">
        <ele>49.200000762939453125</ele>
        <time>2026-08-01T08:37:43.000Z</time>
        <extensions>
          <ns3:TrackPointExtension>
            <ns3:hr>90</ns3:hr>
            <ns3:cad>0</ns3:cad>
          </ns3:TrackPointExtension>
        </extensions>
      </trkpt>
      <trkpt lat="56.02605625055730342864990234375" lon="24.17154285125434398651123046875">
        <ele>49.200000762939453125</ele>
        <time>2026-08-01T08:37:53.000Z</time>
        <extensions>
          <ns3:TrackPointExtension>
            <ns3:hr>89</ns3:hr>
            <ns3:cad>59</ns3:cad>
          </ns3:TrackPointExtension>
        </extensions>
      </trkpt>
      <trkpt lat="56.0260709188878536224365234375" lon="24.17144327424466609954833984375">
        <ele>49</ele>
        <time>2026-08-01T08:38:01.000Z</time>
        <extensions>
          <ns3:TrackPointExtension>
            <ns3:hr>91</ns3:hr>
            <ns3:cad>0</ns3:cad>
          </ns3:TrackPointExtension>
        </extensions>
      </trkpt>
      <trkpt lat="56.02605155669152736663818359375" lon="24.1716064698994159698486328125">
        <ele>49.40000152587890625</ele>
        <time>2026-08-01T08:38:08.000Z</time>
        <extensions>
          <ns3:TrackPointExtension>
            <ns3:hr>90</ns3:hr>
            <ns3:cad>55</ns3:cad>
          </ns3:TrackPointExtension>
        </extensions>
      </trkpt>
      <trkpt lat="56.02602993138134479522705078125" lon="24.1718592680990695953369140625">
        <ele>49.40000152587890625</ele>
        <time>2026-08-01T08:38:19.000Z</time>
        <extensions>
          <ns3:TrackPointExtension>
            <ns3:hr>92</ns3:hr>
            <ns3:cad>56</ns3:cad>
          </ns3:TrackPointExtension>
        </extensions>
      </trkpt>
      <trkpt lat="56.0261067934334278106689453125" lon="24.17197703383862972259521484375">
        <ele>49.799999237060546875</ele>
        <time>2026-08-01T08:38:27.000Z</time>
        <extensions>
          <ns3:TrackPointExtension>
            <ns3:hr>93</ns3:hr>
            <ns3:cad>57</ns3:cad>
          </ns3:TrackPointExtension>
        </extensions>
      </trkpt>
      <trkpt lat="56.02623864077031612396240234375" lon="24.17200352065265178680419921875">
        <ele>50</ele>
        <time>2026-08-01T08:38:36.000Z</time>
        <extensions>
          <ns3:TrackPointExtension>
            <ns3:hr>94</ns3:hr>
            <ns3:cad>57</ns3:cad>
          </ns3:TrackPointExtension>
        </extensions>
      </trkpt>
      <trkpt lat="56.0263931192457675933837890625" lon="24.172081388533115386962890625">
        <ele>50</ele>
        <time>2026-08-01T08:38:48.000Z</time>
        <extensions>
          <ns3:TrackPointExtension>
            <ns3:hr>96</ns3:hr>
            <ns3:cad>57</ns3:cad>
          </ns3:TrackPointExtension>
        </extensions>
      </trkpt>
      <trkpt lat="56.02650535292923450469970703125" lon="24.17214634828269481658935546875">
        <ele>49.40000152587890625</ele>
        <time>2026-08-01T08:38:57.000Z</time>
        <extensions>
          <ns3:TrackPointExtension>
            <ns3:hr>96</ns3:hr>
            <ns3:cad>56</ns3:cad>
          </ns3:TrackPointExtension>
        </extensions>
      </trkpt>
      <trkpt lat="56.02661817334592342376708984375" lon="24.17219680733978748321533203125">
        <ele>49.59999847412109375</ele>
        <time>2026-08-01T08:39:05.000Z</time>
        <extensions>
          <ns3:TrackPointExtension>
            <ns3:hr>96</ns3:hr>
            <ns3:cad>57</ns3:cad>
          </ns3:TrackPointExtension>
        </extensions>
      </trkpt>
      <trkpt lat="56.0266807861626148223876953125" lon="24.1721952147781848907470703125">
        <ele>49.200000762939453125</ele>
        <time>2026-08-01T08:39:13.000Z</time>
        <extensions>
          <ns3:TrackPointExtension>
            <ns3:hr>94</ns3:hr>
            <ns3:cad>0</ns3:cad>
          </ns3:TrackPointExtension>
        </extensions>
      </trkpt>
      <trkpt lat="56.02669738233089447021484375" lon="24.172240309417247772216796875">
        <ele>49.200000762939453125</ele>
        <time>2026-08-01T08:39:22.000Z</time>
        <extensions>
          <ns3:TrackPointExtension>
            <ns3:hr>94</ns3:hr>
            <ns3:cad>0</ns3:cad>
          </ns3:TrackPointExtension>
        </extensions>
      </trkpt>
      <trkpt lat="56.02669612504541873931884765625" lon="24.17224072851240634918212890625">
        <ele>49.40000152587890625</ele>
        <time>2026-08-01T08:39:29.000Z</time>
        <extensions>
          <ns3:TrackPointExtension>
            <ns3:hr>98</ns3:hr>
            <ns3:cad>0</ns3:cad>
          </ns3:TrackPointExtension>
        </extensions>
      </trkpt>
      <trkpt lat="56.026693023741245269775390625" lon="24.1722406446933746337890625">
        <ele>49.59999847412109375</ele>
        <time>2026-08-01T08:39:30.000Z</time>
        <extensions>
          <ns3:TrackPointExtension>
            <ns3:hr>105</ns3:hr>
            <ns3:cad>0</ns3:cad>
          </ns3:TrackPointExtension>
        </extensions>
      </trkpt>
      <trkpt lat="56.026689000427722930908203125" lon="24.17224659584462642669677734375">
        <ele>49.59999847412109375</ele>
        <time>2026-08-01T08:39:31.000Z</time>
        <extensions>
          <ns3:TrackPointExtension>
            <ns3:hr>127</ns3:hr>
            <ns3:cad>0</ns3:cad>
          </ns3:TrackPointExtension>
        </extensions>
      </trkpt>
      <trkpt lat="56.02668539620935916900634765625" lon="24.17225112207233905792236328125">
        <ele>49.799999237060546875</ele>
        <time>2026-08-01T08:39:32.000Z</time>
        <extensions>
          <ns3:TrackPointExtension>
            <ns3:hr>135</ns3:hr>
            <ns3:cad>0</ns3:cad>
          </ns3:TrackPointExtension>
        </extensions>
      </trkpt>
      <trkpt lat="56.02668221108615398406982421875" lon="24.1722528822720050811767578125">
        <ele>49.799999237060546875</ele>
        <time>2026-08-01T08:39:33.000Z</time>
        <extensions>
          <ns3:TrackPointExtension>
            <ns3:hr>135</ns3:hr>
            <ns3:cad>0</ns3:cad>
          </ns3:TrackPointExtension>
        </extensions>
      </trkpt>
      <trkpt lat="56.026707775890827178955078125" lon="24.172234274446964263916015625">
        <ele>49.40000152587890625</ele>
        <time>2026-08-01T08:39:40.000Z</time>
        <extensions>
          <ns3:TrackPointExtension>
            <ns3:hr>136</ns3:hr>
            <ns3:cad>0</ns3:cad>
          </ns3:TrackPointExtension>
        </extensions>
      </trkpt>
      <trkpt lat="56.02680123411118984222412109375" lon="24.1722411476075649261474609375">
        <ele>49.200000762939453125</ele>
        <time>2026-08-01T08:39:48.000Z</time>
        <extensions>
          <ns3:TrackPointExtension>
            <ns3:hr>135</ns3:hr>
            <ns3:cad>57</ns3:cad>
          </ns3:TrackPointExtension>
        </extensions>
      </trkpt>
      <trkpt lat="56.0269127972424030303955078125" lon="24.17225665412843227386474609375">
        <ele>49.200000762939453125</ele>
        <time>2026-08-01T08:39:55.000Z</time>
        <extensions>
          <ns3:TrackPointExtension>
            <ns3:hr>135</ns3:hr>
            <ns3:cad>57</ns3:cad>
          </ns3:TrackPointExtension>
        </extensions>
      </trkpt>
      <trkpt lat="56.02700541727244853973388671875" lon="24.17228783480823040008544921875">
        <ele>49.40000152587890625</ele>
        <time>2026-08-01T08:40:02.000Z</time>
        <extensions>
          <ns3:TrackPointExtension>
            <ns3:hr>132</ns3:hr>
            <ns3:cad>57</ns3:cad>
          </ns3:TrackPointExtension>
        </extensions>
      </trkpt>
      <trkpt lat="56.027100048959255218505859375" lon="24.17231775820255279541015625">
        <ele>49.40000152587890625</ele>
        <time>2026-08-01T08:40:09.000Z</time>
        <extensions>
          <ns3:TrackPointExtension>
            <ns3:hr>132</ns3:hr>
            <ns3:cad>59</ns3:cad>
          </ns3:TrackPointExtension>
        </extensions>
      </trkpt>
      <trkpt lat="56.02718747220933437347412109375" lon="24.172326810657978057861328125">
        <ele>49.59999847412109375</ele>
        <time>2026-08-01T08:40:16.000Z</time>
        <extensions>
          <ns3:TrackPointExtension>
            <ns3:hr>133</ns3:hr>
            <ns3:cad>56</ns3:cad>
          </ns3:TrackPointExtension>
        </extensions>
      </trkpt>
      <trkpt lat="56.0273117758333683013916015625" lon="24.1723544709384441375732421875">
        <ele>49.59999847412109375</ele>
        <time>2026-08-01T08:40:24.000Z</time>
        <extensions>
          <ns3:TrackPointExtension>
            <ns3:hr>134</ns3:hr>
            <ns3:cad>56</ns3:cad>
          </ns3:TrackPointExtension>
        </extensions>
      </trkpt>
      <trkpt lat="56.0274262726306915283203125" lon="24.1723801195621490478515625">
        <ele>49.59999847412109375</ele>
        <time>2026-08-01T08:40:32.000Z</time>
        <extensions>
          <ns3:TrackPointExtension>
            <ns3:hr>132</ns3:hr>
            <ns3:cad>56</ns3:cad>
          </ns3:TrackPointExtension>
        </extensions>
      </trkpt>
      <trkpt lat="56.02754403837025165557861328125" lon="24.1724104620516300201416015625">
        <ele>49.59999847412109375</ele>
        <time>2026-08-01T08:40:41.000Z</time>
        <extensions>
          <ns3:TrackPointExtension>
            <ns3:hr>132</ns3:hr>
            <ns3:cad>57</ns3:cad>
          </ns3:TrackPointExtension>
        </extensions>
      </trkpt>
      <trkpt lat="56.0275997780263423919677734375" lon="24.17239579372107982635498046875">
        <ele>50</ele>
        <time>2026-08-01T08:40:49.000Z</time>
        <extensions>
          <ns3:TrackPointExtension>
            <ns3:hr>131</ns3:hr>
            <ns3:cad>0</ns3:cad>
          </ns3:TrackPointExtension>
        </extensions>
      </trkpt>
      <trkpt lat="56.02767077274620532989501953125" lon="24.17242999188601970672607421875">
        <ele>49.59999847412109375</ele>
        <time>2026-08-01T08:40:54.000Z</time>
        <extensions>
          <ns3:TrackPointExtension>
            <ns3:hr>128</ns3:hr>
            <ns3:cad>54</ns3:cad>
          </ns3:TrackPointExtension>
        </extensions>
      </trkpt>
      <trkpt lat="56.02768284268677234649658203125" lon="24.172440133988857269287109375">
        <ele>49.59999847412109375</ele>
        <time>2026-08-01T08:40:55.000Z</time>
        <extensions>
          <ns3:TrackPointExtension>
            <ns3:hr>128</ns3:hr>
            <ns3:cad>55</ns3:cad>
          </ns3:TrackPointExtension>
        </extensions>
      </trkpt>
      <trkpt lat="56.02773363701999187469482421875" lon="24.17246385477483272552490234375">
        <ele>49.799999237060546875</ele>
        <time>2026-08-01T08:40:59.000Z</time>
        <extensions>
          <ns3:TrackPointExtension>
            <ns3:hr>125</ns3:hr>
            <ns3:cad>57</ns3:cad>
          </ns3:TrackPointExtension>
        </extensions>
      </trkpt>
      <trkpt lat="56.0277580283582210540771484375" lon="24.172432087361812591552734375">
        <ele>49.799999237060546875</ele>
        <time>2026-08-01T08:41:02.000Z</time>
        <extensions>
          <ns3:TrackPointExtension>
            <ns3:hr>125</ns3:hr>
            <ns3:cad>56</ns3:cad>
          </ns3:TrackPointExtension>
        </extensions>
      </trkpt>
      <trkpt lat="56.027812846004962921142578125" lon="24.172328151762485504150390625">
        <ele>49.799999237060546875</ele>
        <time>2026-08-01T08:41:08.000Z</time>
        <extensions>
          <ns3:TrackPointExtension>
            <ns3:hr>125</ns3:hr>
            <ns3:cad>54</ns3:cad>
          </ns3:TrackPointExtension>
        </extensions>
      </trkpt>
      <trkpt lat="56.027865149080753326416015625" lon="24.1720958054065704345703125">
        <ele>49.59999847412109375</ele>
        <time>2026-08-01T08:41:18.000Z</time>
        <extensions>
          <ns3:TrackPointExtension>
            <ns3:hr>125</ns3:hr>
            <ns3:cad>56</ns3:cad>
          </ns3:TrackPointExtension>
        </extensions>
      </trkpt>
      <trkpt lat="56.02788300253450870513916015625" lon="24.1719233058393001556396484375">
        <ele>49.59999847412109375</ele>
        <time>2026-08-01T08:41:25.000Z</time>
        <extensions>
          <ns3:TrackPointExtension>
            <ns3:hr>127</ns3:hr>
            <ns3:cad>57</ns3:cad>
          </ns3:TrackPointExtension>
        </extensions>
      </trkpt>
      <trkpt lat="56.02791317738592624664306640625" lon="24.17168836109340190887451171875">
        <ele>49.59999847412109375</ele>
        <time>2026-08-01T08:41:35.000Z</time>
        <extensions>
          <ns3:TrackPointExtension>
            <ns3:hr>127</ns3:hr>
            <ns3:cad>56</ns3:cad>
          </ns3:TrackPointExtension>
        </extensions>
      </trkpt>
      <trkpt lat="56.02794217877089977264404296875" lon="24.1714706830680370330810546875">
        <ele>49.40000152587890625</ele>
        <time>2026-08-01T08:41:43.000Z</time>
        <extensions>
          <ns3:TrackPointExtension>
            <ns3:hr>126</ns3:hr>
            <ns3:cad>58</ns3:cad>
          </ns3:TrackPointExtension>
        </extensions>
      </trkpt>
      <trkpt lat="56.02795475162565708160400390625" lon="24.17129407636821269989013671875">
        <ele>49.40000152587890625</ele>
        <time>2026-08-01T08:41:50.000Z</time>
        <extensions>
          <ns3:TrackPointExtension>
            <ns3:hr>127</ns3:hr>
            <ns3:cad>57</ns3:cad>
          </ns3:TrackPointExtension>
        </extensions>
      </trkpt>
      <trkpt lat="56.027977131307125091552734375" lon="24.1711317189037799835205078125">
        <ele>49</ele>
        <time>2026-08-01T08:41:57.000Z</time>
        <extensions>
          <ns3:TrackPointExtension>
            <ns3:hr>126</ns3:hr>
            <ns3:cad>58</ns3:cad>
          </ns3:TrackPointExtension>
        </extensions>
      </trkpt>
      <trkpt lat="56.02796950377523899078369140625" lon="24.17110942304134368896484375">
        <ele>49</ele>
        <time>2026-08-01T08:41:59.000Z</time>
        <extensions>
          <ns3:TrackPointExtension>
            <ns3:hr>127</ns3:hr>
            <ns3:cad>57</ns3:cad>
          </ns3:TrackPointExtension>
        </extensions>
      </trkpt>
      <trkpt lat="56.02796833030879497528076171875" lon="24.17108100838959217071533203125">
        <ele>49.200000762939453125</ele>
        <time>2026-08-01T08:42:03.000Z</time>
        <extensions>
          <ns3:TrackPointExtension>
            <ns3:hr>127</ns3:hr>
            <ns3:cad>57</ns3:cad>
          </ns3:TrackPointExtension>
        </extensions>
      </trkpt>
      <trkpt lat="56.02796070277690887451171875" lon="24.17107966728508472442626953125">
        <ele>49.200000762939453125</ele>
        <time>2026-08-01T08:42:12.000Z</time>
        <extensions>
          <ns3:TrackPointExtension>
            <ns3:hr>130</ns3:hr>
            <ns3:cad>0</ns3:cad>
          </ns3:TrackPointExtension>
        </extensions>
      </trkpt>
      <trkpt lat="56.02796078659594058990478515625" lon="24.17108670808374881744384765625">
        <ele>49.200000762939453125</ele>
        <time>2026-08-01T08:42:15.000Z</time>
        <extensions>
          <ns3:TrackPointExtension>
            <ns3:hr>132</ns3:hr>
            <ns3:cad>0</ns3:cad>
          </ns3:TrackPointExtension>
        </extensions>
      </trkpt>
      <trkpt lat="56.0279575176537036895751953125" lon="24.17109274305403232574462890625">
        <ele>49</ele>
        <time>2026-08-01T08:42:17.000Z</time>
        <extensions>
          <ns3:TrackPointExtension>
            <ns3:hr>137</ns3:hr>
            <ns3:cad>0</ns3:cad>
          </ns3:TrackPointExtension>
        </extensions>
      </trkpt>
      <trkpt lat="56.0279461182653903961181640625" lon="24.1711166314780712127685546875">
        <ele>49</ele>
        <time>2026-08-01T08:42:22.000Z</time>
        <extensions>
          <ns3:TrackPointExtension>
            <ns3:hr>140</ns3:hr>
            <ns3:cad>0</ns3:cad>
          </ns3:TrackPointExtension>
        </extensions>
      </trkpt>
      <trkpt lat="56.027953326702117919921875" lon="24.17111814022064208984375">
        <ele>48.799999237060546875</ele>
        <time>2026-08-01T08:42:27.000Z</time>
        <extensions>
          <ns3:TrackPointExtension>
            <ns3:hr>139</ns3:hr>
            <ns3:cad>0</ns3:cad>
          </ns3:TrackPointExtension>
        </extensions>
      </trkpt>
      <trkpt lat="56.02798442356288433074951171875" lon="24.1709788329899311065673828125">
        <ele>49</ele>
        <time>2026-08-01T08:42:34.000Z</time>
        <extensions>
          <ns3:TrackPointExtension>
            <ns3:hr>139</ns3:hr>
            <ns3:cad>57</ns3:cad>
          </ns3:TrackPointExtension>
        </extensions>
      </trkpt>
      <trkpt lat="56.02799934335052967071533203125" lon="24.1708792559802532196044921875">
        <ele>48.799999237060546875</ele>
        <time>2026-08-01T08:42:38.000Z</time>
        <extensions>
          <ns3:TrackPointExtension>
            <ns3:hr>139</ns3:hr>
            <ns3:cad>56</ns3:cad>
          </ns3:TrackPointExtension>
        </extensions>
      </trkpt>
      <trkpt lat="56.02801845408976078033447265625" lon="24.17074824683368206024169921875">
        <ele>48.40000152587890625</ele>
        <time>2026-08-01T08:42:43.000Z</time>
        <extensions>
          <ns3:TrackPointExtension>
            <ns3:hr>140</ns3:hr>
            <ns3:cad>57</ns3:cad>
          </ns3:TrackPointExtension>
        </extensions>
      </trkpt>
      <trkpt lat="56.02805550210177898406982421875" lon="24.1705215163528919219970703125">
        <ele>48</ele>
        <time>2026-08-01T08:42:53.000Z</time>
        <extensions>
          <ns3:TrackPointExtension>
            <ns3:hr>139</ns3:hr>
            <ns3:cad>56</ns3:cad>
          </ns3:TrackPointExtension>
        </extensions>
      </trkpt>
      <trkpt lat="56.0281315259635448455810546875" lon="24.17042705230414867401123046875">
        <ele>47.799999237060546875</ele>
        <time>2026-08-01T08:43:00.000Z</time>
        <extensions>
          <ns3:TrackPointExtension>
            <ns3:hr>141</ns3:hr>
            <ns3:cad>58</ns3:cad>
          </ns3:TrackPointExtension>
        </extensions>
      </trkpt>
      <trkpt lat="56.0281891934573650360107421875" lon="24.17036511003971099853515625">
        <ele>47.799999237060546875</ele>
        <time>2026-08-01T08:43:04.000Z</time>
        <extensions>
          <ns3:TrackPointExtension>
            <ns3:hr>144</ns3:hr>
            <ns3:cad>56</ns3:cad>
          </ns3:TrackPointExtension>
        </extensions>
      </trkpt>
      <trkpt lat="56.028213165700435638427734375" lon="24.1703669540584087371826171875">
        <ele>47.59999847412109375</ele>
        <time>2026-08-01T08:43:06.000Z</time>
        <extensions>
          <ns3:TrackPointExtension>
            <ns3:hr>145</ns3:hr>
            <ns3:cad>55</ns3:cad>
          </ns3:TrackPointExtension>
        </extensions>
      </trkpt>
      <trkpt lat="56.02823018096387386322021484375" lon="24.17036779224872589111328125">
        <ele>47.59999847412109375</ele>
        <time>2026-08-01T08:43:07.000Z</time>
        <extensions>
          <ns3:TrackPointExtension>
            <ns3:hr>145</ns3:hr>
            <ns3:cad>55</ns3:cad>
          </ns3:TrackPointExtension>
        </extensions>
      </trkpt>
      <trkpt lat="56.0283484496176242828369140625" lon="24.17036435566842555999755859375">
        <ele>47.59999847412109375</ele>
        <time>2026-08-01T08:43:15.000Z</time>
        <extensions>
          <ns3:TrackPointExtension>
            <ns3:hr>145</ns3:hr>
            <ns3:cad>57</ns3:cad>
          </ns3:TrackPointExtension>
        </extensions>
      </trkpt>
      <trkpt lat="56.0284782014787197113037109375" lon="24.17035664431750774383544921875">
        <ele>47.40000152587890625</ele>
        <time>2026-08-01T08:43:24.000Z</time>
        <extensions>
          <ns3:TrackPointExtension>
            <ns3:hr>147</ns3:hr>
            <ns3:cad>57</ns3:cad>
          </ns3:TrackPointExtension>
        </extensions>
      </trkpt>
      <trkpt lat="56.02852254174649715423583984375" lon="24.1703790239989757537841796875">
        <ele>48.799999237060546875</ele>
        <time>2026-08-01T08:43:28.000Z</time>
        <extensions>
          <ns3:TrackPointExtension>
            <ns3:hr>147</ns3:hr>
            <ns3:cad>57</ns3:cad>
          </ns3:TrackPointExtension>
        </extensions>
      </trkpt>
      <trkpt lat="56.02854399941861629486083984375" lon="24.17036108672618865966796875">
        <ele>49.59999847412109375</ele>
        <time>2026-08-01T08:43:31.000Z</time>
        <extensions>
          <ns3:TrackPointExtension>
            <ns3:hr>146</ns3:hr>
            <ns3:cad>56</ns3:cad>
          </ns3:TrackPointExtension>
        </extensions>
      </trkpt>
      <trkpt lat="56.02855120785534381866455078125" lon="24.17033082805573940277099609375">
        <ele>49.799999237060546875</ele>
        <time>2026-08-01T08:43:33.000Z</time>
        <extensions>
          <ns3:TrackPointExtension>
            <ns3:hr>146</ns3:hr>
            <ns3:cad>0</ns3:cad>
          </ns3:TrackPointExtension>
        </extensions>
      </trkpt>
      <trkpt lat="56.02855808101594448089599609375" lon="24.1703040897846221923828125">
        <ele>49.799999237060546875</ele>
        <time>2026-08-01T08:43:35.000Z</time>
        <extensions>
          <ns3:TrackPointExtension>
            <ns3:hr>146</ns3:hr>
            <ns3:cad>0</ns3:cad>
          </ns3:TrackPointExtension>
        </extensions>
      </trkpt>
      <trkpt lat="56.0285573266446590423583984375" lon="24.17029495351016521453857421875">
        <ele>50.200000762939453125</ele>
        <time>2026-08-01T08:43:39.000Z</time>
        <extensions>
          <ns3:TrackPointExtension>
            <ns3:hr>147</ns3:hr>
            <ns3:cad>0</ns3:cad>
          </ns3:TrackPointExtension>
        </extensions>
      </trkpt>
      <trkpt lat="56.02854919619858264923095703125" lon="24.17029461823403835296630859375">
        <ele>49.799999237060546875</ele>
        <time>2026-08-01T08:43:44.000Z</time>
        <extensions>
          <ns3:TrackPointExtension>
            <ns3:hr>143</ns3:hr>
            <ns3:cad>0</ns3:cad>
          </ns3:TrackPointExtension>
        </extensions>
      </trkpt>
      <trkpt lat="56.02854902856051921844482421875" lon="24.1702861525118350982666015625">
        <ele>50.200000762939453125</ele>
        <time>2026-08-01T08:43:48.000Z</time>
        <extensions>
          <ns3:TrackPointExtension>
            <ns3:hr>141</ns3:hr>
            <ns3:cad>0</ns3:cad>
          </ns3:TrackPointExtension>
        </extensions>
      </trkpt>
      <trkpt lat="56.02855741046369075775146484375" lon="24.170282967388629913330078125">
        <ele>49.799999237060546875</ele>
        <time>2026-08-01T08:43:55.000Z</time>
        <extensions>
          <ns3:TrackPointExtension>
            <ns3:hr>143</ns3:hr>
            <ns3:cad>0</ns3:cad>
          </ns3:TrackPointExtension>
        </extensions>
      </trkpt>
      <trkpt lat="56.02856176905333995819091796875" lon="24.17029495351016521453857421875">
        <ele>49.799999237060546875</ele>
        <time>2026-08-01T08:43:59.000Z</time>
        <extensions>
          <ns3:TrackPointExtension>
            <ns3:hr>146</ns3:hr>
            <ns3:cad>0</ns3:cad>
          </ns3:TrackPointExtension>
        </extensions>
      </trkpt>
      <trkpt lat="56.02856361307203769683837890625" lon="24.170293025672435760498046875">
        <ele>49.799999237060546875</ele>
        <time>2026-08-01T08:44:03.000Z</time>
        <extensions>
          <ns3:TrackPointExtension>
            <ns3:hr>146</ns3:hr>
            <ns3:cad>0</ns3:cad>
          </ns3:TrackPointExtension>
        </extensions>
      </trkpt>
      <trkpt lat="56.02856780402362346649169921875" lon="24.170187413692474365234375">
        <ele>49.40000152587890625</ele>
        <time>2026-08-01T08:44:14.000Z</time>
        <extensions>
          <ns3:TrackPointExtension>
            <ns3:hr>145</ns3:hr>
            <ns3:cad>0</ns3:cad>
          </ns3:TrackPointExtension>
        </extensions>
      </trkpt>
      <trkpt lat="56.0285851545631885528564453125" lon="24.1701044328510761260986328125">
        <ele>49.59999847412109375</ele>
        <time>2026-08-01T08:44:22.000Z</time>
        <extensions>
          <ns3:TrackPointExtension>
            <ns3:hr>143</ns3:hr>
            <ns3:cad>0</ns3:cad>
          </ns3:TrackPointExtension>
        </extensions>
      </trkpt>
      <trkpt lat="56.0285814665257930755615234375" lon="24.1701054386794567108154296875">
        <ele>49.59999847412109375</ele>
        <time>2026-08-01T08:44:29.000Z</time>
        <extensions>
          <ns3:TrackPointExtension>
            <ns3:hr>140</ns3:hr>
            <ns3:cad>0</ns3:cad>
          </ns3:TrackPointExtension>
        </extensions>
      </trkpt>
      <trkpt lat="56.02857819758355617523193359375" lon="24.17010351084172725677490234375">
        <ele>49.59999847412109375</ele>
        <time>2026-08-01T08:44:31.000Z</time>
        <extensions>
          <ns3:TrackPointExtension>
            <ns3:hr>136</ns3:hr>
            <ns3:cad>0</ns3:cad>
          </ns3:TrackPointExtension>
        </extensions>
      </trkpt>
      <trkpt lat="56.028573922812938690185546875" lon="24.17010627686977386474609375">
        <ele>49.40000152587890625</ele>
        <time>2026-08-01T08:44:34.000Z</time>
        <extensions>
          <ns3:TrackPointExtension>
            <ns3:hr>137</ns3:hr>
            <ns3:cad>0</ns3:cad>
          </ns3:TrackPointExtension>
        </extensions>
      </trkpt>
      <trkpt lat="56.0285801254212856292724609375" lon="24.17012480087578296661376953125">
        <ele>49.40000152587890625</ele>
        <time>2026-08-01T08:44:42.000Z</time>
        <extensions>
          <ns3:TrackPointExtension>
            <ns3:hr>134</ns3:hr>
            <ns3:cad>0</ns3:cad>
          </ns3:TrackPointExtension>
        </extensions>
      </trkpt>
      <trkpt lat="56.028576605021953582763671875" lon="24.17012144811451435089111328125">
        <ele>49.40000152587890625</ele>
        <time>2026-08-01T08:44:43.000Z</time>
        <extensions>
          <ns3:TrackPointExtension>
            <ns3:hr>134</ns3:hr>
            <ns3:cad>0</ns3:cad>
          </ns3:TrackPointExtension>
        </extensions>
      </trkpt>
      <trkpt lat="56.02856688201427459716796875" lon="24.17015698738396167755126953125">
        <ele>49.200000762939453125</ele>
        <time>2026-08-01T08:44:50.000Z</time>
        <extensions>
          <ns3:TrackPointExtension>
            <ns3:hr>131</ns3:hr>
            <ns3:cad>0</ns3:cad>
          </ns3:TrackPointExtension>
        </extensions>
      </trkpt>
      <trkpt lat="56.0285720787942409515380859375" lon="24.170175008475780487060546875">
        <ele>49</ele>
        <time>2026-08-01T08:44:54.000Z</time>
        <extensions>
          <ns3:TrackPointExtension>
            <ns3:hr>131</ns3:hr>
            <ns3:cad>0</ns3:cad>
          </ns3:TrackPointExtension>
        </extensions>
      </trkpt>
      <trkpt lat="56.02857350371778011322021484375" lon="24.17017140425741672515869140625">
        <ele>48.799999237060546875</ele>
        <time>2026-08-01T08:44:55.000Z</time>
        <extensions>
          <ns3:TrackPointExtension>
            <ns3:hr>129</ns3:hr>
            <ns3:cad>0</ns3:cad>
          </ns3:TrackPointExtension>
        </extensions>
      </trkpt>
      <trkpt lat="56.02857626974582672119140625" lon="24.170123375952243804931640625">
        <ele>48.799999237060546875</ele>
        <time>2026-08-01T08:45:02.000Z</time>
        <extensions>
          <ns3:TrackPointExtension>
            <ns3:hr>127</ns3:hr>
            <ns3:cad>0</ns3:cad>
          </ns3:TrackPointExtension>
        </extensions>
      </trkpt>
      <trkpt lat="56.028582639992237091064453125" lon="24.17011306621134281158447265625">
        <ele>49</ele>
        <time>2026-08-01T08:45:08.000Z</time>
        <extensions>
          <ns3:TrackPointExtension>
            <ns3:hr>124</ns3:hr>
            <ns3:cad>0</ns3:cad>
          </ns3:TrackPointExtension>
        </extensions>
      </trkpt>
      <trkpt lat="56.0285821370780467987060546875" lon="24.17009328491985797882080078125">
        <ele>49</ele>
        <time>2026-08-01T08:45:10.000Z</time>
        <extensions>
          <ns3:TrackPointExtension>
            <ns3:hr>124</ns3:hr>
            <ns3:cad>0</ns3:cad>
          </ns3:TrackPointExtension>
        </extensions>
      </trkpt>
      <trkpt lat="56.0285744257271289825439453125" lon="24.170092530548572540283203125">
        <ele>48.799999237060546875</ele>
        <time>2026-08-01T08:45:16.000Z</time>
        <extensions>
          <ns3:TrackPointExtension>
            <ns3:hr>123</ns3:hr>
            <ns3:cad>0</ns3:cad>
          </ns3:TrackPointExtension>
        </extensions>
      </trkpt>
      <trkpt lat="56.02857786230742931365966796875" lon="24.1700828075408935546875">
        <ele>48</ele>
        <time>2026-08-01T08:45:21.000Z</time>
        <extensions>
          <ns3:TrackPointExtension>
            <ns3:hr>122</ns3:hr>
            <ns3:cad>0</ns3:cad>
          </ns3:TrackPointExtension>
        </extensions>
      </trkpt>
      <trkpt lat="56.02857115678489208221435546875" lon="24.170101583003997802734375">
        <ele>48</ele>
        <time>2026-08-01T08:45:27.000Z</time>
        <extensions>
          <ns3:TrackPointExtension>
            <ns3:hr>121</ns3:hr>
            <ns3:cad>0</ns3:cad>
          </ns3:TrackPointExtension>
        </extensions>
      </trkpt>
      <trkpt lat="56.02857300080358982086181640625" lon="24.1701431572437286376953125">
        <ele>49.200000762939453125</ele>
        <time>2026-08-01T08:45:35.000Z</time>
        <extensions>
          <ns3:TrackPointExtension>
            <ns3:hr>119</ns3:hr>
            <ns3:cad>0</ns3:cad>
          </ns3:TrackPointExtension>
        </extensions>
      </trkpt>
      <trkpt lat="56.02857652120292186737060546875" lon="24.17013737373054027557373046875">
        <ele>48.59999847412109375</ele>
        <time>2026-08-01T08:45:44.000Z</time>
        <extensions>
          <ns3:TrackPointExtension>
            <ns3:hr>116</ns3:hr>
            <ns3:cad>0</ns3:cad>
          </ns3:TrackPointExtension>
        </extensions>
      </trkpt>
      <trkpt lat="56.02855657227337360382080078125" lon="24.17017978616058826446533203125">
        <ele>48.200000762939453125</ele>
        <time>2026-08-01T08:45:54.000Z</time>
        <extensions>
          <ns3:TrackPointExtension>
            <ns3:hr>114</ns3:hr>
            <ns3:cad>0</ns3:cad>
          </ns3:TrackPointExtension>
        </extensions>
      </trkpt>
      <trkpt lat="56.02854785509407520294189453125" lon="24.1702477633953094482421875">
        <ele>48.799999237060546875</ele>
        <time>2026-08-01T08:45:59.000Z</time>
        <extensions>
          <ns3:TrackPointExtension>
            <ns3:hr>115</ns3:hr>
            <ns3:cad>0</ns3:cad>
          </ns3:TrackPointExtension>
        </extensions>
      </trkpt>
      <trkpt lat="56.02853662334382534027099609375" lon="24.17036334984004497528076171875">
        <ele>48.200000762939453125</ele>
        <time>2026-08-01T08:46:05.000Z</time>
        <extensions>
          <ns3:TrackPointExtension>
            <ns3:hr>115</ns3:hr>
            <ns3:cad>61</ns3:cad>
          </ns3:TrackPointExtension>
        </extensions>
      </trkpt>
      <trkpt lat="56.02852455340325832366943359375" lon="24.17037273757159709930419921875">
        <ele>48</ele>
        <time>2026-08-01T08:46:07.000Z</time>
        <extensions>
          <ns3:TrackPointExtension>
            <ns3:hr>116</ns3:hr>
            <ns3:cad>53</ns3:cad>
          </ns3:TrackPointExtension>
        </extensions>
      </trkpt>
      <trkpt lat="56.02852136828005313873291015625" lon="24.17036754079163074493408203125">
        <ele>48</ele>
        <time>2026-08-01T08:46:09.000Z</time>
        <extensions>
          <ns3:TrackPointExtension>
            <ns3:hr>115</ns3:hr>
            <ns3:cad>50</ns3:cad>
          </ns3:TrackPointExtension>
        </extensions>
      </trkpt>
      <trkpt lat="56.02851566858589649200439453125" lon="24.17036955244839191436767578125">
        <ele>47.799999237060546875</ele>
        <time>2026-08-01T08:46:10.000Z</time>
        <extensions>
          <ns3:TrackPointExtension>
            <ns3:hr>116</ns3:hr>
            <ns3:cad>49</ns3:cad>
          </ns3:TrackPointExtension>
        </extensions>
      </trkpt>
      <trkpt lat="56.02850846014916896820068359375" lon="24.1703699715435504913330078125">
        <ele>47.59999847412109375</ele>
        <time>2026-08-01T08:46:11.000Z</time>
        <extensions>
          <ns3:TrackPointExtension>
            <ns3:hr>115</ns3:hr>
            <ns3:cad>49</ns3:cad>
          </ns3:TrackPointExtension>
        </extensions>
      </trkpt>
      <trkpt lat="56.02847442962229251861572265625" lon="24.1703703068196773529052734375">
        <ele>46.40000152587890625</ele>
        <time>2026-08-01T08:46:15.000Z</time>
        <extensions>
          <ns3:TrackPointExtension>
            <ns3:hr>115</ns3:hr>
            <ns3:cad>68</ns3:cad>
          </ns3:TrackPointExtension>
        </extensions>
      </trkpt>
      <trkpt lat="56.02840594947338104248046875" lon="24.17037894017994403839111328125">
        <ele>45.59999847412109375</ele>
        <time>2026-08-01T08:46:20.000Z</time>
        <extensions>
          <ns3:TrackPointExtension>
            <ns3:hr>115</ns3:hr>
            <ns3:cad>62</ns3:cad>
          </ns3:TrackPointExtension>
        </extensions>
      </trkpt>
      <trkpt lat="56.02836043573915958404541015625" lon="24.1703951172530651092529296875">
        <ele>45.799999237060546875</ele>
        <time>2026-08-01T08:46:24.000Z</time>
        <extensions>
          <ns3:TrackPointExtension>
            <ns3:hr>118</ns3:hr>
            <ns3:cad>56</ns3:cad>
          </ns3:TrackPointExtension>
        </extensions>
      </trkpt>
      <trkpt lat="56.028318442404270172119140625" lon="24.17039327323436737060546875">
        <ele>46</ele>
        <time>2026-08-01T08:46:27.000Z</time>
        <extensions>
          <ns3:TrackPointExtension>
            <ns3:hr>118</ns3:hr>
            <ns3:cad>56</ns3:cad>
          </ns3:TrackPointExtension>
        </extensions>
      </trkpt>
      <trkpt lat="56.0282143391668796539306640625" lon="24.170364104211330413818359375">
        <ele>46</ele>
        <time>2026-08-01T08:46:35.000Z</time>
        <extensions>
          <ns3:TrackPointExtension>
            <ns3:hr>118</ns3:hr>
            <ns3:cad>56</ns3:cad>
          </ns3:TrackPointExtension>
        </extensions>
      </trkpt>
      <trkpt lat="56.02818466722965240478515625" lon="24.1703384555876255035400390625">
        <ele>46</ele>
        <time>2026-08-01T08:46:37.000Z</time>
        <extensions>
          <ns3:TrackPointExtension>
            <ns3:hr>121</ns3:hr>
            <ns3:cad>57</ns3:cad>
          </ns3:TrackPointExtension>
        </extensions>
      </trkpt>
      <trkpt lat="56.02814468555152416229248046875" lon="24.17032127268612384796142578125">
        <ele>46</ele>
        <time>2026-08-01T08:46:40.000Z</time>
        <extensions>
          <ns3:TrackPointExtension>
            <ns3:hr>120</ns3:hr>
            <ns3:cad>56</ns3:cad>
          </ns3:TrackPointExtension>
        </extensions>
      </trkpt>
      <trkpt lat="56.02803320623934268951416015625" lon="24.17027399875223636627197265625">
        <ele>46.200000762939453125</ele>
        <time>2026-08-01T08:46:48.000Z</time>
        <extensions>
          <ns3:TrackPointExtension>
            <ns3:hr>117</ns3:hr>
            <ns3:cad>57</ns3:cad>
          </ns3:TrackPointExtension>
        </extensions>
      </trkpt>
      <trkpt lat="56.028010658919811248779296875" lon="24.1702611744403839111328125">
        <ele>46.200000762939453125</ele>
        <time>2026-08-01T08:46:50.000Z</time>
        <extensions>
          <ns3:TrackPointExtension>
            <ns3:hr>117</ns3:hr>
            <ns3:cad>57</ns3:cad>
          </ns3:TrackPointExtension>
        </extensions>
      </trkpt>
      <trkpt lat="56.0278956592082977294921875" lon="24.1702130623161792755126953125">
        <ele>46.200000762939453125</ele>
        <time>2026-08-01T08:46:58.000Z</time>
        <extensions>
          <ns3:TrackPointExtension>
            <ns3:hr>117</ns3:hr>
            <ns3:cad>56</ns3:cad>
          </ns3:TrackPointExtension>
        </extensions>
      </trkpt>
      <trkpt lat="56.02779842913150787353515625" lon="24.1701419837772846221923828125">
        <ele>46.59999847412109375</ele>
        <time>2026-08-01T08:47:06.000Z</time>
        <extensions>
          <ns3:TrackPointExtension>
            <ns3:hr>119</ns3:hr>
            <ns3:cad>56</ns3:cad>
          </ns3:TrackPointExtension>
        </extensions>
      </trkpt>
      <trkpt lat="56.027723662555217742919921875" lon="24.170138798654079437255859375">
        <ele>46.40000152587890625</ele>
        <time>2026-08-01T08:47:11.000Z</time>
        <extensions>
          <ns3:TrackPointExtension>
            <ns3:hr>123</ns3:hr>
            <ns3:cad>56</ns3:cad>
          </ns3:TrackPointExtension>
        </extensions>
      </trkpt>
      <trkpt lat="56.02770597673952579498291015625" lon="24.170133434236049652099609375">
        <ele>46.40000152587890625</ele>
        <time>2026-08-01T08:47:12.000Z</time>
        <extensions>
          <ns3:TrackPointExtension>
            <ns3:hr>123</ns3:hr>
            <ns3:cad>56</ns3:cad>
          </ns3:TrackPointExtension>
        </extensions>
      </trkpt>
      <trkpt lat="56.02760874666273593902587890625" lon="24.17010493576526641845703125">
        <ele>46.59999847412109375</ele>
        <time>2026-08-01T08:47:18.000Z</time>
        <extensions>
          <ns3:TrackPointExtension>
            <ns3:hr>125</ns3:hr>
            <ns3:cad>57</ns3:cad>
          </ns3:TrackPointExtension>
        </extensions>
      </trkpt>
      <trkpt lat="56.02752911858260631561279296875" lon="24.16997761465609073638916015625">
        <ele>46.799999237060546875</ele>
        <time>2026-08-01T08:47:26.000Z</time>
        <extensions>
          <ns3:TrackPointExtension>
            <ns3:hr>126</ns3:hr>
            <ns3:cad>56</ns3:cad>
          </ns3:TrackPointExtension>
        </extensions>
      </trkpt>
      <trkpt lat="56.02751813828945159912109375" lon="24.169965796172618865966796875">
        <ele>47.40000152587890625</ele>
        <time>2026-08-01T08:47:32.000Z</time>
        <extensions>
          <ns3:TrackPointExtension>
            <ns3:hr>126</ns3:hr>
            <ns3:cad>0</ns3:cad>
          </ns3:TrackPointExtension>
        </extensions>
      </trkpt>
      <trkpt lat="56.02751838974654674530029296875" lon="24.16996554471552371978759765625">
        <ele>47.40000152587890625</ele>
        <time>2026-08-01T08:47:34.000Z</time>
        <extensions>
          <ns3:TrackPointExtension>
            <ns3:hr>131</ns3:hr>
            <ns3:cad>0</ns3:cad>
          </ns3:TrackPointExtension>
        </extensions>
      </trkpt>
      <trkpt lat="56.02751838974654674530029296875" lon="24.16996554471552371978759765625">
        <ele>47.200000762939453125</ele>
        <time>2026-08-01T08:47:35.000Z</time>
        <extensions>
          <ns3:TrackPointExtension>
            <ns3:hr>134</ns3:hr>
            <ns3:cad>0</ns3:cad>
          </ns3:TrackPointExtension>
        </extensions>
      </trkpt>
      <trkpt lat="56.02751838974654674530029296875" lon="24.16996554471552371978759765625">
        <ele>47</ele>
        <time>2026-08-01T08:47:42.000Z</time>
        <extensions>
          <ns3:TrackPointExtension>
            <ns3:hr>137</ns3:hr>
            <ns3:cad>0</ns3:cad>
          </ns3:TrackPointExtension>
        </extensions>
      </trkpt>
      <trkpt lat="56.02751889266073703765869140625" lon="24.16996437124907970428466796875">
        <ele>47</ele>
        <time>2026-08-01T08:47:44.000Z</time>
        <extensions>
          <ns3:TrackPointExtension>
            <ns3:hr>138</ns3:hr>
            <ns3:cad>0</ns3:cad>
          </ns3:TrackPointExtension>
        </extensions>
      </trkpt>
      <trkpt lat="56.0274324752390384674072265625" lon="24.16985280811786651611328125">
        <ele>46.59999847412109375</ele>
        <time>2026-08-01T08:47:51.000Z</time>
        <extensions>
          <ns3:TrackPointExtension>
            <ns3:hr>140</ns3:hr>
            <ns3:cad>58</ns3:cad>
          </ns3:TrackPointExtension>
        </extensions>
      </trkpt>
      <trkpt lat="56.02731051854789257049560546875" lon="24.16968273930251598358154296875">
        <ele>46.59999847412109375</ele>
        <time>2026-08-01T08:48:01.000Z</time>
        <extensions>
          <ns3:TrackPointExtension>
            <ns3:hr>138</ns3:hr>
            <ns3:cad>58</ns3:cad>
          </ns3:TrackPointExtension>
        </extensions>
      </trkpt>
      <trkpt lat="56.02723021991550922393798828125" lon="24.1696283407509326934814453125">
        <ele>46.59999847412109375</ele>
        <time>2026-08-01T08:48:08.000Z</time>
        <extensions>
          <ns3:TrackPointExtension>
            <ns3:hr>135</ns3:hr>
            <ns3:cad>56</ns3:cad>
          </ns3:TrackPointExtension>
        </extensions>
      </trkpt>
      <trkpt lat="56.027205996215343475341796875" lon="24.16962523944675922393798828125">
        <ele>46.59999847412109375</ele>
        <time>2026-08-01T08:48:10.000Z</time>
        <extensions>
          <ns3:TrackPointExtension>
            <ns3:hr>132</ns3:hr>
            <ns3:cad>57</ns3:cad>
          </ns3:TrackPointExtension>
        </extensions>
      </trkpt>
      <trkpt lat="56.0271012224256992340087890625" lon="24.16960713453590869903564453125">
        <ele>46.799999237060546875</ele>
        <time>2026-08-01T08:48:18.000Z</time>
        <extensions>
          <ns3:TrackPointExtension>
            <ns3:hr>132</ns3:hr>
            <ns3:cad>55</ns3:cad>
          </ns3:TrackPointExtension>
        </extensions>
      </trkpt>
      <trkpt lat="56.027019582688808441162109375" lon="24.169581569731235504150390625">
        <ele>47</ele>
        <time>2026-08-01T08:48:25.000Z</time>
        <extensions>
          <ns3:TrackPointExtension>
            <ns3:hr>132</ns3:hr>
            <ns3:cad>59</ns3:cad>
          </ns3:TrackPointExtension>
        </extensions>
      </trkpt>
      <trkpt lat="56.0269761644303798675537109375" lon="24.1695874370634555816650390625">
        <ele>46.799999237060546875</ele>
        <time>2026-08-01T08:48:30.000Z</time>
        <extensions>
          <ns3:TrackPointExtension>
            <ns3:hr>131</ns3:hr>
            <ns3:cad>0</ns3:cad>
          </ns3:TrackPointExtension>
        </extensions>
      </trkpt>
      <trkpt lat="56.026931740343570709228515625" lon="24.16956857778131961822509765625">
        <ele>47</ele>
        <time>2026-08-01T08:48:36.000Z</time>
        <extensions>
          <ns3:TrackPointExtension>
            <ns3:hr>133</ns3:hr>
            <ns3:cad>0</ns3:cad>
          </ns3:TrackPointExtension>
        </extensions>
      </trkpt>
      <trkpt lat="56.0268430598080158233642578125" lon="24.16954846121370792388916015625">
        <ele>47</ele>
        <time>2026-08-01T08:48:43.000Z</time>
        <extensions>
          <ns3:TrackPointExtension>
            <ns3:hr>132</ns3:hr>
            <ns3:cad>55</ns3:cad>
          </ns3:TrackPointExtension>
        </extensions>
      </trkpt>
      <trkpt lat="56.0267672874033451080322265625" lon="24.1695006005465984344482421875">
        <ele>47.200000762939453125</ele>
        <time>2026-08-01T08:48:49.000Z</time>
        <extensions>
          <ns3:TrackPointExtension>
            <ns3:hr>132</ns3:hr>
            <ns3:cad>57</ns3:cad>
          </ns3:TrackPointExtension>
        </extensions>
      </trkpt>
      <trkpt lat="56.0267651081085205078125" lon="24.1694794781506061553955078125">
        <ele>47.40000152587890625</ele>
        <time>2026-08-01T08:48:50.000Z</time>
        <extensions>
          <ns3:TrackPointExtension>
            <ns3:hr>132</ns3:hr>
            <ns3:cad>57</ns3:cad>
          </ns3:TrackPointExtension>
        </extensions>
      </trkpt>
      <trkpt lat="56.02676519192755222320556640625" lon="24.169425331056118011474609375">
        <ele>47.40000152587890625</ele>
        <time>2026-08-01T08:48:52.000Z</time>
        <extensions>
          <ns3:TrackPointExtension>
            <ns3:hr>131</ns3:hr>
            <ns3:cad>58</ns3:cad>
          </ns3:TrackPointExtension>
        </extensions>
      </trkpt>
      <trkpt lat="56.02677139453589916229248046875" lon="24.16928392834961414337158203125">
        <ele>47.200000762939453125</ele>
        <time>2026-08-01T08:48:57.000Z</time>
        <extensions>
          <ns3:TrackPointExtension>
            <ns3:hr>132</ns3:hr>
            <ns3:cad>58</ns3:cad>
          </ns3:TrackPointExtension>
        </extensions>
      </trkpt>
      <trkpt lat="56.0267074406147003173828125" lon="24.16914311237633228302001953125">
        <ele>47.40000152587890625</ele>
        <time>2026-08-01T08:49:04.000Z</time>
        <extensions>
          <ns3:TrackPointExtension>
            <ns3:hr>129</ns3:hr>
            <ns3:cad>58</ns3:cad>
          </ns3:TrackPointExtension>
        </extensions>
      </trkpt>
      <trkpt lat="56.0266978852450847625732421875" lon="24.16912903077900409698486328125">
        <ele>47.40000152587890625</ele>
        <time>2026-08-01T08:49:05.000Z</time>
        <extensions>
          <ns3:TrackPointExtension>
            <ns3:hr>128</ns3:hr>
            <ns3:cad>58</ns3:cad>
          </ns3:TrackPointExtension>
        </extensions>
      </trkpt>
      <trkpt lat="56.026674918830394744873046875" lon="24.1691032983362674713134765625">
        <ele>47.40000152587890625</ele>
        <time>2026-08-01T08:49:07.000Z</time>
        <extensions>
          <ns3:TrackPointExtension>
            <ns3:hr>125</ns3:hr>
            <ns3:cad>58</ns3:cad>
          </ns3:TrackPointExtension>
        </extensions>
      </trkpt>
      <trkpt lat="56.0265879146754741668701171875" lon="24.1690526716411113739013671875">
        <ele>47.40000152587890625</ele>
        <time>2026-08-01T08:49:12.000Z</time>
        <extensions>
          <ns3:TrackPointExtension>
            <ns3:hr>127</ns3:hr>
            <ns3:cad>59</ns3:cad>
          </ns3:TrackPointExtension>
        </extensions>
      </trkpt>
      <trkpt lat="56.026487164199352264404296875" lon="24.16897983290255069732666015625">
        <ele>47.40000152587890625</ele>
        <time>2026-08-01T08:49:20.000Z</time>
        <extensions>
          <ns3:TrackPointExtension>
            <ns3:hr>127</ns3:hr>
            <ns3:cad>58</ns3:cad>
          </ns3:TrackPointExtension>
        </extensions>
      </trkpt>
      <trkpt lat="56.02642304264008998870849609375" lon="24.1687874682247638702392578125">
        <ele>47.200000762939453125</ele>
        <time>2026-08-01T08:49:29.000Z</time>
        <extensions>
          <ns3:TrackPointExtension>
            <ns3:hr>127</ns3:hr>
            <ns3:cad>59</ns3:cad>
          </ns3:TrackPointExtension>
        </extensions>
      </trkpt>
      <trkpt lat="56.02637610398232936859130859375" lon="24.1685826145112514495849609375">
        <ele>47</ele>
        <time>2026-08-01T08:49:37.000Z</time>
        <extensions>
          <ns3:TrackPointExtension>
            <ns3:hr>126</ns3:hr>
            <ns3:cad>58</ns3:cad>
          </ns3:TrackPointExtension>
        </extensions>
      </trkpt>
      <trkpt lat="56.02640460245311260223388671875" lon="24.16840215213596820831298828125">
        <ele>46.799999237060546875</ele>
        <time>2026-08-01T08:49:44.000Z</time>
        <extensions>
          <ns3:TrackPointExtension>
            <ns3:hr>124</ns3:hr>
            <ns3:cad>58</ns3:cad>
          </ns3:TrackPointExtension>
        </extensions>
      </trkpt>
      <trkpt lat="56.02642714977264404296875" lon="24.16818288154900074005126953125">
        <ele>46.799999237060546875</ele>
        <time>2026-08-01T08:49:53.000Z</time>
        <extensions>
          <ns3:TrackPointExtension>
            <ns3:hr>124</ns3:hr>
            <ns3:cad>57</ns3:cad>
          </ns3:TrackPointExtension>
        </extensions>
      </trkpt>
      <trkpt lat="56.0264340229332447052001953125" lon="24.16809822432696819305419921875">
        <ele>46.799999237060546875</ele>
        <time>2026-08-01T08:49:59.000Z</time>
        <extensions>
          <ns3:TrackPointExtension>
            <ns3:hr>123</ns3:hr>
            <ns3:cad>0</ns3:cad>
          </ns3:TrackPointExtension>
        </extensions>
      </trkpt>
      <trkpt lat="56.0264377109706401824951171875" lon="24.16804097592830657958984375">
        <ele>46.59999847412109375</ele>
        <time>2026-08-01T08:50:03.000Z</time>
        <extensions>
          <ns3:TrackPointExtension>
            <ns3:hr>120</ns3:hr>
            <ns3:cad>0</ns3:cad>
          </ns3:TrackPointExtension>
        </extensions>
      </trkpt>
      <trkpt lat="56.02643863297998905181884765625" lon="24.16801155544817447662353515625">
        <ele>46.59999847412109375</ele>
        <time>2026-08-01T08:50:04.000Z</time>
        <extensions>
          <ns3:TrackPointExtension>
            <ns3:hr>119</ns3:hr>
            <ns3:cad>0</ns3:cad>
          </ns3:TrackPointExtension>
        </extensions>
      </trkpt>
      <trkpt lat="56.02644735015928745269775390625" lon="24.167800247669219970703125">
        <ele>46.59999847412109375</ele>
        <time>2026-08-01T08:50:12.000Z</time>
        <extensions>
          <ns3:TrackPointExtension>
            <ns3:hr>120</ns3:hr>
            <ns3:cad>59</ns3:cad>
          </ns3:TrackPointExtension>
        </extensions>
      </trkpt>
      <trkpt lat="56.0264812968671321868896484375" lon="24.16755373589694499969482421875">
        <ele>46.59999847412109375</ele>
        <time>2026-08-01T08:50:22.000Z</time>
        <extensions>
          <ns3:TrackPointExtension>
            <ns3:hr>120</ns3:hr>
            <ns3:cad>58</ns3:cad>
          </ns3:TrackPointExtension>
        </extensions>
      </trkpt>
      <trkpt lat="56.026580370962619781494140625" lon="24.16747913695871829986572265625">
        <ele>46.59999847412109375</ele>
        <time>2026-08-01T08:50:29.000Z</time>
        <extensions>
          <ns3:TrackPointExtension>
            <ns3:hr>122</ns3:hr>
            <ns3:cad>59</ns3:cad>
          </ns3:TrackPointExtension>
        </extensions>
      </trkpt>
      <trkpt lat="56.02670551277697086334228515625" lon="24.16741493158042430877685546875">
        <ele>47</ele>
        <time>2026-08-01T08:50:38.000Z</time>
        <extensions>
          <ns3:TrackPointExtension>
            <ns3:hr>121</ns3:hr>
            <ns3:cad>59</ns3:cad>
          </ns3:TrackPointExtension>
        </extensions>
      </trkpt>
      <trkpt lat="56.02682772092521190643310546875" lon="24.16734904982149600982666015625">
        <ele>47.40000152587890625</ele>
        <time>2026-08-01T08:50:47.000Z</time>
        <extensions>
          <ns3:TrackPointExtension>
            <ns3:hr>122</ns3:hr>
            <ns3:cad>57</ns3:cad>
          </ns3:TrackPointExtension>
        </extensions>
      </trkpt>
      <trkpt lat="56.026896201074123382568359375" lon="24.16730898432433605194091796875">
        <ele>47.40000152587890625</ele>
        <time>2026-08-01T08:50:53.000Z</time>
        <extensions>
          <ns3:TrackPointExtension>
            <ns3:hr>126</ns3:hr>
            <ns3:cad>57</ns3:cad>
          </ns3:TrackPointExtension>
        </extensions>
      </trkpt>
      <trkpt lat="56.02697188965976238250732421875" lon="24.1672747023403644561767578125">
        <ele>47.59999847412109375</ele>
        <time>2026-08-01T08:50:59.000Z</time>
        <extensions>
          <ns3:TrackPointExtension>
            <ns3:hr>128</ns3:hr>
            <ns3:cad>56</ns3:cad>
          </ns3:TrackPointExtension>
        </extensions>
      </trkpt>
      <trkpt lat="56.02711237035691738128662109375" lon="24.16718996129930019378662109375">
        <ele>47.799999237060546875</ele>
        <time>2026-08-01T08:51:09.000Z</time>
        <extensions>
          <ns3:TrackPointExtension>
            <ns3:hr>128</ns3:hr>
            <ns3:cad>57</ns3:cad>
          </ns3:TrackPointExtension>
        </extensions>
      </trkpt>
      <trkpt lat="56.02728000842034816741943359375" lon="24.1671043820679187774658203125">
        <ele>47.799999237060546875</ele>
        <time>2026-08-01T08:51:21.000Z</time>
        <extensions>
          <ns3:TrackPointExtension>
            <ns3:hr>130</ns3:hr>
            <ns3:cad>58</ns3:cad>
          </ns3:TrackPointExtension>
        </extensions>
      </trkpt>
      <trkpt lat="56.027383022010326385498046875" lon="24.1670628078281879425048828125">
        <ele>47.799999237060546875</ele>
        <time>2026-08-01T08:51:28.000Z</time>
        <extensions>
          <ns3:TrackPointExtension>
            <ns3:hr>127</ns3:hr>
            <ns3:cad>58</ns3:cad>
          </ns3:TrackPointExtension>
        </extensions>
      </trkpt>
      <trkpt lat="56.02742618881165981292724609375" lon="24.16704260744154453277587890625">
        <ele>47.799999237060546875</ele>
        <time>2026-08-01T08:51:31.000Z</time>
        <extensions>
          <ns3:TrackPointExtension>
            <ns3:hr>126</ns3:hr>
            <ns3:cad>59</ns3:cad>
          </ns3:TrackPointExtension>
        </extensions>
      </trkpt>
      <trkpt lat="56.027548648416996002197265625" lon="24.1669890470802783966064453125">
        <ele>47.799999237060546875</ele>
        <time>2026-08-01T08:51:40.000Z</time>
        <extensions>
          <ns3:TrackPointExtension>
            <ns3:hr>123</ns3:hr>
            <ns3:cad>58</ns3:cad>
          </ns3:TrackPointExtension>
        </extensions>
      </trkpt>
      <trkpt lat="56.027657948434352874755859375" lon="24.166971109807491302490234375">
        <ele>48</ele>
        <time>2026-08-01T08:51:48.000Z</time>
        <extensions>
          <ns3:TrackPointExtension>
            <ns3:hr>124</ns3:hr>
            <ns3:cad>59</ns3:cad>
          </ns3:TrackPointExtension>
        </extensions>
      </trkpt>
      <trkpt lat="56.02774654515087604522705078125" lon="24.1670564375817775726318359375">
        <ele>47.799999237060546875</ele>
        <time>2026-08-01T08:51:55.000Z</time>
        <extensions>
          <ns3:TrackPointExtension>
            <ns3:hr>123</ns3:hr>
            <ns3:cad>55</ns3:cad>
          </ns3:TrackPointExtension>
        </extensions>
      </trkpt>
      <trkpt lat="56.02785341441631317138671875" lon="24.16724192909896373748779296875">
        <ele>47.799999237060546875</ele>
        <time>2026-08-01T08:52:06.000Z</time>
        <extensions>
          <ns3:TrackPointExtension>
            <ns3:hr>125</ns3:hr>
            <ns3:cad>56</ns3:cad>
          </ns3:TrackPointExtension>
        </extensions>
      </trkpt>
      <trkpt lat="56.02791376411914825439453125" lon="24.16734854690730571746826171875">
        <ele>47.799999237060546875</ele>
        <time>2026-08-01T08:52:15.000Z</time>
        <extensions>
          <ns3:TrackPointExtension>
            <ns3:hr>124</ns3:hr>
            <ns3:cad>0</ns3:cad>
          </ns3:TrackPointExtension>
        </extensions>
      </trkpt>
      <trkpt lat="56.0279082320630550384521484375" lon="24.16736304759979248046875">
        <ele>47.59999847412109375</ele>
        <time>2026-08-01T08:52:23.000Z</time>
        <extensions>
          <ns3:TrackPointExtension>
            <ns3:hr>127</ns3:hr>
            <ns3:cad>0</ns3:cad>
          </ns3:TrackPointExtension>
        </extensions>
      </trkpt>
      <trkpt lat="56.02791468612849712371826171875" lon="24.16735977865755558013916015625">
        <ele>47.59999847412109375</ele>
        <time>2026-08-01T08:52:26.000Z</time>
        <extensions>
          <ns3:TrackPointExtension>
            <ns3:hr>128</ns3:hr>
            <ns3:cad>0</ns3:cad>
          </ns3:TrackPointExtension>
        </extensions>
      </trkpt>
      <trkpt lat="56.02793295867741107940673828125" lon="24.167375452816486358642578125">
        <ele>47.40000152587890625</ele>
        <time>2026-08-01T08:52:33.000Z</time>
        <extensions>
          <ns3:TrackPointExtension>
            <ns3:hr>129</ns3:hr>
            <ns3:cad>0</ns3:cad>
          </ns3:TrackPointExtension>
        </extensions>
      </trkpt>
      <trkpt lat="56.02798928506672382354736328125" lon="24.16735927574336528778076171875">
        <ele>47.200000762939453125</ele>
        <time>2026-08-01T08:52:38.000Z</time>
        <extensions>
          <ns3:TrackPointExtension>
            <ns3:hr>128</ns3:hr>
            <ns3:cad>0</ns3:cad>
          </ns3:TrackPointExtension>
        </extensions>
      </trkpt>
      <trkpt lat="56.02812976576387882232666015625" lon="24.16733312420547008514404296875">
        <ele>47.200000762939453125</ele>
        <time>2026-08-01T08:52:48.000Z</time>
        <extensions>
          <ns3:TrackPointExtension>
            <ns3:hr>128</ns3:hr>
            <ns3:cad>55</ns3:cad>
          </ns3:TrackPointExtension>
        </extensions>
      </trkpt>
      <trkpt lat="56.0281901992857456207275390625" lon="24.1673618741333484649658203125">
        <ele>47.200000762939453125</ele>
        <time>2026-08-01T08:52:54.000Z</time>
        <extensions>
          <ns3:TrackPointExtension>
            <ns3:hr>125</ns3:hr>
            <ns3:cad>0</ns3:cad>
          </ns3:TrackPointExtension>
        </extensions>
      </trkpt>
      <trkpt lat="56.02819137275218963623046875" lon="24.167361371219158172607421875">
        <ele>47.200000762939453125</ele>
        <time>2026-08-01T08:52:55.000Z</time>
        <extensions>
          <ns3:TrackPointExtension>
            <ns3:hr>124</ns3:hr>
            <ns3:cad>0</ns3:cad>
          </ns3:TrackPointExtension>
        </extensions>
      </trkpt>
      <trkpt lat="56.02819740772247314453125" lon="24.167372770607471466064453125">
        <ele>47</ele>
        <time>2026-08-01T08:52:58.000Z</time>
        <extensions>
          <ns3:TrackPointExtension>
            <ns3:hr>121</ns3:hr>
            <ns3:cad>0</ns3:cad>
          </ns3:TrackPointExtension>
        </extensions>
      </trkpt>
      <trkpt lat="56.02819480933248996734619140625" lon="24.16736346669495105743408203125">
        <ele>46.799999237060546875</ele>
        <time>2026-08-01T08:53:02.000Z</time>
        <extensions>
          <ns3:TrackPointExtension>
            <ns3:hr>120</ns3:hr>
            <ns3:cad>0</ns3:cad>
          </ns3:TrackPointExtension>
        </extensions>
      </trkpt>
      <trkpt lat="56.0282039456069469451904296875" lon="24.1673548333346843719482421875">
        <ele>47.200000762939453125</ele>
        <time>2026-08-01T08:53:07.000Z</time>
        <extensions>
          <ns3:TrackPointExtension>
            <ns3:hr>120</ns3:hr>
            <ns3:cad>0</ns3:cad>
          </ns3:TrackPointExtension>
        </extensions>
      </trkpt>
      <trkpt lat="56.028263457119464874267578125" lon="24.1673226468265056610107421875">
        <ele>47</ele>
        <time>2026-08-01T08:53:12.000Z</time>
        <extensions>
          <ns3:TrackPointExtension>
            <ns3:hr>119</ns3:hr>
            <ns3:cad>53</ns3:cad>
          </ns3:TrackPointExtension>
        </extensions>
      </trkpt>
      <trkpt lat="56.0283648781478404998779296875" lon="24.167288951575756072998046875">
        <ele>47.40000152587890625</ele>
        <time>2026-08-01T08:53:19.000Z</time>
        <extensions>
          <ns3:TrackPointExtension>
            <ns3:hr>125</ns3:hr>
            <ns3:cad>56</ns3:cad>
          </ns3:TrackPointExtension>
        </extensions>
      </trkpt>
      <trkpt lat="56.0283789597451686859130859375" lon="24.16728517971932888031005859375">
        <ele>47.40000152587890625</ele>
        <time>2026-08-01T08:53:20.000Z</time>
        <extensions>
          <ns3:TrackPointExtension>
            <ns3:hr>125</ns3:hr>
            <ns3:cad>56</ns3:cad>
          </ns3:TrackPointExtension>
        </extensions>
      </trkpt>
      <trkpt lat="56.02842195890843868255615234375" lon="24.16728098876774311065673828125">
        <ele>47.40000152587890625</ele>
        <time>2026-08-01T08:53:23.000Z</time>
        <extensions>
          <ns3:TrackPointExtension>
            <ns3:hr>124</ns3:hr>
            <ns3:cad>57</ns3:cad>
          </ns3:TrackPointExtension>
        </extensions>
      </trkpt>
      <trkpt lat="56.028506867587566375732421875" lon="24.16735592298209667205810546875">
        <ele>47.40000152587890625</ele>
        <time>2026-08-01T08:53:29.000Z</time>
        <extensions>
          <ns3:TrackPointExtension>
            <ns3:hr>123</ns3:hr>
            <ns3:cad>55</ns3:cad>
          </ns3:TrackPointExtension>
        </extensions>
      </trkpt>
      <trkpt lat="56.02865271270275115966796875" lon="24.16743253357708454132080078125">
        <ele>47.59999847412109375</ele>
        <time>2026-08-01T08:53:40.000Z</time>
        <extensions>
          <ns3:TrackPointExtension>
            <ns3:hr>124</ns3:hr>
            <ns3:cad>56</ns3:cad>
          </ns3:TrackPointExtension>
        </extensions>
      </trkpt>
      <trkpt lat="56.02875974960625171661376953125" lon="24.1675523109734058380126953125">
        <ele>47.799999237060546875</ele>
        <time>2026-08-01T08:53:49.000Z</time>
        <extensions>
          <ns3:TrackPointExtension>
            <ns3:hr>126</ns3:hr>
            <ns3:cad>55</ns3:cad>
          </ns3:TrackPointExtension>
        </extensions>
      </trkpt>
      <trkpt lat="56.028763689100742340087890625" lon="24.16756815277040004730224609375">
        <ele>47.799999237060546875</ele>
        <time>2026-08-01T08:53:50.000Z</time>
        <extensions>
          <ns3:TrackPointExtension>
            <ns3:hr>126</ns3:hr>
            <ns3:cad>55</ns3:cad>
          </ns3:TrackPointExtension>
        </extensions>
      </trkpt>
      <trkpt lat="56.028765030205249786376953125" lon="24.16757435537874698638916015625">
        <ele>48</ele>
        <time>2026-08-01T08:53:56.000Z</time>
        <extensions>
          <ns3:TrackPointExtension>
            <ns3:hr>126</ns3:hr>
            <ns3:cad>0</ns3:cad>
          </ns3:TrackPointExtension>
        </extensions>
      </trkpt>
      <trkpt lat="56.0287876613438129425048828125" lon="24.16756312362849712371826171875">
        <ele>48</ele>
        <time>2026-08-01T08:54:02.000Z</time>
        <extensions>
          <ns3:TrackPointExtension>
            <ns3:hr>127</ns3:hr>
            <ns3:cad>0</ns3:cad>
          </ns3:TrackPointExtension>
        </extensions>
      </trkpt>
      <trkpt lat="56.028794534504413604736328125" lon="24.1675824858248233795166015625">
        <ele>48</ele>
        <time>2026-08-01T08:54:08.000Z</time>
        <extensions>
          <ns3:TrackPointExtension>
            <ns3:hr>129</ns3:hr>
            <ns3:cad>0</ns3:cad>
          </ns3:TrackPointExtension>
        </extensions>
      </trkpt>
      <trkpt lat="56.02884122170507907867431640625" lon="24.16765264235436916351318359375">
        <ele>47.59999847412109375</ele>
        <time>2026-08-01T08:54:17.000Z</time>
        <extensions>
          <ns3:TrackPointExtension>
            <ns3:hr>128</ns3:hr>
            <ns3:cad>0</ns3:cad>
          </ns3:TrackPointExtension>
        </extensions>
      </trkpt>
      <trkpt lat="56.0288567282259464263916015625" lon="24.1676669754087924957275390625">
        <ele>48.59999847412109375</ele>
        <time>2026-08-01T08:54:20.000Z</time>
        <extensions>
          <ns3:TrackPointExtension>
            <ns3:hr>129</ns3:hr>
            <ns3:cad>0</ns3:cad>
          </ns3:TrackPointExtension>
        </extensions>
      </trkpt>
      <trkpt lat="56.028880365192890167236328125" lon="24.1676755249500274658203125">
        <ele>49.40000152587890625</ele>
        <time>2026-08-01T08:54:26.000Z</time>
        <extensions>
          <ns3:TrackPointExtension>
            <ns3:hr>127</ns3:hr>
            <ns3:cad>0</ns3:cad>
          </ns3:TrackPointExtension>
        </extensions>
      </trkpt>
      <trkpt lat="56.02887625806033611297607421875" lon="24.167676866054534912109375">
        <ele>49</ele>
        <time>2026-08-01T08:54:31.000Z</time>
        <extensions>
          <ns3:TrackPointExtension>
            <ns3:hr>131</ns3:hr>
            <ns3:cad>0</ns3:cad>
          </ns3:TrackPointExtension>
        </extensions>
      </trkpt>
      <trkpt lat="56.0288746654987335205078125" lon="24.16767326183617115020751953125">
        <ele>48.799999237060546875</ele>
        <time>2026-08-01T08:54:32.000Z</time>
        <extensions>
          <ns3:TrackPointExtension>
            <ns3:hr>134</ns3:hr>
            <ns3:cad>0</ns3:cad>
          </ns3:TrackPointExtension>
        </extensions>
      </trkpt>
      <trkpt lat="56.02886972017586231231689453125" lon="24.16766387410461902618408203125">
        <ele>48.799999237060546875</ele>
        <time>2026-08-01T08:54:33.000Z</time>
        <extensions>
          <ns3:TrackPointExtension>
            <ns3:hr>137</ns3:hr>
            <ns3:cad>0</ns3:cad>
          </ns3:TrackPointExtension>
        </extensions>
      </trkpt>
      <trkpt lat="56.02887533605098724365234375" lon="24.1676535643637180328369140625">
        <ele>48.799999237060546875</ele>
        <time>2026-08-01T08:54:38.000Z</time>
        <extensions>
          <ns3:TrackPointExtension>
            <ns3:hr>139</ns3:hr>
            <ns3:cad>0</ns3:cad>
          </ns3:TrackPointExtension>
        </extensions>
      </trkpt>
      <trkpt lat="56.02887793444097042083740234375" lon="24.16767845861613750457763671875">
        <ele>49.200000762939453125</ele>
        <time>2026-08-01T08:54:44.000Z</time>
        <extensions>
          <ns3:TrackPointExtension>
            <ns3:hr>139</ns3:hr>
            <ns3:cad>0</ns3:cad>
          </ns3:TrackPointExtension>
        </extensions>
      </trkpt>
      <trkpt lat="56.02888514287769794464111328125" lon="24.16767795570194721221923828125">
        <ele>49.59999847412109375</ele>
        <time>2026-08-01T08:54:46.000Z</time>
        <extensions>
          <ns3:TrackPointExtension>
            <ns3:hr>139</ns3:hr>
            <ns3:cad>0</ns3:cad>
          </ns3:TrackPointExtension>
        </extensions>
      </trkpt>
      <trkpt lat="56.0288853943347930908203125" lon="24.16765398345887660980224609375">
        <ele>49</ele>
        <time>2026-08-01T08:54:55.000Z</time>
        <extensions>
          <ns3:TrackPointExtension>
            <ns3:hr>139</ns3:hr>
            <ns3:cad>0</ns3:cad>
          </ns3:TrackPointExtension>
        </extensions>
      </trkpt>
      <trkpt lat="56.02888111956417560577392578125" lon="24.16758256964385509490966796875">
        <ele>48.59999847412109375</ele>
        <time>2026-08-01T08:54:58.000Z</time>
        <extensions>
          <ns3:TrackPointExtension>
            <ns3:hr>139</ns3:hr>
            <ns3:cad>51</ns3:cad>
          </ns3:TrackPointExtension>
        </extensions>
      </trkpt>
      <trkpt lat="56.02888430468738079071044921875" lon="24.16751987300813198089599609375">
        <ele>48.799999237060546875</ele>
        <time>2026-08-01T08:55:01.000Z</time>
        <extensions>
          <ns3:TrackPointExtension>
            <ns3:hr>139</ns3:hr>
            <ns3:cad>53</ns3:cad>
          </ns3:TrackPointExtension>
        </extensions>
      </trkpt>
      <trkpt lat="56.028903834521770477294921875" lon="24.167298339307308197021484375">
        <ele>49.200000762939453125</ele>
        <time>2026-08-01T08:55:10.000Z</time>
        <extensions>
          <ns3:TrackPointExtension>
            <ns3:hr>138</ns3:hr>
            <ns3:cad>57</ns3:cad>
          </ns3:TrackPointExtension>
        </extensions>
      </trkpt>
      <trkpt lat="56.0289214365184307098388671875" lon="24.16720404289662837982177734375">
        <ele>49.40000152587890625</ele>
        <time>2026-08-01T08:55:15.000Z</time>
        <extensions>
          <ns3:TrackPointExtension>
            <ns3:hr>135</ns3:hr>
            <ns3:cad>56</ns3:cad>
          </ns3:TrackPointExtension>
        </extensions>
      </trkpt>
      <trkpt lat="56.02892604656517505645751953125" lon="24.1671851836144924163818359375">
        <ele>49.799999237060546875</ele>
        <time>2026-08-01T08:55:18.000Z</time>
        <extensions>
          <ns3:TrackPointExtension>
            <ns3:hr>134</ns3:hr>
            <ns3:cad>0</ns3:cad>
          </ns3:TrackPointExtension>
        </extensions>
      </trkpt>
      <trkpt lat="56.028921268880367279052734375" lon="24.16712558828294277191162109375">
        <ele>49.799999237060546875</ele>
        <time>2026-08-01T08:55:24.000Z</time>
        <extensions>
          <ns3:TrackPointExtension>
            <ns3:hr>134</ns3:hr>
            <ns3:cad>0</ns3:cad>
          </ns3:TrackPointExtension>
        </extensions>
      </trkpt>
      <trkpt lat="56.02895588614046573638916015625" lon="24.1670121811330318450927734375">
        <ele>49.59999847412109375</ele>
        <time>2026-08-01T08:55:30.000Z</time>
        <extensions>
          <ns3:TrackPointExtension>
            <ns3:hr>131</ns3:hr>
            <ns3:cad>57</ns3:cad>
          </ns3:TrackPointExtension>
        </extensions>
      </trkpt>
      <trkpt lat="56.02897591888904571533203125" lon="24.16701410897076129913330078125">
        <ele>49.59999847412109375</ele>
        <time>2026-08-01T08:55:31.000Z</time>
        <extensions>
          <ns3:TrackPointExtension>
            <ns3:hr>131</ns3:hr>
            <ns3:cad>56</ns3:cad>
          </ns3:TrackPointExtension>
        </extensions>
      </trkpt>
      <trkpt lat="56.02909351699054241180419921875" lon="24.167071692645549774169921875">
        <ele>49.200000762939453125</ele>
        <time>2026-08-01T08:55:39.000Z</time>
        <extensions>
          <ns3:TrackPointExtension>
            <ns3:hr>130</ns3:hr>
            <ns3:cad>59</ns3:cad>
          </ns3:TrackPointExtension>
        </extensions>
      </trkpt>
      <trkpt lat="56.02918446063995361328125" lon="24.16714084334671497344970703125">
        <ele>49</ele>
        <time>2026-08-01T08:55:47.000Z</time>
        <extensions>
          <ns3:TrackPointExtension>
            <ns3:hr>129</ns3:hr>
            <ns3:cad>56</ns3:cad>
          </ns3:TrackPointExtension>
        </extensions>
      </trkpt>
      <trkpt lat="56.02929267100989818572998046875" lon="24.167215526103973388671875">
        <ele>49</ele>
        <time>2026-08-01T08:55:55.000Z</time>
        <extensions>
          <ns3:TrackPointExtension>
            <ns3:hr>126</ns3:hr>
            <ns3:cad>58</ns3:cad>
          </ns3:TrackPointExtension>
        </extensions>
      </trkpt>
      <trkpt lat="56.02940616197884082794189453125" lon="24.1672874428331851959228515625">
        <ele>49</ele>
        <time>2026-08-01T08:56:03.000Z</time>
        <extensions>
          <ns3:TrackPointExtension>
            <ns3:hr>126</ns3:hr>
            <ns3:cad>57</ns3:cad>
          </ns3:TrackPointExtension>
        </extensions>
      </trkpt>
      <trkpt lat="56.0295212455093860626220703125" lon="24.16735374368727207183837890625">
        <ele>49.200000762939453125</ele>
        <time>2026-08-01T08:56:11.000Z</time>
        <extensions>
          <ns3:TrackPointExtension>
            <ns3:hr>125</ns3:hr>
            <ns3:cad>58</ns3:cad>
          </ns3:TrackPointExtension>
        </extensions>
      </trkpt>
      <trkpt lat="56.02960229851305484771728515625" lon="24.1674000956118106842041015625">
        <ele>49.59999847412109375</ele>
        <time>2026-08-01T08:56:18.000Z</time>
        <extensions>
          <ns3:TrackPointExtension>
            <ns3:hr>125</ns3:hr>
            <ns3:cad>57</ns3:cad>
          </ns3:TrackPointExtension>
        </extensions>
      </trkpt>
      <trkpt lat="56.02969634346663951873779296875" lon="24.16744845919311046600341796875">
        <ele>49.40000152587890625</ele>
        <time>2026-08-01T08:56:24.000Z</time>
        <extensions>
          <ns3:TrackPointExtension>
            <ns3:hr>126</ns3:hr>
            <ns3:cad>59</ns3:cad>
          </ns3:TrackPointExtension>
        </extensions>
      </trkpt>
      <trkpt lat="56.0297383368015289306640625" lon="24.1674748621881008148193359375">
        <ele>49.40000152587890625</ele>
        <time>2026-08-01T08:56:27.000Z</time>
        <extensions>
          <ns3:TrackPointExtension>
            <ns3:hr>129</ns3:hr>
            <ns3:cad>58</ns3:cad>
          </ns3:TrackPointExtension>
        </extensions>
      </trkpt>
      <trkpt lat="56.02978602983057498931884765625" lon="24.16750344447791576385498046875">
        <ele>49.59999847412109375</ele>
        <time>2026-08-01T08:56:30.000Z</time>
        <extensions>
          <ns3:TrackPointExtension>
            <ns3:hr>128</ns3:hr>
            <ns3:cad>58</ns3:cad>
          </ns3:TrackPointExtension>
        </extensions>
      </trkpt>
      <trkpt lat="56.0298635624349117279052734375" lon="24.167553819715976715087890625">
        <ele>49.799999237060546875</ele>
        <time>2026-08-01T08:56:35.000Z</time>
        <extensions>
          <ns3:TrackPointExtension>
            <ns3:hr>125</ns3:hr>
            <ns3:cad>59</ns3:cad>
          </ns3:TrackPointExtension>
        </extensions>
      </trkpt>
      <trkpt lat="56.02989256381988525390625" lon="24.16757837869226932525634765625">
        <ele>49.799999237060546875</ele>
        <time>2026-08-01T08:56:37.000Z</time>
        <extensions>
          <ns3:TrackPointExtension>
            <ns3:hr>125</ns3:hr>
            <ns3:cad>59</ns3:cad>
          </ns3:TrackPointExtension>
        </extensions>
      </trkpt>
      <trkpt lat="56.03000245057046413421630859375" lon="24.16764174588024616241455078125">
        <ele>49.799999237060546875</ele>
        <time>2026-08-01T08:56:45.000Z</time>
        <extensions>
          <ns3:TrackPointExtension>
            <ns3:hr>123</ns3:hr>
            <ns3:cad>58</ns3:cad>
          </ns3:TrackPointExtension>
        </extensions>
      </trkpt>
      <trkpt lat="56.030120216310024261474609375" lon="24.16770301759243011474609375">
        <ele>50</ele>
        <time>2026-08-01T08:56:53.000Z</time>
        <extensions>
          <ns3:TrackPointExtension>
            <ns3:hr>125</ns3:hr>
            <ns3:cad>59</ns3:cad>
          </ns3:TrackPointExtension>
        </extensions>
      </trkpt>
      <trkpt lat="56.03020344860851764678955078125" lon="24.167757332324981689453125">
        <ele>50.200000762939453125</ele>
        <time>2026-08-01T08:57:00.000Z</time>
        <extensions>
          <ns3:TrackPointExtension>
            <ns3:hr>128</ns3:hr>
            <ns3:cad>58</ns3:cad>
          </ns3:TrackPointExtension>
        </extensions>
      </trkpt>
      <trkpt lat="56.03024686686694622039794921875" lon="24.16777652688324451446533203125">
        <ele>50.200000762939453125</ele>
        <time>2026-08-01T08:57:03.000Z</time>
        <extensions>
          <ns3:TrackPointExtension>
            <ns3:hr>129</ns3:hr>
            <ns3:cad>58</ns3:cad>
          </ns3:TrackPointExtension>
        </extensions>
      </trkpt>
      <trkpt lat="56.03035951964557170867919921875" lon="24.16786403395235538482666015625">
        <ele>50.59999847412109375</ele>
        <time>2026-08-01T08:57:12.000Z</time>
        <extensions>
          <ns3:TrackPointExtension>
            <ns3:hr>129</ns3:hr>
            <ns3:cad>59</ns3:cad>
          </ns3:TrackPointExtension>
        </extensions>
      </trkpt>
      <trkpt lat="56.03049647994339466094970703125" lon="24.16796294040977954864501953125">
        <ele>50.40000152587890625</ele>
        <time>2026-08-01T08:57:22.000Z</time>
        <extensions>
          <ns3:TrackPointExtension>
            <ns3:hr>130</ns3:hr>
            <ns3:cad>58</ns3:cad>
          </ns3:TrackPointExtension>
        </extensions>
      </trkpt>
      <trkpt lat="56.03059060871601104736328125" lon="24.168022535741329193115234375">
        <ele>50.59999847412109375</ele>
        <time>2026-08-01T08:57:29.000Z</time>
        <extensions>
          <ns3:TrackPointExtension>
            <ns3:hr>128</ns3:hr>
            <ns3:cad>58</ns3:cad>
          </ns3:TrackPointExtension>
        </extensions>
      </trkpt>
      <trkpt lat="56.03063645772635936737060546875" lon="24.16806352324783802032470703125">
        <ele>50.799999237060546875</ele>
        <time>2026-08-01T08:57:33.000Z</time>
        <extensions>
          <ns3:TrackPointExtension>
            <ns3:hr>128</ns3:hr>
            <ns3:cad>57</ns3:cad>
          </ns3:TrackPointExtension>
        </extensions>
      </trkpt>
      <trkpt lat="56.030709631741046905517578125" lon="24.168109707534313201904296875">
        <ele>51</ele>
        <time>2026-08-01T08:57:38.000Z</time>
        <extensions>
          <ns3:TrackPointExtension>
            <ns3:hr>128</ns3:hr>
            <ns3:cad>58</ns3:cad>
          </ns3:TrackPointExtension>
        </extensions>
      </trkpt>
      <trkpt lat="56.0308345220983028411865234375" lon="24.1681651957333087921142578125">
        <ele>51</ele>
        <time>2026-08-01T08:57:47.000Z</time>
        <extensions>
          <ns3:TrackPointExtension>
            <ns3:hr>128</ns3:hr>
            <ns3:cad>58</ns3:cad>
          </ns3:TrackPointExtension>
        </extensions>
      </trkpt>
      <trkpt lat="56.03085874579846858978271484375" lon="24.1681913472712039947509765625">
        <ele>51</ele>
        <time>2026-08-01T08:57:54.000Z</time>
        <extensions>
          <ns3:TrackPointExtension>
            <ns3:hr>128</ns3:hr>
            <ns3:cad>0</ns3:cad>
          </ns3:TrackPointExtension>
        </extensions>
      </trkpt>
      <trkpt lat="56.030881963670253753662109375" lon="24.1681967116892337799072265625">
        <ele>51.200000762939453125</ele>
        <time>2026-08-01T08:57:59.000Z</time>
        <extensions>
          <ns3:TrackPointExtension>
            <ns3:hr>129</ns3:hr>
            <ns3:cad>0</ns3:cad>
          </ns3:TrackPointExtension>
        </extensions>
      </trkpt>
      <trkpt lat="56.03091909550130367279052734375" lon="24.16826628148555755615234375">
        <ele>50.59999847412109375</ele>
        <time>2026-08-01T08:58:06.000Z</time>
        <extensions>
          <ns3:TrackPointExtension>
            <ns3:hr>129</ns3:hr>
            <ns3:cad>0</ns3:cad>
          </ns3:TrackPointExtension>
        </extensions>
      </trkpt>
      <trkpt lat="56.030992604792118072509765625" lon="24.16832118295133113861083984375">
        <ele>50.40000152587890625</ele>
        <time>2026-08-01T08:58:12.000Z</time>
        <extensions>
          <ns3:TrackPointExtension>
            <ns3:hr>129</ns3:hr>
            <ns3:cad>56</ns3:cad>
          </ns3:TrackPointExtension>
        </extensions>
      </trkpt>
      <trkpt lat="56.03110969997942447662353515625" lon="24.16843752376735210418701171875">
        <ele>50.40000152587890625</ele>
        <time>2026-08-01T08:58:21.000Z</time>
        <extensions>
          <ns3:TrackPointExtension>
            <ns3:hr>126</ns3:hr>
            <ns3:cad>59</ns3:cad>
          </ns3:TrackPointExtension>
        </extensions>
      </trkpt>
      <trkpt lat="56.03116284124553203582763671875" lon="24.1684944368898868560791015625">
        <ele>50.40000152587890625</ele>
        <time>2026-08-01T08:58:25.000Z</time>
        <extensions>
          <ns3:TrackPointExtension>
            <ns3:hr>123</ns3:hr>
            <ns3:cad>58</ns3:cad>
          </ns3:TrackPointExtension>
        </extensions>
      </trkpt>
      <trkpt lat="56.0311989672482013702392578125" lon="24.16851480491459369659423828125">
        <ele>50.59999847412109375</ele>
        <time>2026-08-01T08:58:28.000Z</time>
        <extensions>
          <ns3:TrackPointExtension>
            <ns3:hr>122</ns3:hr>
            <ns3:cad>58</ns3:cad>
          </ns3:TrackPointExtension>
        </extensions>
      </trkpt>
      <trkpt lat="56.03131505660712718963623046875" lon="24.1686003841459751129150390625">
        <ele>50.59999847412109375</ele>
        <time>2026-08-01T08:58:37.000Z</time>
        <extensions>
          <ns3:TrackPointExtension>
            <ns3:hr>122</ns3:hr>
            <ns3:cad>58</ns3:cad>
          </ns3:TrackPointExtension>
        </extensions>
      </trkpt>
      <trkpt lat="56.0314088501036167144775390625" lon="24.1685913316905498504638671875">
        <ele>51.40000152587890625</ele>
        <time>2026-08-01T08:58:45.000Z</time>
        <extensions>
          <ns3:TrackPointExtension>
            <ns3:hr>123</ns3:hr>
            <ns3:cad>57</ns3:cad>
          </ns3:TrackPointExtension>
        </extensions>
      </trkpt>
      <trkpt lat="56.03141672909259796142578125" lon="24.1685893200337886810302734375">
        <ele>51.59999847412109375</ele>
        <time>2026-08-01T08:58:49.000Z</time>
        <extensions>
          <ns3:TrackPointExtension>
            <ns3:hr>124</ns3:hr>
            <ns3:cad>0</ns3:cad>
          </ns3:TrackPointExtension>
        </extensions>
      </trkpt>
      <trkpt lat="56.03141614235937595367431640625" lon="24.168587811291217803955078125">
        <ele>50.59999847412109375</ele>
        <time>2026-08-01T08:58:54.000Z</time>
        <extensions>
          <ns3:TrackPointExtension>
            <ns3:hr>122</ns3:hr>
            <ns3:cad>0</ns3:cad>
          </ns3:TrackPointExtension>
        </extensions>
      </trkpt>
      <trkpt lat="56.031414382159709930419921875" lon="24.168594181537628173828125">
        <ele>50.59999847412109375</ele>
        <time>2026-08-01T08:58:56.000Z</time>
        <extensions>
          <ns3:TrackPointExtension>
            <ns3:hr>127</ns3:hr>
            <ns3:cad>0</ns3:cad>
          </ns3:TrackPointExtension>
        </extensions>
      </trkpt>
      <trkpt lat="56.03138714097440242767333984375" lon="24.1686231829226016998291015625">
        <ele>50.59999847412109375</ele>
        <time>2026-08-01T08:58:59.000Z</time>
        <extensions>
          <ns3:TrackPointExtension>
            <ns3:hr>130</ns3:hr>
            <ns3:cad>0</ns3:cad>
          </ns3:TrackPointExtension>
        </extensions>
      </trkpt>
      <trkpt lat="56.031363420188426971435546875" lon="24.16865126229822635650634765625">
        <ele>50.59999847412109375</ele>
        <time>2026-08-01T08:59:01.000Z</time>
        <extensions>
          <ns3:TrackPointExtension>
            <ns3:hr>130</ns3:hr>
            <ns3:cad>0</ns3:cad>
          </ns3:TrackPointExtension>
        </extensions>
      </trkpt>
      <trkpt lat="56.031316481530666351318359375" lon="24.168784283101558685302734375">
        <ele>50.200000762939453125</ele>
        <time>2026-08-01T08:59:07.000Z</time>
        <extensions>
          <ns3:TrackPointExtension>
            <ns3:hr>127</ns3:hr>
            <ns3:cad>57</ns3:cad>
          </ns3:TrackPointExtension>
        </extensions>
      </trkpt>
      <trkpt lat="56.0313049145042896270751953125" lon="24.16885712184011936187744140625">
        <ele>49.799999237060546875</ele>
        <time>2026-08-01T08:59:10.000Z</time>
        <extensions>
          <ns3:TrackPointExtension>
            <ns3:hr>128</ns3:hr>
            <ns3:cad>57</ns3:cad>
          </ns3:TrackPointExtension>
        </extensions>
      </trkpt>
      <trkpt lat="56.03131078183650970458984375" lon="24.1688736341893672943115234375">
        <ele>49.59999847412109375</ele>
        <time>2026-08-01T08:59:11.000Z</time>
        <extensions>
          <ns3:TrackPointExtension>
            <ns3:hr>128</ns3:hr>
            <ns3:cad>57</ns3:cad>
          </ns3:TrackPointExtension>
        </extensions>
      </trkpt>
      <trkpt lat="56.03136870078742504119873046875" lon="24.16890741325914859771728515625">
        <ele>49.200000762939453125</ele>
        <time>2026-08-01T08:59:15.000Z</time>
        <extensions>
          <ns3:TrackPointExtension>
            <ns3:hr>127</ns3:hr>
            <ns3:cad>57</ns3:cad>
          </ns3:TrackPointExtension>
        </extensions>
      </trkpt>
      <trkpt lat="56.031400300562381744384765625" lon="24.1689152084290981292724609375">
        <ele>49.200000762939453125</ele>
        <time>2026-08-01T08:59:17.000Z</time>
        <extensions>
          <ns3:TrackPointExtension>
            <ns3:hr>124</ns3:hr>
            <ns3:cad>58</ns3:cad>
          </ns3:TrackPointExtension>
        </extensions>
      </trkpt>
      <trkpt lat="56.0314816050231456756591796875" lon="24.1689266078174114227294921875">
        <ele>49</ele>
        <time>2026-08-01T08:59:23.000Z</time>
        <extensions>
          <ns3:TrackPointExtension>
            <ns3:hr>121</ns3:hr>
            <ns3:cad>58</ns3:cad>
          </ns3:TrackPointExtension>
        </extensions>
      </trkpt>
      <trkpt lat="56.03149459697306156158447265625" lon="24.16892769746482372283935546875">
        <ele>49</ele>
        <time>2026-08-01T08:59:24.000Z</time>
        <extensions>
          <ns3:TrackPointExtension>
            <ns3:hr>121</ns3:hr>
            <ns3:cad>57</ns3:cad>
          </ns3:TrackPointExtension>
        </extensions>
      </trkpt>
      <trkpt lat="56.03158436715602874755859375" lon="24.1689427010715007781982421875">
        <ele>49</ele>
        <time>2026-08-01T08:59:31.000Z</time>
        <extensions>
          <ns3:TrackPointExtension>
            <ns3:hr>118</ns3:hr>
            <ns3:cad>57</ns3:cad>
          </ns3:TrackPointExtension>
        </extensions>
      </trkpt>
      <trkpt lat="56.0316106863319873809814453125" lon="24.16896223090589046478271484375">
        <ele>49</ele>
        <time>2026-08-01T08:59:33.000Z</time>
        <extensions>
          <ns3:TrackPointExtension>
            <ns3:hr>116</ns3:hr>
            <ns3:cad>57</ns3:cad>
          </ns3:TrackPointExtension>
        </extensions>
      </trkpt>
      <trkpt lat="56.0316153801977634429931640625" lon="24.16896633803844451904296875">
        <ele>49</ele>
        <time>2026-08-01T08:59:38.000Z</time>
        <extensions>
          <ns3:TrackPointExtension>
            <ns3:hr>115</ns3:hr>
            <ns3:cad>0</ns3:cad>
          </ns3:TrackPointExtension>
        </extensions>
      </trkpt>
      <trkpt lat="56.03162325918674468994140625" lon="24.16893440298736095428466796875">
        <ele>49</ele>
        <time>2026-08-01T08:59:46.000Z</time>
        <extensions>
          <ns3:TrackPointExtension>
            <ns3:hr>115</ns3:hr>
            <ns3:cad>0</ns3:cad>
          </ns3:TrackPointExtension>
        </extensions>
      </trkpt>
      <trkpt lat="56.03164136409759521484375" lon="24.16888184845447540283203125">
        <ele>49</ele>
        <time>2026-08-01T08:59:50.000Z</time>
        <extensions>
          <ns3:TrackPointExtension>
            <ns3:hr>122</ns3:hr>
            <ns3:cad>0</ns3:cad>
          </ns3:TrackPointExtension>
        </extensions>
      </trkpt>
      <trkpt lat="56.03164195083081722259521484375" lon="24.1688649170100688934326171875">
        <ele>49.200000762939453125</ele>
        <time>2026-08-01T08:59:51.000Z</time>
        <extensions>
          <ns3:TrackPointExtension>
            <ns3:hr>126</ns3:hr>
            <ns3:cad>48</ns3:cad>
          </ns3:TrackPointExtension>
        </extensions>
      </trkpt>
      <trkpt lat="56.03164379484951496124267578125" lon="24.16885041631758213043212890625">
        <ele>49.40000152587890625</ele>
        <time>2026-08-01T08:59:52.000Z</time>
        <extensions>
          <ns3:TrackPointExtension>
            <ns3:hr>128</ns3:hr>
            <ns3:cad>48</ns3:cad>
          </ns3:TrackPointExtension>
        </extensions>
      </trkpt>
      <trkpt lat="56.0317043960094451904296875" lon="24.16864757426083087921142578125">
        <ele>50.200000762939453125</ele>
        <time>2026-08-01T09:00:02.000Z</time>
        <extensions>
          <ns3:TrackPointExtension>
            <ns3:hr>128</ns3:hr>
            <ns3:cad>57</ns3:cad>
          </ns3:TrackPointExtension>
        </extensions>
      </trkpt>
      <trkpt lat="56.03174865245819091796875" lon="24.168444983661174774169921875">
        <ele>50.200000762939453125</ele>
        <time>2026-08-01T09:00:10.000Z</time>
        <extensions>
          <ns3:TrackPointExtension>
            <ns3:hr>130</ns3:hr>
            <ns3:cad>56</ns3:cad>
          </ns3:TrackPointExtension>
        </extensions>
      </trkpt>
      <trkpt lat="56.031773798167705535888671875" lon="24.16830693371593952178955078125">
        <ele>50</ele>
        <time>2026-08-01T09:00:16.000Z</time>
        <extensions>
          <ns3:TrackPointExtension>
            <ns3:hr>127</ns3:hr>
            <ns3:cad>57</ns3:cad>
          </ns3:TrackPointExtension>
        </extensions>
      </trkpt>
      <trkpt lat="56.031773127615451812744140625" lon="24.1683204285800457000732421875">
        <ele>50.200000762939453125</ele>
        <time>2026-08-01T09:00:17.000Z</time>
        <extensions>
          <ns3:TrackPointExtension>
            <ns3:hr>126</ns3:hr>
            <ns3:cad>57</ns3:cad>
          </ns3:TrackPointExtension>
        </extensions>
      </trkpt>
      <trkpt lat="56.031772457063198089599609375" lon="24.16833400726318359375">
        <ele>50.200000762939453125</ele>
        <time>2026-08-01T09:00:18.000Z</time>
        <extensions>
          <ns3:TrackPointExtension>
            <ns3:hr>125</ns3:hr>
            <ns3:cad>57</ns3:cad>
          </ns3:TrackPointExtension>
        </extensions>
      </trkpt>
      <trkpt lat="56.0318108461797237396240234375" lon="24.1684099473059177398681640625">
        <ele>50</ele>
        <time>2026-08-01T09:00:23.000Z</time>
        <extensions>
          <ns3:TrackPointExtension>
            <ns3:hr>124</ns3:hr>
            <ns3:cad>57</ns3:cad>
          </ns3:TrackPointExtension>
        </extensions>
      </trkpt>
      <trkpt lat="56.031905896961688995361328125" lon="24.1684914194047451019287109375">
        <ele>49.799999237060546875</ele>
        <time>2026-08-01T09:00:29.000Z</time>
        <extensions>
          <ns3:TrackPointExtension>
            <ns3:hr>122</ns3:hr>
            <ns3:cad>58</ns3:cad>
          </ns3:TrackPointExtension>
        </extensions>
      </trkpt>
      <trkpt lat="56.03195074014365673065185546875" lon="24.1686205007135868072509765625">
        <ele>49.799999237060546875</ele>
        <time>2026-08-01T09:00:35.000Z</time>
        <extensions>
          <ns3:TrackPointExtension>
            <ns3:hr>123</ns3:hr>
            <ns3:cad>59</ns3:cad>
          </ns3:TrackPointExtension>
        </extensions>
      </trkpt>
      <trkpt lat="56.03193615563213825225830078125" lon="24.1687800921499729156494140625">
        <ele>49.40000152587890625</ele>
        <time>2026-08-01T09:00:41.000Z</time>
        <extensions>
          <ns3:TrackPointExtension>
            <ns3:hr>120</ns3:hr>
            <ns3:cad>58</ns3:cad>
          </ns3:TrackPointExtension>
        </extensions>
      </trkpt>
      <trkpt lat="56.0319364070892333984375" lon="24.168804399669170379638671875">
        <ele>49.40000152587890625</ele>
        <time>2026-08-01T09:00:42.000Z</time>
        <extensions>
          <ns3:TrackPointExtension>
            <ns3:hr>119</ns3:hr>
            <ns3:cad>58</ns3:cad>
          </ns3:TrackPointExtension>
        </extensions>
      </trkpt>
      <trkpt lat="56.0319996066391468048095703125" lon="24.168901629745960235595703125">
        <ele>49</ele>
        <time>2026-08-01T09:00:49.000Z</time>
        <extensions>
          <ns3:TrackPointExtension>
            <ns3:hr>119</ns3:hr>
            <ns3:cad>59</ns3:cad>
          </ns3:TrackPointExtension>
        </extensions>
      </trkpt>
      <trkpt lat="56.03199935518205165863037109375" lon="24.16888880543410778045654296875">
        <ele>49.59999847412109375</ele>
        <time>2026-08-01T09:00:55.000Z</time>
        <extensions>
          <ns3:TrackPointExtension>
            <ns3:hr>118</ns3:hr>
            <ns3:cad>0</ns3:cad>
          </ns3:TrackPointExtension>
        </extensions>
      </trkpt>
      <trkpt lat="56.0320317931473255157470703125" lon="24.1689195670187473297119140625">
        <ele>49.200000762939453125</ele>
        <time>2026-08-01T09:01:00.000Z</time>
        <extensions>
          <ns3:TrackPointExtension>
            <ns3:hr>120</ns3:hr>
            <ns3:cad>0</ns3:cad>
          </ns3:TrackPointExtension>
        </extensions>
      </trkpt>
      <trkpt lat="56.032038666307926177978515625" lon="24.16893406771123409271240234375">
        <ele>49.40000152587890625</ele>
        <time>2026-08-01T09:01:05.000Z</time>
        <extensions>
          <ns3:TrackPointExtension>
            <ns3:hr>123</ns3:hr>
            <ns3:cad>0</ns3:cad>
          </ns3:TrackPointExtension>
        </extensions>
      </trkpt>
      <trkpt lat="56.03205517865717411041259765625" lon="24.16894429363310337066650390625">
        <ele>49</ele>
        <time>2026-08-01T09:01:08.000Z</time>
        <extensions>
          <ns3:TrackPointExtension>
            <ns3:hr>122</ns3:hr>
            <ns3:cad>0</ns3:cad>
          </ns3:TrackPointExtension>
        </extensions>
      </trkpt>
      <trkpt lat="56.03206004016101360321044921875" lon="24.16892618872225284576416015625">
        <ele>48.799999237060546875</ele>
        <time>2026-08-01T09:01:13.000Z</time>
        <extensions>
          <ns3:TrackPointExtension>
            <ns3:hr>122</ns3:hr>
            <ns3:cad>0</ns3:cad>
          </ns3:TrackPointExtension>
        </extensions>
      </trkpt>
      <trkpt lat="56.03207780979573726654052734375" lon="24.16894295252859592437744140625">
        <ele>48.59999847412109375</ele>
        <time>2026-08-01T09:01:15.000Z</time>
        <extensions>
          <ns3:TrackPointExtension>
            <ns3:hr>122</ns3:hr>
            <ns3:cad>0</ns3:cad>
          </ns3:TrackPointExtension>
        </extensions>
      </trkpt>
      <trkpt lat="56.03215492330491542816162109375" lon="24.16899391449987888336181640625">
        <ele>48.59999847412109375</ele>
        <time>2026-08-01T09:01:22.000Z</time>
        <extensions>
          <ns3:TrackPointExtension>
            <ns3:hr>124</ns3:hr>
            <ns3:cad>57</ns3:cad>
          </ns3:TrackPointExtension>
        </extensions>
      </trkpt>
      <trkpt lat="56.032212339341640472412109375" lon="24.169044457376003265380859375">
        <ele>48.40000152587890625</ele>
        <time>2026-08-01T09:01:28.000Z</time>
        <extensions>
          <ns3:TrackPointExtension>
            <ns3:hr>121</ns3:hr>
            <ns3:cad>0</ns3:cad>
          </ns3:TrackPointExtension>
        </extensions>
      </trkpt>
      <trkpt lat="56.03223488666117191314697265625" lon="24.1690727882087230682373046875">
        <ele>48.200000762939453125</ele>
        <time>2026-08-01T09:01:30.000Z</time>
        <extensions>
          <ns3:TrackPointExtension>
            <ns3:hr>117</ns3:hr>
            <ns3:cad>57</ns3:cad>
          </ns3:TrackPointExtension>
        </extensions>
      </trkpt>
      <trkpt lat="56.0323070548474788665771484375" lon="24.169147722423076629638671875">
        <ele>47.799999237060546875</ele>
        <time>2026-08-01T09:01:36.000Z</time>
        <extensions>
          <ns3:TrackPointExtension>
            <ns3:hr>116</ns3:hr>
            <ns3:cad>59</ns3:cad>
          </ns3:TrackPointExtension>
        </extensions>
      </trkpt>
      <trkpt lat="56.03232021443545818328857421875" lon="24.1691606305539608001708984375">
        <ele>47.59999847412109375</ele>
        <time>2026-08-01T09:01:37.000Z</time>
        <extensions>
          <ns3:TrackPointExtension>
            <ns3:hr>117</ns3:hr>
            <ns3:cad>58</ns3:cad>
          </ns3:TrackPointExtension>
        </extensions>
      </trkpt>
      <trkpt lat="56.0323586873710155487060546875" lon="24.1691988520324230194091796875">
        <ele>47.40000152587890625</ele>
        <time>2026-08-01T09:01:40.000Z</time>
        <extensions>
          <ns3:TrackPointExtension>
            <ns3:hr>120</ns3:hr>
            <ns3:cad>58</ns3:cad>
          </ns3:TrackPointExtension>
        </extensions>
      </trkpt>
      <trkpt lat="56.032395064830780029296875" lon="24.16924838908016681671142578125">
        <ele>47.40000152587890625</ele>
        <time>2026-08-01T09:01:43.000Z</time>
        <extensions>
          <ns3:TrackPointExtension>
            <ns3:hr>122</ns3:hr>
            <ns3:cad>58</ns3:cad>
          </ns3:TrackPointExtension>
        </extensions>
      </trkpt>
      <trkpt lat="56.0324378125369548797607421875" lon="24.16935081593692302703857421875">
        <ele>47</ele>
        <time>2026-08-01T09:01:48.000Z</time>
        <extensions>
          <ns3:TrackPointExtension>
            <ns3:hr>119</ns3:hr>
            <ns3:cad>58</ns3:cad>
          </ns3:TrackPointExtension>
        </extensions>
      </trkpt>
      <trkpt lat="56.0324448533356189727783203125" lon="24.1693599522113800048828125">
        <ele>47</ele>
        <time>2026-08-01T09:01:49.000Z</time>
        <extensions>
          <ns3:TrackPointExtension>
            <ns3:hr>117</ns3:hr>
            <ns3:cad>58</ns3:cad>
          </ns3:TrackPointExtension>
        </extensions>
      </trkpt>
      <trkpt lat="56.03246270678937435150146484375" lon="24.1693641431629657745361328125">
        <ele>47.40000152587890625</ele>
        <time>2026-08-01T09:01:56.000Z</time>
        <extensions>
          <ns3:TrackPointExtension>
            <ns3:hr>115</ns3:hr>
            <ns3:cad>0</ns3:cad>
          </ns3:TrackPointExtension>
        </extensions>
      </trkpt>
      <trkpt lat="56.03247343562543392181396484375" lon="24.16940060444176197052001953125">
        <ele>47.200000762939453125</ele>
        <time>2026-08-01T09:02:03.000Z</time>
        <extensions>
          <ns3:TrackPointExtension>
            <ns3:hr>116</ns3:hr>
            <ns3:cad>0</ns3:cad>
          </ns3:TrackPointExtension>
        </extensions>
      </trkpt>
      <trkpt lat="56.0324884392321109771728515625" lon="24.16958048008382320404052734375">
        <ele>46.59999847412109375</ele>
        <time>2026-08-01T09:02:11.000Z</time>
        <extensions>
          <ns3:TrackPointExtension>
            <ns3:hr>118</ns3:hr>
            <ns3:cad>57</ns3:cad>
          </ns3:TrackPointExtension>
        </extensions>
      </trkpt>
      <trkpt lat="56.03250243701040744781494140625" lon="24.16963563300669193267822265625">
        <ele>46.40000152587890625</ele>
        <time>2026-08-01T09:02:13.000Z</time>
        <extensions>
          <ns3:TrackPointExtension>
            <ns3:hr>119</ns3:hr>
            <ns3:cad>58</ns3:cad>
          </ns3:TrackPointExtension>
        </extensions>
      </trkpt>
      <trkpt lat="56.03258709423243999481201171875" lon="24.1697032749652862548828125">
        <ele>46.200000762939453125</ele>
        <time>2026-08-01T09:02:20.000Z</time>
        <extensions>
          <ns3:TrackPointExtension>
            <ns3:hr>120</ns3:hr>
            <ns3:cad>58</ns3:cad>
          </ns3:TrackPointExtension>
        </extensions>
      </trkpt>
      <trkpt lat="56.03265733458101749420166015625" lon="24.1697215475142002105712890625">
        <ele>46</ele>
        <time>2026-08-01T09:02:25.000Z</time>
        <extensions>
          <ns3:TrackPointExtension>
            <ns3:hr>117</ns3:hr>
            <ns3:cad>57</ns3:cad>
          </ns3:TrackPointExtension>
        </extensions>
      </trkpt>
      <trkpt lat="56.03269614279270172119140625" lon="24.1697419993579387664794921875">
        <ele>46</ele>
        <time>2026-08-01T09:02:28.000Z</time>
        <extensions>
          <ns3:TrackPointExtension>
            <ns3:hr>116</ns3:hr>
            <ns3:cad>59</ns3:cad>
          </ns3:TrackPointExtension>
        </extensions>
      </trkpt>
      <trkpt lat="56.0328014194965362548828125" lon="24.16979254223406314849853515625">
        <ele>45.799999237060546875</ele>
        <time>2026-08-01T09:02:36.000Z</time>
        <extensions>
          <ns3:TrackPointExtension>
            <ns3:hr>115</ns3:hr>
            <ns3:cad>58</ns3:cad>
          </ns3:TrackPointExtension>
        </extensions>
      </trkpt>
      <trkpt lat="56.03287140838801860809326171875" lon="24.16982439346611499786376953125">
        <ele>45.59999847412109375</ele>
        <time>2026-08-01T09:02:42.000Z</time>
        <extensions>
          <ns3:TrackPointExtension>
            <ns3:hr>114</ns3:hr>
            <ns3:cad>58</ns3:cad>
          </ns3:TrackPointExtension>
        </extensions>
      </trkpt>
      <trkpt lat="56.03290761820971965789794921875" lon="24.1698301769793033599853515625">
        <ele>45.40000152587890625</ele>
        <time>2026-08-01T09:02:45.000Z</time>
        <extensions>
          <ns3:TrackPointExtension>
            <ns3:hr>115</ns3:hr>
            <ns3:cad>58</ns3:cad>
          </ns3:TrackPointExtension>
        </extensions>
      </trkpt>
      <trkpt lat="56.0330178402364253997802734375" lon="24.16984417475759983062744140625">
        <ele>45.59999847412109375</ele>
        <time>2026-08-01T09:02:53.000Z</time>
        <extensions>
          <ns3:TrackPointExtension>
            <ns3:hr>114</ns3:hr>
            <ns3:cad>57</ns3:cad>
          </ns3:TrackPointExtension>
        </extensions>
      </trkpt>
      <trkpt lat="56.0330520384013652801513671875" lon="24.169857501983642578125">
        <ele>45.799999237060546875</ele>
        <time>2026-08-01T09:03:02.000Z</time>
        <extensions>
          <ns3:TrackPointExtension>
            <ns3:hr>115</ns3:hr>
            <ns3:cad>0</ns3:cad>
          </ns3:TrackPointExtension>
        </extensions>
      </trkpt>
      <trkpt lat="56.033094786107540130615234375" lon="24.169844090938568115234375">
        <ele>45.59999847412109375</ele>
        <time>2026-08-01T09:03:08.000Z</time>
        <extensions>
          <ns3:TrackPointExtension>
            <ns3:hr>119</ns3:hr>
            <ns3:cad>55</ns3:cad>
          </ns3:TrackPointExtension>
        </extensions>
      </trkpt>
      <trkpt lat="56.033204086124897003173828125" lon="24.16982866823673248291015625">
        <ele>45.799999237060546875</ele>
        <time>2026-08-01T09:03:16.000Z</time>
        <extensions>
          <ns3:TrackPointExtension>
            <ns3:hr>119</ns3:hr>
            <ns3:cad>58</ns3:cad>
          </ns3:TrackPointExtension>
        </extensions>
      </trkpt>
      <trkpt lat="56.033212132751941680908203125" lon="24.1698368825018405914306640625">
        <ele>46</ele>
        <time>2026-08-01T09:03:21.000Z</time>
        <extensions>
          <ns3:TrackPointExtension>
            <ns3:hr>119</ns3:hr>
            <ns3:cad>0</ns3:cad>
          </ns3:TrackPointExtension>
        </extensions>
      </trkpt>
      <trkpt lat="56.03327407501637935638427734375" lon="24.16986948810517787933349609375">
        <ele>46</ele>
        <time>2026-08-01T09:03:26.000Z</time>
        <extensions>
          <ns3:TrackPointExtension>
            <ns3:hr>118</ns3:hr>
            <ns3:cad>0</ns3:cad>
          </ns3:TrackPointExtension>
        </extensions>
      </trkpt>
      <trkpt lat="56.033367030322551727294921875" lon="24.16981399990618228912353515625">
        <ele>46.200000762939453125</ele>
        <time>2026-08-01T09:03:34.000Z</time>
        <extensions>
          <ns3:TrackPointExtension>
            <ns3:hr>118</ns3:hr>
            <ns3:cad>59</ns3:cad>
          </ns3:TrackPointExtension>
        </extensions>
      </trkpt>
      <trkpt lat="56.0334258712828159332275390625" lon="24.16966077871620655059814453125">
        <ele>46.59999847412109375</ele>
        <time>2026-08-01T09:03:40.000Z</time>
        <extensions>
          <ns3:TrackPointExtension>
            <ns3:hr>118</ns3:hr>
            <ns3:cad>58</ns3:cad>
          </ns3:TrackPointExtension>
        </extensions>
      </trkpt>
      <trkpt lat="56.0334478318691253662109375" lon="24.16964166797697544097900390625">
        <ele>46.799999237060546875</ele>
        <time>2026-08-01T09:03:42.000Z</time>
        <extensions>
          <ns3:TrackPointExtension>
            <ns3:hr>119</ns3:hr>
            <ns3:cad>58</ns3:cad>
          </ns3:TrackPointExtension>
        </extensions>
      </trkpt>
      <trkpt lat="56.0335242748260498046875" lon="24.1696015186607837677001953125">
        <ele>47</ele>
        <time>2026-08-01T09:03:49.000Z</time>
        <extensions>
          <ns3:TrackPointExtension>
            <ns3:hr>121</ns3:hr>
            <ns3:cad>59</ns3:cad>
          </ns3:TrackPointExtension>
        </extensions>
      </trkpt>
      <trkpt lat="56.0336243547499179840087890625" lon="24.16961501352488994598388671875">
        <ele>47.40000152587890625</ele>
        <time>2026-08-01T09:03:56.000Z</time>
        <extensions>
          <ns3:TrackPointExtension>
            <ns3:hr>122</ns3:hr>
            <ns3:cad>57</ns3:cad>
          </ns3:TrackPointExtension>
        </extensions>
      </trkpt>
      <trkpt lat="56.0337121970951557159423828125" lon="24.1696578450500965118408203125">
        <ele>47.59999847412109375</ele>
        <time>2026-08-01T09:04:02.000Z</time>
        <extensions>
          <ns3:TrackPointExtension>
            <ns3:hr>123</ns3:hr>
            <ns3:cad>58</ns3:cad>
          </ns3:TrackPointExtension>
        </extensions>
      </trkpt>
      <trkpt lat="56.03375427424907684326171875" lon="24.169659353792667388916015625">
        <ele>47.799999237060546875</ele>
        <time>2026-08-01T09:04:05.000Z</time>
        <extensions>
          <ns3:TrackPointExtension>
            <ns3:hr>123</ns3:hr>
            <ns3:cad>57</ns3:cad>
          </ns3:TrackPointExtension>
        </extensions>
      </trkpt>
      <trkpt lat="56.033847816288471221923828125" lon="24.16963152587413787841796875">
        <ele>48</ele>
        <time>2026-08-01T09:04:12.000Z</time>
        <extensions>
          <ns3:TrackPointExtension>
            <ns3:hr>120</ns3:hr>
            <ns3:cad>58</ns3:cad>
          </ns3:TrackPointExtension>
        </extensions>
      </trkpt>
      <trkpt lat="56.03388058952987194061279296875" lon="24.1696296818554401397705078125">
        <ele>48</ele>
        <time>2026-08-01T09:04:14.000Z</time>
        <extensions>
          <ns3:TrackPointExtension>
            <ns3:hr>119</ns3:hr>
            <ns3:cad>57</ns3:cad>
          </ns3:TrackPointExtension>
        </extensions>
      </trkpt>
      <trkpt lat="56.0340203158557415008544921875" lon="24.16967175900936126708984375">
        <ele>48.200000762939453125</ele>
        <time>2026-08-01T09:04:23.000Z</time>
        <extensions>
          <ns3:TrackPointExtension>
            <ns3:hr>118</ns3:hr>
            <ns3:cad>58</ns3:cad>
          </ns3:TrackPointExtension>
        </extensions>
      </trkpt>
      <trkpt lat="56.03408024646341800689697265625" lon="24.16970285587012767791748046875">
        <ele>48.200000762939453125</ele>
        <time>2026-08-01T09:04:28.000Z</time>
        <extensions>
          <ns3:TrackPointExtension>
            <ns3:hr>121</ns3:hr>
            <ns3:cad>59</ns3:cad>
          </ns3:TrackPointExtension>
        </extensions>
      </trkpt>
      <trkpt lat="56.0341172106564044952392578125" lon="24.169715680181980133056640625">
        <ele>48.200000762939453125</ele>
        <time>2026-08-01T09:04:31.000Z</time>
        <extensions>
          <ns3:TrackPointExtension>
            <ns3:hr>121</ns3:hr>
            <ns3:cad>59</ns3:cad>
          </ns3:TrackPointExtension>
        </extensions>
      </trkpt>
      <trkpt lat="56.0342013649642467498779296875" lon="24.1698566637933254241943359375">
        <ele>48.200000762939453125</ele>
        <time>2026-08-01T09:04:37.000Z</time>
        <extensions>
          <ns3:TrackPointExtension>
            <ns3:hr>122</ns3:hr>
            <ns3:cad>58</ns3:cad>
          </ns3:TrackPointExtension>
        </extensions>
      </trkpt>
      <trkpt lat="56.03424704633653163909912109375" lon="24.1700219549238681793212890625">
        <ele>48</ele>
        <time>2026-08-01T09:04:44.000Z</time>
        <extensions>
          <ns3:TrackPointExtension>
            <ns3:hr>123</ns3:hr>
            <ns3:cad>59</ns3:cad>
          </ns3:TrackPointExtension>
        </extensions>
      </trkpt>
      <trkpt lat="56.03431217372417449951171875" lon="24.1701952926814556121826171875">
        <ele>47.59999847412109375</ele>
        <time>2026-08-01T09:04:52.000Z</time>
        <extensions>
          <ns3:TrackPointExtension>
            <ns3:hr>124</ns3:hr>
            <ns3:cad>60</ns3:cad>
          </ns3:TrackPointExtension>
        </extensions>
      </trkpt>
      <trkpt lat="56.034392304718494415283203125" lon="24.1703542135655879974365234375">
        <ele>46.799999237060546875</ele>
        <time>2026-08-01T09:05:01.000Z</time>
        <extensions>
          <ns3:TrackPointExtension>
            <ns3:hr>123</ns3:hr>
            <ns3:cad>59</ns3:cad>
          </ns3:TrackPointExtension>
        </extensions>
      </trkpt>
      <trkpt lat="56.03442708961665630340576171875" lon="24.17039930820465087890625">
        <ele>46.59999847412109375</ele>
        <time>2026-08-01T09:05:04.000Z</time>
        <extensions>
          <ns3:TrackPointExtension>
            <ns3:hr>122</ns3:hr>
            <ns3:cad>59</ns3:cad>
          </ns3:TrackPointExtension>
        </extensions>
      </trkpt>
      <trkpt lat="56.034463383257389068603515625" lon="24.17041883803904056549072265625">
        <ele>46.799999237060546875</ele>
        <time>2026-08-01T09:05:08.000Z</time>
        <extensions>
          <ns3:TrackPointExtension>
            <ns3:hr>122</ns3:hr>
            <ns3:cad>59</ns3:cad>
          </ns3:TrackPointExtension>
        </extensions>
      </trkpt>
      <trkpt lat="56.03447738103568553924560546875" lon="24.17041682638227939605712890625">
        <ele>46.59999847412109375</ele>
        <time>2026-08-01T09:05:09.000Z</time>
        <extensions>
          <ns3:TrackPointExtension>
            <ns3:hr>122</ns3:hr>
            <ns3:cad>59</ns3:cad>
          </ns3:TrackPointExtension>
        </extensions>
      </trkpt>
      <trkpt lat="56.03458198718726634979248046875" lon="24.1704001463949680328369140625">
        <ele>47</ele>
        <time>2026-08-01T09:05:15.000Z</time>
        <extensions>
          <ns3:TrackPointExtension>
            <ns3:hr>122</ns3:hr>
            <ns3:cad>58</ns3:cad>
          </ns3:TrackPointExtension>
        </extensions>
      </trkpt>
      <trkpt lat="56.03466966189444065093994140625" lon="24.17037659324705600738525390625">
        <ele>47.59999847412109375</ele>
        <time>2026-08-01T09:05:22.000Z</time>
        <extensions>
          <ns3:TrackPointExtension>
            <ns3:hr>120</ns3:hr>
            <ns3:cad>57</ns3:cad>
          </ns3:TrackPointExtension>
        </extensions>
      </trkpt>
      <trkpt lat="56.03469681926071643829345703125" lon="24.170364104211330413818359375">
        <ele>47.59999847412109375</ele>
        <time>2026-08-01T09:05:24.000Z</time>
        <extensions>
          <ns3:TrackPointExtension>
            <ns3:hr>120</ns3:hr>
            <ns3:cad>58</ns3:cad>
          </ns3:TrackPointExtension>
        </extensions>
      </trkpt>
      <trkpt lat="56.03476404212415218353271484375" lon="24.1703340969979763031005859375">
        <ele>47.799999237060546875</ele>
        <time>2026-08-01T09:05:29.000Z</time>
        <extensions>
          <ns3:TrackPointExtension>
            <ns3:hr>118</ns3:hr>
            <ns3:cad>58</ns3:cad>
          </ns3:TrackPointExtension>
        </extensions>
      </trkpt>
      <trkpt lat="56.03482782840728759765625" lon="24.17029277421534061431884765625">
        <ele>48</ele>
        <time>2026-08-01T09:05:33.000Z</time>
        <extensions>
          <ns3:TrackPointExtension>
            <ns3:hr>124</ns3:hr>
            <ns3:cad>59</ns3:cad>
          </ns3:TrackPointExtension>
        </extensions>
      </trkpt>
      <trkpt lat="56.03488876484334468841552734375" lon="24.1702801175415515899658203125">
        <ele>48.200000762939453125</ele>
        <time>2026-08-01T09:05:37.000Z</time>
        <extensions>
          <ns3:TrackPointExtension>
            <ns3:hr>126</ns3:hr>
            <ns3:cad>59</ns3:cad>
          </ns3:TrackPointExtension>
        </extensions>
      </trkpt>
      <trkpt lat="56.03496923111379146575927734375" lon="24.17026444338262081146240234375">
        <ele>48.200000762939453125</ele>
        <time>2026-08-01T09:05:43.000Z</time>
        <extensions>
          <ns3:TrackPointExtension>
            <ns3:hr>129</ns3:hr>
            <ns3:cad>59</ns3:cad>
          </ns3:TrackPointExtension>
        </extensions>
      </trkpt>
      <trkpt lat="56.03499881923198699951171875" lon="24.1702646948397159576416015625">
        <ele>48.59999847412109375</ele>
        <time>2026-08-01T09:05:45.000Z</time>
        <extensions>
          <ns3:TrackPointExtension>
            <ns3:hr>129</ns3:hr>
            <ns3:cad>58</ns3:cad>
          </ns3:TrackPointExtension>
        </extensions>
      </trkpt>
      <trkpt lat="56.03501181118190288543701171875" lon="24.17026444338262081146240234375">
        <ele>48.59999847412109375</ele>
        <time>2026-08-01T09:05:46.000Z</time>
        <extensions>
          <ns3:TrackPointExtension>
            <ns3:hr>129</ns3:hr>
            <ns3:cad>58</ns3:cad>
          </ns3:TrackPointExtension>
        </extensions>
      </trkpt>
      <trkpt lat="56.0350117273628711700439453125" lon="24.1702343523502349853515625">
        <ele>49.200000762939453125</ele>
        <time>2026-08-01T09:05:51.000Z</time>
        <extensions>
          <ns3:TrackPointExtension>
            <ns3:hr>130</ns3:hr>
            <ns3:cad>0</ns3:cad>
          </ns3:TrackPointExtension>
        </extensions>
      </trkpt>
      <trkpt lat="56.0350248031318187713623046875" lon="24.17023946531116962432861328125">
        <ele>49</ele>
        <time>2026-08-01T09:05:53.000Z</time>
        <extensions>
          <ns3:TrackPointExtension>
            <ns3:hr>131</ns3:hr>
            <ns3:cad>0</ns3:cad>
          </ns3:TrackPointExtension>
        </extensions>
      </trkpt>
      <trkpt lat="56.03508842177689075469970703125" lon="24.170260168612003326416015625">
        <ele>48.799999237060546875</ele>
        <time>2026-08-01T09:05:57.000Z</time>
        <extensions>
          <ns3:TrackPointExtension>
            <ns3:hr>129</ns3:hr>
            <ns3:cad>58</ns3:cad>
          </ns3:TrackPointExtension>
        </extensions>
      </trkpt>
      <trkpt lat="56.0351401381194591522216796875" lon="24.17016184888780117034912109375">
        <ele>49</ele>
        <time>2026-08-01T09:06:03.000Z</time>
        <extensions>
          <ns3:TrackPointExtension>
            <ns3:hr>126</ns3:hr>
            <ns3:cad>57</ns3:cad>
          </ns3:TrackPointExtension>
        </extensions>
      </trkpt>
      <trkpt lat="56.03516888804733753204345703125" lon="24.17000359855592250823974609375">
        <ele>49</ele>
        <time>2026-08-01T09:06:12.000Z</time>
        <extensions>
          <ns3:TrackPointExtension>
            <ns3:hr>125</ns3:hr>
            <ns3:cad>0</ns3:cad>
          </ns3:TrackPointExtension>
        </extensions>
      </trkpt>
      <trkpt lat="56.03516905568540096282958984375" lon="24.169984571635723114013671875">
        <ele>49</ele>
        <time>2026-08-01T09:06:14.000Z</time>
        <extensions>
          <ns3:TrackPointExtension>
            <ns3:hr>126</ns3:hr>
            <ns3:cad>0</ns3:cad>
          </ns3:TrackPointExtension>
        </extensions>
      </trkpt>
      <trkpt lat="56.03518120944499969482421875" lon="24.1699237190186977386474609375">
        <ele>48.799999237060546875</ele>
        <time>2026-08-01T09:06:17.000Z</time>
        <extensions>
          <ns3:TrackPointExtension>
            <ns3:hr>126</ns3:hr>
            <ns3:cad>0</ns3:cad>
          </ns3:TrackPointExtension>
        </extensions>
      </trkpt>
      <trkpt lat="56.03522102348506450653076171875" lon="24.1698442585766315460205078125">
        <ele>48.799999237060546875</ele>
        <time>2026-08-01T09:06:22.000Z</time>
        <extensions>
          <ns3:TrackPointExtension>
            <ns3:hr>129</ns3:hr>
            <ns3:cad>0</ns3:cad>
          </ns3:TrackPointExtension>
        </extensions>
      </trkpt>
      <trkpt lat="56.0352668724954128265380859375" lon="24.169794134795665740966796875">
        <ele>49</ele>
        <time>2026-08-01T09:06:26.000Z</time>
        <extensions>
          <ns3:TrackPointExtension>
            <ns3:hr>127</ns3:hr>
            <ns3:cad>59</ns3:cad>
          </ns3:TrackPointExtension>
        </extensions>
      </trkpt>
      <trkpt lat="56.0353000648319721221923828125" lon="24.16976370848715305328369140625">
        <ele>49</ele>
        <time>2026-08-01T09:06:28.000Z</time>
        <extensions>
          <ns3:TrackPointExtension>
            <ns3:hr>124</ns3:hr>
            <ns3:cad>58</ns3:cad>
          </ns3:TrackPointExtension>
        </extensions>
      </trkpt>
      <trkpt lat="56.0353969596326351165771484375" lon="24.1696521453559398651123046875">
        <ele>49.200000762939453125</ele>
        <time>2026-08-01T09:06:35.000Z</time>
        <extensions>
          <ns3:TrackPointExtension>
            <ns3:hr>122</ns3:hr>
            <ns3:cad>59</ns3:cad>
          </ns3:TrackPointExtension>
        </extensions>
      </trkpt>
      <trkpt lat="56.0353942774236202239990234375" lon="24.16960612870752811431884765625">
        <ele>49.200000762939453125</ele>
        <time>2026-08-01T09:06:37.000Z</time>
        <extensions>
          <ns3:TrackPointExtension>
            <ns3:hr>122</ns3:hr>
            <ns3:cad>57</ns3:cad>
          </ns3:TrackPointExtension>
        </extensions>
      </trkpt>
      <trkpt lat="56.03535748086869716644287109375" lon="24.16952767409384250640869140625">
        <ele>49.200000762939453125</ele>
        <time>2026-08-01T09:06:41.000Z</time>
        <extensions>
          <ns3:TrackPointExtension>
            <ns3:hr>122</ns3:hr>
            <ns3:cad>58</ns3:cad>
          </ns3:TrackPointExtension>
        </extensions>
      </trkpt>
      <trkpt lat="56.0353057645261287689208984375" lon="24.16944754309952259063720703125">
        <ele>49.40000152587890625</ele>
        <time>2026-08-01T09:06:45.000Z</time>
        <extensions>
          <ns3:TrackPointExtension>
            <ns3:hr>126</ns3:hr>
            <ns3:cad>59</ns3:cad>
          </ns3:TrackPointExtension>
        </extensions>
      </trkpt>
      <trkpt lat="56.03526175953447818756103515625" lon="24.1693953238427639007568359375">
        <ele>49.40000152587890625</ele>
        <time>2026-08-01T09:06:49.000Z</time>
        <extensions>
          <ns3:TrackPointExtension>
            <ns3:hr>128</ns3:hr>
            <ns3:cad>59</ns3:cad>
          </ns3:TrackPointExtension>
        </extensions>
      </trkpt>
      <trkpt lat="56.03516888804733753204345703125" lon="24.16929951868951320648193359375">
        <ele>49.59999847412109375</ele>
        <time>2026-08-01T09:06:58.000Z</time>
        <extensions>
          <ns3:TrackPointExtension>
            <ns3:hr>128</ns3:hr>
            <ns3:cad>59</ns3:cad>
          </ns3:TrackPointExtension>
        </extensions>
      </trkpt>
      <trkpt lat="56.03515581227838993072509765625" lon="24.16929356753826141357421875">
        <ele>49.799999237060546875</ele>
        <time>2026-08-01T09:06:59.000Z</time>
        <extensions>
          <ns3:TrackPointExtension>
            <ns3:hr>127</ns3:hr>
            <ns3:cad>59</ns3:cad>
          </ns3:TrackPointExtension>
        </extensions>
      </trkpt>
      <trkpt lat="56.0350452549755573272705078125" lon="24.16923724114894866943359375">
        <ele>49.59999847412109375</ele>
        <time>2026-08-01T09:07:07.000Z</time>
        <extensions>
          <ns3:TrackPointExtension>
            <ns3:hr>127</ns3:hr>
            <ns3:cad>59</ns3:cad>
          </ns3:TrackPointExtension>
        </extensions>
      </trkpt>
      <trkpt lat="56.0349305905401706695556640625" lon="24.16914738714694976806640625">
        <ele>49.59999847412109375</ele>
        <time>2026-08-01T09:07:16.000Z</time>
        <extensions>
          <ns3:TrackPointExtension>
            <ns3:hr>125</ns3:hr>
            <ns3:cad>58</ns3:cad>
          </ns3:TrackPointExtension>
        </extensions>
      </trkpt>
      <trkpt lat="56.03482740931212902069091796875" lon="24.1691344790160655975341796875">
        <ele>49.799999237060546875</ele>
        <time>2026-08-01T09:07:23.000Z</time>
        <extensions>
          <ns3:TrackPointExtension>
            <ns3:hr>125</ns3:hr>
            <ns3:cad>58</ns3:cad>
          </ns3:TrackPointExtension>
        </extensions>
      </trkpt>
      <trkpt lat="56.0347300954163074493408203125" lon="24.16918694972991943359375">
        <ele>49.59999847412109375</ele>
        <time>2026-08-01T09:07:30.000Z</time>
        <extensions>
          <ns3:TrackPointExtension>
            <ns3:hr>123</ns3:hr>
            <ns3:cad>59</ns3:cad>
          </ns3:TrackPointExtension>
        </extensions>
      </trkpt>
      <trkpt lat="56.0346479527652263641357421875" lon="24.169314689934253692626953125">
        <ele>49.40000152587890625</ele>
        <time>2026-08-01T09:07:38.000Z</time>
        <extensions>
          <ns3:TrackPointExtension>
            <ns3:hr>123</ns3:hr>
            <ns3:cad>58</ns3:cad>
          </ns3:TrackPointExtension>
        </extensions>
      </trkpt>
      <trkpt lat="56.03454275988042354583740234375" lon="24.16947268880903720855712890625">
        <ele>49.200000762939453125</ele>
        <time>2026-08-01T09:07:48.000Z</time>
        <extensions>
          <ns3:TrackPointExtension>
            <ns3:hr>124</ns3:hr>
            <ns3:cad>59</ns3:cad>
          </ns3:TrackPointExtension>
        </extensions>
      </trkpt>
      <trkpt lat="56.03445491753518581390380859375" lon="24.169560782611370086669921875">
        <ele>49</ele>
        <time>2026-08-01T09:07:55.000Z</time>
        <extensions>
          <ns3:TrackPointExtension>
            <ns3:hr>123</ns3:hr>
            <ns3:cad>59</ns3:cad>
          </ns3:TrackPointExtension>
        </extensions>
      </trkpt>
      <trkpt lat="56.03435751982033252716064453125" lon="24.1695119999349117279052734375">
        <ele>49</ele>
        <time>2026-08-01T09:08:02.000Z</time>
        <extensions>
          <ns3:TrackPointExtension>
            <ns3:hr>122</ns3:hr>
            <ns3:cad>58</ns3:cad>
          </ns3:TrackPointExtension>
        </extensions>
      </trkpt>
      <trkpt lat="56.0342586971819400787353515625" lon="24.16943304240703582763671875">
        <ele>49.200000762939453125</ele>
        <time>2026-08-01T09:08:09.000Z</time>
        <extensions>
          <ns3:TrackPointExtension>
            <ns3:hr>125</ns3:hr>
            <ns3:cad>58</ns3:cad>
          </ns3:TrackPointExtension>
        </extensions>
      </trkpt>
      <trkpt lat="56.03424604050815105438232421875" lon="24.1694231517612934112548828125">
        <ele>49.200000762939453125</ele>
        <time>2026-08-01T09:08:10.000Z</time>
        <extensions>
          <ns3:TrackPointExtension>
            <ns3:hr>125</ns3:hr>
            <ns3:cad>58</ns3:cad>
          </ns3:TrackPointExtension>
        </extensions>
      </trkpt>
      <trkpt lat="56.03416121564805507659912109375" lon="24.169350564479827880859375">
        <ele>49.40000152587890625</ele>
        <time>2026-08-01T09:08:17.000Z</time>
        <extensions>
          <ns3:TrackPointExtension>
            <ns3:hr>124</ns3:hr>
            <ns3:cad>58</ns3:cad>
          </ns3:TrackPointExtension>
        </extensions>
      </trkpt>
      <trkpt lat="56.03412115015089511871337890625" lon="24.1693685017526149749755859375">
        <ele>49.799999237060546875</ele>
        <time>2026-08-01T09:08:23.000Z</time>
        <extensions>
          <ns3:TrackPointExtension>
            <ns3:hr>124</ns3:hr>
            <ns3:cad>0</ns3:cad>
          </ns3:TrackPointExtension>
        </extensions>
      </trkpt>
      <trkpt lat="56.0340934060513973236083984375" lon="24.16936104185879230499267578125">
        <ele>49.59999847412109375</ele>
        <time>2026-08-01T09:08:27.000Z</time>
        <extensions>
          <ns3:TrackPointExtension>
            <ns3:hr>127</ns3:hr>
            <ns3:cad>0</ns3:cad>
          </ns3:TrackPointExtension>
        </extensions>
      </trkpt>
      <trkpt lat="56.034050323069095611572265625" lon="24.1693262569606304168701171875">
        <ele>49.200000762939453125</ele>
        <time>2026-08-01T09:08:30.000Z</time>
        <extensions>
          <ns3:TrackPointExtension>
            <ns3:hr>128</ns3:hr>
            <ns3:cad>0</ns3:cad>
          </ns3:TrackPointExtension>
        </extensions>
      </trkpt>
      <trkpt lat="56.0339800827205181121826171875" lon="24.169261716306209564208984375">
        <ele>49</ele>
        <time>2026-08-01T09:08:35.000Z</time>
        <extensions>
          <ns3:TrackPointExtension>
            <ns3:hr>131</ns3:hr>
            <ns3:cad>59</ns3:cad>
          </ns3:TrackPointExtension>
        </extensions>
      </trkpt>
      <trkpt lat="56.0339271090924739837646484375" lon="24.16922508738934993743896484375">
        <ele>49</ele>
        <time>2026-08-01T09:08:39.000Z</time>
        <extensions>
          <ns3:TrackPointExtension>
            <ns3:hr>130</ns3:hr>
            <ns3:cad>58</ns3:cad>
          </ns3:TrackPointExtension>
        </extensions>
      </trkpt>
      <trkpt lat="56.03381990455090999603271484375" lon="24.16915853507816791534423828125">
        <ele>49.200000762939453125</ele>
        <time>2026-08-01T09:08:47.000Z</time>
        <extensions>
          <ns3:TrackPointExtension>
            <ns3:hr>129</ns3:hr>
            <ns3:cad>59</ns3:cad>
          </ns3:TrackPointExtension>
        </extensions>
      </trkpt>
      <trkpt lat="56.033700294792652130126953125" lon="24.1690863668918609619140625">
        <ele>49.40000152587890625</ele>
        <time>2026-08-01T09:08:55.000Z</time>
        <extensions>
          <ns3:TrackPointExtension>
            <ns3:hr>129</ns3:hr>
            <ns3:cad>59</ns3:cad>
          </ns3:TrackPointExtension>
        </extensions>
      </trkpt>
      <trkpt lat="56.03356341831386089324951171875" lon="24.16898787952959537506103515625">
        <ele>49.40000152587890625</ele>
        <time>2026-08-01T09:09:05.000Z</time>
        <extensions>
          <ns3:TrackPointExtension>
            <ns3:hr>130</ns3:hr>
            <ns3:cad>58</ns3:cad>
          </ns3:TrackPointExtension>
        </extensions>
      </trkpt>
      <trkpt lat="56.03346803225576877593994140625" lon="24.16892283596098423004150390625">
        <ele>49.59999847412109375</ele>
        <time>2026-08-01T09:09:12.000Z</time>
        <extensions>
          <ns3:TrackPointExtension>
            <ns3:hr>132</ns3:hr>
            <ns3:cad>58</ns3:cad>
          </ns3:TrackPointExtension>
        </extensions>
      </trkpt>
      <trkpt lat="56.0333631746470928192138671875" lon="24.1688521765172481536865234375">
        <ele>49.799999237060546875</ele>
        <time>2026-08-01T09:09:20.000Z</time>
        <extensions>
          <ns3:TrackPointExtension>
            <ns3:hr>132</ns3:hr>
            <ns3:cad>59</ns3:cad>
          </ns3:TrackPointExtension>
        </extensions>
      </trkpt>
      <trkpt lat="56.03324490599334239959716796875" lon="24.16878168471157550811767578125">
        <ele>50</ele>
        <time>2026-08-01T09:09:29.000Z</time>
        <extensions>
          <ns3:TrackPointExtension>
            <ns3:hr>133</ns3:hr>
            <ns3:cad>58</ns3:cad>
          </ns3:TrackPointExtension>
        </extensions>
      </trkpt>
      <trkpt lat="56.03314876556396484375" lon="24.16870976798236370086669921875">
        <ele>50</ele>
        <time>2026-08-01T09:09:36.000Z</time>
        <extensions>
          <ns3:TrackPointExtension>
            <ns3:hr>130</ns3:hr>
            <ns3:cad>58</ns3:cad>
          </ns3:TrackPointExtension>
        </extensions>
      </trkpt>
      <trkpt lat="56.03312169201672077178955078125" lon="24.16868847794830799102783203125">
        <ele>50.200000762939453125</ele>
        <time>2026-08-01T09:09:38.000Z</time>
        <extensions>
          <ns3:TrackPointExtension>
            <ns3:hr>130</ns3:hr>
            <ns3:cad>58</ns3:cad>
          </ns3:TrackPointExtension>
        </extensions>
      </trkpt>
      <trkpt lat="56.0330615937709808349609375" lon="24.16862410493195056915283203125">
        <ele>50.200000762939453125</ele>
        <time>2026-08-01T09:09:43.000Z</time>
        <extensions>
          <ns3:TrackPointExtension>
            <ns3:hr>127</ns3:hr>
            <ns3:cad>59</ns3:cad>
          </ns3:TrackPointExtension>
        </extensions>
      </trkpt>
      <trkpt lat="56.0329896770417690277099609375" lon="24.16857515461742877960205078125">
        <ele>50.40000152587890625</ele>
        <time>2026-08-01T09:09:48.000Z</time>
        <extensions>
          <ns3:TrackPointExtension>
            <ns3:hr>125</ns3:hr>
            <ns3:cad>58</ns3:cad>
          </ns3:TrackPointExtension>
        </extensions>
      </trkpt>
      <trkpt lat="56.03289663791656494140625" lon="24.168527126312255859375">
        <ele>50.59999847412109375</ele>
        <time>2026-08-01T09:09:55.000Z</time>
        <extensions>
          <ns3:TrackPointExtension>
            <ns3:hr>125</ns3:hr>
            <ns3:cad>59</ns3:cad>
          </ns3:TrackPointExtension>
        </extensions>
      </trkpt>
      <trkpt lat="56.03278809227049350738525390625" lon="24.16847842745482921600341796875">
        <ele>50.799999237060546875</ele>
        <time>2026-08-01T09:10:02.000Z</time>
        <extensions>
          <ns3:TrackPointExtension>
            <ns3:hr>126</ns3:hr>
            <ns3:cad>58</ns3:cad>
          </ns3:TrackPointExtension>
        </extensions>
      </trkpt>
      <trkpt lat="56.03275003843009471893310546875" lon="24.16844808496534824371337890625">
        <ele>50.799999237060546875</ele>
        <time>2026-08-01T09:10:05.000Z</time>
        <extensions>
          <ns3:TrackPointExtension>
            <ns3:hr>125</ns3:hr>
            <ns3:cad>59</ns3:cad>
          </ns3:TrackPointExtension>
        </extensions>
      </trkpt>
      <trkpt lat="56.03264308534562587738037109375" lon="24.16838387958705425262451171875">
        <ele>51.200000762939453125</ele>
        <time>2026-08-01T09:10:13.000Z</time>
        <extensions>
          <ns3:TrackPointExtension>
            <ns3:hr>126</ns3:hr>
            <ns3:cad>58</ns3:cad>
          </ns3:TrackPointExtension>
        </extensions>
      </trkpt>
      <trkpt lat="56.03254283778369426727294921875" lon="24.1683143936097621917724609375">
        <ele>51.200000762939453125</ele>
        <time>2026-08-01T09:10:20.000Z</time>
        <extensions>
          <ns3:TrackPointExtension>
            <ns3:hr>127</ns3:hr>
            <ns3:cad>58</ns3:cad>
          </ns3:TrackPointExtension>
        </extensions>
      </trkpt>
      <trkpt lat="56.03241727687418460845947265625" lon="24.16821800172328948974609375">
        <ele>51.59999847412109375</ele>
        <time>2026-08-01T09:10:29.000Z</time>
        <extensions>
          <ns3:TrackPointExtension>
            <ns3:hr>127</ns3:hr>
            <ns3:cad>59</ns3:cad>
          </ns3:TrackPointExtension>
        </extensions>
      </trkpt>
      <trkpt lat="56.0323932208120822906494140625" lon="24.16819813661277294158935546875">
        <ele>51.799999237060546875</ele>
        <time>2026-08-01T09:10:31.000Z</time>
        <extensions>
          <ns3:TrackPointExtension>
            <ns3:hr>127</ns3:hr>
            <ns3:cad>59</ns3:cad>
          </ns3:TrackPointExtension>
        </extensions>
      </trkpt>
      <trkpt lat="56.03231719695031642913818359375" lon="24.16813862510025501251220703125">
        <ele>52</ele>
        <time>2026-08-01T09:10:37.000Z</time>
        <extensions>
          <ns3:TrackPointExtension>
            <ns3:hr>126</ns3:hr>
            <ns3:cad>59</ns3:cad>
          </ns3:TrackPointExtension>
        </extensions>
      </trkpt>
      <trkpt lat="56.03219264186918735504150390625" lon="24.16806402616202831268310546875">
        <ele>52.200000762939453125</ele>
        <time>2026-08-01T09:10:47.000Z</time>
        <extensions>
          <ns3:TrackPointExtension>
            <ns3:hr>127</ns3:hr>
            <ns3:cad>59</ns3:cad>
          </ns3:TrackPointExtension>
        </extensions>
      </trkpt>
      <trkpt lat="56.0320482216775417327880859375" lon="24.1679754294455051422119140625">
        <ele>52.40000152587890625</ele>
        <time>2026-08-01T09:10:57.000Z</time>
        <extensions>
          <ns3:TrackPointExtension>
            <ns3:hr>127</ns3:hr>
            <ns3:cad>59</ns3:cad>
          </ns3:TrackPointExtension>
        </extensions>
      </trkpt>
      <trkpt lat="56.0319399274885654449462890625" lon="24.16792388074100017547607421875">
        <ele>52.40000152587890625</ele>
        <time>2026-08-01T09:11:05.000Z</time>
        <extensions>
          <ns3:TrackPointExtension>
            <ns3:hr>126</ns3:hr>
            <ns3:cad>59</ns3:cad>
          </ns3:TrackPointExtension>
        </extensions>
      </trkpt>
      <trkpt lat="56.03181730024516582489013671875" lon="24.16783846914768218994140625">
        <ele>52.40000152587890625</ele>
        <time>2026-08-01T09:11:15.000Z</time>
        <extensions>
          <ns3:TrackPointExtension>
            <ns3:hr>126</ns3:hr>
            <ns3:cad>55</ns3:cad>
          </ns3:TrackPointExtension>
        </extensions>
      </trkpt>
      <trkpt lat="56.031818389892578125" lon="24.1678255610167980194091796875">
        <ele>52.200000762939453125</ele>
        <time>2026-08-01T09:11:17.000Z</time>
        <extensions>
          <ns3:TrackPointExtension>
            <ns3:hr>125</ns3:hr>
            <ns3:cad>56</ns3:cad>
          </ns3:TrackPointExtension>
        </extensions>
      </trkpt>
      <trkpt lat="56.0318386740982532501220703125" lon="24.16781877167522907257080078125">
        <ele>52</ele>
        <time>2026-08-01T09:11:19.000Z</time>
        <extensions>
          <ns3:TrackPointExtension>
            <ns3:hr>125</ns3:hr>
            <ns3:cad>57</ns3:cad>
          </ns3:TrackPointExtension>
        </extensions>
      </trkpt>
      <trkpt lat="56.03186792694032192230224609375" lon="24.167797230184078216552734375">
        <ele>52.200000762939453125</ele>
        <time>2026-08-01T09:11:27.000Z</time>
        <extensions>
          <ns3:TrackPointExtension>
            <ns3:hr>126</ns3:hr>
            <ns3:cad>0</ns3:cad>
          </ns3:TrackPointExtension>
        </extensions>
      </trkpt>
      <trkpt lat="56.0318668372929096221923828125" lon="24.1677732579410076141357421875">
        <ele>52.200000762939453125</ele>
        <time>2026-08-01T09:11:31.000Z</time>
        <extensions>
          <ns3:TrackPointExtension>
            <ns3:hr>126</ns3:hr>
            <ns3:cad>0</ns3:cad>
          </ns3:TrackPointExtension>
        </extensions>
      </trkpt>
      <trkpt lat="56.03188636712729930877685546875" lon="24.16772506199777126312255859375">
        <ele>51.799999237060546875</ele>
        <time>2026-08-01T09:11:34.000Z</time>
        <extensions>
          <ns3:TrackPointExtension>
            <ns3:hr>126</ns3:hr>
            <ns3:cad>0</ns3:cad>
          </ns3:TrackPointExtension>
        </extensions>
      </trkpt>
      <trkpt lat="56.031928695738315582275390625" lon="24.1674943082034587860107421875">
        <ele>51.40000152587890625</ele>
        <time>2026-08-01T09:11:43.000Z</time>
        <extensions>
          <ns3:TrackPointExtension>
            <ns3:hr>127</ns3:hr>
            <ns3:cad>58</ns3:cad>
          </ns3:TrackPointExtension>
        </extensions>
      </trkpt>
      <trkpt lat="56.03193582035601139068603515625" lon="24.16723673231899738311767578125">
        <ele>51.799999237060546875</ele>
        <time>2026-08-01T09:11:53.000Z</time>
        <extensions>
          <ns3:TrackPointExtension>
            <ns3:hr>128</ns3:hr>
            <ns3:cad>59</ns3:cad>
          </ns3:TrackPointExtension>
        </extensions>
      </trkpt>
      <trkpt lat="56.03194587863981723785400390625" lon="24.1670812480151653289794921875">
        <ele>52</ele>
        <time>2026-08-01T09:11:59.000Z</time>
        <extensions>
          <ns3:TrackPointExtension>
            <ns3:hr>126</ns3:hr>
            <ns3:cad>59</ns3:cad>
          </ns3:TrackPointExtension>
        </extensions>
      </trkpt>
      <trkpt lat="56.03195057250559329986572265625" lon="24.166854433715343475341796875">
        <ele>51.799999237060546875</ele>
        <time>2026-08-01T09:12:08.000Z</time>
        <extensions>
          <ns3:TrackPointExtension>
            <ns3:hr>126</ns3:hr>
            <ns3:cad>58</ns3:cad>
          </ns3:TrackPointExtension>
        </extensions>
      </trkpt>
      <trkpt lat="56.03194001130759716033935546875" lon="24.16660188697278499603271484375">
        <ele>51.799999237060546875</ele>
        <time>2026-08-01T09:12:17.000Z</time>
        <extensions>
          <ns3:TrackPointExtension>
            <ns3:hr>125</ns3:hr>
            <ns3:cad>60</ns3:cad>
          </ns3:TrackPointExtension>
        </extensions>
      </trkpt>
      <trkpt lat="56.0319137759506702423095703125" lon="24.1663275472819805145263671875">
        <ele>51.799999237060546875</ele>
        <time>2026-08-01T09:12:28.000Z</time>
        <extensions>
          <ns3:TrackPointExtension>
            <ns3:hr>125</ns3:hr>
            <ns3:cad>59</ns3:cad>
          </ns3:TrackPointExtension>
        </extensions>
      </trkpt>
      <trkpt lat="56.03193062357604503631591796875" lon="24.166076593101024627685546875">
        <ele>51.799999237060546875</ele>
        <time>2026-08-01T09:12:37.000Z</time>
        <extensions>
          <ns3:TrackPointExtension>
            <ns3:hr>125</ns3:hr>
            <ns3:cad>59</ns3:cad>
          </ns3:TrackPointExtension>
        </extensions>
      </trkpt>
      <trkpt lat="56.03199818171560764312744140625" lon="24.165904931724071502685546875">
        <ele>51.59999847412109375</ele>
        <time>2026-08-01T09:12:46.000Z</time>
        <extensions>
          <ns3:TrackPointExtension>
            <ns3:hr>125</ns3:hr>
            <ns3:cad>58</ns3:cad>
          </ns3:TrackPointExtension>
        </extensions>
      </trkpt>
      <trkpt lat="56.03212843649089336395263671875" lon="24.165901578962802886962890625">
        <ele>51.40000152587890625</ele>
        <time>2026-08-01T09:12:55.000Z</time>
        <extensions>
          <ns3:TrackPointExtension>
            <ns3:hr>124</ns3:hr>
            <ns3:cad>59</ns3:cad>
          </ns3:TrackPointExtension>
        </extensions>
      </trkpt>
      <trkpt lat="56.0322078131139278411865234375" lon="24.16590861976146697998046875">
        <ele>51.40000152587890625</ele>
        <time>2026-08-01T09:13:01.000Z</time>
        <extensions>
          <ns3:TrackPointExtension>
            <ns3:hr>120</ns3:hr>
            <ns3:cad>59</ns3:cad>
          </ns3:TrackPointExtension>
        </extensions>
      </trkpt>
      <trkpt lat="56.0322515666484832763671875" lon="24.16590367443859577178955078125">
        <ele>51.40000152587890625</ele>
        <time>2026-08-01T09:13:04.000Z</time>
        <extensions>
          <ns3:TrackPointExtension>
            <ns3:hr>118</ns3:hr>
            <ns3:cad>59</ns3:cad>
          </ns3:TrackPointExtension>
        </extensions>
      </trkpt>
      <trkpt lat="56.0324140079319477081298828125" lon="24.1659151576459407806396484375">
        <ele>51.59999847412109375</ele>
        <time>2026-08-01T09:13:15.000Z</time>
        <extensions>
          <ns3:TrackPointExtension>
            <ns3:hr>119</ns3:hr>
            <ns3:cad>59</ns3:cad>
          </ns3:TrackPointExtension>
        </extensions>
      </trkpt>
      <trkpt lat="56.0325380600988864898681640625" lon="24.165938794612884521484375">
        <ele>51.799999237060546875</ele>
        <time>2026-08-01T09:13:23.000Z</time>
        <extensions>
          <ns3:TrackPointExtension>
            <ns3:hr>119</ns3:hr>
            <ns3:cad>59</ns3:cad>
          </ns3:TrackPointExtension>
        </extensions>
      </trkpt>
      <trkpt lat="56.032697148621082305908203125" lon="24.16597475297749042510986328125">
        <ele>51.799999237060546875</ele>
        <time>2026-08-01T09:13:34.000Z</time>
        <extensions>
          <ns3:TrackPointExtension>
            <ns3:hr>122</ns3:hr>
            <ns3:cad>60</ns3:cad>
          </ns3:TrackPointExtension>
        </extensions>
      </trkpt>
      <trkpt lat="56.03272723965346813201904296875" lon="24.16597726754844188690185546875">
        <ele>51.799999237060546875</ele>
        <time>2026-08-01T09:13:36.000Z</time>
        <extensions>
          <ns3:TrackPointExtension>
            <ns3:hr>126</ns3:hr>
            <ns3:cad>60</ns3:cad>
          </ns3:TrackPointExtension>
        </extensions>
      </trkpt>
      <trkpt lat="56.03275573812425136566162109375" lon="24.16597978211939334869384765625">
        <ele>51.799999237060546875</ele>
        <time>2026-08-01T09:13:38.000Z</time>
        <extensions>
          <ns3:TrackPointExtension>
            <ns3:hr>129</ns3:hr>
            <ns3:cad>60</ns3:cad>
          </ns3:TrackPointExtension>
        </extensions>
      </trkpt>
      <trkpt lat="56.03283737786114215850830078125" lon="24.16599570773541927337646484375">
        <ele>51.59999847412109375</ele>
        <time>2026-08-01T09:13:44.000Z</time>
        <extensions>
          <ns3:TrackPointExtension>
            <ns3:hr>129</ns3:hr>
            <ns3:cad>60</ns3:cad>
          </ns3:TrackPointExtension>
        </extensions>
      </trkpt>
      <trkpt lat="56.0329449176788330078125" lon="24.16598564945161342620849609375">
        <ele>51.799999237060546875</ele>
        <time>2026-08-01T09:13:52.000Z</time>
        <extensions>
          <ns3:TrackPointExtension>
            <ns3:hr>129</ns3:hr>
            <ns3:cad>58</ns3:cad>
          </ns3:TrackPointExtension>
        </extensions>
      </trkpt>
      <trkpt lat="56.0330969654023647308349609375" lon="24.16591188870370388031005859375">
        <ele>51.59999847412109375</ele>
        <time>2026-08-01T09:14:03.000Z</time>
        <extensions>
          <ns3:TrackPointExtension>
            <ns3:hr>128</ns3:hr>
            <ns3:cad>59</ns3:cad>
          </ns3:TrackPointExtension>
        </extensions>
      </trkpt>
      <trkpt lat="56.03324172087013721466064453125" lon="24.165860004723072052001953125">
        <ele>51.40000152587890625</ele>
        <time>2026-08-01T09:14:13.000Z</time>
        <extensions>
          <ns3:TrackPointExtension>
            <ns3:hr>128</ns3:hr>
            <ns3:cad>60</ns3:cad>
          </ns3:TrackPointExtension>
        </extensions>
      </trkpt>
      <trkpt lat="56.03335202671587467193603515625" lon="24.16571022011339664459228515625">
        <ele>51.40000152587890625</ele>
        <time>2026-08-01T09:14:23.000Z</time>
        <extensions>
          <ns3:TrackPointExtension>
            <ns3:hr>130</ns3:hr>
            <ns3:cad>59</ns3:cad>
          </ns3:TrackPointExtension>
        </extensions>
      </trkpt>
      <trkpt lat="56.03342436254024505615234375" lon="24.16547502391040325164794921875">
        <ele>51.40000152587890625</ele>
        <time>2026-08-01T09:14:34.000Z</time>
        <extensions>
          <ns3:TrackPointExtension>
            <ns3:hr>131</ns3:hr>
            <ns3:cad>59</ns3:cad>
          </ns3:TrackPointExtension>
        </extensions>
      </trkpt>
      <trkpt lat="56.03350223042070865631103515625" lon="24.1651822440326213836669921875">
        <ele>51.40000152587890625</ele>
        <time>2026-08-01T09:14:47.000Z</time>
        <extensions>
          <ns3:TrackPointExtension>
            <ns3:hr>131</ns3:hr>
            <ns3:cad>58</ns3:cad>
          </ns3:TrackPointExtension>
        </extensions>
      </trkpt>
      <trkpt lat="56.0335827805101871490478515625" lon="24.1648925654590129852294921875">
        <ele>50.799999237060546875</ele>
        <time>2026-08-01T09:15:00.000Z</time>
        <extensions>
          <ns3:TrackPointExtension>
            <ns3:hr>131</ns3:hr>
            <ns3:cad>59</ns3:cad>
          </ns3:TrackPointExtension>
        </extensions>
      </trkpt>
      <trkpt lat="56.03358856402337551116943359375" lon="24.16487253271043300628662109375">
        <ele>50.799999237060546875</ele>
        <time>2026-08-01T09:15:01.000Z</time>
        <extensions>
          <ns3:TrackPointExtension>
            <ns3:hr>131</ns3:hr>
            <ns3:cad>59</ns3:cad>
          </ns3:TrackPointExtension>
        </extensions>
      </trkpt>
      <trkpt lat="56.03362242691218852996826171875" lon="24.1647279448807239532470703125">
        <ele>50.799999237060546875</ele>
        <time>2026-08-01T09:15:07.000Z</time>
        <extensions>
          <ns3:TrackPointExtension>
            <ns3:hr>129</ns3:hr>
            <ns3:cad>57</ns3:cad>
          </ns3:TrackPointExtension>
        </extensions>
      </trkpt>
      <trkpt lat="56.03364740498363971710205078125" lon="24.164606072008609771728515625">
        <ele>50.59999847412109375</ele>
        <time>2026-08-01T09:15:12.000Z</time>
        <extensions>
          <ns3:TrackPointExtension>
            <ns3:hr>128</ns3:hr>
            <ns3:cad>60</ns3:cad>
          </ns3:TrackPointExtension>
        </extensions>
      </trkpt>
      <trkpt lat="56.0336860455572605133056640625" lon="24.16442929767072200775146484375">
        <ele>50.40000152587890625</ele>
        <time>2026-08-01T09:15:19.000Z</time>
        <extensions>
          <ns3:TrackPointExtension>
            <ns3:hr>125</ns3:hr>
            <ns3:cad>60</ns3:cad>
          </ns3:TrackPointExtension>
        </extensions>
      </trkpt>
      <trkpt lat="56.03369317017495632171630859375" lon="24.16440281085669994354248046875">
        <ele>50.40000152587890625</ele>
        <time>2026-08-01T09:15:20.000Z</time>
        <extensions>
          <ns3:TrackPointExtension>
            <ns3:hr>122</ns3:hr>
            <ns3:cad>60</ns3:cad>
          </ns3:TrackPointExtension>
        </extensions>
      </trkpt>
      <trkpt lat="56.0337051562964916229248046875" lon="24.164354614913463592529296875">
        <ele>50.40000152587890625</ele>
        <time>2026-08-01T09:15:22.000Z</time>
        <extensions>
          <ns3:TrackPointExtension>
            <ns3:hr>120</ns3:hr>
            <ns3:cad>61</ns3:cad>
          </ns3:TrackPointExtension>
        </extensions>
      </trkpt>
      <trkpt lat="56.03375921957194805145263671875" lon="24.1641083545982837677001953125">
        <ele>50.40000152587890625</ele>
        <time>2026-08-01T09:15:32.000Z</time>
        <extensions>
          <ns3:TrackPointExtension>
            <ns3:hr>119</ns3:hr>
            <ns3:cad>60</ns3:cad>
          </ns3:TrackPointExtension>
        </extensions>
      </trkpt>
      <trkpt lat="56.0337992012500762939453125" lon="24.1638894192874431610107421875">
        <ele>50.40000152587890625</ele>
        <time>2026-08-01T09:15:41.000Z</time>
        <extensions>
          <ns3:TrackPointExtension>
            <ns3:hr>124</ns3:hr>
            <ns3:cad>60</ns3:cad>
          </ns3:TrackPointExtension>
        </extensions>
      </trkpt>
      <trkpt lat="56.03380314074456691741943359375" lon="24.16386486031115055084228515625">
        <ele>50.59999847412109375</ele>
        <time>2026-08-01T09:15:42.000Z</time>
        <extensions>
          <ns3:TrackPointExtension>
            <ns3:hr>126</ns3:hr>
            <ns3:cad>60</ns3:cad>
          </ns3:TrackPointExtension>
        </extensions>
      </trkpt>
      <trkpt lat="56.033814288675785064697265625" lon="24.16375136934220790863037109375">
        <ele>50.40000152587890625</ele>
        <time>2026-08-01T09:15:46.000Z</time>
        <extensions>
          <ns3:TrackPointExtension>
            <ns3:hr>129</ns3:hr>
            <ns3:cad>60</ns3:cad>
          </ns3:TrackPointExtension>
        </extensions>
      </trkpt>
      <trkpt lat="56.03384555317461490631103515625" lon="24.1635725833475589752197265625">
        <ele>50.59999847412109375</ele>
        <time>2026-08-01T09:15:53.000Z</time>
        <extensions>
          <ns3:TrackPointExtension>
            <ns3:hr>130</ns3:hr>
            <ns3:cad>60</ns3:cad>
          </ns3:TrackPointExtension>
        </extensions>
      </trkpt>
      <trkpt lat="56.033897437155246734619140625" lon="24.1633539833128452301025390625">
        <ele>50.40000152587890625</ele>
        <time>2026-08-01T09:16:02.000Z</time>
        <extensions>
          <ns3:TrackPointExtension>
            <ns3:hr>131</ns3:hr>
            <ns3:cad>59</ns3:cad>
          </ns3:TrackPointExtension>
        </extensions>
      </trkpt>
      <trkpt lat="56.0339535959064960479736328125" lon="24.1631672345101833343505859375">
        <ele>50.200000762939453125</ele>
        <time>2026-08-01T09:16:10.000Z</time>
        <extensions>
          <ns3:TrackPointExtension>
            <ns3:hr>134</ns3:hr>
            <ns3:cad>61</ns3:cad>
          </ns3:TrackPointExtension>
        </extensions>
      </trkpt>
      <trkpt lat="56.0340310446918010711669921875" lon="24.16285903193056583404541015625">
        <ele>50</ele>
        <time>2026-08-01T09:16:23.000Z</time>
        <extensions>
          <ns3:TrackPointExtension>
            <ns3:hr>136</ns3:hr>
            <ns3:cad>59</ns3:cad>
          </ns3:TrackPointExtension>
        </extensions>
      </trkpt>
      <trkpt lat="56.03403615765273571014404296875" lon="24.16283606551587581634521484375">
        <ele>50</ele>
        <time>2026-08-01T09:16:24.000Z</time>
        <extensions>
          <ns3:TrackPointExtension>
            <ns3:hr>135</ns3:hr>
            <ns3:cad>59</ns3:cad>
          </ns3:TrackPointExtension>
        </extensions>
      </trkpt>
      <trkpt lat="56.03409801609814167022705078125" lon="24.16256767697632312774658203125">
        <ele>49.799999237060546875</ele>
        <time>2026-08-01T09:16:35.000Z</time>
        <extensions>
          <ns3:TrackPointExtension>
            <ns3:hr>135</ns3:hr>
            <ns3:cad>61</ns3:cad>
          </ns3:TrackPointExtension>
        </extensions>
      </trkpt>
      <trkpt lat="56.03412684984505176544189453125" lon="24.16242870502173900604248046875">
        <ele>49.59999847412109375</ele>
        <time>2026-08-01T09:16:41.000Z</time>
        <extensions>
          <ns3:TrackPointExtension>
            <ns3:hr>136</ns3:hr>
            <ns3:cad>61</ns3:cad>
          </ns3:TrackPointExtension>
        </extensions>
      </trkpt>
      <trkpt lat="56.03415367193520069122314453125" lon="24.16229325346648693084716796875">
        <ele>49.59999847412109375</ele>
        <time>2026-08-01T09:16:47.000Z</time>
        <extensions>
          <ns3:TrackPointExtension>
            <ns3:hr>135</ns3:hr>
            <ns3:cad>59</ns3:cad>
          </ns3:TrackPointExtension>
        </extensions>
      </trkpt>
      <trkpt lat="56.03422542102634906768798828125" lon="24.162010364234447479248046875">
        <ele>49.40000152587890625</ele>
        <time>2026-08-01T09:17:00.000Z</time>
        <extensions>
          <ns3:TrackPointExtension>
            <ns3:hr>135</ns3:hr>
            <ns3:cad>59</ns3:cad>
          </ns3:TrackPointExtension>
        </extensions>
      </trkpt>
      <trkpt lat="56.034267246723175048828125" lon="24.1618175804615020751953125">
        <ele>48.59999847412109375</ele>
        <time>2026-08-01T09:17:08.000Z</time>
        <extensions>
          <ns3:TrackPointExtension>
            <ns3:hr>135</ns3:hr>
            <ns3:cad>59</ns3:cad>
          </ns3:TrackPointExtension>
        </extensions>
      </trkpt>
      <trkpt lat="56.03427269496023654937744140625" lon="24.1617922671139240264892578125">
        <ele>48.59999847412109375</ele>
        <time>2026-08-01T09:17:09.000Z</time>
        <extensions>
          <ns3:TrackPointExtension>
            <ns3:hr>135</ns3:hr>
            <ns3:cad>59</ns3:cad>
          </ns3:TrackPointExtension>
        </extensions>
      </trkpt>
      <trkpt lat="56.034310162067413330078125" lon="24.161636531352996826171875">
        <ele>48.59999847412109375</ele>
        <time>2026-08-01T09:17:16.000Z</time>
        <extensions>
          <ns3:TrackPointExtension>
            <ns3:hr>134</ns3:hr>
            <ns3:cad>59</ns3:cad>
          </ns3:TrackPointExtension>
        </extensions>
      </trkpt>
      <trkpt lat="56.03438752703368663787841796875" lon="24.16132195852696895599365234375">
        <ele>48.200000762939453125</ele>
        <time>2026-08-01T09:17:30.000Z</time>
        <extensions>
          <ns3:TrackPointExtension>
            <ns3:hr>133</ns3:hr>
            <ns3:cad>59</ns3:cad>
          </ns3:TrackPointExtension>
        </extensions>
      </trkpt>
      <trkpt lat="56.0343918018043041229248046875" lon="24.1612970642745494842529296875">
        <ele>48.200000762939453125</ele>
        <time>2026-08-01T09:17:31.000Z</time>
        <extensions>
          <ns3:TrackPointExtension>
            <ns3:hr>133</ns3:hr>
            <ns3:cad>59</ns3:cad>
          </ns3:TrackPointExtension>
        </extensions>
      </trkpt>
      <trkpt lat="56.0344491340219974517822265625" lon="24.161021299660205841064453125">
        <ele>48</ele>
        <time>2026-08-01T09:17:43.000Z</time>
        <extensions>
          <ns3:TrackPointExtension>
            <ns3:hr>132</ns3:hr>
            <ns3:cad>59</ns3:cad>
          </ns3:TrackPointExtension>
        </extensions>
      </trkpt>
      <trkpt lat="56.0344534926116466522216796875" lon="24.1609611175954341888427734375">
        <ele>47.799999237060546875</ele>
        <time>2026-08-01T09:17:48.000Z</time>
        <extensions>
          <ns3:TrackPointExtension>
            <ns3:hr>130</ns3:hr>
            <ns3:cad>56</ns3:cad>
          </ns3:TrackPointExtension>
        </extensions>
      </trkpt>
      <trkpt lat="56.0345108248293399810791015625" lon="24.160750396549701690673828125">
        <ele>47.799999237060546875</ele>
        <time>2026-08-01T09:17:57.000Z</time>
        <extensions>
          <ns3:TrackPointExtension>
            <ns3:hr>130</ns3:hr>
            <ns3:cad>59</ns3:cad>
          </ns3:TrackPointExtension>
        </extensions>
      </trkpt>
      <trkpt lat="56.03456622920930385589599609375" lon="24.1605514101684093475341796875">
        <ele>48</ele>
        <time>2026-08-01T09:18:06.000Z</time>
        <extensions>
          <ns3:TrackPointExtension>
            <ns3:hr>127</ns3:hr>
            <ns3:cad>59</ns3:cad>
          </ns3:TrackPointExtension>
        </extensions>
      </trkpt>
      <trkpt lat="56.0345755331218242645263671875" lon="24.1605125181376934051513671875">
        <ele>48</ele>
        <time>2026-08-01T09:18:08.000Z</time>
        <extensions>
          <ns3:TrackPointExtension>
            <ns3:hr>128</ns3:hr>
            <ns3:cad>58</ns3:cad>
          </ns3:TrackPointExtension>
        </extensions>
      </trkpt>
      <trkpt lat="56.03459539823234081268310546875" lon="24.16042576543986797332763671875">
        <ele>47.799999237060546875</ele>
        <time>2026-08-01T09:18:12.000Z</time>
        <extensions>
          <ns3:TrackPointExtension>
            <ns3:hr>132</ns3:hr>
            <ns3:cad>59</ns3:cad>
          </ns3:TrackPointExtension>
        </extensions>
      </trkpt>
      <trkpt lat="56.034634374082088470458984375" lon="24.16021470911800861358642578125">
        <ele>47.59999847412109375</ele>
        <time>2026-08-01T09:18:21.000Z</time>
        <extensions>
          <ns3:TrackPointExtension>
            <ns3:hr>133</ns3:hr>
            <ns3:cad>58</ns3:cad>
          </ns3:TrackPointExtension>
        </extensions>
      </trkpt>
      <trkpt lat="56.03465792723000049591064453125" lon="24.16010163724422454833984375">
        <ele>47.59999847412109375</ele>
        <time>2026-08-01T09:18:26.000Z</time>
        <extensions>
          <ns3:TrackPointExtension>
            <ns3:hr>131</ns3:hr>
            <ns3:cad>58</ns3:cad>
          </ns3:TrackPointExtension>
        </extensions>
      </trkpt>
      <trkpt lat="56.03467351756989955902099609375" lon="24.16003449819982051849365234375">
        <ele>47.59999847412109375</ele>
        <time>2026-08-01T09:18:29.000Z</time>
        <extensions>
          <ns3:TrackPointExtension>
            <ns3:hr>128</ns3:hr>
            <ns3:cad>59</ns3:cad>
          </ns3:TrackPointExtension>
        </extensions>
      </trkpt>
      <trkpt lat="56.03470184840261936187744140625" lon="24.159919582307338714599609375">
        <ele>47.40000152587890625</ele>
        <time>2026-08-01T09:18:34.000Z</time>
        <extensions>
          <ns3:TrackPointExtension>
            <ns3:hr>127</ns3:hr>
            <ns3:cad>58</ns3:cad>
          </ns3:TrackPointExtension>
        </extensions>
      </trkpt>
      <trkpt lat="56.03471509180963039398193359375" lon="24.159869290888309478759765625">
        <ele>47.200000762939453125</ele>
        <time>2026-08-01T09:18:36.000Z</time>
        <extensions>
          <ns3:TrackPointExtension>
            <ns3:hr>130</ns3:hr>
            <ns3:cad>58</ns3:cad>
          </ns3:TrackPointExtension>
        </extensions>
      </trkpt>
      <trkpt lat="56.0347834043204784393310546875" lon="24.15959042496979236602783203125">
        <ele>47.40000152587890625</ele>
        <time>2026-08-01T09:18:48.000Z</time>
        <extensions>
          <ns3:TrackPointExtension>
            <ns3:hr>128</ns3:hr>
            <ns3:cad>59</ns3:cad>
          </ns3:TrackPointExtension>
        </extensions>
      </trkpt>
      <trkpt lat="56.03485724888741970062255859375" lon="24.15929554961621761322021484375">
        <ele>47.200000762939453125</ele>
        <time>2026-08-01T09:19:01.000Z</time>
        <extensions>
          <ns3:TrackPointExtension>
            <ns3:hr>127</ns3:hr>
            <ns3:cad>59</ns3:cad>
          </ns3:TrackPointExtension>
        </extensions>
      </trkpt>
      <trkpt lat="56.03492246009409427642822265625" lon="24.15899296291172504425048828125">
        <ele>47.40000152587890625</ele>
        <time>2026-08-01T09:19:14.000Z</time>
        <extensions>
          <ns3:TrackPointExtension>
            <ns3:hr>125</ns3:hr>
            <ns3:cad>57</ns3:cad>
          </ns3:TrackPointExtension>
        </extensions>
      </trkpt>
      <trkpt lat="56.034927405416965484619140625" lon="24.15897318162024021148681640625">
        <ele>47.59999847412109375</ele>
        <time>2026-08-01T09:19:15.000Z</time>
        <extensions>
          <ns3:TrackPointExtension>
            <ns3:hr>126</ns3:hr>
            <ns3:cad>57</ns3:cad>
          </ns3:TrackPointExtension>
        </extensions>
      </trkpt>
      <trkpt lat="56.03494785726070404052734375" lon="24.15888726711273193359375">
        <ele>47.40000152587890625</ele>
        <time>2026-08-01T09:19:19.000Z</time>
        <extensions>
          <ns3:TrackPointExtension>
            <ns3:hr>129</ns3:hr>
            <ns3:cad>58</ns3:cad>
          </ns3:TrackPointExtension>
        </extensions>
      </trkpt>
      <trkpt lat="56.03501088917255401611328125" lon="24.1585908830165863037109375">
        <ele>47.40000152587890625</ele>
        <time>2026-08-01T09:19:32.000Z</time>
        <extensions>
          <ns3:TrackPointExtension>
            <ns3:hr>131</ns3:hr>
            <ns3:cad>57</ns3:cad>
          </ns3:TrackPointExtension>
        </extensions>
      </trkpt>
      <trkpt lat="56.03508071042597293853759765625" lon="24.15834303013980388641357421875">
        <ele>47.59999847412109375</ele>
        <time>2026-08-01T09:19:43.000Z</time>
        <extensions>
          <ns3:TrackPointExtension>
            <ns3:hr>130</ns3:hr>
            <ns3:cad>58</ns3:cad>
          </ns3:TrackPointExtension>
        </extensions>
      </trkpt>
      <trkpt lat="56.03511549532413482666015625" lon="24.158165417611598968505859375">
        <ele>47.40000152587890625</ele>
        <time>2026-08-01T09:19:51.000Z</time>
        <extensions>
          <ns3:TrackPointExtension>
            <ns3:hr>130</ns3:hr>
            <ns3:cad>57</ns3:cad>
          </ns3:TrackPointExtension>
        </extensions>
      </trkpt>
      <trkpt lat="56.03515748865902423858642578125" lon="24.1579630784690380096435546875">
        <ele>47.59999847412109375</ele>
        <time>2026-08-01T09:19:59.000Z</time>
        <extensions>
          <ns3:TrackPointExtension>
            <ns3:hr>130</ns3:hr>
            <ns3:cad>59</ns3:cad>
          </ns3:TrackPointExtension>
        </extensions>
      </trkpt>
      <trkpt lat="56.03520677424967288970947265625" lon="24.1577593982219696044921875">
        <ele>47.799999237060546875</ele>
        <time>2026-08-01T09:20:08.000Z</time>
        <extensions>
          <ns3:TrackPointExtension>
            <ns3:hr>132</ns3:hr>
            <ns3:cad>60</ns3:cad>
          </ns3:TrackPointExtension>
        </extensions>
      </trkpt>
      <trkpt lat="56.0352608375251293182373046875" lon="24.15750517509877681732177734375">
        <ele>48</ele>
        <time>2026-08-01T09:20:18.000Z</time>
        <extensions>
          <ns3:TrackPointExtension>
            <ns3:hr>129</ns3:hr>
            <ns3:cad>59</ns3:cad>
          </ns3:TrackPointExtension>
        </extensions>
      </trkpt>
      <trkpt lat="56.03532529436051845550537109375" lon="24.1572305001318454742431640625">
        <ele>48.40000152587890625</ele>
        <time>2026-08-01T09:20:30.000Z</time>
        <extensions>
          <ns3:TrackPointExtension>
            <ns3:hr>129</ns3:hr>
            <ns3:cad>58</ns3:cad>
          </ns3:TrackPointExtension>
        </extensions>
      </trkpt>
      <trkpt lat="56.0353768430650234222412109375" lon="24.156989268958568572998046875">
        <ele>48.59999847412109375</ele>
        <time>2026-08-01T09:20:40.000Z</time>
        <extensions>
          <ns3:TrackPointExtension>
            <ns3:hr>129</ns3:hr>
            <ns3:cad>59</ns3:cad>
          </ns3:TrackPointExtension>
        </extensions>
      </trkpt>
      <trkpt lat="56.03539033792912960052490234375" lon="24.1569347865879535675048828125">
        <ele>48.59999847412109375</ele>
        <time>2026-08-01T09:20:42.000Z</time>
        <extensions>
          <ns3:TrackPointExtension>
            <ns3:hr>129</ns3:hr>
            <ns3:cad>59</ns3:cad>
          </ns3:TrackPointExtension>
        </extensions>
      </trkpt>
      <trkpt lat="56.0354247875511646270751953125" lon="24.15675398893654346466064453125">
        <ele>48.799999237060546875</ele>
        <time>2026-08-01T09:20:49.000Z</time>
        <extensions>
          <ns3:TrackPointExtension>
            <ns3:hr>129</ns3:hr>
            <ns3:cad>59</ns3:cad>
          </ns3:TrackPointExtension>
        </extensions>
      </trkpt>
      <trkpt lat="56.03546845726668834686279296875" lon="24.1565820761024951934814453125">
        <ele>49</ele>
        <time>2026-08-01T09:20:57.000Z</time>
        <extensions>
          <ns3:TrackPointExtension>
            <ns3:hr>130</ns3:hr>
            <ns3:cad>59</ns3:cad>
          </ns3:TrackPointExtension>
        </extensions>
      </trkpt>
      <trkpt lat="56.03552721440792083740234375" lon="24.1563701815903186798095703125">
        <ele>49.200000762939453125</ele>
        <time>2026-08-01T09:21:06.000Z</time>
        <extensions>
          <ns3:TrackPointExtension>
            <ns3:hr>130</ns3:hr>
            <ns3:cad>59</ns3:cad>
          </ns3:TrackPointExtension>
        </extensions>
      </trkpt>
      <trkpt lat="56.0355702973902225494384765625" lon="24.15618049912154674530029296875">
        <ele>49.200000762939453125</ele>
        <time>2026-08-01T09:21:14.000Z</time>
        <extensions>
          <ns3:TrackPointExtension>
            <ns3:hr>130</ns3:hr>
            <ns3:cad>60</ns3:cad>
          </ns3:TrackPointExtension>
        </extensions>
      </trkpt>
      <trkpt lat="56.03562620468437671661376953125" lon="24.15594614110887050628662109375">
        <ele>49.40000152587890625</ele>
        <time>2026-08-01T09:21:24.000Z</time>
        <extensions>
          <ns3:TrackPointExtension>
            <ns3:hr>130</ns3:hr>
            <ns3:cad>59</ns3:cad>
          </ns3:TrackPointExtension>
        </extensions>
      </trkpt>
      <trkpt lat="56.0356742329895496368408203125" lon="24.155734665691852569580078125">
        <ele>49.40000152587890625</ele>
        <time>2026-08-01T09:21:32.000Z</time>
        <extensions>
          <ns3:TrackPointExtension>
            <ns3:hr>129</ns3:hr>
            <ns3:cad>59</ns3:cad>
          </ns3:TrackPointExtension>
        </extensions>
      </trkpt>
      <trkpt lat="56.03569191880524158477783203125" lon="24.15566568262875080108642578125">
        <ele>49.59999847412109375</ele>
        <time>2026-08-01T09:21:35.000Z</time>
        <extensions>
          <ns3:TrackPointExtension>
            <ns3:hr>129</ns3:hr>
            <ns3:cad>59</ns3:cad>
          </ns3:TrackPointExtension>
        </extensions>
      </trkpt>
      <trkpt lat="56.0357464849948883056640625" lon="24.15542981587350368499755859375">
        <ele>49.799999237060546875</ele>
        <time>2026-08-01T09:21:45.000Z</time>
        <extensions>
          <ns3:TrackPointExtension>
            <ns3:hr>130</ns3:hr>
            <ns3:cad>59</ns3:cad>
          </ns3:TrackPointExtension>
        </extensions>
      </trkpt>
      <trkpt lat="56.03581412695348262786865234375" lon="24.1551729105412960052490234375">
        <ele>50</ele>
        <time>2026-08-01T09:21:56.000Z</time>
        <extensions>
          <ns3:TrackPointExtension>
            <ns3:hr>130</ns3:hr>
            <ns3:cad>57</ns3:cad>
          </ns3:TrackPointExtension>
        </extensions>
      </trkpt>
      <trkpt lat="56.0358629934489727020263671875" lon="24.15499647147953510284423828125">
        <ele>50.200000762939453125</ele>
        <time>2026-08-01T09:22:04.000Z</time>
        <extensions>
          <ns3:TrackPointExtension>
            <ns3:hr>132</ns3:hr>
            <ns3:cad>59</ns3:cad>
          </ns3:TrackPointExtension>
        </extensions>
      </trkpt>
      <trkpt lat="56.03591219522058963775634765625" lon="24.15470679290592670440673828125">
        <ele>50.200000762939453125</ele>
        <time>2026-08-01T09:22:16.000Z</time>
        <extensions>
          <ns3:TrackPointExtension>
            <ns3:hr>132</ns3:hr>
            <ns3:cad>58</ns3:cad>
          </ns3:TrackPointExtension>
        </extensions>
      </trkpt>
      <trkpt lat="56.03592627681791782379150390625" lon="24.15440806187689304351806640625">
        <ele>50.40000152587890625</ele>
        <time>2026-08-01T09:22:27.000Z</time>
        <extensions>
          <ns3:TrackPointExtension>
            <ns3:hr>131</ns3:hr>
            <ns3:cad>60</ns3:cad>
          </ns3:TrackPointExtension>
        </extensions>
      </trkpt>
      <trkpt lat="56.03596081025898456573486328125" lon="24.15423170663416385650634765625">
        <ele>50.59999847412109375</ele>
        <time>2026-08-01T09:22:34.000Z</time>
        <extensions>
          <ns3:TrackPointExtension>
            <ns3:hr>129</ns3:hr>
            <ns3:cad>60</ns3:cad>
          </ns3:TrackPointExtension>
        </extensions>
      </trkpt>
      <trkpt lat="56.0360001213848590850830078125" lon="24.15409374050796031951904296875">
        <ele>50.59999847412109375</ele>
        <time>2026-08-01T09:22:40.000Z</time>
        <extensions>
          <ns3:TrackPointExtension>
            <ns3:hr>128</ns3:hr>
            <ns3:cad>60</ns3:cad>
          </ns3:TrackPointExtension>
        </extensions>
      </trkpt>
      <trkpt lat="56.0360242612659931182861328125" lon="24.15400438942015171051025390625">
        <ele>51</ele>
        <time>2026-08-01T09:22:44.000Z</time>
        <extensions>
          <ns3:TrackPointExtension>
            <ns3:hr>128</ns3:hr>
            <ns3:cad>60</ns3:cad>
          </ns3:TrackPointExtension>
        </extensions>
      </trkpt>
      <trkpt lat="56.03604731149971485137939453125" lon="24.15388922207057476043701171875">
        <ele>50.799999237060546875</ele>
        <time>2026-08-01T09:22:49.000Z</time>
        <extensions>
          <ns3:TrackPointExtension>
            <ns3:hr>131</ns3:hr>
            <ns3:cad>60</ns3:cad>
          </ns3:TrackPointExtension>
        </extensions>
      </trkpt>
      <trkpt lat="56.03607346303761005401611328125" lon="24.15376399643719196319580078125">
        <ele>50.59999847412109375</ele>
        <time>2026-08-01T09:22:54.000Z</time>
        <extensions>
          <ns3:TrackPointExtension>
            <ns3:hr>132</ns3:hr>
            <ns3:cad>60</ns3:cad>
          </ns3:TrackPointExtension>
        </extensions>
      </trkpt>
      <trkpt lat="56.0361354053020477294921875" lon="24.15344984270632266998291015625">
        <ele>50.799999237060546875</ele>
        <time>2026-08-01T09:23:06.000Z</time>
        <extensions>
          <ns3:TrackPointExtension>
            <ns3:hr>131</ns3:hr>
            <ns3:cad>60</ns3:cad>
          </ns3:TrackPointExtension>
        </extensions>
      </trkpt>
      <trkpt lat="56.03619030676782131195068359375" lon="24.15324146859347820281982421875">
        <ele>51</ele>
        <time>2026-08-01T09:23:15.000Z</time>
        <extensions>
          <ns3:TrackPointExtension>
            <ns3:hr>131</ns3:hr>
            <ns3:cad>58</ns3:cad>
          </ns3:TrackPointExtension>
        </extensions>
      </trkpt>
      <trkpt lat="56.03624629788100719451904296875" lon="24.15300182998180389404296875">
        <ele>51</ele>
        <time>2026-08-01T09:23:25.000Z</time>
        <extensions>
          <ns3:TrackPointExtension>
            <ns3:hr>131</ns3:hr>
            <ns3:cad>61</ns3:cad>
          </ns3:TrackPointExtension>
        </extensions>
      </trkpt>
      <trkpt lat="56.03627881966531276702880859375" lon="24.1528430767357349395751953125">
        <ele>51</ele>
        <time>2026-08-01T09:23:33.000Z</time>
        <extensions>
          <ns3:TrackPointExtension>
            <ns3:hr>130</ns3:hr>
            <ns3:cad>0</ns3:cad>
          </ns3:TrackPointExtension>
        </extensions>
      </trkpt>
      <trkpt lat="56.03627764619886875152587890625" lon="24.152836538851261138916015625">
        <ele>51.200000762939453125</ele>
        <time>2026-08-01T09:23:35.000Z</time>
        <extensions>
          <ns3:TrackPointExtension>
            <ns3:hr>130</ns3:hr>
            <ns3:cad>0</ns3:cad>
          </ns3:TrackPointExtension>
        </extensions>
      </trkpt>
      <trkpt lat="56.03630681522190570831298828125" lon="24.15275146253407001495361328125">
        <ele>50.59999847412109375</ele>
        <time>2026-08-01T09:23:39.000Z</time>
        <extensions>
          <ns3:TrackPointExtension>
            <ns3:hr>132</ns3:hr>
            <ns3:cad>0</ns3:cad>
          </ns3:TrackPointExtension>
        </extensions>
      </trkpt>
      <trkpt lat="56.03634118102490901947021484375" lon="24.15259120054543018341064453125">
        <ele>50.59999847412109375</ele>
        <time>2026-08-01T09:23:48.000Z</time>
        <extensions>
          <ns3:TrackPointExtension>
            <ns3:hr>130</ns3:hr>
            <ns3:cad>59</ns3:cad>
          </ns3:TrackPointExtension>
        </extensions>
      </trkpt>
      <trkpt lat="56.036346293985843658447265625" lon="24.1525175236165523529052734375">
        <ele>50.200000762939453125</ele>
        <time>2026-08-01T09:23:56.000Z</time>
        <extensions>
          <ns3:TrackPointExtension>
            <ns3:hr>128</ns3:hr>
            <ns3:cad>0</ns3:cad>
          </ns3:TrackPointExtension>
        </extensions>
      </trkpt>
      <trkpt lat="56.03632441721856594085693359375" lon="24.15250604040920734405517578125">
        <ele>50.200000762939453125</ele>
        <time>2026-08-01T09:24:04.000Z</time>
        <extensions>
          <ns3:TrackPointExtension>
            <ns3:hr>127</ns3:hr>
            <ns3:cad>0</ns3:cad>
          </ns3:TrackPointExtension>
        </extensions>
      </trkpt>
      <trkpt lat="56.036305390298366546630859375" lon="24.15249288082122802734375">
        <ele>51.200000762939453125</ele>
        <time>2026-08-01T09:24:11.000Z</time>
        <extensions>
          <ns3:TrackPointExtension>
            <ns3:hr>123</ns3:hr>
            <ns3:cad>0</ns3:cad>
          </ns3:TrackPointExtension>
        </extensions>
      </trkpt>
      <trkpt lat="56.03630111552774906158447265625" lon="24.15248961187899112701416015625">
        <ele>51</ele>
        <time>2026-08-01T09:24:12.000Z</time>
        <extensions>
          <ns3:TrackPointExtension>
            <ns3:hr>122</ns3:hr>
            <ns3:cad>0</ns3:cad>
          </ns3:TrackPointExtension>
        </extensions>
      </trkpt>
      <trkpt lat="56.03629566729068756103515625" lon="24.1524863429367542266845703125">
        <ele>50.799999237060546875</ele>
        <time>2026-08-01T09:24:16.000Z</time>
        <extensions>
          <ns3:TrackPointExtension>
            <ns3:hr>132</ns3:hr>
            <ns3:cad>0</ns3:cad>
          </ns3:TrackPointExtension>
        </extensions>
      </trkpt>
      <trkpt lat="56.03629390709102153778076171875" lon="24.152482487261295318603515625">
        <ele>50.59999847412109375</ele>
        <time>2026-08-01T09:24:17.000Z</time>
        <extensions>
          <ns3:TrackPointExtension>
            <ns3:hr>138</ns3:hr>
            <ns3:cad>0</ns3:cad>
          </ns3:TrackPointExtension>
        </extensions>
      </trkpt>
      <trkpt lat="56.0362936556339263916015625" lon="24.152480475604534149169921875">
        <ele>50.59999847412109375</ele>
        <time>2026-08-01T09:24:18.000Z</time>
        <extensions>
          <ns3:TrackPointExtension>
            <ns3:hr>138</ns3:hr>
            <ns3:cad>0</ns3:cad>
          </ns3:TrackPointExtension>
        </extensions>
      </trkpt>
      <trkpt lat="56.0363042168319225311279296875" lon="24.15250050835311412811279296875">
        <ele>50.59999847412109375</ele>
        <time>2026-08-01T09:24:21.000Z</time>
        <extensions>
          <ns3:TrackPointExtension>
            <ns3:hr>139</ns3:hr>
            <ns3:cad>0</ns3:cad>
          </ns3:TrackPointExtension>
        </extensions>
      </trkpt>
      <trkpt lat="56.036351658403873443603515625" lon="24.15248760022222995758056640625">
        <ele>49.59999847412109375</ele>
        <time>2026-08-01T09:24:25.000Z</time>
        <extensions>
          <ns3:TrackPointExtension>
            <ns3:hr>138</ns3:hr>
            <ns3:cad>0</ns3:cad>
          </ns3:TrackPointExtension>
        </extensions>
      </trkpt>
      <trkpt lat="56.0363628901541233062744140625" lon="24.1524709202349185943603515625">
        <ele>49.59999847412109375</ele>
        <time>2026-08-01T09:24:26.000Z</time>
        <extensions>
          <ns3:TrackPointExtension>
            <ns3:hr>138</ns3:hr>
            <ns3:cad>0</ns3:cad>
          </ns3:TrackPointExtension>
        </extensions>
      </trkpt>
      <trkpt lat="56.03641024790704250335693359375" lon="24.15234980173408985137939453125">
        <ele>49.799999237060546875</ele>
        <time>2026-08-01T09:24:32.000Z</time>
        <extensions>
          <ns3:TrackPointExtension>
            <ns3:hr>138</ns3:hr>
            <ns3:cad>56</ns3:cad>
          </ns3:TrackPointExtension>
        </extensions>
      </trkpt>
      <trkpt lat="56.036407314240932464599609375" lon="24.15232591331005096435546875">
        <ele>49.799999237060546875</ele>
        <time>2026-08-01T09:24:35.000Z</time>
        <extensions>
          <ns3:TrackPointExtension>
            <ns3:hr>135</ns3:hr>
            <ns3:cad>56</ns3:cad>
          </ns3:TrackPointExtension>
        </extensions>
      </trkpt>
      <trkpt lat="56.036405973136425018310546875" lon="24.15232733823359012603759765625">
        <ele>50.200000762939453125</ele>
        <time>2026-08-01T09:24:38.000Z</time>
        <extensions>
          <ns3:TrackPointExtension>
            <ns3:hr>133</ns3:hr>
            <ns3:cad>0</ns3:cad>
          </ns3:TrackPointExtension>
        </extensions>
      </trkpt>
      <trkpt lat="56.0364165343344211578369140625" lon="24.1522831656038761138916015625">
        <ele>49.59999847412109375</ele>
        <time>2026-08-01T09:24:44.000Z</time>
        <extensions>
          <ns3:TrackPointExtension>
            <ns3:hr>136</ns3:hr>
            <ns3:cad>0</ns3:cad>
          </ns3:TrackPointExtension>
        </extensions>
      </trkpt>
      <trkpt lat="56.03647227399051189422607421875" lon="24.15202089585363864898681640625">
        <ele>49.40000152587890625</ele>
        <time>2026-08-01T09:24:54.000Z</time>
        <extensions>
          <ns3:TrackPointExtension>
            <ns3:hr>136</ns3:hr>
            <ns3:cad>58</ns3:cad>
          </ns3:TrackPointExtension>
        </extensions>
      </trkpt>
      <trkpt lat="56.0365318693220615386962890625" lon="24.151767008006572723388671875">
        <ele>49.40000152587890625</ele>
        <time>2026-08-01T09:25:05.000Z</time>
        <extensions>
          <ns3:TrackPointExtension>
            <ns3:hr>133</ns3:hr>
            <ns3:cad>58</ns3:cad>
          </ns3:TrackPointExtension>
        </extensions>
      </trkpt>
      <trkpt lat="56.03654100559651851654052734375" lon="24.151717387139797210693359375">
        <ele>49.40000152587890625</ele>
        <time>2026-08-01T09:25:07.000Z</time>
        <extensions>
          <ns3:TrackPointExtension>
            <ns3:hr>131</ns3:hr>
            <ns3:cad>58</ns3:cad>
          </ns3:TrackPointExtension>
        </extensions>
      </trkpt>
      <trkpt lat="56.0365979187190532684326171875" lon="24.1515331529080867767333984375">
        <ele>49.40000152587890625</ele>
        <time>2026-08-01T09:25:15.000Z</time>
        <extensions>
          <ns3:TrackPointExtension>
            <ns3:hr>129</ns3:hr>
            <ns3:cad>58</ns3:cad>
          </ns3:TrackPointExtension>
        </extensions>
      </trkpt>
      <trkpt lat="56.03661694563925266265869140625" lon="24.1514597274363040924072265625">
        <ele>49.40000152587890625</ele>
        <time>2026-08-01T09:25:22.000Z</time>
        <extensions>
          <ns3:TrackPointExtension>
            <ns3:hr>129</ns3:hr>
            <ns3:cad>0</ns3:cad>
          </ns3:TrackPointExtension>
        </extensions>
      </trkpt>
      <trkpt lat="56.036627255380153656005859375" lon="24.15144220925867557525634765625">
        <ele>49.40000152587890625</ele>
        <time>2026-08-01T09:25:30.000Z</time>
        <extensions>
          <ns3:TrackPointExtension>
            <ns3:hr>130</ns3:hr>
            <ns3:cad>0</ns3:cad>
          </ns3:TrackPointExtension>
        </extensions>
      </trkpt>
      <trkpt lat="56.0366770438849925994873046875" lon="24.15121807716786861419677734375">
        <ele>49.200000762939453125</ele>
        <time>2026-08-01T09:25:39.000Z</time>
        <extensions>
          <ns3:TrackPointExtension>
            <ns3:hr>130</ns3:hr>
            <ns3:cad>57</ns3:cad>
          </ns3:TrackPointExtension>
        </extensions>
      </trkpt>
      <trkpt lat="56.0367491282522678375244140625" lon="24.150972403585910797119140625">
        <ele>49.59999847412109375</ele>
        <time>2026-08-01T09:25:49.000Z</time>
        <extensions>
          <ns3:TrackPointExtension>
            <ns3:hr>130</ns3:hr>
            <ns3:cad>61</ns3:cad>
          </ns3:TrackPointExtension>
        </extensions>
      </trkpt>
      <trkpt lat="56.0368086397647857666015625" lon="24.1507187671959400177001953125">
        <ele>48.799999237060546875</ele>
        <time>2026-08-01T09:26:00.000Z</time>
        <extensions>
          <ns3:TrackPointExtension>
            <ns3:hr>128</ns3:hr>
            <ns3:cad>59</ns3:cad>
          </ns3:TrackPointExtension>
        </extensions>
      </trkpt>
      <trkpt lat="56.036876700818538665771484375" lon="24.15040142834186553955078125">
        <ele>48.59999847412109375</ele>
        <time>2026-08-01T09:26:13.000Z</time>
        <extensions>
          <ns3:TrackPointExtension>
            <ns3:hr>127</ns3:hr>
            <ns3:cad>59</ns3:cad>
          </ns3:TrackPointExtension>
        </extensions>
      </trkpt>
      <trkpt lat="56.03688969276845455169677734375" lon="24.1503538191318511962890625">
        <ele>48.59999847412109375</ele>
        <time>2026-08-01T09:26:15.000Z</time>
        <extensions>
          <ns3:TrackPointExtension>
            <ns3:hr>127</ns3:hr>
            <ns3:cad>59</ns3:cad>
          </ns3:TrackPointExtension>
        </extensions>
      </trkpt>
      <trkpt lat="56.0369543172419071197509765625" lon="24.150100015103816986083984375">
        <ele>48.799999237060546875</ele>
        <time>2026-08-01T09:26:26.000Z</time>
        <extensions>
          <ns3:TrackPointExtension>
            <ns3:hr>126</ns3:hr>
            <ns3:cad>60</ns3:cad>
          </ns3:TrackPointExtension>
        </extensions>
      </trkpt>
      <trkpt lat="56.0370072908699512481689453125" lon="24.14988954551517963409423828125">
        <ele>48.40000152587890625</ele>
        <time>2026-08-01T09:26:35.000Z</time>
        <extensions>
          <ns3:TrackPointExtension>
            <ns3:hr>126</ns3:hr>
            <ns3:cad>59</ns3:cad>
          </ns3:TrackPointExtension>
        </extensions>
      </trkpt>
      <trkpt lat="56.03708029724657535552978515625" lon="24.1495788283646106719970703125">
        <ele>48</ele>
        <time>2026-08-01T09:26:48.000Z</time>
        <extensions>
          <ns3:TrackPointExtension>
            <ns3:hr>124</ns3:hr>
            <ns3:cad>60</ns3:cad>
          </ns3:TrackPointExtension>
        </extensions>
      </trkpt>
      <trkpt lat="56.03709454648196697235107421875" lon="24.1495198197662830352783203125">
        <ele>48</ele>
        <time>2026-08-01T09:26:51.000Z</time>
        <extensions>
          <ns3:TrackPointExtension>
            <ns3:hr>123</ns3:hr>
            <ns3:cad>60</ns3:cad>
          </ns3:TrackPointExtension>
        </extensions>
      </trkpt>
      <trkpt lat="56.037144921720027923583984375" lon="24.149304069578647613525390625">
        <ele>47.799999237060546875</ele>
        <time>2026-08-01T09:26:59.000Z</time>
        <extensions>
          <ns3:TrackPointExtension>
            <ns3:hr>120</ns3:hr>
            <ns3:cad>60</ns3:cad>
          </ns3:TrackPointExtension>
        </extensions>
      </trkpt>
      <trkpt lat="56.037189848721027374267578125" lon="24.14908790029585361480712890625">
        <ele>48</ele>
        <time>2026-08-01T09:27:08.000Z</time>
        <extensions>
          <ns3:TrackPointExtension>
            <ns3:hr>123</ns3:hr>
            <ns3:cad>60</ns3:cad>
          </ns3:TrackPointExtension>
        </extensions>
      </trkpt>
      <trkpt lat="56.0372030921280384063720703125" lon="24.14901673793792724609375">
        <ele>48</ele>
        <time>2026-08-01T09:27:11.000Z</time>
        <extensions>
          <ns3:TrackPointExtension>
            <ns3:hr>126</ns3:hr>
            <ns3:cad>59</ns3:cad>
          </ns3:TrackPointExtension>
        </extensions>
      </trkpt>
      <trkpt lat="56.03726671077311038970947265625" lon="24.14874893613159656524658203125">
        <ele>48</ele>
        <time>2026-08-01T09:27:22.000Z</time>
        <extensions>
          <ns3:TrackPointExtension>
            <ns3:hr>126</ns3:hr>
            <ns3:cad>59</ns3:cad>
          </ns3:TrackPointExtension>
        </extensions>
      </trkpt>
      <trkpt lat="56.03733443655073642730712890625" lon="24.14851575158536434173583984375">
        <ele>47.799999237060546875</ele>
        <time>2026-08-01T09:27:33.000Z</time>
        <extensions>
          <ns3:TrackPointExtension>
            <ns3:hr>126</ns3:hr>
            <ns3:cad>57</ns3:cad>
          </ns3:TrackPointExtension>
        </extensions>
      </trkpt>
      <trkpt lat="56.03738464415073394775390625" lon="24.14829480461776256561279296875">
        <ele>47.799999237060546875</ele>
        <time>2026-08-01T09:27:42.000Z</time>
        <extensions>
          <ns3:TrackPointExtension>
            <ns3:hr>126</ns3:hr>
            <ns3:cad>59</ns3:cad>
          </ns3:TrackPointExtension>
        </extensions>
      </trkpt>
      <trkpt lat="56.0374421440064907073974609375" lon="24.14802038110792636871337890625">
        <ele>48.200000762939453125</ele>
        <time>2026-08-01T09:27:53.000Z</time>
        <extensions>
          <ns3:TrackPointExtension>
            <ns3:hr>124</ns3:hr>
            <ns3:cad>60</ns3:cad>
          </ns3:TrackPointExtension>
        </extensions>
      </trkpt>
      <trkpt lat="56.037492267787456512451171875" lon="24.14779566228389739990234375">
        <ele>48.40000152587890625</ele>
        <time>2026-08-01T09:28:02.000Z</time>
        <extensions>
          <ns3:TrackPointExtension>
            <ns3:hr>125</ns3:hr>
            <ns3:cad>60</ns3:cad>
          </ns3:TrackPointExtension>
        </extensions>
      </trkpt>
      <trkpt lat="56.03754616342484951019287109375" lon="24.14757974445819854736328125">
        <ele>48.40000152587890625</ele>
        <time>2026-08-01T09:28:11.000Z</time>
        <extensions>
          <ns3:TrackPointExtension>
            <ns3:hr>127</ns3:hr>
            <ns3:cad>59</ns3:cad>
          </ns3:TrackPointExtension>
        </extensions>
      </trkpt>
      <trkpt lat="56.03760324418544769287109375" lon="24.14737044833600521087646484375">
        <ele>48.59999847412109375</ele>
        <time>2026-08-01T09:28:20.000Z</time>
        <extensions>
          <ns3:TrackPointExtension>
            <ns3:hr>127</ns3:hr>
            <ns3:cad>59</ns3:cad>
          </ns3:TrackPointExtension>
        </extensions>
      </trkpt>
      <trkpt lat="56.0376406274735927581787109375" lon="24.14717682637274265289306640625">
        <ele>48.59999847412109375</ele>
        <time>2026-08-01T09:28:27.000Z</time>
        <extensions>
          <ns3:TrackPointExtension>
            <ns3:hr>124</ns3:hr>
            <ns3:cad>60</ns3:cad>
          </ns3:TrackPointExtension>
        </extensions>
      </trkpt>
      <trkpt lat="56.03765982203185558319091796875" lon="24.14707389660179615020751953125">
        <ele>48.59999847412109375</ele>
        <time>2026-08-01T09:28:31.000Z</time>
        <extensions>
          <ns3:TrackPointExtension>
            <ns3:hr>125</ns3:hr>
            <ns3:cad>60</ns3:cad>
          </ns3:TrackPointExtension>
        </extensions>
      </trkpt>
      <trkpt lat="56.03770474903285503387451171875" lon="24.1469023190438747406005859375">
        <ele>48.799999237060546875</ele>
        <time>2026-08-01T09:28:38.000Z</time>
        <extensions>
          <ns3:TrackPointExtension>
            <ns3:hr>128</ns3:hr>
            <ns3:cad>60</ns3:cad>
          </ns3:TrackPointExtension>
        </extensions>
      </trkpt>
      <trkpt lat="56.03770273737609386444091796875" lon="24.14683216251432895660400390625">
        <ele>49</ele>
        <time>2026-08-01T09:28:41.000Z</time>
        <extensions>
          <ns3:TrackPointExtension>
            <ns3:hr>127</ns3:hr>
            <ns3:cad>59</ns3:cad>
          </ns3:TrackPointExtension>
        </extensions>
      </trkpt>
      <trkpt lat="56.0376312397420406341552734375" lon="24.1467075236141681671142578125">
        <ele>49.200000762939453125</ele>
        <time>2026-08-01T09:28:49.000Z</time>
        <extensions>
          <ns3:TrackPointExtension>
            <ns3:hr>128</ns3:hr>
            <ns3:cad>58</ns3:cad>
          </ns3:TrackPointExtension>
        </extensions>
      </trkpt>
      <trkpt lat="56.03760014288127422332763671875" lon="24.1467060148715972900390625">
        <ele>49.40000152587890625</ele>
        <time>2026-08-01T09:28:55.000Z</time>
        <extensions>
          <ns3:TrackPointExtension>
            <ns3:hr>128</ns3:hr>
            <ns3:cad>0</ns3:cad>
          </ns3:TrackPointExtension>
        </extensions>
      </trkpt>
      <trkpt lat="56.03749863803386688232421875" lon="24.14665832184255123138427734375">
        <ele>48.799999237060546875</ele>
        <time>2026-08-01T09:29:02.000Z</time>
        <extensions>
          <ns3:TrackPointExtension>
            <ns3:hr>129</ns3:hr>
            <ns3:cad>59</ns3:cad>
          </ns3:TrackPointExtension>
        </extensions>
      </trkpt>
      <trkpt lat="56.0373504459857940673828125" lon="24.14655740372836589813232421875">
        <ele>48.59999847412109375</ele>
        <time>2026-08-01T09:29:13.000Z</time>
        <extensions>
          <ns3:TrackPointExtension>
            <ns3:hr>127</ns3:hr>
            <ns3:cad>59</ns3:cad>
          </ns3:TrackPointExtension>
        </extensions>
      </trkpt>
      <trkpt lat="56.0372681356966495513916015625" lon="24.14647039957344532012939453125">
        <ele>48.59999847412109375</ele>
        <time>2026-08-01T09:29:20.000Z</time>
        <extensions>
          <ns3:TrackPointExtension>
            <ns3:hr>127</ns3:hr>
            <ns3:cad>59</ns3:cad>
          </ns3:TrackPointExtension>
        </extensions>
      </trkpt>
      <trkpt lat="56.0371588356792926788330078125" lon="24.14638859219849109649658203125">
        <ele>48.59999847412109375</ele>
        <time>2026-08-01T09:29:29.000Z</time>
        <extensions>
          <ns3:TrackPointExtension>
            <ns3:hr>127</ns3:hr>
            <ns3:cad>59</ns3:cad>
          </ns3:TrackPointExtension>
        </extensions>
      </trkpt>
      <trkpt lat="56.0370998270809650421142578125" lon="24.14633897133171558380126953125">
        <ele>48.59999847412109375</ele>
        <time>2026-08-01T09:29:34.000Z</time>
        <extensions>
          <ns3:TrackPointExtension>
            <ns3:hr>124</ns3:hr>
            <ns3:cad>59</ns3:cad>
          </ns3:TrackPointExtension>
        </extensions>
      </trkpt>
      <trkpt lat="56.03704878129065036773681640625" lon="24.1463010013103485107421875">
        <ele>48.59999847412109375</ele>
        <time>2026-08-01T09:29:38.000Z</time>
        <extensions>
          <ns3:TrackPointExtension>
            <ns3:hr>122</ns3:hr>
            <ns3:cad>59</ns3:cad>
          </ns3:TrackPointExtension>
        </extensions>
      </trkpt>
      <trkpt lat="56.03699279017746448516845703125" lon="24.14626277983188629150390625">
        <ele>48.59999847412109375</ele>
        <time>2026-08-01T09:29:42.000Z</time>
        <extensions>
          <ns3:TrackPointExtension>
            <ns3:hr>125</ns3:hr>
            <ns3:cad>59</ns3:cad>
          </ns3:TrackPointExtension>
        </extensions>
      </trkpt>
      <trkpt lat="56.03696412406861782073974609375" lon="24.1462401486933231353759765625">
        <ele>48.59999847412109375</ele>
        <time>2026-08-01T09:29:44.000Z</time>
        <extensions>
          <ns3:TrackPointExtension>
            <ns3:hr>128</ns3:hr>
            <ns3:cad>59</ns3:cad>
          </ns3:TrackPointExtension>
        </extensions>
      </trkpt>
      <trkpt lat="56.036938391625881195068359375" lon="24.14622782729566097259521484375">
        <ele>48.59999847412109375</ele>
        <time>2026-08-01T09:29:46.000Z</time>
        <extensions>
          <ns3:TrackPointExtension>
            <ns3:hr>130</ns3:hr>
            <ns3:cad>58</ns3:cad>
          </ns3:TrackPointExtension>
        </extensions>
      </trkpt>
      <trkpt lat="56.03685046546161174774169921875" lon="24.14617015980184078216552734375">
        <ele>48.59999847412109375</ele>
        <time>2026-08-01T09:29:53.000Z</time>
        <extensions>
          <ns3:TrackPointExtension>
            <ns3:hr>129</ns3:hr>
            <ns3:cad>58</ns3:cad>
          </ns3:TrackPointExtension>
        </extensions>
      </trkpt>
      <trkpt lat="56.03682280518114566802978515625" lon="24.1461429186165332794189453125">
        <ele>48.59999847412109375</ele>
        <time>2026-08-01T09:29:58.000Z</time>
        <extensions>
          <ns3:TrackPointExtension>
            <ns3:hr>129</ns3:hr>
            <ns3:cad>0</ns3:cad>
          </ns3:TrackPointExtension>
        </extensions>
      </trkpt>
      <trkpt lat="56.03675642050802707672119140625" lon="24.14595575071871280670166015625">
        <ele>48.59999847412109375</ele>
        <time>2026-08-01T09:30:07.000Z</time>
        <extensions>
          <ns3:TrackPointExtension>
            <ns3:hr>130</ns3:hr>
            <ns3:cad>59</ns3:cad>
          </ns3:TrackPointExtension>
        </extensions>
      </trkpt>
      <trkpt lat="56.0367196239531040191650390625" lon="24.14577570743858814239501953125">
        <ele>48.799999237060546875</ele>
        <time>2026-08-01T09:30:14.000Z</time>
        <extensions>
          <ns3:TrackPointExtension>
            <ns3:hr>130</ns3:hr>
            <ns3:cad>59</ns3:cad>
          </ns3:TrackPointExtension>
        </extensions>
      </trkpt>
      <trkpt lat="56.03667930699884891510009765625" lon="24.145623743534088134765625">
        <ele>48.799999237060546875</ele>
        <time>2026-08-01T09:30:21.000Z</time>
        <extensions>
          <ns3:TrackPointExtension>
            <ns3:hr>132</ns3:hr>
            <ns3:cad>59</ns3:cad>
          </ns3:TrackPointExtension>
        </extensions>
      </trkpt>
      <trkpt lat="56.036608479917049407958984375" lon="24.145507402718067169189453125">
        <ele>49</ele>
        <time>2026-08-01T09:30:28.000Z</time>
        <extensions>
          <ns3:TrackPointExtension>
            <ns3:hr>132</ns3:hr>
            <ns3:cad>59</ns3:cad>
          </ns3:TrackPointExtension>
        </extensions>
      </trkpt>
      <trkpt lat="56.03653731755912303924560546875" lon="24.1454378329217433929443359375">
        <ele>49</ele>
        <time>2026-08-01T09:30:33.000Z</time>
        <extensions>
          <ns3:TrackPointExtension>
            <ns3:hr>129</ns3:hr>
            <ns3:cad>59</ns3:cad>
          </ns3:TrackPointExtension>
        </extensions>
      </trkpt>
      <trkpt lat="56.036500521004199981689453125" lon="24.145397432148456573486328125">
        <ele>48.799999237060546875</ele>
        <time>2026-08-01T09:30:36.000Z</time>
        <extensions>
          <ns3:TrackPointExtension>
            <ns3:hr>126</ns3:hr>
            <ns3:cad>59</ns3:cad>
          </ns3:TrackPointExtension>
        </extensions>
      </trkpt>
      <trkpt lat="56.03642131201922893524169921875" lon="24.14527715183794498443603515625">
        <ele>48.59999847412109375</ele>
        <time>2026-08-01T09:30:44.000Z</time>
        <extensions>
          <ns3:TrackPointExtension>
            <ns3:hr>124</ns3:hr>
            <ns3:cad>59</ns3:cad>
          </ns3:TrackPointExtension>
        </extensions>
      </trkpt>
      <trkpt lat="56.03630245663225650787353515625" lon="24.145080931484699249267578125">
        <ele>48.59999847412109375</ele>
        <time>2026-08-01T09:30:54.000Z</time>
        <extensions>
          <ns3:TrackPointExtension>
            <ns3:hr>123</ns3:hr>
            <ns3:cad>59</ns3:cad>
          </ns3:TrackPointExtension>
        </extensions>
      </trkpt>
      <trkpt lat="56.03626105003058910369873046875" lon="24.14501748047769069671630859375">
        <ele>48.59999847412109375</ele>
        <time>2026-08-01T09:30:58.000Z</time>
        <extensions>
          <ns3:TrackPointExtension>
            <ns3:hr>120</ns3:hr>
            <ns3:cad>59</ns3:cad>
          </ns3:TrackPointExtension>
        </extensions>
      </trkpt>
      <trkpt lat="56.036222912371158599853515625" lon="24.14496333338320255279541015625">
        <ele>48.59999847412109375</ele>
        <time>2026-08-01T09:31:02.000Z</time>
        <extensions>
          <ns3:TrackPointExtension>
            <ns3:hr>121</ns3:hr>
            <ns3:cad>59</ns3:cad>
          </ns3:TrackPointExtension>
        </extensions>
      </trkpt>
      <trkpt lat="56.03614420630037784576416015625" lon="24.14485369808971881866455078125">
        <ele>48.799999237060546875</ele>
        <time>2026-08-01T09:31:09.000Z</time>
        <extensions>
          <ns3:TrackPointExtension>
            <ns3:hr>120</ns3:hr>
            <ns3:cad>60</ns3:cad>
          </ns3:TrackPointExtension>
        </extensions>
      </trkpt>
      <trkpt lat="56.03603549301624298095703125" lon="24.144727885723114013671875">
        <ele>49</ele>
        <time>2026-08-01T09:31:17.000Z</time>
        <extensions>
          <ns3:TrackPointExtension>
            <ns3:hr>118</ns3:hr>
            <ns3:cad>61</ns3:cad>
          </ns3:TrackPointExtension>
        </extensions>
      </trkpt>
      <trkpt lat="56.0359753109514713287353515625" lon="24.144609868526458740234375">
        <ele>49</ele>
        <time>2026-08-01T09:31:23.000Z</time>
        <extensions>
          <ns3:TrackPointExtension>
            <ns3:hr>122</ns3:hr>
            <ns3:cad>59</ns3:cad>
          </ns3:TrackPointExtension>
        </extensions>
      </trkpt>
      <trkpt lat="56.0359572060406208038330078125" lon="24.14457030594348907470703125">
        <ele>49</ele>
        <time>2026-08-01T09:31:25.000Z</time>
        <extensions>
          <ns3:TrackPointExtension>
            <ns3:hr>125</ns3:hr>
            <ns3:cad>60</ns3:cad>
          </ns3:TrackPointExtension>
        </extensions>
      </trkpt>
      <trkpt lat="56.03593834675848484039306640625" lon="24.14453116245567798614501953125">
        <ele>49</ele>
        <time>2026-08-01T09:31:27.000Z</time>
        <extensions>
          <ns3:TrackPointExtension>
            <ns3:hr>127</ns3:hr>
            <ns3:cad>60</ns3:cad>
          </ns3:TrackPointExtension>
        </extensions>
      </trkpt>
      <trkpt lat="56.03590129874646663665771484375" lon="24.14439470507204532623291015625">
        <ele>49</ele>
        <time>2026-08-01T09:31:33.000Z</time>
        <extensions>
          <ns3:TrackPointExtension>
            <ns3:hr>130</ns3:hr>
            <ns3:cad>59</ns3:cad>
          </ns3:TrackPointExtension>
        </extensions>
      </trkpt>
      <trkpt lat="56.035898365080356597900390625" lon="24.14437358267605304718017578125">
        <ele>49</ele>
        <time>2026-08-01T09:31:34.000Z</time>
        <extensions>
          <ns3:TrackPointExtension>
            <ns3:hr>130</ns3:hr>
            <ns3:cad>59</ns3:cad>
          </ns3:TrackPointExtension>
        </extensions>
      </trkpt>
      <trkpt lat="56.035901717841625213623046875" lon="24.1443384625017642974853515625">
        <ele>49.40000152587890625</ele>
        <time>2026-08-01T09:31:40.000Z</time>
        <extensions>
          <ns3:TrackPointExtension>
            <ns3:hr>130</ns3:hr>
            <ns3:cad>0</ns3:cad>
          </ns3:TrackPointExtension>
        </extensions>
      </trkpt>
      <trkpt lat="56.0359159670770168304443359375" lon="24.14435262791812419891357421875">
        <ele>49</ele>
        <time>2026-08-01T09:31:48.000Z</time>
        <extensions>
          <ns3:TrackPointExtension>
            <ns3:hr>134</ns3:hr>
            <ns3:cad>0</ns3:cad>
          </ns3:TrackPointExtension>
        </extensions>
      </trkpt>
      <trkpt lat="56.03592552244663238525390625" lon="24.1443786956369876861572265625">
        <ele>49</ele>
        <time>2026-08-01T09:31:51.000Z</time>
        <extensions>
          <ns3:TrackPointExtension>
            <ns3:hr>137</ns3:hr>
            <ns3:cad>0</ns3:cad>
          </ns3:TrackPointExtension>
        </extensions>
      </trkpt>
      <trkpt lat="56.0359223373234272003173828125" lon="24.144360758364200592041015625">
        <ele>48.799999237060546875</ele>
        <time>2026-08-01T09:31:56.000Z</time>
        <extensions>
          <ns3:TrackPointExtension>
            <ns3:hr>139</ns3:hr>
            <ns3:cad>0</ns3:cad>
          </ns3:TrackPointExtension>
        </extensions>
      </trkpt>
      <trkpt lat="56.03591303341090679168701171875" lon="24.14419672451913356781005859375">
        <ele>49</ele>
        <time>2026-08-01T09:32:02.000Z</time>
        <extensions>
          <ns3:TrackPointExtension>
            <ns3:hr>137</ns3:hr>
            <ns3:cad>57</ns3:cad>
          </ns3:TrackPointExtension>
        </extensions>
      </trkpt>
      <trkpt lat="56.0359505005180835723876953125" lon="24.14398063905537128448486328125">
        <ele>49.200000762939453125</ele>
        <time>2026-08-01T09:32:11.000Z</time>
        <extensions>
          <ns3:TrackPointExtension>
            <ns3:hr>137</ns3:hr>
            <ns3:cad>60</ns3:cad>
          </ns3:TrackPointExtension>
        </extensions>
      </trkpt>
      <trkpt lat="56.03602099232375621795654296875" lon="24.143780060112476348876953125">
        <ele>49.200000762939453125</ele>
        <time>2026-08-01T09:32:20.000Z</time>
        <extensions>
          <ns3:TrackPointExtension>
            <ns3:hr>135</ns3:hr>
            <ns3:cad>59</ns3:cad>
          </ns3:TrackPointExtension>
        </extensions>
      </trkpt>
      <trkpt lat="56.03609827347099781036376953125" lon="24.14351485669612884521484375">
        <ele>49.40000152587890625</ele>
        <time>2026-08-01T09:32:31.000Z</time>
        <extensions>
          <ns3:TrackPointExtension>
            <ns3:hr>133</ns3:hr>
            <ns3:cad>59</ns3:cad>
          </ns3:TrackPointExtension>
        </extensions>
      </trkpt>
      <trkpt lat="56.0361131094396114349365234375" lon="24.1434687562286853790283203125">
        <ele>49.59999847412109375</ele>
        <time>2026-08-01T09:32:33.000Z</time>
        <extensions>
          <ns3:TrackPointExtension>
            <ns3:hr>133</ns3:hr>
            <ns3:cad>59</ns3:cad>
          </ns3:TrackPointExtension>
        </extensions>
      </trkpt>
      <trkpt lat="56.03617454878985881805419921875" lon="24.1432907246053218841552734375">
        <ele>49.799999237060546875</ele>
        <time>2026-08-01T09:32:41.000Z</time>
        <extensions>
          <ns3:TrackPointExtension>
            <ns3:hr>132</ns3:hr>
            <ns3:cad>59</ns3:cad>
          </ns3:TrackPointExtension>
        </extensions>
      </trkpt>
      <trkpt lat="56.03624696843326091766357421875" lon="24.1430382616817951202392578125">
        <ele>50.200000762939453125</ele>
        <time>2026-08-01T09:32:52.000Z</time>
        <extensions>
          <ns3:TrackPointExtension>
            <ns3:hr>132</ns3:hr>
            <ns3:cad>59</ns3:cad>
          </ns3:TrackPointExtension>
        </extensions>
      </trkpt>
      <trkpt lat="56.03632760234177112579345703125" lon="24.1427811048924922943115234375">
        <ele>50.40000152587890625</ele>
        <time>2026-08-01T09:33:03.000Z</time>
        <extensions>
          <ns3:TrackPointExtension>
            <ns3:hr>133</ns3:hr>
            <ns3:cad>59</ns3:cad>
          </ns3:TrackPointExtension>
        </extensions>
      </trkpt>
      <trkpt lat="56.036398597061634063720703125" lon="24.14254616014659404754638671875">
        <ele>50.59999847412109375</ele>
        <time>2026-08-01T09:33:13.000Z</time>
        <extensions>
          <ns3:TrackPointExtension>
            <ns3:hr>132</ns3:hr>
            <ns3:cad>59</ns3:cad>
          </ns3:TrackPointExtension>
        </extensions>
      </trkpt>
      <trkpt lat="56.036460958421230316162109375" lon="24.14232839830219745635986328125">
        <ele>50.59999847412109375</ele>
        <time>2026-08-01T09:33:23.000Z</time>
        <extensions>
          <ns3:TrackPointExtension>
            <ns3:hr>132</ns3:hr>
            <ns3:cad>59</ns3:cad>
          </ns3:TrackPointExtension>
        </extensions>
      </trkpt>
      <trkpt lat="56.03646875359117984771728515625" lon="24.14230576716363430023193359375">
        <ele>50.59999847412109375</ele>
        <time>2026-08-01T09:33:24.000Z</time>
        <extensions>
          <ns3:TrackPointExtension>
            <ns3:hr>132</ns3:hr>
            <ns3:cad>59</ns3:cad>
          </ns3:TrackPointExtension>
        </extensions>
      </trkpt>
      <trkpt lat="56.03652105666697025299072265625" lon="24.1421212814748287200927734375">
        <ele>50.799999237060546875</ele>
        <time>2026-08-01T09:33:32.000Z</time>
        <extensions>
          <ns3:TrackPointExtension>
            <ns3:hr>132</ns3:hr>
            <ns3:cad>59</ns3:cad>
          </ns3:TrackPointExtension>
        </extensions>
      </trkpt>
      <trkpt lat="56.0365871898829936981201171875" lon="24.1419103927910327911376953125">
        <ele>51</ele>
        <time>2026-08-01T09:33:41.000Z</time>
        <extensions>
          <ns3:TrackPointExtension>
            <ns3:hr>132</ns3:hr>
            <ns3:cad>59</ns3:cad>
          </ns3:TrackPointExtension>
        </extensions>
      </trkpt>
      <trkpt lat="56.03667427785694599151611328125" lon="24.14163990877568721771240234375">
        <ele>51</ele>
        <time>2026-08-01T09:33:53.000Z</time>
        <extensions>
          <ns3:TrackPointExtension>
            <ns3:hr>132</ns3:hr>
            <ns3:cad>59</ns3:cad>
          </ns3:TrackPointExtension>
        </extensions>
      </trkpt>
      <trkpt lat="56.0367417521774768829345703125" lon="24.1414041258394718170166015625">
        <ele>51.200000762939453125</ele>
        <time>2026-08-01T09:34:03.000Z</time>
        <extensions>
          <ns3:TrackPointExtension>
            <ns3:hr>134</ns3:hr>
            <ns3:cad>60</ns3:cad>
          </ns3:TrackPointExtension>
        </extensions>
      </trkpt>
      <trkpt lat="56.0367710888385772705078125" lon="24.1413156129419803619384765625">
        <ele>51.40000152587890625</ele>
        <time>2026-08-01T09:34:07.000Z</time>
        <extensions>
          <ns3:TrackPointExtension>
            <ns3:hr>131</ns3:hr>
            <ns3:cad>59</ns3:cad>
          </ns3:TrackPointExtension>
        </extensions>
      </trkpt>
      <trkpt lat="56.03682112880051136016845703125" lon="24.14115191437304019927978515625">
        <ele>51.40000152587890625</ele>
        <time>2026-08-01T09:34:14.000Z</time>
        <extensions>
          <ns3:TrackPointExtension>
            <ns3:hr>130</ns3:hr>
            <ns3:cad>59</ns3:cad>
          </ns3:TrackPointExtension>
        </extensions>
      </trkpt>
      <trkpt lat="56.0369050316512584686279296875" lon="24.14086927659809589385986328125">
        <ele>51.40000152587890625</ele>
        <time>2026-08-01T09:34:26.000Z</time>
        <extensions>
          <ns3:TrackPointExtension>
            <ns3:hr>130</ns3:hr>
            <ns3:cad>58</ns3:cad>
          </ns3:TrackPointExtension>
        </extensions>
      </trkpt>
      <trkpt lat="56.0369754396378993988037109375" lon="24.1406366787850856781005859375">
        <ele>51.59999847412109375</ele>
        <time>2026-08-01T09:34:36.000Z</time>
        <extensions>
          <ns3:TrackPointExtension>
            <ns3:hr>130</ns3:hr>
            <ns3:cad>59</ns3:cad>
          </ns3:TrackPointExtension>
        </extensions>
      </trkpt>
      <trkpt lat="56.03706001304090023040771484375" lon="24.14035261608660221099853515625">
        <ele>51.59999847412109375</ele>
        <time>2026-08-01T09:34:49.000Z</time>
        <extensions>
          <ns3:TrackPointExtension>
            <ns3:hr>127</ns3:hr>
            <ns3:cad>59</ns3:cad>
          </ns3:TrackPointExtension>
        </extensions>
      </trkpt>
      <trkpt lat="56.03711700998246669769287109375" lon="24.14016502909362316131591796875">
        <ele>51.59999847412109375</ele>
        <time>2026-08-01T09:34:58.000Z</time>
        <extensions>
          <ns3:TrackPointExtension>
            <ns3:hr>126</ns3:hr>
            <ns3:cad>60</ns3:cad>
          </ns3:TrackPointExtension>
        </extensions>
      </trkpt>
      <trkpt lat="56.0371705703437328338623046875" lon="24.13999202661216259002685546875">
        <ele>51.799999237060546875</ele>
        <time>2026-08-01T09:35:05.000Z</time>
        <extensions>
          <ns3:TrackPointExtension>
            <ns3:hr>125</ns3:hr>
            <ns3:cad>59</ns3:cad>
          </ns3:TrackPointExtension>
        </extensions>
      </trkpt>
      <trkpt lat="56.03724290616810321807861328125" lon="24.1397213749587535858154296875">
        <ele>51.40000152587890625</ele>
        <time>2026-08-01T09:35:17.000Z</time>
        <extensions>
          <ns3:TrackPointExtension>
            <ns3:hr>125</ns3:hr>
            <ns3:cad>58</ns3:cad>
          </ns3:TrackPointExtension>
        </extensions>
      </trkpt>
      <trkpt lat="56.0373070277273654937744140625" lon="24.13951341994106769561767578125">
        <ele>51.59999847412109375</ele>
        <time>2026-08-01T09:35:26.000Z</time>
        <extensions>
          <ns3:TrackPointExtension>
            <ns3:hr>124</ns3:hr>
            <ns3:cad>61</ns3:cad>
          </ns3:TrackPointExtension>
        </extensions>
      </trkpt>
      <trkpt lat="56.037384308874607086181640625" lon="24.1392838396131992340087890625">
        <ele>51.40000152587890625</ele>
        <time>2026-08-01T09:35:36.000Z</time>
        <extensions>
          <ns3:TrackPointExtension>
            <ns3:hr>127</ns3:hr>
            <ns3:cad>60</ns3:cad>
          </ns3:TrackPointExtension>
        </extensions>
      </trkpt>
      <trkpt lat="56.0373921878635883331298828125" lon="24.13926330395042896270751953125">
        <ele>51.40000152587890625</ele>
        <time>2026-08-01T09:35:37.000Z</time>
        <extensions>
          <ns3:TrackPointExtension>
            <ns3:hr>127</ns3:hr>
            <ns3:cad>60</ns3:cad>
          </ns3:TrackPointExtension>
        </extensions>
      </trkpt>
      <trkpt lat="56.03747022338211536407470703125" lon="24.138993658125400543212890625">
        <ele>51.40000152587890625</ele>
        <time>2026-08-01T09:35:49.000Z</time>
        <extensions>
          <ns3:TrackPointExtension>
            <ns3:hr>130</ns3:hr>
            <ns3:cad>59</ns3:cad>
          </ns3:TrackPointExtension>
        </extensions>
      </trkpt>
      <trkpt lat="56.03748346678912639617919921875" lon="24.138944037258625030517578125">
        <ele>51.40000152587890625</ele>
        <time>2026-08-01T09:35:51.000Z</time>
        <extensions>
          <ns3:TrackPointExtension>
            <ns3:hr>130</ns3:hr>
            <ns3:cad>59</ns3:cad>
          </ns3:TrackPointExtension>
        </extensions>
      </trkpt>
      <trkpt lat="56.0375527851283550262451171875" lon="24.13868285715579986572265625">
        <ele>51.40000152587890625</ele>
        <time>2026-08-01T09:36:02.000Z</time>
        <extensions>
          <ns3:TrackPointExtension>
            <ns3:hr>130</ns3:hr>
            <ns3:cad>59</ns3:cad>
          </ns3:TrackPointExtension>
        </extensions>
      </trkpt>
      <trkpt lat="56.03761087171733379364013671875" lon="24.1384439729154109954833984375">
        <ele>51.40000152587890625</ele>
        <time>2026-08-01T09:36:12.000Z</time>
        <extensions>
          <ns3:TrackPointExtension>
            <ns3:hr>128</ns3:hr>
            <ns3:cad>59</ns3:cad>
          </ns3:TrackPointExtension>
        </extensions>
      </trkpt>
      <trkpt lat="56.0376620851457118988037109375" lon="24.138184972107410430908203125">
        <ele>51.200000762939453125</ele>
        <time>2026-08-01T09:36:23.000Z</time>
        <extensions>
          <ns3:TrackPointExtension>
            <ns3:hr>127</ns3:hr>
            <ns3:cad>59</ns3:cad>
          </ns3:TrackPointExtension>
        </extensions>
      </trkpt>
      <trkpt lat="56.0377036593854427337646484375" lon="24.1379432380199432373046875">
        <ele>51.200000762939453125</ele>
        <time>2026-08-01T09:36:33.000Z</time>
        <extensions>
          <ns3:TrackPointExtension>
            <ns3:hr>127</ns3:hr>
            <ns3:cad>59</ns3:cad>
          </ns3:TrackPointExtension>
        </extensions>
      </trkpt>
      <trkpt lat="56.03774565272033214569091796875" lon="24.13774869404733180999755859375">
        <ele>51</ele>
        <time>2026-08-01T09:36:41.000Z</time>
        <extensions>
          <ns3:TrackPointExtension>
            <ns3:hr>126</ns3:hr>
            <ns3:cad>59</ns3:cad>
          </ns3:TrackPointExtension>
        </extensions>
      </trkpt>
      <trkpt lat="56.0377790965139865875244140625" lon="24.13752741180360317230224609375">
        <ele>50.799999237060546875</ele>
        <time>2026-08-01T09:36:50.000Z</time>
        <extensions>
          <ns3:TrackPointExtension>
            <ns3:hr>126</ns3:hr>
            <ns3:cad>59</ns3:cad>
          </ns3:TrackPointExtension>
        </extensions>
      </trkpt>
      <trkpt lat="56.0377596504986286163330078125" lon="24.13732641376554965972900390625">
        <ele>50.799999237060546875</ele>
        <time>2026-08-01T09:36:58.000Z</time>
        <extensions>
          <ns3:TrackPointExtension>
            <ns3:hr>126</ns3:hr>
            <ns3:cad>59</ns3:cad>
          </ns3:TrackPointExtension>
        </extensions>
      </trkpt>
      <trkpt lat="56.03767323307693004608154296875" lon="24.13717168383300304412841796875">
        <ele>51</ele>
        <time>2026-08-01T09:37:06.000Z</time>
        <extensions>
          <ns3:TrackPointExtension>
            <ns3:hr>129</ns3:hr>
            <ns3:cad>58</ns3:cad>
          </ns3:TrackPointExtension>
        </extensions>
      </trkpt>
      <trkpt lat="56.03754331357777118682861328125" lon="24.13706389255821704864501953125">
        <ele>51.200000762939453125</ele>
        <time>2026-08-01T09:37:16.000Z</time>
        <extensions>
          <ns3:TrackPointExtension>
            <ns3:hr>129</ns3:hr>
            <ns3:cad>59</ns3:cad>
          </ns3:TrackPointExtension>
        </extensions>
      </trkpt>
      <trkpt lat="56.03742999024689197540283203125" lon="24.1369955800473690032958984375">
        <ele>51.40000152587890625</ele>
        <time>2026-08-01T09:37:24.000Z</time>
        <extensions>
          <ns3:TrackPointExtension>
            <ns3:hr>130</ns3:hr>
            <ns3:cad>58</ns3:cad>
          </ns3:TrackPointExtension>
        </extensions>
      </trkpt>
      <trkpt lat="56.03733636438846588134765625" lon="24.13691486231982707977294921875">
        <ele>51.40000152587890625</ele>
        <time>2026-08-01T09:37:31.000Z</time>
        <extensions>
          <ns3:TrackPointExtension>
            <ns3:hr>131</ns3:hr>
            <ns3:cad>59</ns3:cad>
          </ns3:TrackPointExtension>
        </extensions>
      </trkpt>
      <trkpt lat="56.03721424005925655364990234375" lon="24.1368349827826023101806640625">
        <ele>51.59999847412109375</ele>
        <time>2026-08-01T09:37:40.000Z</time>
        <extensions>
          <ns3:TrackPointExtension>
            <ns3:hr>132</ns3:hr>
            <ns3:cad>59</ns3:cad>
          </ns3:TrackPointExtension>
        </extensions>
      </trkpt>
      <trkpt lat="56.03708021342754364013671875" lon="24.13675242103636264801025390625">
        <ele>51.799999237060546875</ele>
        <time>2026-08-01T09:37:50.000Z</time>
        <extensions>
          <ns3:TrackPointExtension>
            <ns3:hr>134</ns3:hr>
            <ns3:cad>59</ns3:cad>
          </ns3:TrackPointExtension>
        </extensions>
      </trkpt>
      <trkpt lat="56.0370421595871448516845703125" lon="24.13672274909913539886474609375">
        <ele>51.799999237060546875</ele>
        <time>2026-08-01T09:37:53.000Z</time>
        <extensions>
          <ns3:TrackPointExtension>
            <ns3:hr>131</ns3:hr>
            <ns3:cad>59</ns3:cad>
          </ns3:TrackPointExtension>
        </extensions>
      </trkpt>
      <trkpt lat="56.0369586758315563201904296875" lon="24.1366690210998058319091796875">
        <ele>51.799999237060546875</ele>
        <time>2026-08-01T09:37:59.000Z</time>
        <extensions>
          <ns3:TrackPointExtension>
            <ns3:hr>130</ns3:hr>
            <ns3:cad>59</ns3:cad>
          </ns3:TrackPointExtension>
        </extensions>
      </trkpt>
      <trkpt lat="56.03685113601386547088623046875" lon="24.136587046086788177490234375">
        <ele>51.799999237060546875</ele>
        <time>2026-08-01T09:38:07.000Z</time>
        <extensions>
          <ns3:TrackPointExtension>
            <ns3:hr>130</ns3:hr>
            <ns3:cad>59</ns3:cad>
          </ns3:TrackPointExtension>
        </extensions>
      </trkpt>
      <trkpt lat="56.03673420846462249755859375" lon="24.13650196976959705352783203125">
        <ele>51.799999237060546875</ele>
        <time>2026-08-01T09:38:16.000Z</time>
        <extensions>
          <ns3:TrackPointExtension>
            <ns3:hr>131</ns3:hr>
            <ns3:cad>59</ns3:cad>
          </ns3:TrackPointExtension>
        </extensions>
      </trkpt>
      <trkpt lat="56.036624573171138763427734375" lon="24.136452935636043548583984375">
        <ele>52</ele>
        <time>2026-08-01T09:38:24.000Z</time>
        <extensions>
          <ns3:TrackPointExtension>
            <ns3:hr>131</ns3:hr>
            <ns3:cad>60</ns3:cad>
          </ns3:TrackPointExtension>
        </extensions>
      </trkpt>
      <trkpt lat="56.03653430007398128509521484375" lon="24.13641328923404216766357421875">
        <ele>52.200000762939453125</ele>
        <time>2026-08-01T09:38:31.000Z</time>
        <extensions>
          <ns3:TrackPointExtension>
            <ns3:hr>131</ns3:hr>
            <ns3:cad>60</ns3:cad>
          </ns3:TrackPointExtension>
        </extensions>
      </trkpt>
      <trkpt lat="56.0364242456853389739990234375" lon="24.136293344199657440185546875">
        <ele>52.200000762939453125</ele>
        <time>2026-08-01T09:38:39.000Z</time>
        <extensions>
          <ns3:TrackPointExtension>
            <ns3:hr>131</ns3:hr>
            <ns3:cad>59</ns3:cad>
          </ns3:TrackPointExtension>
        </extensions>
      </trkpt>
      <trkpt lat="56.03633464314043521881103515625" lon="24.13621983490884304046630859375">
        <ele>52.200000762939453125</ele>
        <time>2026-08-01T09:38:45.000Z</time>
        <extensions>
          <ns3:TrackPointExtension>
            <ns3:hr>132</ns3:hr>
            <ns3:cad>60</ns3:cad>
          </ns3:TrackPointExtension>
        </extensions>
      </trkpt>
      <trkpt lat="56.036225259304046630859375" lon="24.13614548742771148681640625">
        <ele>52.59999847412109375</ele>
        <time>2026-08-01T09:38:54.000Z</time>
        <extensions>
          <ns3:TrackPointExtension>
            <ns3:hr>133</ns3:hr>
            <ns3:cad>59</ns3:cad>
          </ns3:TrackPointExtension>
        </extensions>
      </trkpt>
      <trkpt lat="56.03612693957984447479248046875" lon="24.13608807139098644256591796875">
        <ele>52.40000152587890625</ele>
        <time>2026-08-01T09:39:01.000Z</time>
        <extensions>
          <ns3:TrackPointExtension>
            <ns3:hr>133</ns3:hr>
            <ns3:cad>59</ns3:cad>
          </ns3:TrackPointExtension>
        </extensions>
      </trkpt>
      <trkpt lat="56.03597941808402538299560546875" lon="24.1359863989055156707763671875">
        <ele>52.200000762939453125</ele>
        <time>2026-08-01T09:39:13.000Z</time>
        <extensions>
          <ns3:TrackPointExtension>
            <ns3:hr>133</ns3:hr>
            <ns3:cad>58</ns3:cad>
          </ns3:TrackPointExtension>
        </extensions>
      </trkpt>
      <trkpt lat="56.0358465649187564849853515625" lon="24.1358965449035167694091796875">
        <ele>52.200000762939453125</ele>
        <time>2026-08-01T09:39:23.000Z</time>
        <extensions>
          <ns3:TrackPointExtension>
            <ns3:hr>133</ns3:hr>
            <ns3:cad>59</ns3:cad>
          </ns3:TrackPointExtension>
        </extensions>
      </trkpt>
      <trkpt lat="56.03574807755649089813232421875" lon="24.1358190961182117462158203125">
        <ele>52</ele>
        <time>2026-08-01T09:39:32.000Z</time>
        <extensions>
          <ns3:TrackPointExtension>
            <ns3:hr>134</ns3:hr>
            <ns3:cad>57</ns3:cad>
          </ns3:TrackPointExtension>
        </extensions>
      </trkpt>
      <trkpt lat="56.035626791417598724365234375" lon="24.13573536090552806854248046875">
        <ele>52</ele>
        <time>2026-08-01T09:39:42.000Z</time>
        <extensions>
          <ns3:TrackPointExtension>
            <ns3:hr>134</ns3:hr>
            <ns3:cad>57</ns3:cad>
          </ns3:TrackPointExtension>
        </extensions>
      </trkpt>
      <trkpt lat="56.035549007356166839599609375" lon="24.135677106678485870361328125">
        <ele>51.799999237060546875</ele>
        <time>2026-08-01T09:39:50.000Z</time>
        <extensions>
          <ns3:TrackPointExtension>
            <ns3:hr>135</ns3:hr>
            <ns3:cad>55</ns3:cad>
          </ns3:TrackPointExtension>
        </extensions>
      </trkpt>
      <trkpt lat="56.0354997217655181884765625" lon="24.13564181886613368988037109375">
        <ele>51.59999847412109375</ele>
        <time>2026-08-01T09:39:54.000Z</time>
        <extensions>
          <ns3:TrackPointExtension>
            <ns3:hr>138</ns3:hr>
            <ns3:cad>55</ns3:cad>
          </ns3:TrackPointExtension>
        </extensions>
      </trkpt>
      <trkpt lat="56.03544264100492000579833984375" lon="24.1356011666357517242431640625">
        <ele>51.59999847412109375</ele>
        <time>2026-08-01T09:39:59.000Z</time>
        <extensions>
          <ns3:TrackPointExtension>
            <ns3:hr>139</ns3:hr>
            <ns3:cad>57</ns3:cad>
          </ns3:TrackPointExtension>
        </extensions>
      </trkpt>
      <trkpt lat="56.03529914282262325286865234375" lon="24.135503433644771575927734375">
        <ele>51.40000152587890625</ele>
        <time>2026-08-01T09:40:11.000Z</time>
        <extensions>
          <ns3:TrackPointExtension>
            <ns3:hr>139</ns3:hr>
            <ns3:cad>56</ns3:cad>
          </ns3:TrackPointExtension>
        </extensions>
      </trkpt>
      <trkpt lat="56.035221107304096221923828125" lon="24.1354539804160594940185546875">
        <ele>51.40000152587890625</ele>
        <time>2026-08-01T09:40:17.000Z</time>
        <extensions>
          <ns3:TrackPointExtension>
            <ns3:hr>136</ns3:hr>
            <ns3:cad>57</ns3:cad>
          </ns3:TrackPointExtension>
        </extensions>
      </trkpt>
      <trkpt lat="56.0351885855197906494140625" lon="24.13542154245078563690185546875">
        <ele>51.40000152587890625</ele>
        <time>2026-08-01T09:40:20.000Z</time>
        <extensions>
          <ns3:TrackPointExtension>
            <ns3:hr>135</ns3:hr>
            <ns3:cad>57</ns3:cad>
          </ns3:TrackPointExtension>
        </extensions>
      </trkpt>
      <trkpt lat="56.0350821353495121002197265625" lon="24.13534157909452915191650390625">
        <ele>51.200000762939453125</ele>
        <time>2026-08-01T09:40:29.000Z</time>
        <extensions>
          <ns3:TrackPointExtension>
            <ns3:hr>134</ns3:hr>
            <ns3:cad>57</ns3:cad>
          </ns3:TrackPointExtension>
        </extensions>
      </trkpt>
      <trkpt lat="56.03496185503900051116943359375" lon="24.13528449833393096923828125">
        <ele>51</ele>
        <time>2026-08-01T09:40:38.000Z</time>
        <extensions>
          <ns3:TrackPointExtension>
            <ns3:hr>134</ns3:hr>
            <ns3:cad>58</ns3:cad>
          </ns3:TrackPointExtension>
        </extensions>
      </trkpt>
      <trkpt lat="56.0348501242697238922119140625" lon="24.13521165959537029266357421875">
        <ele>51</ele>
        <time>2026-08-01T09:40:47.000Z</time>
        <extensions>
          <ns3:TrackPointExtension>
            <ns3:hr>130</ns3:hr>
            <ns3:cad>57</ns3:cad>
          </ns3:TrackPointExtension>
        </extensions>
      </trkpt>
      <trkpt lat="56.03483788669109344482421875" lon="24.135203696787357330322265625">
        <ele>51</ele>
        <time>2026-08-01T09:40:48.000Z</time>
        <extensions>
          <ns3:TrackPointExtension>
            <ns3:hr>127</ns3:hr>
            <ns3:cad>57</ns3:cad>
          </ns3:TrackPointExtension>
        </extensions>
      </trkpt>
      <trkpt lat="56.034824810922145843505859375" lon="24.135193638503551483154296875">
        <ele>51</ele>
        <time>2026-08-01T09:40:49.000Z</time>
        <extensions>
          <ns3:TrackPointExtension>
            <ns3:hr>125</ns3:hr>
            <ns3:cad>57</ns3:cad>
          </ns3:TrackPointExtension>
        </extensions>
      </trkpt>
      <trkpt lat="56.034753061830997467041015625" lon="24.13515332154929637908935546875">
        <ele>51</ele>
        <time>2026-08-01T09:40:54.000Z</time>
        <extensions>
          <ns3:TrackPointExtension>
            <ns3:hr>122</ns3:hr>
            <ns3:cad>58</ns3:cad>
          </ns3:TrackPointExtension>
        </extensions>
      </trkpt>
      <trkpt lat="56.0346650518476963043212890625" lon="24.13509749807417392730712890625">
        <ele>51</ele>
        <time>2026-08-01T09:41:01.000Z</time>
        <extensions>
          <ns3:TrackPointExtension>
            <ns3:hr>122</ns3:hr>
            <ns3:cad>58</ns3:cad>
          </ns3:TrackPointExtension>
        </extensions>
      </trkpt>
      <trkpt lat="56.0345456935465335845947265625" lon="24.13497998379170894622802734375">
        <ele>51</ele>
        <time>2026-08-01T09:41:11.000Z</time>
        <extensions>
          <ns3:TrackPointExtension>
            <ns3:hr>122</ns3:hr>
            <ns3:cad>58</ns3:cad>
          </ns3:TrackPointExtension>
        </extensions>
      </trkpt>
      <trkpt lat="56.034417450428009033203125" lon="24.13487303070724010467529296875">
        <ele>51</ele>
        <time>2026-08-01T09:41:21.000Z</time>
        <extensions>
          <ns3:TrackPointExtension>
            <ns3:hr>121</ns3:hr>
            <ns3:cad>58</ns3:cad>
          </ns3:TrackPointExtension>
        </extensions>
      </trkpt>
      <trkpt lat="56.0343462042510509490966796875" lon="24.13490974344313144683837890625">
        <ele>51</ele>
        <time>2026-08-01T09:41:28.000Z</time>
        <extensions>
          <ns3:TrackPointExtension>
            <ns3:hr>122</ns3:hr>
            <ns3:cad>56</ns3:cad>
          </ns3:TrackPointExtension>
        </extensions>
      </trkpt>
      <trkpt lat="56.0343076474964618682861328125" lon="24.13492801599204540252685546875">
        <ele>50.59999847412109375</ele>
        <time>2026-08-01T09:41:34.000Z</time>
        <extensions>
          <ns3:TrackPointExtension>
            <ns3:hr>122</ns3:hr>
            <ns3:cad>55</ns3:cad>
          </ns3:TrackPointExtension>
        </extensions>
      </trkpt>
      <trkpt lat="56.03433019481599330902099609375" lon="24.1348206438124179840087890625">
        <ele>50.59999847412109375</ele>
        <time>2026-08-01T09:41:40.000Z</time>
        <extensions>
          <ns3:TrackPointExtension>
            <ns3:hr>122</ns3:hr>
            <ns3:cad>57</ns3:cad>
          </ns3:TrackPointExtension>
        </extensions>
      </trkpt>
      <trkpt lat="56.034326590597629547119140625" lon="24.13480211980640888214111328125">
        <ele>50.40000152587890625</ele>
        <time>2026-08-01T09:41:41.000Z</time>
        <extensions>
          <ns3:TrackPointExtension>
            <ns3:hr>122</ns3:hr>
            <ns3:cad>54</ns3:cad>
          </ns3:TrackPointExtension>
        </extensions>
      </trkpt>
      <trkpt lat="56.034283004701137542724609375" lon="24.134670607745647430419921875">
        <ele>50.200000762939453125</ele>
        <time>2026-08-01T09:41:47.000Z</time>
        <extensions>
          <ns3:TrackPointExtension>
            <ns3:hr>121</ns3:hr>
            <ns3:cad>55</ns3:cad>
          </ns3:TrackPointExtension>
        </extensions>
      </trkpt>
      <trkpt lat="56.0342127643525600433349609375" lon="24.134639762341976165771484375">
        <ele>50</ele>
        <time>2026-08-01T09:41:55.000Z</time>
        <extensions>
          <ns3:TrackPointExtension>
            <ns3:hr>121</ns3:hr>
            <ns3:cad>54</ns3:cad>
          </ns3:TrackPointExtension>
        </extensions>
      </trkpt>
      <trkpt lat="56.034101955592632293701171875" lon="24.13461218588054180145263671875">
        <ele>50.200000762939453125</ele>
        <time>2026-08-01T09:42:04.000Z</time>
        <extensions>
          <ns3:TrackPointExtension>
            <ns3:hr>120</ns3:hr>
            <ns3:cad>52</ns3:cad>
          </ns3:TrackPointExtension>
        </extensions>
      </trkpt>
      <trkpt lat="56.03404554538428783416748046875" lon="24.1345765627920627593994140625">
        <ele>50.59999847412109375</ele>
        <time>2026-08-01T09:42:12.000Z</time>
        <extensions>
          <ns3:TrackPointExtension>
            <ns3:hr>120</ns3:hr>
            <ns3:cad>0</ns3:cad>
          </ns3:TrackPointExtension>
        </extensions>
      </trkpt>
      <trkpt lat="56.03400799445807933807373046875" lon="24.1345490701496601104736328125">
        <ele>50</ele>
        <time>2026-08-01T09:42:18.000Z</time>
        <extensions>
          <ns3:TrackPointExtension>
            <ns3:hr>121</ns3:hr>
            <ns3:cad>0</ns3:cad>
          </ns3:TrackPointExtension>
        </extensions>
      </trkpt>
      <trkpt lat="56.033958457410335540771484375" lon="24.13450590334832668304443359375">
        <ele>50</ele>
        <time>2026-08-01T09:42:23.000Z</time>
        <extensions>
          <ns3:TrackPointExtension>
            <ns3:hr>124</ns3:hr>
            <ns3:cad>44</ns3:cad>
          </ns3:TrackPointExtension>
        </extensions>
      </trkpt>
      <trkpt lat="56.03392937220633029937744140625" lon="24.134482182562351226806640625">
        <ele>50</ele>
        <time>2026-08-01T09:42:26.000Z</time>
        <extensions>
          <ns3:TrackPointExtension>
            <ns3:hr>126</ns3:hr>
            <ns3:cad>44</ns3:cad>
          </ns3:TrackPointExtension>
        </extensions>
      </trkpt>
      <trkpt lat="56.033822335302829742431640625" lon="24.1343696974217891693115234375">
        <ele>50</ele>
        <time>2026-08-01T09:42:37.000Z</time>
        <extensions>
          <ns3:TrackPointExtension>
            <ns3:hr>124</ns3:hr>
            <ns3:cad>47</ns3:cad>
          </ns3:TrackPointExtension>
        </extensions>
      </trkpt>
      <trkpt lat="56.0337742231786251068115234375" lon="24.1342721320688724517822265625">
        <ele>50</ele>
        <time>2026-08-01T09:42:44.000Z</time>
        <extensions>
          <ns3:TrackPointExtension>
            <ns3:hr>123</ns3:hr>
            <ns3:cad>50</ns3:cad>
          </ns3:TrackPointExtension>
        </extensions>
      </trkpt>
      <trkpt lat="56.0336746461689472198486328125" lon="24.13419074378907680511474609375">
        <ele>49.799999237060546875</ele>
        <time>2026-08-01T09:42:53.000Z</time>
        <extensions>
          <ns3:TrackPointExtension>
            <ns3:hr>123</ns3:hr>
            <ns3:cad>48</ns3:cad>
          </ns3:TrackPointExtension>
        </extensions>
      </trkpt>
      <trkpt lat="56.03361488319933414459228515625" lon="24.13415553979575634002685546875">
        <ele>50</ele>
        <time>2026-08-01T09:43:01.000Z</time>
        <extensions>
          <ns3:TrackPointExtension>
            <ns3:hr>123</ns3:hr>
            <ns3:cad>0</ns3:cad>
          </ns3:TrackPointExtension>
        </extensions>
      </trkpt>
      <trkpt lat="56.03352083824574947357177734375" lon="24.13412000052630901336669921875">
        <ele>49.799999237060546875</ele>
        <time>2026-08-01T09:43:10.000Z</time>
        <extensions>
          <ns3:TrackPointExtension>
            <ns3:hr>123</ns3:hr>
            <ns3:cad>42</ns3:cad>
          </ns3:TrackPointExtension>
        </extensions>
      </trkpt>
      <trkpt lat="56.03345696814358234405517578125" lon="24.13408747874200344085693359375">
        <ele>50</ele>
        <time>2026-08-01T09:43:16.000Z</time>
        <extensions>
          <ns3:TrackPointExtension>
            <ns3:hr>122</ns3:hr>
            <ns3:cad>46</ns3:cad>
          </ns3:TrackPointExtension>
        </extensions>
      </trkpt>
      <trkpt lat="56.03340692818164825439453125" lon="24.13405361585319042205810546875">
        <ele>49.799999237060546875</ele>
        <time>2026-08-01T09:43:21.000Z</time>
        <extensions>
          <ns3:TrackPointExtension>
            <ns3:hr>119</ns3:hr>
            <ns3:cad>50</ns3:cad>
          </ns3:TrackPointExtension>
        </extensions>
      </trkpt>
      <trkpt lat="56.033379100263118743896484375" lon="24.13405495695769786834716796875">
        <ele>49.799999237060546875</ele>
        <time>2026-08-01T09:43:24.000Z</time>
        <extensions>
          <ns3:TrackPointExtension>
            <ns3:hr>119</ns3:hr>
            <ns3:cad>48</ns3:cad>
          </ns3:TrackPointExtension>
        </extensions>
      </trkpt>
      <trkpt lat="56.0333105362951755523681640625" lon="24.13405512459576129913330078125">
        <ele>49.799999237060546875</ele>
        <time>2026-08-01T09:43:32.000Z</time>
        <extensions>
          <ns3:TrackPointExtension>
            <ns3:hr>119</ns3:hr>
            <ns3:cad>43</ns3:cad>
          </ns3:TrackPointExtension>
        </extensions>
      </trkpt>
      <trkpt lat="56.03326141834259033203125" lon="24.13396476767957210540771484375">
        <ele>49.59999847412109375</ele>
        <time>2026-08-01T09:43:39.000Z</time>
        <extensions>
          <ns3:TrackPointExtension>
            <ns3:hr>118</ns3:hr>
            <ns3:cad>45</ns3:cad>
          </ns3:TrackPointExtension>
        </extensions>
      </trkpt>
      <trkpt lat="56.0332418046891689300537109375" lon="24.13390978239476680755615234375">
        <ele>50</ele>
        <time>2026-08-01T09:43:45.000Z</time>
        <extensions>
          <ns3:TrackPointExtension>
            <ns3:hr>117</ns3:hr>
            <ns3:cad>0</ns3:cad>
          </ns3:TrackPointExtension>
        </extensions>
      </trkpt>
      <trkpt lat="56.033232919871807098388671875" lon="24.13390274159610271453857421875">
        <ele>49.799999237060546875</ele>
        <time>2026-08-01T09:43:52.000Z</time>
        <extensions>
          <ns3:TrackPointExtension>
            <ns3:hr>120</ns3:hr>
            <ns3:cad>0</ns3:cad>
          </ns3:TrackPointExtension>
        </extensions>
      </trkpt>
      <trkpt lat="56.0332267172634601593017578125" lon="24.1339026577770709991455078125">
        <ele>49.799999237060546875</ele>
        <time>2026-08-01T09:43:53.000Z</time>
        <extensions>
          <ns3:TrackPointExtension>
            <ns3:hr>129</ns3:hr>
            <ns3:cad>0</ns3:cad>
          </ns3:TrackPointExtension>
        </extensions>
      </trkpt>
      <trkpt lat="56.03322311304509639739990234375" lon="24.13391212932765483856201171875">
        <ele>49.799999237060546875</ele>
        <time>2026-08-01T09:43:54.000Z</time>
        <extensions>
          <ns3:TrackPointExtension>
            <ns3:hr>146</ns3:hr>
            <ns3:cad>0</ns3:cad>
          </ns3:TrackPointExtension>
        </extensions>
      </trkpt>
      <trkpt lat="56.03321691043674945831298828125" lon="24.13391120731830596923828125">
        <ele>49.799999237060546875</ele>
        <time>2026-08-01T09:43:55.000Z</time>
        <extensions>
          <ns3:TrackPointExtension>
            <ns3:hr>156</ns3:hr>
            <ns3:cad>0</ns3:cad>
          </ns3:TrackPointExtension>
        </extensions>
      </trkpt>
      <trkpt lat="56.0332123003900051116943359375" lon="24.1339096985757350921630859375">
        <ele>49.799999237060546875</ele>
        <time>2026-08-01T09:43:56.000Z</time>
        <extensions>
          <ns3:TrackPointExtension>
            <ns3:hr>156</ns3:hr>
            <ns3:cad>0</ns3:cad>
          </ns3:TrackPointExtension>
        </extensions>
      </trkpt>
      <trkpt lat="56.03315874002873897552490234375" lon="24.13385228253901004791259765625">
        <ele>49.59999847412109375</ele>
        <time>2026-08-01T09:44:03.000Z</time>
        <extensions>
          <ns3:TrackPointExtension>
            <ns3:hr>157</ns3:hr>
            <ns3:cad>45</ns3:cad>
          </ns3:TrackPointExtension>
        </extensions>
      </trkpt>
      <trkpt lat="56.03314273059368133544921875" lon="24.133825041353702545166015625">
        <ele>49.799999237060546875</ele>
        <time>2026-08-01T09:44:10.000Z</time>
        <extensions>
          <ns3:TrackPointExtension>
            <ns3:hr>157</ns3:hr>
            <ns3:cad>0</ns3:cad>
          </ns3:TrackPointExtension>
        </extensions>
      </trkpt>
      <trkpt lat="56.0331254638731479644775390625" lon="24.133804254233837127685546875">
        <ele>49.799999237060546875</ele>
        <time>2026-08-01T09:44:19.000Z</time>
        <extensions>
          <ns3:TrackPointExtension>
            <ns3:hr>158</ns3:hr>
            <ns3:cad>0</ns3:cad>
          </ns3:TrackPointExtension>
        </extensions>
      </trkpt>
      <trkpt lat="56.03312940336763858795166015625" lon="24.1337460838258266448974609375">
        <ele>49.40000152587890625</ele>
        <time>2026-08-01T09:44:26.000Z</time>
        <extensions>
          <ns3:TrackPointExtension>
            <ns3:hr>156</ns3:hr>
            <ns3:cad>0</ns3:cad>
          </ns3:TrackPointExtension>
        </extensions>
      </trkpt>
      <trkpt lat="56.0331313312053680419921875" lon="24.13372814655303955078125">
        <ele>49.40000152587890625</ele>
        <time>2026-08-01T09:44:27.000Z</time>
        <extensions>
          <ns3:TrackPointExtension>
            <ns3:hr>156</ns3:hr>
            <ns3:cad>0</ns3:cad>
          </ns3:TrackPointExtension>
        </extensions>
      </trkpt>
      <trkpt lat="56.03315002284944057464599609375" lon="24.13367592729628086090087890625">
        <ele>49.59999847412109375</ele>
        <time>2026-08-01T09:44:31.000Z</time>
        <extensions>
          <ns3:TrackPointExtension>
            <ns3:hr>153</ns3:hr>
            <ns3:cad>45</ns3:cad>
          </ns3:TrackPointExtension>
        </extensions>
      </trkpt>
      <trkpt lat="56.0331653617322444915771484375" lon="24.13363435305655002593994140625">
        <ele>49.40000152587890625</ele>
        <time>2026-08-01T09:44:33.000Z</time>
        <extensions>
          <ns3:TrackPointExtension>
            <ns3:hr>153</ns3:hr>
            <ns3:cad>45</ns3:cad>
          </ns3:TrackPointExtension>
        </extensions>
      </trkpt>
      <trkpt lat="56.03317768312990665435791015625" lon="24.13358942605555057525634765625">
        <ele>49.40000152587890625</ele>
        <time>2026-08-01T09:44:36.000Z</time>
        <extensions>
          <ns3:TrackPointExtension>
            <ns3:hr>152</ns3:hr>
            <ns3:cad>45</ns3:cad>
          </ns3:TrackPointExtension>
        </extensions>
      </trkpt>
      <trkpt lat="56.03309352882206439971923828125" lon="24.13371431641280651092529296875">
        <ele>49.799999237060546875</ele>
        <time>2026-08-01T09:48:12.000Z</time>
        <extensions>
          <ns3:TrackPointExtension>
            <ns3:hr>144</ns3:hr>
            <ns3:cad>52</ns3:cad>
          </ns3:TrackPointExtension>
        </extensions>
      </trkpt>
      <trkpt lat="56.033084057271480560302734375" lon="24.13371766917407512664794921875">
        <ele>49.799999237060546875</ele>
        <time>2026-08-01T09:48:13.000Z</time>
        <extensions>
          <ns3:TrackPointExtension>
            <ns3:hr>144</ns3:hr>
            <ns3:cad>53</ns3:cad>
          </ns3:TrackPointExtension>
        </extensions>
      </trkpt>
      <trkpt lat="56.0330267250537872314453125" lon="24.13372538052499294281005859375">
        <ele>49.799999237060546875</ele>
        <time>2026-08-01T09:48:20.000Z</time>
        <extensions>
          <ns3:TrackPointExtension>
            <ns3:hr>148</ns3:hr>
            <ns3:cad>0</ns3:cad>
          </ns3:TrackPointExtension>
        </extensions>
      </trkpt>
      <trkpt lat="56.03301507420837879180908203125" lon="24.13372336886823177337646484375">
        <ele>49.799999237060546875</ele>
        <time>2026-08-01T09:48:21.000Z</time>
        <extensions>
          <ns3:TrackPointExtension>
            <ns3:hr>148</ns3:hr>
            <ns3:cad>0</ns3:cad>
          </ns3:TrackPointExtension>
        </extensions>
      </trkpt>
      <trkpt lat="56.0329316742718219757080078125" lon="24.1337068565189838409423828125">
        <ele>49.799999237060546875</ele>
        <time>2026-08-01T09:48:29.000Z</time>
        <extensions>
          <ns3:TrackPointExtension>
            <ns3:hr>148</ns3:hr>
            <ns3:cad>43</ns3:cad>
          </ns3:TrackPointExtension>
        </extensions>
      </trkpt>
      <trkpt lat="56.03286503814160823822021484375" lon="24.13368715904653072357177734375">
        <ele>49.59999847412109375</ele>
        <time>2026-08-01T09:48:37.000Z</time>
        <extensions>
          <ns3:TrackPointExtension>
            <ns3:hr>148</ns3:hr>
            <ns3:cad>47</ns3:cad>
          </ns3:TrackPointExtension>
        </extensions>
      </trkpt>
      <trkpt lat="56.03279731236398220062255859375" lon="24.13368246518075466156005859375">
        <ele>49.799999237060546875</ele>
        <time>2026-08-01T09:48:45.000Z</time>
        <extensions>
          <ns3:TrackPointExtension>
            <ns3:hr>147</ns3:hr>
            <ns3:cad>45</ns3:cad>
          </ns3:TrackPointExtension>
        </extensions>
      </trkpt>
      <trkpt lat="56.03274182416498661041259765625" lon="24.1336706466972827911376953125">
        <ele>49.799999237060546875</ele>
        <time>2026-08-01T09:48:51.000Z</time>
        <extensions>
          <ns3:TrackPointExtension>
            <ns3:hr>146</ns3:hr>
            <ns3:cad>50</ns3:cad>
          </ns3:TrackPointExtension>
        </extensions>
      </trkpt>
      <trkpt lat="56.0327211208641529083251953125" lon="24.13368363864719867706298828125">
        <ele>50</ele>
        <time>2026-08-01T09:48:58.000Z</time>
        <extensions>
          <ns3:TrackPointExtension>
            <ns3:hr>146</ns3:hr>
            <ns3:cad>0</ns3:cad>
          </ns3:TrackPointExtension>
        </extensions>
      </trkpt>
      <trkpt lat="56.03274098597466945648193359375" lon="24.13367492146790027618408203125">
        <ele>49.799999237060546875</ele>
        <time>2026-08-01T09:49:06.000Z</time>
        <extensions>
          <ns3:TrackPointExtension>
            <ns3:hr>145</ns3:hr>
            <ns3:cad>0</ns3:cad>
          </ns3:TrackPointExtension>
        </extensions>
      </trkpt>
      <trkpt lat="56.03274651803076267242431640625" lon="24.133701659739017486572265625">
        <ele>49.799999237060546875</ele>
        <time>2026-08-01T09:49:08.000Z</time>
        <extensions>
          <ns3:TrackPointExtension>
            <ns3:hr>142</ns3:hr>
            <ns3:cad>44</ns3:cad>
          </ns3:TrackPointExtension>
        </extensions>
      </trkpt>
      <trkpt lat="56.032733023166656494140625" lon="24.13373284041881561279296875">
        <ele>49.799999237060546875</ele>
        <time>2026-08-01T09:49:11.000Z</time>
        <extensions>
          <ns3:TrackPointExtension>
            <ns3:hr>139</ns3:hr>
            <ns3:cad>44</ns3:cad>
          </ns3:TrackPointExtension>
        </extensions>
      </trkpt>
      <trkpt lat="56.03266404010355472564697265625" lon="24.133821018040180206298828125">
        <ele>50</ele>
        <time>2026-08-01T09:49:17.000Z</time>
        <extensions>
          <ns3:TrackPointExtension>
            <ns3:hr>136</ns3:hr>
            <ns3:cad>48</ns3:cad>
          </ns3:TrackPointExtension>
        </extensions>
      </trkpt>
      <trkpt lat="56.03266219608485698699951171875" lon="24.13380148820579051971435546875">
        <ele>50</ele>
        <time>2026-08-01T09:49:22.000Z</time>
        <extensions>
          <ns3:TrackPointExtension>
            <ns3:hr>137</ns3:hr>
            <ns3:cad>0</ns3:cad>
          </ns3:TrackPointExtension>
        </extensions>
      </trkpt>
      <trkpt lat="56.03268113918602466583251953125" lon="24.13376863114535808563232421875">
        <ele>50</ele>
        <time>2026-08-01T09:49:25.000Z</time>
        <extensions>
          <ns3:TrackPointExtension>
            <ns3:hr>141</ns3:hr>
            <ns3:cad>0</ns3:cad>
          </ns3:TrackPointExtension>
        </extensions>
      </trkpt>
      <trkpt lat="56.032686419785022735595703125" lon="24.1337605006992816925048828125">
        <ele>49.799999237060546875</ele>
        <time>2026-08-01T09:49:26.000Z</time>
        <extensions>
          <ns3:TrackPointExtension>
            <ns3:hr>144</ns3:hr>
            <ns3:cad>0</ns3:cad>
          </ns3:TrackPointExtension>
        </extensions>
      </trkpt>
      <trkpt lat="56.03269371204078197479248046875" lon="24.1337531246244907379150390625">
        <ele>49.799999237060546875</ele>
        <time>2026-08-01T09:49:27.000Z</time>
        <extensions>
          <ns3:TrackPointExtension>
            <ns3:hr>144</ns3:hr>
            <ns3:cad>0</ns3:cad>
          </ns3:TrackPointExtension>
        </extensions>
      </trkpt>
      <trkpt lat="56.03270284831523895263671875" lon="24.1337464191019535064697265625">
        <ele>49.59999847412109375</ele>
        <time>2026-08-01T09:49:28.000Z</time>
        <extensions>
          <ns3:TrackPointExtension>
            <ns3:hr>144</ns3:hr>
            <ns3:cad>0</ns3:cad>
          </ns3:TrackPointExtension>
        </extensions>
      </trkpt>
      <trkpt lat="56.0327623598277568817138671875" lon="24.13362580351531505584716796875">
        <ele>49.799999237060546875</ele>
        <time>2026-08-01T09:49:35.000Z</time>
        <extensions>
          <ns3:TrackPointExtension>
            <ns3:hr>144</ns3:hr>
            <ns3:cad>49</ns3:cad>
          </ns3:TrackPointExtension>
        </extensions>
      </trkpt>
      <trkpt lat="56.032727994024753570556640625" lon="24.13352136500179767608642578125">
        <ele>49.59999847412109375</ele>
        <time>2026-08-01T09:49:42.000Z</time>
        <extensions>
          <ns3:TrackPointExtension>
            <ns3:hr>143</ns3:hr>
            <ns3:cad>51</ns3:cad>
          </ns3:TrackPointExtension>
        </extensions>
      </trkpt>
      <trkpt lat="56.03271114639937877655029296875" lon="24.13349571637809276580810546875">
        <ele>49.799999237060546875</ele>
        <time>2026-08-01T09:49:44.000Z</time>
        <extensions>
          <ns3:TrackPointExtension>
            <ns3:hr>146</ns3:hr>
            <ns3:cad>52</ns3:cad>
          </ns3:TrackPointExtension>
        </extensions>
      </trkpt>
      <trkpt lat="56.03270284831523895263671875" lon="24.13348582573235034942626953125">
        <ele>49.799999237060546875</ele>
        <time>2026-08-01T09:49:45.000Z</time>
        <extensions>
          <ns3:TrackPointExtension>
            <ns3:hr>149</ns3:hr>
            <ns3:cad>52</ns3:cad>
          </ns3:TrackPointExtension>
        </extensions>
      </trkpt>
      <trkpt lat="56.0326835699379444122314453125" lon="24.13345866836607456207275390625">
        <ele>49.799999237060546875</ele>
        <time>2026-08-01T09:49:48.000Z</time>
        <extensions>
          <ns3:TrackPointExtension>
            <ns3:hr>152</ns3:hr>
            <ns3:cad>53</ns3:cad>
          </ns3:TrackPointExtension>
        </extensions>
      </trkpt>
      <trkpt lat="56.03268566541373729705810546875" lon="24.13346906192600727081298828125">
        <ele>49.799999237060546875</ele>
        <time>2026-08-01T09:49:49.000Z</time>
        <extensions>
          <ns3:TrackPointExtension>
            <ns3:hr>152</ns3:hr>
            <ns3:cad>49</ns3:cad>
          </ns3:TrackPointExtension>
        </extensions>
      </trkpt>
      <trkpt lat="56.03263738565146923065185546875" lon="24.13340988568961620330810546875">
        <ele>50</ele>
        <time>2026-08-01T09:49:55.000Z</time>
        <extensions>
          <ns3:TrackPointExtension>
            <ns3:hr>152</ns3:hr>
            <ns3:cad>0</ns3:cad>
          </ns3:TrackPointExtension>
        </extensions>
      </trkpt>
      <trkpt lat="56.03256144560873508453369140625" lon="24.13335003890097141265869140625">
        <ele>49.799999237060546875</ele>
        <time>2026-08-01T09:50:03.000Z</time>
        <extensions>
          <ns3:TrackPointExtension>
            <ns3:hr>152</ns3:hr>
            <ns3:cad>50</ns3:cad>
          </ns3:TrackPointExtension>
        </extensions>
      </trkpt>
      <trkpt lat="56.032458432018756866455078125" lon="24.1332954727113246917724609375">
        <ele>49.59999847412109375</ele>
        <time>2026-08-01T09:50:12.000Z</time>
        <extensions>
          <ns3:TrackPointExtension>
            <ns3:hr>152</ns3:hr>
            <ns3:cad>51</ns3:cad>
          </ns3:TrackPointExtension>
        </extensions>
      </trkpt>
      <trkpt lat="56.03241476230323314666748046875" lon="24.13325130008161067962646484375">
        <ele>49.799999237060546875</ele>
        <time>2026-08-01T09:50:17.000Z</time>
        <extensions>
          <ns3:TrackPointExtension>
            <ns3:hr>152</ns3:hr>
            <ns3:cad>49</ns3:cad>
          </ns3:TrackPointExtension>
        </extensions>
      </trkpt>
      <trkpt lat="56.0323503054678440093994140625" lon="24.13323688320815563201904296875">
        <ele>49.799999237060546875</ele>
        <time>2026-08-01T09:50:24.000Z</time>
        <extensions>
          <ns3:TrackPointExtension>
            <ns3:hr>152</ns3:hr>
            <ns3:cad>43</ns3:cad>
          </ns3:TrackPointExtension>
        </extensions>
      </trkpt>
      <trkpt lat="56.032307557761669158935546875" lon="24.1332019306719303131103515625">
        <ele>49.799999237060546875</ele>
        <time>2026-08-01T09:50:30.000Z</time>
        <extensions>
          <ns3:TrackPointExtension>
            <ns3:hr>151</ns3:hr>
            <ns3:cad>0</ns3:cad>
          </ns3:TrackPointExtension>
        </extensions>
      </trkpt>
      <trkpt lat="56.03227905929088592529296875" lon="24.1331868432462215423583984375">
        <ele>49.799999237060546875</ele>
        <time>2026-08-01T09:50:34.000Z</time>
        <extensions>
          <ns3:TrackPointExtension>
            <ns3:hr>148</ns3:hr>
            <ns3:cad>70</ns3:cad>
          </ns3:TrackPointExtension>
        </extensions>
      </trkpt>
      <trkpt lat="56.03225919418036937713623046875" lon="24.1331462748348712921142578125">
        <ele>49.799999237060546875</ele>
        <time>2026-08-01T09:50:37.000Z</time>
        <extensions>
          <ns3:TrackPointExtension>
            <ns3:hr>151</ns3:hr>
            <ns3:cad>70</ns3:cad>
          </ns3:TrackPointExtension>
        </extensions>
      </trkpt>
      <trkpt lat="56.03224360384047031402587890625" lon="24.13305214606225490570068359375">
        <ele>50</ele>
        <time>2026-08-01T09:50:45.000Z</time>
        <extensions>
          <ns3:TrackPointExtension>
            <ns3:hr>153</ns3:hr>
            <ns3:cad>50</ns3:cad>
          </ns3:TrackPointExtension>
        </extensions>
      </trkpt>
      <trkpt lat="56.0322354733943939208984375" lon="24.1330440156161785125732421875">
        <ele>50</ele>
        <time>2026-08-01T09:50:46.000Z</time>
        <extensions>
          <ns3:TrackPointExtension>
            <ns3:hr>152</ns3:hr>
            <ns3:cad>50</ns3:cad>
          </ns3:TrackPointExtension>
        </extensions>
      </trkpt>
      <trkpt lat="56.03221460245549678802490234375" lon="24.1330232284963130950927734375">
        <ele>50</ele>
        <time>2026-08-01T09:50:51.000Z</time>
        <extensions>
          <ns3:TrackPointExtension>
            <ns3:hr>151</ns3:hr>
            <ns3:cad>73</ns3:cad>
          </ns3:TrackPointExtension>
        </extensions>
      </trkpt>
      <trkpt lat="56.03219213895499706268310546875" lon="24.133012332022190093994140625">
        <ele>49.799999237060546875</ele>
        <time>2026-08-01T09:50:56.000Z</time>
        <extensions>
          <ns3:TrackPointExtension>
            <ns3:hr>152</ns3:hr>
            <ns3:cad>0</ns3:cad>
          </ns3:TrackPointExtension>
        </extensions>
      </trkpt>
      <trkpt lat="56.03217068128287792205810546875" lon="24.13299447856843471527099609375">
        <ele>49.59999847412109375</ele>
        <time>2026-08-01T09:51:04.000Z</time>
        <extensions>
          <ns3:TrackPointExtension>
            <ns3:hr>153</ns3:hr>
            <ns3:cad>0</ns3:cad>
          </ns3:TrackPointExtension>
        </extensions>
      </trkpt>
      <trkpt lat="56.03213028050959110260009765625" lon="24.13297050632536411285400390625">
        <ele>50</ele>
        <time>2026-08-01T09:51:11.000Z</time>
        <extensions>
          <ns3:TrackPointExtension>
            <ns3:hr>152</ns3:hr>
            <ns3:cad>0</ns3:cad>
          </ns3:TrackPointExtension>
        </extensions>
      </trkpt>
      <trkpt lat="56.0321125946938991546630859375" lon="24.1329387389123439788818359375">
        <ele>49.59999847412109375</ele>
        <time>2026-08-01T09:51:18.000Z</time>
        <extensions>
          <ns3:TrackPointExtension>
            <ns3:hr>151</ns3:hr>
            <ns3:cad>0</ns3:cad>
          </ns3:TrackPointExtension>
        </extensions>
      </trkpt>
      <trkpt lat="56.032064817845821380615234375" lon="24.13291149772703647613525390625">
        <ele>49.799999237060546875</ele>
        <time>2026-08-01T09:51:24.000Z</time>
        <extensions>
          <ns3:TrackPointExtension>
            <ns3:hr>150</ns3:hr>
            <ns3:cad>0</ns3:cad>
          </ns3:TrackPointExtension>
        </extensions>
      </trkpt>
      <trkpt lat="56.0320167057216167449951171875" lon="24.1328639723360538482666015625">
        <ele>49.59999847412109375</ele>
        <time>2026-08-01T09:51:31.000Z</time>
        <extensions>
          <ns3:TrackPointExtension>
            <ns3:hr>151</ns3:hr>
            <ns3:cad>0</ns3:cad>
          </ns3:TrackPointExtension>
        </extensions>
      </trkpt>
      <trkpt lat="56.0319717787206172943115234375" lon="24.1328602842986583709716796875">
        <ele>49.40000152587890625</ele>
        <time>2026-08-01T09:51:37.000Z</time>
        <extensions>
          <ns3:TrackPointExtension>
            <ns3:hr>152</ns3:hr>
            <ns3:cad>44</ns3:cad>
          </ns3:TrackPointExtension>
        </extensions>
      </trkpt>
      <trkpt lat="56.03192777372896671295166015625" lon="24.1328529082238674163818359375">
        <ele>49.59999847412109375</ele>
        <time>2026-08-01T09:51:43.000Z</time>
        <extensions>
          <ns3:TrackPointExtension>
            <ns3:hr>152</ns3:hr>
            <ns3:cad>44</ns3:cad>
          </ns3:TrackPointExtension>
        </extensions>
      </trkpt>
      <trkpt lat="56.0318584553897380828857421875" lon="24.13282415829598903656005859375">
        <ele>49.200000762939453125</ele>
        <time>2026-08-01T09:51:51.000Z</time>
        <extensions>
          <ns3:TrackPointExtension>
            <ns3:hr>154</ns3:hr>
            <ns3:cad>47</ns3:cad>
          </ns3:TrackPointExtension>
        </extensions>
      </trkpt>
      <trkpt lat="56.03181160055100917816162109375" lon="24.1328056342899799346923828125">
        <ele>49</ele>
        <time>2026-08-01T09:51:56.000Z</time>
        <extensions>
          <ns3:TrackPointExtension>
            <ns3:hr>153</ns3:hr>
            <ns3:cad>46</ns3:cad>
          </ns3:TrackPointExtension>
        </extensions>
      </trkpt>
      <trkpt lat="56.03175460360944271087646484375" lon="24.1327607072889804840087890625">
        <ele>49</ele>
        <time>2026-08-01T09:52:04.000Z</time>
        <extensions>
          <ns3:TrackPointExtension>
            <ns3:hr>153</ns3:hr>
            <ns3:cad>43</ns3:cad>
          </ns3:TrackPointExtension>
        </extensions>
      </trkpt>
      <trkpt lat="56.03168905712664127349853515625" lon="24.13271385245025157928466796875">
        <ele>49.200000762939453125</ele>
        <time>2026-08-01T09:52:12.000Z</time>
        <extensions>
          <ns3:TrackPointExtension>
            <ns3:hr>153</ns3:hr>
            <ns3:cad>45</ns3:cad>
          </ns3:TrackPointExtension>
        </extensions>
      </trkpt>
      <trkpt lat="56.0316576249897480010986328125" lon="24.13263774476945400238037109375">
        <ele>49.200000762939453125</ele>
        <time>2026-08-01T09:52:20.000Z</time>
        <extensions>
          <ns3:TrackPointExtension>
            <ns3:hr>153</ns3:hr>
            <ns3:cad>0</ns3:cad>
          </ns3:TrackPointExtension>
        </extensions>
      </trkpt>
      <trkpt lat="56.03160582482814788818359375" lon="24.13262735120952129364013671875">
        <ele>48.799999237060546875</ele>
        <time>2026-08-01T09:52:28.000Z</time>
        <extensions>
          <ns3:TrackPointExtension>
            <ns3:hr>153</ns3:hr>
            <ns3:cad>44</ns3:cad>
          </ns3:TrackPointExtension>
        </extensions>
      </trkpt>
      <trkpt lat="56.031575314700603485107421875" lon="24.13262768648564815521240234375">
        <ele>49</ele>
        <time>2026-08-01T09:52:35.000Z</time>
        <extensions>
          <ns3:TrackPointExtension>
            <ns3:hr>154</ns3:hr>
            <ns3:cad>0</ns3:cad>
          </ns3:TrackPointExtension>
        </extensions>
      </trkpt>
      <trkpt lat="56.03155159391462802886962890625" lon="24.13260723464190959930419921875">
        <ele>49</ele>
        <time>2026-08-01T09:52:40.000Z</time>
        <extensions>
          <ns3:TrackPointExtension>
            <ns3:hr>154</ns3:hr>
            <ns3:cad>77</ns3:cad>
          </ns3:TrackPointExtension>
        </extensions>
      </trkpt>
      <trkpt lat="56.03152477182447910308837890625" lon="24.1325855255126953125">
        <ele>49.40000152587890625</ele>
        <time>2026-08-01T09:52:46.000Z</time>
        <extensions>
          <ns3:TrackPointExtension>
            <ns3:hr>155</ns3:hr>
            <ns3:cad>0</ns3:cad>
          </ns3:TrackPointExtension>
        </extensions>
      </trkpt>
      <trkpt lat="56.03148420341312885284423828125" lon="24.132559038698673248291015625">
        <ele>49.200000762939453125</ele>
        <time>2026-08-01T09:52:53.000Z</time>
        <extensions>
          <ns3:TrackPointExtension>
            <ns3:hr>156</ns3:hr>
            <ns3:cad>0</ns3:cad>
          </ns3:TrackPointExtension>
        </extensions>
      </trkpt>
      <trkpt lat="56.03144363500177860260009765625" lon="24.13252584636211395263671875">
        <ele>48.799999237060546875</ele>
        <time>2026-08-01T09:52:59.000Z</time>
        <extensions>
          <ns3:TrackPointExtension>
            <ns3:hr>155</ns3:hr>
            <ns3:cad>0</ns3:cad>
          </ns3:TrackPointExtension>
        </extensions>
      </trkpt>
      <trkpt lat="56.03135629557073116302490234375" lon="24.13245367817580699920654296875">
        <ele>49.200000762939453125</ele>
        <time>2026-08-01T09:53:09.000Z</time>
        <extensions>
          <ns3:TrackPointExtension>
            <ns3:hr>155</ns3:hr>
            <ns3:cad>77</ns3:cad>
          </ns3:TrackPointExtension>
        </extensions>
      </trkpt>
      <trkpt lat="56.0313340835273265838623046875" lon="24.13244110532104969024658203125">
        <ele>49.200000762939453125</ele>
        <time>2026-08-01T09:53:17.000Z</time>
        <extensions>
          <ns3:TrackPointExtension>
            <ns3:hr>153</ns3:hr>
            <ns3:cad>0</ns3:cad>
          </ns3:TrackPointExtension>
        </extensions>
      </trkpt>
      <trkpt lat="56.03129468858242034912109375" lon="24.13241277448832988739013671875">
        <ele>49</ele>
        <time>2026-08-01T09:53:23.000Z</time>
        <extensions>
          <ns3:TrackPointExtension>
            <ns3:hr>152</ns3:hr>
            <ns3:cad>0</ns3:cad>
          </ns3:TrackPointExtension>
        </extensions>
      </trkpt>
      <trkpt lat="56.03120215237140655517578125" lon="24.1323667578399181365966796875">
        <ele>49.200000762939453125</ele>
        <time>2026-08-01T09:53:34.000Z</time>
        <extensions>
          <ns3:TrackPointExtension>
            <ns3:hr>153</ns3:hr>
            <ns3:cad>0</ns3:cad>
          </ns3:TrackPointExtension>
        </extensions>
      </trkpt>
      <trkpt lat="56.03113484568893909454345703125" lon="24.13231738843023777008056640625">
        <ele>49</ele>
        <time>2026-08-01T09:53:42.000Z</time>
        <extensions>
          <ns3:TrackPointExtension>
            <ns3:hr>154</ns3:hr>
            <ns3:cad>55</ns3:cad>
          </ns3:TrackPointExtension>
        </extensions>
      </trkpt>
      <trkpt lat="56.03104717098176479339599609375" lon="24.13228017278015613555908203125">
        <ele>49</ele>
        <time>2026-08-01T09:53:51.000Z</time>
        <extensions>
          <ns3:TrackPointExtension>
            <ns3:hr>153</ns3:hr>
            <ns3:cad>47</ns3:cad>
          </ns3:TrackPointExtension>
        </extensions>
      </trkpt>
      <trkpt lat="56.03099687956273555755615234375" lon="24.1322561167180538177490234375">
        <ele>49</ele>
        <time>2026-08-01T09:53:57.000Z</time>
        <extensions>
          <ns3:TrackPointExtension>
            <ns3:hr>151</ns3:hr>
            <ns3:cad>0</ns3:cad>
          </ns3:TrackPointExtension>
        </extensions>
      </trkpt>
      <trkpt lat="56.03095178492367267608642578125" lon="24.1322286240756511688232421875">
        <ele>49.40000152587890625</ele>
        <time>2026-08-01T09:54:04.000Z</time>
        <extensions>
          <ns3:TrackPointExtension>
            <ns3:hr>149</ns3:hr>
            <ns3:cad>0</ns3:cad>
          </ns3:TrackPointExtension>
        </extensions>
      </trkpt>
      <trkpt lat="56.0309089533984661102294921875" lon="24.13216249085962772369384765625">
        <ele>49</ele>
        <time>2026-08-01T09:54:11.000Z</time>
        <extensions>
          <ns3:TrackPointExtension>
            <ns3:hr>149</ns3:hr>
            <ns3:cad>41</ns3:cad>
          </ns3:TrackPointExtension>
        </extensions>
      </trkpt>
      <trkpt lat="56.03086419403553009033203125" lon="24.1321094334125518798828125">
        <ele>49</ele>
        <time>2026-08-01T09:54:20.000Z</time>
        <extensions>
          <ns3:TrackPointExtension>
            <ns3:hr>148</ns3:hr>
            <ns3:cad>77</ns3:cad>
          </ns3:TrackPointExtension>
        </extensions>
      </trkpt>
      <trkpt lat="56.03084164671599864959716796875" lon="24.13209225051105022430419921875">
        <ele>49</ele>
        <time>2026-08-01T09:54:24.000Z</time>
        <extensions>
          <ns3:TrackPointExtension>
            <ns3:hr>151</ns3:hr>
            <ns3:cad>76</ns3:cad>
          </ns3:TrackPointExtension>
        </extensions>
      </trkpt>
      <trkpt lat="56.0308299958705902099609375" lon="24.1320804320275783538818359375">
        <ele>48.799999237060546875</ele>
        <time>2026-08-01T09:54:26.000Z</time>
        <extensions>
          <ns3:TrackPointExtension>
            <ns3:hr>154</ns3:hr>
            <ns3:cad>74</ns3:cad>
          </ns3:TrackPointExtension>
        </extensions>
      </trkpt>
      <trkpt lat="56.03082052432000637054443359375" lon="24.13207079283893108367919921875">
        <ele>48.799999237060546875</ele>
        <time>2026-08-01T09:54:27.000Z</time>
        <extensions>
          <ns3:TrackPointExtension>
            <ns3:hr>155</ns3:hr>
            <ns3:cad>0</ns3:cad>
          </ns3:TrackPointExtension>
        </extensions>
      </trkpt>
      <trkpt lat="56.03075464256107807159423828125" lon="24.13200013339519500732421875">
        <ele>48.799999237060546875</ele>
        <time>2026-08-01T09:54:35.000Z</time>
        <extensions>
          <ns3:TrackPointExtension>
            <ns3:hr>156</ns3:hr>
            <ns3:cad>40</ns3:cad>
          </ns3:TrackPointExtension>
        </extensions>
      </trkpt>
      <trkpt lat="56.0307198576629161834716796875" lon="24.13200155831873416900634765625">
        <ele>48.59999847412109375</ele>
        <time>2026-08-01T09:54:40.000Z</time>
        <extensions>
          <ns3:TrackPointExtension>
            <ns3:hr>158</ns3:hr>
            <ns3:cad>78</ns3:cad>
          </ns3:TrackPointExtension>
        </extensions>
      </trkpt>
      <trkpt lat="56.0307061113417148590087890625" lon="24.131994433701038360595703125">
        <ele>48.59999847412109375</ele>
        <time>2026-08-01T09:54:42.000Z</time>
        <extensions>
          <ns3:TrackPointExtension>
            <ns3:hr>158</ns3:hr>
            <ns3:cad>79</ns3:cad>
          </ns3:TrackPointExtension>
        </extensions>
      </trkpt>
      <trkpt lat="56.0306169278919696807861328125" lon="24.13193634711205959320068359375">
        <ele>48.59999847412109375</ele>
        <time>2026-08-01T09:54:51.000Z</time>
        <extensions>
          <ns3:TrackPointExtension>
            <ns3:hr>157</ns3:hr>
            <ns3:cad>42</ns3:cad>
          </ns3:TrackPointExtension>
        </extensions>
      </trkpt>
      <trkpt lat="56.03055867366492748260498046875" lon="24.1319003887474536895751953125">
        <ele>49</ele>
        <time>2026-08-01T09:55:00.000Z</time>
        <extensions>
          <ns3:TrackPointExtension>
            <ns3:hr>157</ns3:hr>
            <ns3:cad>0</ns3:cad>
          </ns3:TrackPointExtension>
        </extensions>
      </trkpt>
      <trkpt lat="56.03052129037678241729736328125" lon="24.13187365047633647918701171875">
        <ele>48.799999237060546875</ele>
        <time>2026-08-01T09:55:05.000Z</time>
        <extensions>
          <ns3:TrackPointExtension>
            <ns3:hr>154</ns3:hr>
            <ns3:cad>0</ns3:cad>
          </ns3:TrackPointExtension>
        </extensions>
      </trkpt>
      <trkpt lat="56.0304935462772846221923828125" lon="24.1318745724856853485107421875">
        <ele>49</ele>
        <time>2026-08-01T09:55:08.000Z</time>
        <extensions>
          <ns3:TrackPointExtension>
            <ns3:hr>155</ns3:hr>
            <ns3:cad>0</ns3:cad>
          </ns3:TrackPointExtension>
        </extensions>
      </trkpt>
      <trkpt lat="56.03045649826526641845703125" lon="24.1318544559180736541748046875">
        <ele>48.799999237060546875</ele>
        <time>2026-08-01T09:55:12.000Z</time>
        <extensions>
          <ns3:TrackPointExtension>
            <ns3:hr>158</ns3:hr>
            <ns3:cad>0</ns3:cad>
          </ns3:TrackPointExtension>
        </extensions>
      </trkpt>
      <trkpt lat="56.03043361566960811614990234375" lon="24.1318331658840179443359375">
        <ele>48.799999237060546875</ele>
        <time>2026-08-01T09:55:15.000Z</time>
        <extensions>
          <ns3:TrackPointExtension>
            <ns3:hr>157</ns3:hr>
            <ns3:cad>49</ns3:cad>
          </ns3:TrackPointExtension>
        </extensions>
      </trkpt>
      <trkpt lat="56.0303725115954875946044921875" lon="24.131796620786190032958984375">
        <ele>48.59999847412109375</ele>
        <time>2026-08-01T09:55:21.000Z</time>
        <extensions>
          <ns3:TrackPointExtension>
            <ns3:hr>160</ns3:hr>
            <ns3:cad>49</ns3:cad>
          </ns3:TrackPointExtension>
        </extensions>
      </trkpt>
      <trkpt lat="56.03033873252570629119873046875" lon="24.1317555494606494903564453125">
        <ele>48.799999237060546875</ele>
        <time>2026-08-01T09:55:27.000Z</time>
        <extensions>
          <ns3:TrackPointExtension>
            <ns3:hr>160</ns3:hr>
            <ns3:cad>79</ns3:cad>
          </ns3:TrackPointExtension>
        </extensions>
      </trkpt>
      <trkpt lat="56.03028039447963237762451171875" lon="24.13169679231941699981689453125">
        <ele>48.59999847412109375</ele>
        <time>2026-08-01T09:55:35.000Z</time>
        <extensions>
          <ns3:TrackPointExtension>
            <ns3:hr>160</ns3:hr>
            <ns3:cad>42</ns3:cad>
          </ns3:TrackPointExtension>
        </extensions>
      </trkpt>
      <trkpt lat="56.03022582828998565673828125" lon="24.13167466409504413604736328125">
        <ele>48.40000152587890625</ele>
        <time>2026-08-01T09:55:42.000Z</time>
        <extensions>
          <ns3:TrackPointExtension>
            <ns3:hr>160</ns3:hr>
            <ns3:cad>0</ns3:cad>
          </ns3:TrackPointExtension>
        </extensions>
      </trkpt>
      <trkpt lat="56.030171848833560943603515625" lon="24.1316492669284343719482421875">
        <ele>48.40000152587890625</ele>
        <time>2026-08-01T09:55:49.000Z</time>
        <extensions>
          <ns3:TrackPointExtension>
            <ns3:hr>158</ns3:hr>
            <ns3:cad>44</ns3:cad>
          </ns3:TrackPointExtension>
        </extensions>
      </trkpt>
      <trkpt lat="56.03013572283089160919189453125" lon="24.1316103748977184295654296875">
        <ele>48.40000152587890625</ele>
        <time>2026-08-01T09:55:55.000Z</time>
        <extensions>
          <ns3:TrackPointExtension>
            <ns3:hr>159</ns3:hr>
            <ns3:cad>0</ns3:cad>
          </ns3:TrackPointExtension>
        </extensions>
      </trkpt>
      <trkpt lat="56.03011359460651874542236328125" lon="24.13158967159688472747802734375">
        <ele>48.200000762939453125</ele>
        <time>2026-08-01T09:55:59.000Z</time>
        <extensions>
          <ns3:TrackPointExtension>
            <ns3:hr>159</ns3:hr>
            <ns3:cad>0</ns3:cad>
          </ns3:TrackPointExtension>
        </extensions>
      </trkpt>
      <trkpt lat="56.03009699843823909759521484375" lon="24.13158950395882129669189453125">
        <ele>48.59999847412109375</ele>
        <time>2026-08-01T09:56:06.000Z</time>
        <extensions>
          <ns3:TrackPointExtension>
            <ns3:hr>159</ns3:hr>
            <ns3:cad>42</ns3:cad>
          </ns3:TrackPointExtension>
        </extensions>
      </trkpt>
      <trkpt lat="56.03004972450435161590576171875" lon="24.13151993416249752044677734375">
        <ele>48.200000762939453125</ele>
        <time>2026-08-01T09:56:12.000Z</time>
        <extensions>
          <ns3:TrackPointExtension>
            <ns3:hr>158</ns3:hr>
            <ns3:cad>0</ns3:cad>
          </ns3:TrackPointExtension>
        </extensions>
      </trkpt>
      <trkpt lat="56.03000965900719165802001953125" lon="24.1314940340816974639892578125">
        <ele>48.200000762939453125</ele>
        <time>2026-08-01T09:56:19.000Z</time>
        <extensions>
          <ns3:TrackPointExtension>
            <ns3:hr>159</ns3:hr>
            <ns3:cad>46</ns3:cad>
          </ns3:TrackPointExtension>
        </extensions>
      </trkpt>
      <trkpt lat="56.02996431291103363037109375" lon="24.1314554773271083831787109375">
        <ele>48.200000762939453125</ele>
        <time>2026-08-01T09:56:25.000Z</time>
        <extensions>
          <ns3:TrackPointExtension>
            <ns3:hr>158</ns3:hr>
            <ns3:cad>79</ns3:cad>
          </ns3:TrackPointExtension>
        </extensions>
      </trkpt>
      <trkpt lat="56.02994310669600963592529296875" lon="24.13143695332109928131103515625">
        <ele>48</ele>
        <time>2026-08-01T09:56:29.000Z</time>
        <extensions>
          <ns3:TrackPointExtension>
            <ns3:hr>161</ns3:hr>
            <ns3:cad>40</ns3:cad>
          </ns3:TrackPointExtension>
        </extensions>
      </trkpt>
      <trkpt lat="56.0299185477197170257568359375" lon="24.131434522569179534912109375">
        <ele>48.200000762939453125</ele>
        <time>2026-08-01T09:56:32.000Z</time>
        <extensions>
          <ns3:TrackPointExtension>
            <ns3:hr>161</ns3:hr>
            <ns3:cad>0</ns3:cad>
          </ns3:TrackPointExtension>
        </extensions>
      </trkpt>
      <trkpt lat="56.02989382110536098480224609375" lon="24.13145589642226696014404296875">
        <ele>48.200000762939453125</ele>
        <time>2026-08-01T09:56:39.000Z</time>
        <extensions>
          <ns3:TrackPointExtension>
            <ns3:hr>162</ns3:hr>
            <ns3:cad>0</ns3:cad>
          </ns3:TrackPointExtension>
        </extensions>
      </trkpt>
      <trkpt lat="56.0298498161137104034423828125" lon="24.1314021684229373931884765625">
        <ele>48</ele>
        <time>2026-08-01T09:56:45.000Z</time>
        <extensions>
          <ns3:TrackPointExtension>
            <ns3:hr>163</ns3:hr>
            <ns3:cad>43</ns3:cad>
          </ns3:TrackPointExtension>
        </extensions>
      </trkpt>
      <trkpt lat="56.02983196265995502471923828125" lon="24.13140392862260341644287109375">
        <ele>48</ele>
        <time>2026-08-01T09:56:47.000Z</time>
        <extensions>
          <ns3:TrackPointExtension>
            <ns3:hr>166</ns3:hr>
            <ns3:cad>43</ns3:cad>
          </ns3:TrackPointExtension>
        </extensions>
      </trkpt>
      <trkpt lat="56.0297946631908416748046875" lon="24.13146075792610645294189453125">
        <ele>48</ele>
        <time>2026-08-01T09:56:52.000Z</time>
        <extensions>
          <ns3:TrackPointExtension>
            <ns3:hr>165</ns3:hr>
            <ns3:cad>47</ns3:cad>
          </ns3:TrackPointExtension>
        </extensions>
      </trkpt>
      <trkpt lat="56.02973825298249721527099609375" lon="24.13148540072143077850341796875">
        <ele>48.200000762939453125</ele>
        <time>2026-08-01T09:56:59.000Z</time>
        <extensions>
          <ns3:TrackPointExtension>
            <ns3:hr>164</ns3:hr>
            <ns3:cad>0</ns3:cad>
          </ns3:TrackPointExtension>
        </extensions>
      </trkpt>
      <trkpt lat="56.02971998043358325958251953125" lon="24.131499566137790679931640625">
        <ele>48</ele>
        <time>2026-08-01T09:57:01.000Z</time>
        <extensions>
          <ns3:TrackPointExtension>
            <ns3:hr>161</ns3:hr>
            <ns3:cad>0</ns3:cad>
          </ns3:TrackPointExtension>
        </extensions>
      </trkpt>
      <trkpt lat="56.02968293242156505584716796875" lon="24.13149051368236541748046875">
        <ele>47.799999237060546875</ele>
        <time>2026-08-01T09:57:05.000Z</time>
        <extensions>
          <ns3:TrackPointExtension>
            <ns3:hr>159</ns3:hr>
            <ns3:cad>0</ns3:cad>
          </ns3:TrackPointExtension>
        </extensions>
      </trkpt>
      <trkpt lat="56.02967672981321811676025390625" lon="24.13150484673678874969482421875">
        <ele>48</ele>
        <time>2026-08-01T09:57:10.000Z</time>
        <extensions>
          <ns3:TrackPointExtension>
            <ns3:hr>156</ns3:hr>
            <ns3:cad>0</ns3:cad>
          </ns3:TrackPointExtension>
        </extensions>
      </trkpt>
      <trkpt lat="56.02967672981321811676025390625" lon="24.13151239044964313507080078125">
        <ele>48</ele>
        <time>2026-08-01T09:57:12.000Z</time>
        <extensions>
          <ns3:TrackPointExtension>
            <ns3:hr>154</ns3:hr>
            <ns3:cad>0</ns3:cad>
          </ns3:TrackPointExtension>
        </extensions>
      </trkpt>
      <trkpt lat="56.0297140292823314666748046875" lon="24.13159386254847049713134765625">
        <ele>48.200000762939453125</ele>
        <time>2026-08-01T09:57:19.000Z</time>
        <extensions>
          <ns3:TrackPointExtension>
            <ns3:hr>156</ns3:hr>
            <ns3:cad>0</ns3:cad>
          </ns3:TrackPointExtension>
        </extensions>
      </trkpt>
      <trkpt lat="56.02970824576914310455322265625" lon="24.13168019615113735198974609375">
        <ele>47.799999237060546875</ele>
        <time>2026-08-01T09:57:24.000Z</time>
        <extensions>
          <ns3:TrackPointExtension>
            <ns3:hr>153</ns3:hr>
            <ns3:cad>49</ns3:cad>
          </ns3:TrackPointExtension>
        </extensions>
      </trkpt>
      <trkpt lat="56.02971017360687255859375" lon="24.13173325359821319580078125">
        <ele>48</ele>
        <time>2026-08-01T09:57:32.000Z</time>
        <extensions>
          <ns3:TrackPointExtension>
            <ns3:hr>152</ns3:hr>
            <ns3:cad>0</ns3:cad>
          </ns3:TrackPointExtension>
        </extensions>
      </trkpt>
      <trkpt lat="56.02971260435879230499267578125" lon="24.13174222223460674285888671875">
        <ele>47.59999847412109375</ele>
        <time>2026-08-01T09:57:38.000Z</time>
        <extensions>
          <ns3:TrackPointExtension>
            <ns3:hr>153</ns3:hr>
            <ns3:cad>0</ns3:cad>
          </ns3:TrackPointExtension>
        </extensions>
      </trkpt>
      <trkpt lat="56.02969483472406864166259765625" lon="24.1317585669457912445068359375">
        <ele>48</ele>
        <time>2026-08-01T09:57:43.000Z</time>
        <extensions>
          <ns3:TrackPointExtension>
            <ns3:hr>152</ns3:hr>
            <ns3:cad>0</ns3:cad>
          </ns3:TrackPointExtension>
        </extensions>
      </trkpt>
      <trkpt lat="56.0297012887895107269287109375" lon="24.13183920085430145263671875">
        <ele>47.40000152587890625</ele>
        <time>2026-08-01T09:57:50.000Z</time>
        <extensions>
          <ns3:TrackPointExtension>
            <ns3:hr>151</ns3:hr>
            <ns3:cad>0</ns3:cad>
          </ns3:TrackPointExtension>
        </extensions>
      </trkpt>
      <trkpt lat="56.02970187552273273468017578125" lon="24.13186443038284778594970703125">
        <ele>47.799999237060546875</ele>
        <time>2026-08-01T09:57:54.000Z</time>
        <extensions>
          <ns3:TrackPointExtension>
            <ns3:hr>154</ns3:hr>
            <ns3:cad>0</ns3:cad>
          </ns3:TrackPointExtension>
        </extensions>
      </trkpt>
      <trkpt lat="56.0296878777444362640380859375" lon="24.13185906596481800079345703125">
        <ele>47.59999847412109375</ele>
        <time>2026-08-01T09:57:57.000Z</time>
        <extensions>
          <ns3:TrackPointExtension>
            <ns3:hr>154</ns3:hr>
            <ns3:cad>0</ns3:cad>
          </ns3:TrackPointExtension>
        </extensions>
      </trkpt>
      <trkpt lat="56.02966315113008022308349609375" lon="24.1319151408970355987548828125">
        <ele>47.59999847412109375</ele>
        <time>2026-08-01T09:58:03.000Z</time>
        <extensions>
          <ns3:TrackPointExtension>
            <ns3:hr>154</ns3:hr>
            <ns3:cad>0</ns3:cad>
          </ns3:TrackPointExtension>
        </extensions>
      </trkpt>
      <trkpt lat="56.0296610556542873382568359375" lon="24.13197331130504608154296875">
        <ele>47.40000152587890625</ele>
        <time>2026-08-01T09:58:08.000Z</time>
        <extensions>
          <ns3:TrackPointExtension>
            <ns3:hr>156</ns3:hr>
            <ns3:cad>0</ns3:cad>
          </ns3:TrackPointExtension>
        </extensions>
      </trkpt>
      <trkpt lat="56.0296566970646381378173828125" lon="24.13198915310204029083251953125">
        <ele>47.40000152587890625</ele>
        <time>2026-08-01T09:58:09.000Z</time>
        <extensions>
          <ns3:TrackPointExtension>
            <ns3:hr>156</ns3:hr>
            <ns3:cad>0</ns3:cad>
          </ns3:TrackPointExtension>
        </extensions>
      </trkpt>
      <trkpt lat="56.02960296906530857086181640625" lon="24.13200356997549533843994140625">
        <ele>47.40000152587890625</ele>
        <time>2026-08-01T09:58:16.000Z</time>
        <extensions>
          <ns3:TrackPointExtension>
            <ns3:hr>156</ns3:hr>
            <ns3:cad>0</ns3:cad>
          </ns3:TrackPointExtension>
        </extensions>
      </trkpt>
      <trkpt lat="56.02954463101923465728759765625" lon="24.1319972835481166839599609375">
        <ele>47.799999237060546875</ele>
        <time>2026-08-01T09:58:23.000Z</time>
        <extensions>
          <ns3:TrackPointExtension>
            <ns3:hr>158</ns3:hr>
            <ns3:cad>0</ns3:cad>
          </ns3:TrackPointExtension>
        </extensions>
      </trkpt>
      <trkpt lat="56.02949987165629863739013671875" lon="24.13198244757950305938720703125">
        <ele>47.799999237060546875</ele>
        <time>2026-08-01T09:58:30.000Z</time>
        <extensions>
          <ns3:TrackPointExtension>
            <ns3:hr>159</ns3:hr>
            <ns3:cad>0</ns3:cad>
          </ns3:TrackPointExtension>
        </extensions>
      </trkpt>
      <trkpt lat="56.02945494465529918670654296875" lon="24.13195679895579814910888671875">
        <ele>47.40000152587890625</ele>
        <time>2026-08-01T09:58:36.000Z</time>
        <extensions>
          <ns3:TrackPointExtension>
            <ns3:hr>159</ns3:hr>
            <ns3:cad>0</ns3:cad>
          </ns3:TrackPointExtension>
        </extensions>
      </trkpt>
      <trkpt lat="56.02941705845296382904052734375" lon="24.13190600462257862091064453125">
        <ele>47.200000762939453125</ele>
        <time>2026-08-01T09:58:42.000Z</time>
        <extensions>
          <ns3:TrackPointExtension>
            <ns3:hr>159</ns3:hr>
            <ns3:cad>43</ns3:cad>
          </ns3:TrackPointExtension>
        </extensions>
      </trkpt>
      <trkpt lat="56.02937883697450160980224609375" lon="24.131892509758472442626953125">
        <ele>47.40000152587890625</ele>
        <time>2026-08-01T09:58:46.000Z</time>
        <extensions>
          <ns3:TrackPointExtension>
            <ns3:hr>164</ns3:hr>
            <ns3:cad>43</ns3:cad>
          </ns3:TrackPointExtension>
        </extensions>
      </trkpt>
      <trkpt lat="56.029361821711063385009765625" lon="24.13188354112207889556884765625">
        <ele>47.40000152587890625</ele>
        <time>2026-08-01T09:58:48.000Z</time>
        <extensions>
          <ns3:TrackPointExtension>
            <ns3:hr>166</ns3:hr>
            <ns3:cad>49</ns3:cad>
          </ns3:TrackPointExtension>
        </extensions>
      </trkpt>
      <trkpt lat="56.02929350920021533966064453125" lon="24.1318628378212451934814453125">
        <ele>47.40000152587890625</ele>
        <time>2026-08-01T09:58:55.000Z</time>
        <extensions>
          <ns3:TrackPointExtension>
            <ns3:hr>165</ns3:hr>
            <ns3:cad>43</ns3:cad>
          </ns3:TrackPointExtension>
        </extensions>
      </trkpt>
      <trkpt lat="56.02928831242024898529052734375" lon="24.13186543621122837066650390625">
        <ele>47.40000152587890625</ele>
        <time>2026-08-01T09:58:56.000Z</time>
        <extensions>
          <ns3:TrackPointExtension>
            <ns3:hr>165</ns3:hr>
            <ns3:cad>43</ns3:cad>
          </ns3:TrackPointExtension>
        </extensions>
      </trkpt>
      <trkpt lat="56.0292734764516353607177734375" lon="24.131862334907054901123046875">
        <ele>47</ele>
        <time>2026-08-01T09:59:02.000Z</time>
        <extensions>
          <ns3:TrackPointExtension>
            <ns3:hr>165</ns3:hr>
            <ns3:cad>0</ns3:cad>
          </ns3:TrackPointExtension>
        </extensions>
      </trkpt>
      <trkpt lat="56.02924539707601070404052734375" lon="24.13181908428668975830078125">
        <ele>47.40000152587890625</ele>
        <time>2026-08-01T09:59:09.000Z</time>
        <extensions>
          <ns3:TrackPointExtension>
            <ns3:hr>166</ns3:hr>
            <ns3:cad>0</ns3:cad>
          </ns3:TrackPointExtension>
        </extensions>
      </trkpt>
      <trkpt lat="56.02921723388135433197021484375" lon="24.13177348673343658447265625">
        <ele>47.40000152587890625</ele>
        <time>2026-08-01T09:59:18.000Z</time>
        <extensions>
          <ns3:TrackPointExtension>
            <ns3:hr>166</ns3:hr>
            <ns3:cad>77</ns3:cad>
          </ns3:TrackPointExtension>
        </extensions>
      </trkpt>
      <trkpt lat="56.029168032109737396240234375" lon="24.1317500174045562744140625">
        <ele>47.40000152587890625</ele>
        <time>2026-08-01T09:59:26.000Z</time>
        <extensions>
          <ns3:TrackPointExtension>
            <ns3:hr>166</ns3:hr>
            <ns3:cad>0</ns3:cad>
          </ns3:TrackPointExtension>
        </extensions>
      </trkpt>
      <trkpt lat="56.02916778065264225006103515625" lon="24.13185521028935909271240234375">
        <ele>47.40000152587890625</ele>
        <time>2026-08-01T09:59:33.000Z</time>
        <extensions>
          <ns3:TrackPointExtension>
            <ns3:hr>166</ns3:hr>
            <ns3:cad>45</ns3:cad>
          </ns3:TrackPointExtension>
        </extensions>
      </trkpt>
      <trkpt lat="56.02913877926766872406005859375" lon="24.1319419629871845245361328125">
        <ele>47.200000762939453125</ele>
        <time>2026-08-01T09:59:40.000Z</time>
        <extensions>
          <ns3:TrackPointExtension>
            <ns3:hr>166</ns3:hr>
            <ns3:cad>47</ns3:cad>
          </ns3:TrackPointExtension>
        </extensions>
      </trkpt>
      <trkpt lat="56.02912704460322856903076171875" lon="24.132042042911052703857421875">
        <ele>47.59999847412109375</ele>
        <time>2026-08-01T09:59:47.000Z</time>
        <extensions>
          <ns3:TrackPointExtension>
            <ns3:hr>165</ns3:hr>
            <ns3:cad>44</ns3:cad>
          </ns3:TrackPointExtension>
        </extensions>
      </trkpt>
      <trkpt lat="56.0290726460516452789306640625" lon="24.13216668181121349334716796875">
        <ele>47.799999237060546875</ele>
        <time>2026-08-01T09:59:56.000Z</time>
        <extensions>
          <ns3:TrackPointExtension>
            <ns3:hr>165</ns3:hr>
            <ns3:cad>0</ns3:cad>
          </ns3:TrackPointExtension>
        </extensions>
      </trkpt>
      <trkpt lat="56.0290649347007274627685546875" lon="24.1321672685444355010986328125">
        <ele>48</ele>
        <time>2026-08-01T09:59:57.000Z</time>
        <extensions>
          <ns3:TrackPointExtension>
            <ns3:hr>165</ns3:hr>
            <ns3:cad>0</ns3:cad>
          </ns3:TrackPointExtension>
        </extensions>
      </trkpt>
      <trkpt lat="56.02901137433946132659912109375" lon="24.1321360878646373748779296875">
        <ele>47.40000152587890625</ele>
        <time>2026-08-01T10:00:05.000Z</time>
        <extensions>
          <ns3:TrackPointExtension>
            <ns3:hr>166</ns3:hr>
            <ns3:cad>51</ns3:cad>
          </ns3:TrackPointExtension>
        </extensions>
      </trkpt>
      <trkpt lat="56.02892386727035045623779296875" lon="24.13208755664527416229248046875">
        <ele>47.799999237060546875</ele>
        <time>2026-08-01T10:00:13.000Z</time>
        <extensions>
          <ns3:TrackPointExtension>
            <ns3:hr>166</ns3:hr>
            <ns3:cad>52</ns3:cad>
          </ns3:TrackPointExtension>
        </extensions>
      </trkpt>
      <trkpt lat="56.0288848914206027984619140625" lon="24.13206442259252071380615234375">
        <ele>47.59999847412109375</ele>
        <time>2026-08-01T10:00:17.000Z</time>
        <extensions>
          <ns3:TrackPointExtension>
            <ns3:hr>163</ns3:hr>
            <ns3:cad>0</ns3:cad>
          </ns3:TrackPointExtension>
        </extensions>
      </trkpt>
      <trkpt lat="56.02884985506534576416015625" lon="24.13204782642424106597900390625">
        <ele>47.59999847412109375</ele>
        <time>2026-08-01T10:00:20.000Z</time>
        <extensions>
          <ns3:TrackPointExtension>
            <ns3:hr>160</ns3:hr>
            <ns3:cad>47</ns3:cad>
          </ns3:TrackPointExtension>
        </extensions>
      </trkpt>
      <trkpt lat="56.028835438191890716552734375" lon="24.13204145617783069610595703125">
        <ele>47.799999237060546875</ele>
        <time>2026-08-01T10:00:22.000Z</time>
        <extensions>
          <ns3:TrackPointExtension>
            <ns3:hr>157</ns3:hr>
            <ns3:cad>47</ns3:cad>
          </ns3:TrackPointExtension>
        </extensions>
      </trkpt>
      <trkpt lat="56.02880559861660003662109375" lon="24.1320200823247432708740234375">
        <ele>47.799999237060546875</ele>
        <time>2026-08-01T10:00:26.000Z</time>
        <extensions>
          <ns3:TrackPointExtension>
            <ns3:hr>154</ns3:hr>
            <ns3:cad>0</ns3:cad>
          </ns3:TrackPointExtension>
        </extensions>
      </trkpt>
      <trkpt lat="56.02879495359957218170166015625" lon="24.13200943730771541595458984375">
        <ele>47.799999237060546875</ele>
        <time>2026-08-01T10:00:27.000Z</time>
        <extensions>
          <ns3:TrackPointExtension>
            <ns3:hr>154</ns3:hr>
            <ns3:cad>0</ns3:cad>
          </ns3:TrackPointExtension>
        </extensions>
      </trkpt>
      <trkpt lat="56.02873913012444972991943359375" lon="24.131947495043277740478515625">
        <ele>47.799999237060546875</ele>
        <time>2026-08-01T10:00:33.000Z</time>
        <extensions>
          <ns3:TrackPointExtension>
            <ns3:hr>154</ns3:hr>
            <ns3:cad>44</ns3:cad>
          </ns3:TrackPointExtension>
        </extensions>
      </trkpt>
      <trkpt lat="56.0286994837224483489990234375" lon="24.13191271014511585235595703125">
        <ele>47.799999237060546875</ele>
        <time>2026-08-01T10:00:37.000Z</time>
        <extensions>
          <ns3:TrackPointExtension>
            <ns3:hr>151</ns3:hr>
            <ns3:cad>44</ns3:cad>
          </ns3:TrackPointExtension>
        </extensions>
      </trkpt>
      <trkpt lat="56.02868079207837581634521484375" lon="24.13188613951206207275390625">
        <ele>48.200000762939453125</ele>
        <time>2026-08-01T10:00:40.000Z</time>
        <extensions>
          <ns3:TrackPointExtension>
            <ns3:hr>150</ns3:hr>
            <ns3:cad>0</ns3:cad>
          </ns3:TrackPointExtension>
        </extensions>
      </trkpt>
      <trkpt lat="56.0286434926092624664306640625" lon="24.13184188306331634521484375">
        <ele>48.200000762939453125</ele>
        <time>2026-08-01T10:00:46.000Z</time>
        <extensions>
          <ns3:TrackPointExtension>
            <ns3:hr>149</ns3:hr>
            <ns3:cad>0</ns3:cad>
          </ns3:TrackPointExtension>
        </extensions>
      </trkpt>
      <trkpt lat="56.02863150648772716522216796875" lon="24.13183383643627166748046875">
        <ele>48.40000152587890625</ele>
        <time>2026-08-01T10:00:48.000Z</time>
        <extensions>
          <ns3:TrackPointExtension>
            <ns3:hr>150</ns3:hr>
            <ns3:cad>0</ns3:cad>
          </ns3:TrackPointExtension>
        </extensions>
      </trkpt>
      <trkpt lat="56.02853930555284023284912109375" lon="24.13182587362825870513916015625">
        <ele>48</ele>
        <time>2026-08-01T10:00:57.000Z</time>
        <extensions>
          <ns3:TrackPointExtension>
            <ns3:hr>151</ns3:hr>
            <ns3:cad>46</ns3:cad>
          </ns3:TrackPointExtension>
        </extensions>
      </trkpt>
      <trkpt lat="56.02850728668272495269775390625" lon="24.1318531148135662078857421875">
        <ele>48.40000152587890625</ele>
        <time>2026-08-01T10:01:02.000Z</time>
        <extensions>
          <ns3:TrackPointExtension>
            <ns3:hr>152</ns3:hr>
            <ns3:cad>46</ns3:cad>
          </ns3:TrackPointExtension>
        </extensions>
      </trkpt>
      <trkpt lat="56.02848331443965435028076171875" lon="24.1318953596055507659912109375">
        <ele>48.59999847412109375</ele>
        <time>2026-08-01T10:01:08.000Z</time>
        <extensions>
          <ns3:TrackPointExtension>
            <ns3:hr>152</ns3:hr>
            <ns3:cad>46</ns3:cad>
          </ns3:TrackPointExtension>
        </extensions>
      </trkpt>
      <trkpt lat="56.0284493677318096160888671875" lon="24.13193081505596637725830078125">
        <ele>48.59999847412109375</ele>
        <time>2026-08-01T10:01:15.000Z</time>
        <extensions>
          <ns3:TrackPointExtension>
            <ns3:hr>152</ns3:hr>
            <ns3:cad>0</ns3:cad>
          </ns3:TrackPointExtension>
        </extensions>
      </trkpt>
      <trkpt lat="56.0284312628209590911865234375" lon="24.13194179534912109375">
        <ele>48.59999847412109375</ele>
        <time>2026-08-01T10:01:18.000Z</time>
        <extensions>
          <ns3:TrackPointExtension>
            <ns3:hr>155</ns3:hr>
            <ns3:cad>0</ns3:cad>
          </ns3:TrackPointExtension>
        </extensions>
      </trkpt>
      <trkpt lat="56.02840519510209560394287109375" lon="24.1319258697330951690673828125">
        <ele>48.59999847412109375</ele>
        <time>2026-08-01T10:01:22.000Z</time>
        <extensions>
          <ns3:TrackPointExtension>
            <ns3:hr>156</ns3:hr>
            <ns3:cad>0</ns3:cad>
          </ns3:TrackPointExtension>
        </extensions>
      </trkpt>
      <trkpt lat="56.02834199555218219757080078125" lon="24.13197138346731662750244140625">
        <ele>48.40000152587890625</ele>
        <time>2026-08-01T10:01:30.000Z</time>
        <extensions>
          <ns3:TrackPointExtension>
            <ns3:hr>156</ns3:hr>
            <ns3:cad>0</ns3:cad>
          </ns3:TrackPointExtension>
        </extensions>
      </trkpt>
      <trkpt lat="56.0282927937805652618408203125" lon="24.1319761611521244049072265625">
        <ele>48.799999237060546875</ele>
        <time>2026-08-01T10:01:36.000Z</time>
        <extensions>
          <ns3:TrackPointExtension>
            <ns3:hr>156</ns3:hr>
            <ns3:cad>45</ns3:cad>
          </ns3:TrackPointExtension>
        </extensions>
      </trkpt>
      <trkpt lat="56.02830494754016399383544921875" lon="24.1319832019507884979248046875">
        <ele>48.40000152587890625</ele>
        <time>2026-08-01T10:01:46.000Z</time>
        <extensions>
          <ns3:TrackPointExtension>
            <ns3:hr>157</ns3:hr>
            <ns3:cad>0</ns3:cad>
          </ns3:TrackPointExtension>
        </extensions>
      </trkpt>
      <trkpt lat="56.02826655842363834381103515625" lon="24.131990410387516021728515625">
        <ele>48.40000152587890625</ele>
        <time>2026-08-01T10:01:54.000Z</time>
        <extensions>
          <ns3:TrackPointExtension>
            <ns3:hr>159</ns3:hr>
            <ns3:cad>0</ns3:cad>
          </ns3:TrackPointExtension>
        </extensions>
      </trkpt>
      <trkpt lat="56.0281834937632083892822265625" lon="24.13201354444026947021484375">
        <ele>48.59999847412109375</ele>
        <time>2026-08-01T10:02:02.000Z</time>
        <extensions>
          <ns3:TrackPointExtension>
            <ns3:hr>158</ns3:hr>
            <ns3:cad>0</ns3:cad>
          </ns3:TrackPointExtension>
        </extensions>
      </trkpt>
      <trkpt lat="56.02812289260327816009521484375" lon="24.13197658024728298187255859375">
        <ele>48.799999237060546875</ele>
        <time>2026-08-01T10:02:08.000Z</time>
        <extensions>
          <ns3:TrackPointExtension>
            <ns3:hr>158</ns3:hr>
            <ns3:cad>49</ns3:cad>
          </ns3:TrackPointExtension>
        </extensions>
      </trkpt>
      <trkpt lat="56.0280587710440158843994140625" lon="24.13196082226932048797607421875">
        <ele>48.799999237060546875</ele>
        <time>2026-08-01T10:02:14.000Z</time>
        <extensions>
          <ns3:TrackPointExtension>
            <ns3:hr>158</ns3:hr>
            <ns3:cad>47</ns3:cad>
          </ns3:TrackPointExtension>
        </extensions>
      </trkpt>
      <trkpt lat="56.0279922187328338623046875" lon="24.13197892718017101287841796875">
        <ele>49</ele>
        <time>2026-08-01T10:02:20.000Z</time>
        <extensions>
          <ns3:TrackPointExtension>
            <ns3:hr>155</ns3:hr>
            <ns3:cad>50</ns3:cad>
          </ns3:TrackPointExtension>
        </extensions>
      </trkpt>
      <trkpt lat="56.02798174135386943817138671875" lon="24.131984710693359375">
        <ele>49</ele>
        <time>2026-08-01T10:02:21.000Z</time>
        <extensions>
          <ns3:TrackPointExtension>
            <ns3:hr>155</ns3:hr>
            <ns3:cad>50</ns3:cad>
          </ns3:TrackPointExtension>
        </extensions>
      </trkpt>
      <trkpt lat="56.0279357247054576873779296875" lon="24.131976328790187835693359375">
        <ele>49</ele>
        <time>2026-08-01T10:02:25.000Z</time>
        <extensions>
          <ns3:TrackPointExtension>
            <ns3:hr>154</ns3:hr>
            <ns3:cad>50</ns3:cad>
          </ns3:TrackPointExtension>
        </extensions>
      </trkpt>
      <trkpt lat="56.0278902947902679443359375" lon="24.13199317641556262969970703125">
        <ele>49.200000762939453125</ele>
        <time>2026-08-01T10:02:29.000Z</time>
        <extensions>
          <ns3:TrackPointExtension>
            <ns3:hr>155</ns3:hr>
            <ns3:cad>50</ns3:cad>
          </ns3:TrackPointExtension>
        </extensions>
      </trkpt>
      <trkpt lat="56.02781527675688266754150390625" lon="24.13204061798751354217529296875">
        <ele>49</ele>
        <time>2026-08-01T10:02:35.000Z</time>
        <extensions>
          <ns3:TrackPointExtension>
            <ns3:hr>154</ns3:hr>
            <ns3:cad>52</ns3:cad>
          </ns3:TrackPointExtension>
        </extensions>
      </trkpt>
      <trkpt lat="56.02773682214319705963134765625" lon="24.1320844553411006927490234375">
        <ele>49</ele>
        <time>2026-08-01T10:02:42.000Z</time>
        <extensions>
          <ns3:TrackPointExtension>
            <ns3:hr>153</ns3:hr>
            <ns3:cad>49</ns3:cad>
          </ns3:TrackPointExtension>
        </extensions>
      </trkpt>
      <trkpt lat="56.02768435142934322357177734375" lon="24.1321012191474437713623046875">
        <ele>49</ele>
        <time>2026-08-01T10:02:47.000Z</time>
        <extensions>
          <ns3:TrackPointExtension>
            <ns3:hr>150</ns3:hr>
            <ns3:cad>48</ns3:cad>
          </ns3:TrackPointExtension>
        </extensions>
      </trkpt>
      <trkpt lat="56.02766892872750759124755859375" lon="24.1321032308042049407958984375">
        <ele>49</ele>
        <time>2026-08-01T10:02:49.000Z</time>
        <extensions>
          <ns3:TrackPointExtension>
            <ns3:hr>147</ns3:hr>
            <ns3:cad>47</ns3:cad>
          </ns3:TrackPointExtension>
        </extensions>
      </trkpt>
      <trkpt lat="56.0276044718921184539794921875" lon="24.132131226360797882080078125">
        <ele>49.200000762939453125</ele>
        <time>2026-08-01T10:02:55.000Z</time>
        <extensions>
          <ns3:TrackPointExtension>
            <ns3:hr>148</ns3:hr>
            <ns3:cad>49</ns3:cad>
          </ns3:TrackPointExtension>
        </extensions>
      </trkpt>
      <trkpt lat="56.02752777747809886932373046875" lon="24.13211706094443798065185546875">
        <ele>49.200000762939453125</ele>
        <time>2026-08-01T10:03:01.000Z</time>
        <extensions>
          <ns3:TrackPointExtension>
            <ns3:hr>144</ns3:hr>
            <ns3:cad>0</ns3:cad>
          </ns3:TrackPointExtension>
        </extensions>
      </trkpt>
      <trkpt lat="56.0275236703455448150634765625" lon="24.132122509181499481201171875">
        <ele>49.200000762939453125</ele>
        <time>2026-08-01T10:03:02.000Z</time>
        <extensions>
          <ns3:TrackPointExtension>
            <ns3:hr>143</ns3:hr>
            <ns3:cad>0</ns3:cad>
          </ns3:TrackPointExtension>
        </extensions>
      </trkpt>
      <trkpt lat="56.02744814939796924591064453125" lon="24.13216173648834228515625">
        <ele>49.200000762939453125</ele>
        <time>2026-08-01T10:03:10.000Z</time>
        <extensions>
          <ns3:TrackPointExtension>
            <ns3:hr>142</ns3:hr>
            <ns3:cad>47</ns3:cad>
          </ns3:TrackPointExtension>
        </extensions>
      </trkpt>
      <trkpt lat="56.02737841196358203887939453125" lon="24.13217640481889247894287109375">
        <ele>49.40000152587890625</ele>
        <time>2026-08-01T10:03:17.000Z</time>
        <extensions>
          <ns3:TrackPointExtension>
            <ns3:hr>144</ns3:hr>
            <ns3:cad>47</ns3:cad>
          </ns3:TrackPointExtension>
        </extensions>
      </trkpt>
      <trkpt lat="56.02732543833553791046142578125" lon="24.13219115696847438812255859375">
        <ele>49.59999847412109375</ele>
        <time>2026-08-01T10:03:21.000Z</time>
        <extensions>
          <ns3:TrackPointExtension>
            <ns3:hr>144</ns3:hr>
            <ns3:cad>97</ns3:cad>
          </ns3:TrackPointExtension>
        </extensions>
      </trkpt>
      <trkpt lat="56.027305237948894500732421875" lon="24.13220507092773914337158203125">
        <ele>49.59999847412109375</ele>
        <time>2026-08-01T10:03:23.000Z</time>
        <extensions>
          <ns3:TrackPointExtension>
            <ns3:hr>144</ns3:hr>
            <ns3:cad>97</ns3:cad>
          </ns3:TrackPointExtension>
        </extensions>
      </trkpt>
      <trkpt lat="56.027256287634372711181640625" lon="24.132259301841259002685546875">
        <ele>49.40000152587890625</ele>
        <time>2026-08-01T10:03:30.000Z</time>
        <extensions>
          <ns3:TrackPointExtension>
            <ns3:hr>143</ns3:hr>
            <ns3:cad>48</ns3:cad>
          </ns3:TrackPointExtension>
        </extensions>
      </trkpt>
      <trkpt lat="56.02717674337327480316162109375" lon="24.13225720636546611785888671875">
        <ele>49.59999847412109375</ele>
        <time>2026-08-01T10:03:37.000Z</time>
        <extensions>
          <ns3:TrackPointExtension>
            <ns3:hr>142</ns3:hr>
            <ns3:cad>47</ns3:cad>
          </ns3:TrackPointExtension>
        </extensions>
      </trkpt>
      <trkpt lat="56.02714003063738346099853515625" lon="24.1322668455541133880615234375">
        <ele>49.59999847412109375</ele>
        <time>2026-08-01T10:03:42.000Z</time>
        <extensions>
          <ns3:TrackPointExtension>
            <ns3:hr>142</ns3:hr>
            <ns3:cad>0</ns3:cad>
          </ns3:TrackPointExtension>
        </extensions>
      </trkpt>
      <trkpt lat="56.02707750163972377777099609375" lon="24.1322980262339115142822265625">
        <ele>49.40000152587890625</ele>
        <time>2026-08-01T10:03:48.000Z</time>
        <extensions>
          <ns3:TrackPointExtension>
            <ns3:hr>143</ns3:hr>
            <ns3:cad>50</ns3:cad>
          </ns3:TrackPointExtension>
        </extensions>
      </trkpt>
      <trkpt lat="56.0269764997065067291259765625" lon="24.13233180530369281768798828125">
        <ele>49.40000152587890625</ele>
        <time>2026-08-01T10:03:56.000Z</time>
        <extensions>
          <ns3:TrackPointExtension>
            <ns3:hr>145</ns3:hr>
            <ns3:cad>50</ns3:cad>
          </ns3:TrackPointExtension>
        </extensions>
      </trkpt>
      <trkpt lat="56.02693383581936359405517578125" lon="24.132363237440586090087890625">
        <ele>49.59999847412109375</ele>
        <time>2026-08-01T10:04:02.000Z</time>
        <extensions>
          <ns3:TrackPointExtension>
            <ns3:hr>144</ns3:hr>
            <ns3:cad>0</ns3:cad>
          </ns3:TrackPointExtension>
        </extensions>
      </trkpt>
      <trkpt lat="56.02685772813856601715087890625" lon="24.1324002854526042938232421875">
        <ele>49.799999237060546875</ele>
        <time>2026-08-01T10:04:08.000Z</time>
        <extensions>
          <ns3:TrackPointExtension>
            <ns3:hr>144</ns3:hr>
            <ns3:cad>44</ns3:cad>
          </ns3:TrackPointExtension>
        </extensions>
      </trkpt>
      <trkpt lat="56.02677960880100727081298828125" lon="24.13242258131504058837890625">
        <ele>49.59999847412109375</ele>
        <time>2026-08-01T10:04:15.000Z</time>
        <extensions>
          <ns3:TrackPointExtension>
            <ns3:hr>141</ns3:hr>
            <ns3:cad>49</ns3:cad>
          </ns3:TrackPointExtension>
        </extensions>
      </trkpt>
      <trkpt lat="56.02666175924241542816162109375" lon="24.13243004120886325836181640625">
        <ele>49.59999847412109375</ele>
        <time>2026-08-01T10:04:24.000Z</time>
        <extensions>
          <ns3:TrackPointExtension>
            <ns3:hr>142</ns3:hr>
            <ns3:cad>51</ns3:cad>
          </ns3:TrackPointExtension>
        </extensions>
      </trkpt>
      <trkpt lat="56.02659185416996479034423828125" lon="24.13245133124291896820068359375">
        <ele>49.40000152587890625</ele>
        <time>2026-08-01T10:04:32.000Z</time>
        <extensions>
          <ns3:TrackPointExtension>
            <ns3:hr>142</ns3:hr>
            <ns3:cad>48</ns3:cad>
          </ns3:TrackPointExtension>
        </extensions>
      </trkpt>
      <trkpt lat="56.02655564434826374053955078125" lon="24.13256549276411533355712890625">
        <ele>49.59999847412109375</ele>
        <time>2026-08-01T10:04:40.000Z</time>
        <extensions>
          <ns3:TrackPointExtension>
            <ns3:hr>143</ns3:hr>
            <ns3:cad>47</ns3:cad>
          </ns3:TrackPointExtension>
        </extensions>
      </trkpt>
      <trkpt lat="56.02649479173123836517333984375" lon="24.1326485574245452880859375">
        <ele>49.40000152587890625</ele>
        <time>2026-08-01T10:04:47.000Z</time>
        <extensions>
          <ns3:TrackPointExtension>
            <ns3:hr>142</ns3:hr>
            <ns3:cad>99</ns3:cad>
          </ns3:TrackPointExtension>
        </extensions>
      </trkpt>
      <trkpt lat="56.0264628566801548004150390625" lon="24.1326336376368999481201171875">
        <ele>49.59999847412109375</ele>
        <time>2026-08-01T10:04:50.000Z</time>
        <extensions>
          <ns3:TrackPointExtension>
            <ns3:hr>142</ns3:hr>
            <ns3:cad>102</ns3:cad>
          </ns3:TrackPointExtension>
        </extensions>
      </trkpt>
      <trkpt lat="56.02641751058399677276611328125" lon="24.13260187022387981414794921875">
        <ele>49.59999847412109375</ele>
        <time>2026-08-01T10:04:54.000Z</time>
        <extensions>
          <ns3:TrackPointExtension>
            <ns3:hr>142</ns3:hr>
            <ns3:cad>0</ns3:cad>
          </ns3:TrackPointExtension>
        </extensions>
      </trkpt>
      <trkpt lat="56.026390604674816131591796875" lon="24.13259080611169338226318359375">
        <ele>49.59999847412109375</ele>
        <time>2026-08-01T10:05:01.000Z</time>
        <extensions>
          <ns3:TrackPointExtension>
            <ns3:hr>142</ns3:hr>
            <ns3:cad>0</ns3:cad>
          </ns3:TrackPointExtension>
        </extensions>
      </trkpt>
      <trkpt lat="56.02639404125511646270751953125" lon="24.13254956714808940887451171875">
        <ele>49.59999847412109375</ele>
        <time>2026-08-01T10:05:07.000Z</time>
        <extensions>
          <ns3:TrackPointExtension>
            <ns3:hr>145</ns3:hr>
            <ns3:cad>0</ns3:cad>
          </ns3:TrackPointExtension>
        </extensions>
      </trkpt>
      <trkpt lat="56.0263860784471035003662109375" lon="24.1325189732015132904052734375">
        <ele>49.59999847412109375</ele>
        <time>2026-08-01T10:05:09.000Z</time>
        <extensions>
          <ns3:TrackPointExtension>
            <ns3:hr>146</ns3:hr>
            <ns3:cad>0</ns3:cad>
          </ns3:TrackPointExtension>
        </extensions>
      </trkpt>
      <trkpt lat="56.0263424925506114959716796875" lon="24.13243926130235195159912109375">
        <ele>49.799999237060546875</ele>
        <time>2026-08-01T10:05:17.000Z</time>
        <extensions>
          <ns3:TrackPointExtension>
            <ns3:hr>145</ns3:hr>
            <ns3:cad>0</ns3:cad>
          </ns3:TrackPointExtension>
        </extensions>
      </trkpt>
      <trkpt lat="56.02628239430487155914306640625" lon="24.13228604011237621307373046875">
        <ele>49.799999237060546875</ele>
        <time>2026-08-01T10:05:26.000Z</time>
        <extensions>
          <ns3:TrackPointExtension>
            <ns3:hr>143</ns3:hr>
            <ns3:cad>49</ns3:cad>
          </ns3:TrackPointExtension>
        </extensions>
      </trkpt>
      <trkpt lat="56.0262335278093814849853515625" lon="24.13217288441956043243408203125">
        <ele>49.799999237060546875</ele>
        <time>2026-08-01T10:05:33.000Z</time>
        <extensions>
          <ns3:TrackPointExtension>
            <ns3:hr>143</ns3:hr>
            <ns3:cad>54</ns3:cad>
          </ns3:TrackPointExtension>
        </extensions>
      </trkpt>
      <trkpt lat="56.0261708311736583709716796875" lon="24.13204849697649478912353515625">
        <ele>49.59999847412109375</ele>
        <time>2026-08-01T10:05:40.000Z</time>
        <extensions>
          <ns3:TrackPointExtension>
            <ns3:hr>146</ns3:hr>
            <ns3:cad>53</ns3:cad>
          </ns3:TrackPointExtension>
        </extensions>
      </trkpt>
      <trkpt lat="56.02615029551088809967041015625" lon="24.1320103593170642852783203125">
        <ele>49.59999847412109375</ele>
        <time>2026-08-01T10:05:42.000Z</time>
        <extensions>
          <ns3:TrackPointExtension>
            <ns3:hr>146</ns3:hr>
            <ns3:cad>53</ns3:cad>
          </ns3:TrackPointExtension>
        </extensions>
      </trkpt>
      <trkpt lat="56.0260927118360996246337890625" lon="24.131869710981845855712890625">
        <ele>49.59999847412109375</ele>
        <time>2026-08-01T10:05:51.000Z</time>
        <extensions>
          <ns3:TrackPointExtension>
            <ns3:hr>144</ns3:hr>
            <ns3:cad>55</ns3:cad>
          </ns3:TrackPointExtension>
        </extensions>
      </trkpt>
      <trkpt lat="56.02605055086314678192138671875" lon="24.131775833666324615478515625">
        <ele>49.799999237060546875</ele>
        <time>2026-08-01T10:05:59.000Z</time>
        <extensions>
          <ns3:TrackPointExtension>
            <ns3:hr>142</ns3:hr>
            <ns3:cad>48</ns3:cad>
          </ns3:TrackPointExtension>
        </extensions>
      </trkpt>
      <trkpt lat="56.0260558314621448516845703125" lon="24.131753705441951751708984375">
        <ele>50</ele>
        <time>2026-08-01T10:06:08.000Z</time>
        <extensions>
          <ns3:TrackPointExtension>
            <ns3:hr>141</ns3:hr>
            <ns3:cad>0</ns3:cad>
          </ns3:TrackPointExtension>
        </extensions>
      </trkpt>
      <trkpt lat="56.0260588489472866058349609375" lon="24.1317552141845226287841796875">
        <ele>50</ele>
        <time>2026-08-01T10:06:09.000Z</time>
        <extensions>
          <ns3:TrackPointExtension>
            <ns3:hr>141</ns3:hr>
            <ns3:cad>0</ns3:cad>
          </ns3:TrackPointExtension>
        </extensions>
      </trkpt>
      <trkpt lat="56.02604870684444904327392578125" lon="24.13169260136783123016357421875">
        <ele>49.40000152587890625</ele>
        <time>2026-08-01T10:06:16.000Z</time>
        <extensions>
          <ns3:TrackPointExtension>
            <ns3:hr>143</ns3:hr>
            <ns3:cad>0</ns3:cad>
          </ns3:TrackPointExtension>
        </extensions>
      </trkpt>
      <trkpt lat="56.02601232938468456268310546875" lon="24.1316365264356136322021484375">
        <ele>49.59999847412109375</ele>
        <time>2026-08-01T10:06:21.000Z</time>
        <extensions>
          <ns3:TrackPointExtension>
            <ns3:hr>139</ns3:hr>
            <ns3:cad>52</ns3:cad>
          </ns3:TrackPointExtension>
        </extensions>
      </trkpt>
      <trkpt lat="56.02599925361573696136474609375" lon="24.131560586392879486083984375">
        <ele>49.799999237060546875</ele>
        <time>2026-08-01T10:06:25.000Z</time>
        <extensions>
          <ns3:TrackPointExtension>
            <ns3:hr>139</ns3:hr>
            <ns3:cad>53</ns3:cad>
          </ns3:TrackPointExtension>
        </extensions>
      </trkpt>
      <trkpt lat="56.02598701603710651397705078125" lon="24.131435193121433258056640625">
        <ele>49.799999237060546875</ele>
        <time>2026-08-01T10:06:32.000Z</time>
        <extensions>
          <ns3:TrackPointExtension>
            <ns3:hr>141</ns3:hr>
            <ns3:cad>48</ns3:cad>
          </ns3:TrackPointExtension>
        </extensions>
      </trkpt>
      <trkpt lat="56.02598919533193111419677734375" lon="24.1313978098332881927490234375">
        <ele>49.799999237060546875</ele>
        <time>2026-08-01T10:06:34.000Z</time>
        <extensions>
          <ns3:TrackPointExtension>
            <ns3:hr>146</ns3:hr>
            <ns3:cad>0</ns3:cad>
          </ns3:TrackPointExtension>
        </extensions>
      </trkpt>
      <trkpt lat="56.026001684367656707763671875" lon="24.131252802908420562744140625">
        <ele>49.799999237060546875</ele>
        <time>2026-08-01T10:06:40.000Z</time>
        <extensions>
          <ns3:TrackPointExtension>
            <ns3:hr>146</ns3:hr>
            <ns3:cad>49</ns3:cad>
          </ns3:TrackPointExtension>
        </extensions>
      </trkpt>
      <trkpt lat="56.02598617784678936004638671875" lon="24.1311009228229522705078125">
        <ele>49.59999847412109375</ele>
        <time>2026-08-01T10:06:49.000Z</time>
        <extensions>
          <ns3:TrackPointExtension>
            <ns3:hr>145</ns3:hr>
            <ns3:cad>50</ns3:cad>
          </ns3:TrackPointExtension>
        </extensions>
      </trkpt>
      <trkpt lat="56.025971509516239166259765625" lon="24.13098759949207305908203125">
        <ele>49.59999847412109375</ele>
        <time>2026-08-01T10:06:56.000Z</time>
        <extensions>
          <ns3:TrackPointExtension>
            <ns3:hr>145</ns3:hr>
            <ns3:cad>47</ns3:cad>
          </ns3:TrackPointExtension>
        </extensions>
      </trkpt>
      <trkpt lat="56.02593974210321903228759765625" lon="24.130852483212947845458984375">
        <ele>49.59999847412109375</ele>
        <time>2026-08-01T10:07:03.000Z</time>
        <extensions>
          <ns3:TrackPointExtension>
            <ns3:hr>144</ns3:hr>
            <ns3:cad>48</ns3:cad>
          </ns3:TrackPointExtension>
        </extensions>
      </trkpt>
      <trkpt lat="56.02590722031891345977783203125" lon="24.13074083626270294189453125">
        <ele>49.59999847412109375</ele>
        <time>2026-08-01T10:07:10.000Z</time>
        <extensions>
          <ns3:TrackPointExtension>
            <ns3:hr>143</ns3:hr>
            <ns3:cad>48</ns3:cad>
          </ns3:TrackPointExtension>
        </extensions>
      </trkpt>
      <trkpt lat="56.0258895345032215118408203125" lon="24.13058518432080745697021484375">
        <ele>49.799999237060546875</ele>
        <time>2026-08-01T10:07:18.000Z</time>
        <extensions>
          <ns3:TrackPointExtension>
            <ns3:hr>141</ns3:hr>
            <ns3:cad>50</ns3:cad>
          </ns3:TrackPointExtension>
        </extensions>
      </trkpt>
      <trkpt lat="56.02587796747684478759765625" lon="24.13046649657189846038818359375">
        <ele>49.59999847412109375</ele>
        <time>2026-08-01T10:07:25.000Z</time>
        <extensions>
          <ns3:TrackPointExtension>
            <ns3:hr>143</ns3:hr>
            <ns3:cad>53</ns3:cad>
          </ns3:TrackPointExtension>
        </extensions>
      </trkpt>
      <trkpt lat="56.025879643857479095458984375" lon="24.1304276883602142333984375">
        <ele>50</ele>
        <time>2026-08-01T10:07:33.000Z</time>
        <extensions>
          <ns3:TrackPointExtension>
            <ns3:hr>143</ns3:hr>
            <ns3:cad>0</ns3:cad>
          </ns3:TrackPointExtension>
        </extensions>
      </trkpt>
      <trkpt lat="56.02587922476232051849365234375" lon="24.1304090805351734161376953125">
        <ele>50</ele>
        <time>2026-08-01T10:07:34.000Z</time>
        <extensions>
          <ns3:TrackPointExtension>
            <ns3:hr>143</ns3:hr>
            <ns3:cad>0</ns3:cad>
          </ns3:TrackPointExtension>
        </extensions>
      </trkpt>
      <trkpt lat="56.0258774645626544952392578125" lon="24.13034521043300628662109375">
        <ele>49.799999237060546875</ele>
        <time>2026-08-01T10:07:39.000Z</time>
        <extensions>
          <ns3:TrackPointExtension>
            <ns3:hr>146</ns3:hr>
            <ns3:cad>0</ns3:cad>
          </ns3:TrackPointExtension>
        </extensions>
      </trkpt>
      <trkpt lat="56.025870926678180694580078125" lon="24.1303115151822566986083984375">
        <ele>49.59999847412109375</ele>
        <time>2026-08-01T10:07:41.000Z</time>
        <extensions>
          <ns3:TrackPointExtension>
            <ns3:hr>147</ns3:hr>
            <ns3:cad>0</ns3:cad>
          </ns3:TrackPointExtension>
        </extensions>
      </trkpt>
      <trkpt lat="56.02585625834763050079345703125" lon="24.13020716048777103424072265625">
        <ele>49.799999237060546875</ele>
        <time>2026-08-01T10:07:47.000Z</time>
        <extensions>
          <ns3:TrackPointExtension>
            <ns3:hr>143</ns3:hr>
            <ns3:cad>51</ns3:cad>
          </ns3:TrackPointExtension>
        </extensions>
      </trkpt>
      <trkpt lat="56.02584234438836574554443359375" lon="24.130166508257389068603515625">
        <ele>49.799999237060546875</ele>
        <time>2026-08-01T10:07:49.000Z</time>
        <extensions>
          <ns3:TrackPointExtension>
            <ns3:hr>143</ns3:hr>
            <ns3:cad>50</ns3:cad>
          </ns3:TrackPointExtension>
        </extensions>
      </trkpt>
      <trkpt lat="56.02580697275698184967041015625" lon="24.130040109157562255859375">
        <ele>49.59999847412109375</ele>
        <time>2026-08-01T10:07:55.000Z</time>
        <extensions>
          <ns3:TrackPointExtension>
            <ns3:hr>140</ns3:hr>
            <ns3:cad>54</ns3:cad>
          </ns3:TrackPointExtension>
        </extensions>
      </trkpt>
      <trkpt lat="56.0258003510534763336181640625" lon="24.12999392487108707427978515625">
        <ele>49.59999847412109375</ele>
        <time>2026-08-01T10:07:57.000Z</time>
        <extensions>
          <ns3:TrackPointExtension>
            <ns3:hr>140</ns3:hr>
            <ns3:cad>52</ns3:cad>
          </ns3:TrackPointExtension>
        </extensions>
      </trkpt>
      <trkpt lat="56.02578517980873584747314453125" lon="24.12989585660398006439208984375">
        <ele>49.59999847412109375</ele>
        <time>2026-08-01T10:08:03.000Z</time>
        <extensions>
          <ns3:TrackPointExtension>
            <ns3:hr>139</ns3:hr>
            <ns3:cad>51</ns3:cad>
          </ns3:TrackPointExtension>
        </extensions>
      </trkpt>
      <trkpt lat="56.02576439268887042999267578125" lon="24.12976451218128204345703125">
        <ele>49.40000152587890625</ele>
        <time>2026-08-01T10:08:09.000Z</time>
        <extensions>
          <ns3:TrackPointExtension>
            <ns3:hr>138</ns3:hr>
            <ns3:cad>52</ns3:cad>
          </ns3:TrackPointExtension>
        </extensions>
      </trkpt>
      <trkpt lat="56.02575299330055713653564453125" lon="24.129633419215679168701171875">
        <ele>49.799999237060546875</ele>
        <time>2026-08-01T10:08:16.000Z</time>
        <extensions>
          <ns3:TrackPointExtension>
            <ns3:hr>136</ns3:hr>
            <ns3:cad>56</ns3:cad>
          </ns3:TrackPointExtension>
        </extensions>
      </trkpt>
      <trkpt lat="56.0257332958281040191650390625" lon="24.1295232810080051422119140625">
        <ele>49.799999237060546875</ele>
        <time>2026-08-01T10:08:23.000Z</time>
        <extensions>
          <ns3:TrackPointExtension>
            <ns3:hr>138</ns3:hr>
            <ns3:cad>50</ns3:cad>
          </ns3:TrackPointExtension>
        </extensions>
      </trkpt>
      <trkpt lat="56.02571963332593441009521484375" lon="24.12943049333989620208740234375">
        <ele>50</ele>
        <time>2026-08-01T10:08:29.000Z</time>
        <extensions>
          <ns3:TrackPointExtension>
            <ns3:hr>139</ns3:hr>
            <ns3:cad>53</ns3:cad>
          </ns3:TrackPointExtension>
        </extensions>
      </trkpt>
      <trkpt lat="56.02568744681775569915771484375" lon="24.12929370068013668060302734375">
        <ele>49.799999237060546875</ele>
        <time>2026-08-01T10:08:36.000Z</time>
        <extensions>
          <ns3:TrackPointExtension>
            <ns3:hr>140</ns3:hr>
            <ns3:cad>53</ns3:cad>
          </ns3:TrackPointExtension>
        </extensions>
      </trkpt>
      <trkpt lat="56.0256828367710113525390625" lon="24.1291752643883228302001953125">
        <ele>49.799999237060546875</ele>
        <time>2026-08-01T10:08:41.000Z</time>
        <extensions>
          <ns3:TrackPointExtension>
            <ns3:hr>143</ns3:hr>
            <ns3:cad>50</ns3:cad>
          </ns3:TrackPointExtension>
        </extensions>
      </trkpt>
      <trkpt lat="56.02568484842777252197265625" lon="24.129151962697505950927734375">
        <ele>49.799999237060546875</ele>
        <time>2026-08-01T10:08:42.000Z</time>
        <extensions>
          <ns3:TrackPointExtension>
            <ns3:hr>143</ns3:hr>
            <ns3:cad>50</ns3:cad>
          </ns3:TrackPointExtension>
        </extensions>
      </trkpt>
      <trkpt lat="56.02568149566650390625" lon="24.12900033406913280487060546875">
        <ele>49.799999237060546875</ele>
        <time>2026-08-01T10:08:49.000Z</time>
        <extensions>
          <ns3:TrackPointExtension>
            <ns3:hr>143</ns3:hr>
            <ns3:cad>51</ns3:cad>
          </ns3:TrackPointExtension>
        </extensions>
      </trkpt>
      <trkpt lat="56.0256588645279407501220703125" lon="24.12895984947681427001953125">
        <ele>49.40000152587890625</ele>
        <time>2026-08-01T10:08:56.000Z</time>
        <extensions>
          <ns3:TrackPointExtension>
            <ns3:hr>143</ns3:hr>
            <ns3:cad>0</ns3:cad>
          </ns3:TrackPointExtension>
        </extensions>
      </trkpt>
      <trkpt lat="56.02565241046249866485595703125" lon="24.128970913589000701904296875">
        <ele>48.799999237060546875</ele>
        <time>2026-08-01T10:09:01.000Z</time>
        <extensions>
          <ns3:TrackPointExtension>
            <ns3:hr>140</ns3:hr>
            <ns3:cad>0</ns3:cad>
          </ns3:TrackPointExtension>
        </extensions>
      </trkpt>
      <trkpt lat="56.02564738132059574127197265625" lon="24.12898122332990169525146484375">
        <ele>49</ele>
        <time>2026-08-01T10:09:05.000Z</time>
        <extensions>
          <ns3:TrackPointExtension>
            <ns3:hr>139</ns3:hr>
            <ns3:cad>0</ns3:cad>
          </ns3:TrackPointExtension>
        </extensions>
      </trkpt>
      <trkpt lat="56.025607399642467498779296875" lon="24.12885834462940692901611328125">
        <ele>50</ele>
        <time>2026-08-01T10:09:12.000Z</time>
        <extensions>
          <ns3:TrackPointExtension>
            <ns3:hr>137</ns3:hr>
            <ns3:cad>53</ns3:cad>
          </ns3:TrackPointExtension>
        </extensions>
      </trkpt>
      <trkpt lat="56.02555568329989910125732421875" lon="24.1287038661539554595947265625">
        <ele>49.799999237060546875</ele>
        <time>2026-08-01T10:09:19.000Z</time>
        <extensions>
          <ns3:TrackPointExtension>
            <ns3:hr>138</ns3:hr>
            <ns3:cad>55</ns3:cad>
          </ns3:TrackPointExtension>
        </extensions>
      </trkpt>
      <trkpt lat="56.02553338743746280670166015625" lon="24.12862029857933521270751953125">
        <ele>49.799999237060546875</ele>
        <time>2026-08-01T10:09:23.000Z</time>
        <extensions>
          <ns3:TrackPointExtension>
            <ns3:hr>142</ns3:hr>
            <ns3:cad>55</ns3:cad>
          </ns3:TrackPointExtension>
        </extensions>
      </trkpt>
      <trkpt lat="56.0255203954875469207763671875" lon="24.1285674087703227996826171875">
        <ele>50.200000762939453125</ele>
        <time>2026-08-01T10:09:26.000Z</time>
        <extensions>
          <ns3:TrackPointExtension>
            <ns3:hr>146</ns3:hr>
            <ns3:cad>54</ns3:cad>
          </ns3:TrackPointExtension>
        </extensions>
      </trkpt>
      <trkpt lat="56.025520898401737213134765625" lon="24.12852206267416477203369140625">
        <ele>50.59999847412109375</ele>
        <time>2026-08-01T10:09:29.000Z</time>
        <extensions>
          <ns3:TrackPointExtension>
            <ns3:hr>148</ns3:hr>
            <ns3:cad>53</ns3:cad>
          </ns3:TrackPointExtension>
        </extensions>
      </trkpt>
      <trkpt lat="56.025539673864841461181640625" lon="24.12843438796699047088623046875">
        <ele>50.40000152587890625</ele>
        <time>2026-08-01T10:09:33.000Z</time>
        <extensions>
          <ns3:TrackPointExtension>
            <ns3:hr>146</ns3:hr>
            <ns3:cad>54</ns3:cad>
          </ns3:TrackPointExtension>
        </extensions>
      </trkpt>
      <trkpt lat="56.02557227946817874908447265625" lon="24.128226600587368011474609375">
        <ele>50.59999847412109375</ele>
        <time>2026-08-01T10:09:41.000Z</time>
        <extensions>
          <ns3:TrackPointExtension>
            <ns3:hr>145</ns3:hr>
            <ns3:cad>57</ns3:cad>
          </ns3:TrackPointExtension>
        </extensions>
      </trkpt>
      <trkpt lat="56.0255998559296131134033203125" lon="24.12805351428687572479248046875">
        <ele>50.59999847412109375</ele>
        <time>2026-08-01T10:09:49.000Z</time>
        <extensions>
          <ns3:TrackPointExtension>
            <ns3:hr>145</ns3:hr>
            <ns3:cad>58</ns3:cad>
          </ns3:TrackPointExtension>
        </extensions>
      </trkpt>
      <trkpt lat="56.0256397537887096405029296875" lon="24.127881936728954315185546875">
        <ele>50.59999847412109375</ele>
        <time>2026-08-01T10:09:57.000Z</time>
        <extensions>
          <ns3:TrackPointExtension>
            <ns3:hr>143</ns3:hr>
            <ns3:cad>59</ns3:cad>
          </ns3:TrackPointExtension>
        </extensions>
      </trkpt>
      <trkpt lat="56.02568292059004306793212890625" lon="24.12770591676235198974609375">
        <ele>50.59999847412109375</ele>
        <time>2026-08-01T10:10:04.000Z</time>
        <extensions>
          <ns3:TrackPointExtension>
            <ns3:hr>144</ns3:hr>
            <ns3:cad>57</ns3:cad>
          </ns3:TrackPointExtension>
        </extensions>
      </trkpt>
      <trkpt lat="56.02572315372526645660400390625" lon="24.12754657678306102752685546875">
        <ele>51</ele>
        <time>2026-08-01T10:10:11.000Z</time>
        <extensions>
          <ns3:TrackPointExtension>
            <ns3:hr>141</ns3:hr>
            <ns3:cad>58</ns3:cad>
          </ns3:TrackPointExtension>
        </extensions>
      </trkpt>
      <trkpt lat="56.0257282666862010955810546875" lon="24.12751891650259494781494140625">
        <ele>51.200000762939453125</ele>
        <time>2026-08-01T10:10:12.000Z</time>
        <extensions>
          <ns3:TrackPointExtension>
            <ns3:hr>141</ns3:hr>
            <ns3:cad>58</ns3:cad>
          </ns3:TrackPointExtension>
        </extensions>
      </trkpt>
      <trkpt lat="56.025748215615749359130859375" lon="24.12738933227956295013427734375">
        <ele>51.200000762939453125</ele>
        <time>2026-08-01T10:10:19.000Z</time>
        <extensions>
          <ns3:TrackPointExtension>
            <ns3:hr>140</ns3:hr>
            <ns3:cad>58</ns3:cad>
          </ns3:TrackPointExtension>
        </extensions>
      </trkpt>
      <trkpt lat="56.02578517980873584747314453125" lon="24.12720157764852046966552734375">
        <ele>51</ele>
        <time>2026-08-01T10:10:26.000Z</time>
        <extensions>
          <ns3:TrackPointExtension>
            <ns3:hr>139</ns3:hr>
            <ns3:cad>57</ns3:cad>
          </ns3:TrackPointExtension>
        </extensions>
      </trkpt>
      <trkpt lat="56.025824658572673797607421875" lon="24.12701030261814594268798828125">
        <ele>51.200000762939453125</ele>
        <time>2026-08-01T10:10:34.000Z</time>
        <extensions>
          <ns3:TrackPointExtension>
            <ns3:hr>137</ns3:hr>
            <ns3:cad>57</ns3:cad>
          </ns3:TrackPointExtension>
        </extensions>
      </trkpt>
      <trkpt lat="56.02583773434162139892578125" lon="24.1269044391810894012451171875">
        <ele>51.200000762939453125</ele>
        <time>2026-08-01T10:10:40.000Z</time>
        <extensions>
          <ns3:TrackPointExtension>
            <ns3:hr>134</ns3:hr>
            <ns3:cad>57</ns3:cad>
          </ns3:TrackPointExtension>
        </extensions>
      </trkpt>
      <trkpt lat="56.02584251202642917633056640625" lon="24.12688239477574825286865234375">
        <ele>51.200000762939453125</ele>
        <time>2026-08-01T10:10:41.000Z</time>
        <extensions>
          <ns3:TrackPointExtension>
            <ns3:hr>134</ns3:hr>
            <ns3:cad>57</ns3:cad>
          </ns3:TrackPointExtension>
        </extensions>
      </trkpt>
      <trkpt lat="56.02589431218802928924560546875" lon="24.12664032541215419769287109375">
        <ele>51.40000152587890625</ele>
        <time>2026-08-01T10:10:51.000Z</time>
        <extensions>
          <ns3:TrackPointExtension>
            <ns3:hr>133</ns3:hr>
            <ns3:cad>57</ns3:cad>
          </ns3:TrackPointExtension>
        </extensions>
      </trkpt>
      <trkpt lat="56.0259203799068927764892578125" lon="24.12651912309229373931884765625">
        <ele>51.40000152587890625</ele>
        <time>2026-08-01T10:10:56.000Z</time>
        <extensions>
          <ns3:TrackPointExtension>
            <ns3:hr>133</ns3:hr>
            <ns3:cad>57</ns3:cad>
          </ns3:TrackPointExtension>
        </extensions>
      </trkpt>
      <trkpt lat="56.0259777121245861053466796875" lon="24.1262811608612537384033203125">
        <ele>51.200000762939453125</ele>
        <time>2026-08-01T10:11:06.000Z</time>
        <extensions>
          <ns3:TrackPointExtension>
            <ns3:hr>133</ns3:hr>
            <ns3:cad>57</ns3:cad>
          </ns3:TrackPointExtension>
        </extensions>
      </trkpt>
      <trkpt lat="56.02600646205246448516845703125" lon="24.12611662410199642181396484375">
        <ele>51.200000762939453125</ele>
        <time>2026-08-01T10:11:13.000Z</time>
        <extensions>
          <ns3:TrackPointExtension>
            <ns3:hr>132</ns3:hr>
            <ns3:cad>56</ns3:cad>
          </ns3:TrackPointExtension>
        </extensions>
      </trkpt>
      <trkpt lat="56.02604870684444904327392578125" lon="24.12592719309031963348388671875">
        <ele>51</ele>
        <time>2026-08-01T10:11:21.000Z</time>
        <extensions>
          <ns3:TrackPointExtension>
            <ns3:hr>132</ns3:hr>
            <ns3:cad>56</ns3:cad>
          </ns3:TrackPointExtension>
        </extensions>
      </trkpt>
      <trkpt lat="56.02609061636030673980712890625" lon="24.12573122419416904449462890625">
        <ele>51</ele>
        <time>2026-08-01T10:11:30.000Z</time>
        <extensions>
          <ns3:TrackPointExtension>
            <ns3:hr>133</ns3:hr>
            <ns3:cad>57</ns3:cad>
          </ns3:TrackPointExtension>
        </extensions>
      </trkpt>
      <trkpt lat="56.02613403461873531341552734375" lon="24.125553108751773834228515625">
        <ele>51.200000762939453125</ele>
        <time>2026-08-01T10:11:38.000Z</time>
        <extensions>
          <ns3:TrackPointExtension>
            <ns3:hr>132</ns3:hr>
            <ns3:cad>56</ns3:cad>
          </ns3:TrackPointExtension>
        </extensions>
      </trkpt>
      <trkpt lat="56.02617460303008556365966796875" lon="24.1253353469073772430419921875">
        <ele>51.40000152587890625</ele>
        <time>2026-08-01T10:11:47.000Z</time>
        <extensions>
          <ns3:TrackPointExtension>
            <ns3:hr>135</ns3:hr>
            <ns3:cad>57</ns3:cad>
          </ns3:TrackPointExtension>
        </extensions>
      </trkpt>
      <trkpt lat="56.0261817276477813720703125" lon="24.12527985870838165283203125">
        <ele>51.40000152587890625</ele>
        <time>2026-08-01T10:11:49.000Z</time>
        <extensions>
          <ns3:TrackPointExtension>
            <ns3:hr>135</ns3:hr>
            <ns3:cad>57</ns3:cad>
          </ns3:TrackPointExtension>
        </extensions>
      </trkpt>
      <trkpt lat="56.02623428218066692352294921875" lon="24.1250909306108951568603515625">
        <ele>51.40000152587890625</ele>
        <time>2026-08-01T10:11:57.000Z</time>
        <extensions>
          <ns3:TrackPointExtension>
            <ns3:hr>135</ns3:hr>
            <ns3:cad>57</ns3:cad>
          </ns3:TrackPointExtension>
        </extensions>
      </trkpt>
      <trkpt lat="56.02626948617398738861083984375" lon="24.1248781979084014892578125">
        <ele>51.40000152587890625</ele>
        <time>2026-08-01T10:12:07.000Z</time>
        <extensions>
          <ns3:TrackPointExtension>
            <ns3:hr>136</ns3:hr>
            <ns3:cad>57</ns3:cad>
          </ns3:TrackPointExtension>
        </extensions>
      </trkpt>
      <trkpt lat="56.02630251087248325347900390625" lon="24.12474811077117919921875">
        <ele>51.59999847412109375</ele>
        <time>2026-08-01T10:12:13.000Z</time>
        <extensions>
          <ns3:TrackPointExtension>
            <ns3:hr>137</ns3:hr>
            <ns3:cad>58</ns3:cad>
          </ns3:TrackPointExtension>
        </extensions>
      </trkpt>
      <trkpt lat="56.0263212025165557861328125" lon="24.12469605915248394012451171875">
        <ele>51.799999237060546875</ele>
        <time>2026-08-01T10:12:16.000Z</time>
        <extensions>
          <ns3:TrackPointExtension>
            <ns3:hr>136</ns3:hr>
            <ns3:cad>58</ns3:cad>
          </ns3:TrackPointExtension>
        </extensions>
      </trkpt>
      <trkpt lat="56.02635397575795650482177734375" lon="24.124494977295398712158203125">
        <ele>51.40000152587890625</ele>
        <time>2026-08-01T10:12:24.000Z</time>
        <extensions>
          <ns3:TrackPointExtension>
            <ns3:hr>135</ns3:hr>
            <ns3:cad>56</ns3:cad>
          </ns3:TrackPointExtension>
        </extensions>
      </trkpt>
      <trkpt lat="56.02638431824743747711181640625" lon="24.1242738626897335052490234375">
        <ele>51.200000762939453125</ele>
        <time>2026-08-01T10:12:33.000Z</time>
        <extensions>
          <ns3:TrackPointExtension>
            <ns3:hr>135</ns3:hr>
            <ns3:cad>57</ns3:cad>
          </ns3:TrackPointExtension>
        </extensions>
      </trkpt>
      <trkpt lat="56.026440560817718505859375" lon="24.1240760497748851776123046875">
        <ele>51.59999847412109375</ele>
        <time>2026-08-01T10:12:42.000Z</time>
        <extensions>
          <ns3:TrackPointExtension>
            <ns3:hr>135</ns3:hr>
            <ns3:cad>57</ns3:cad>
          </ns3:TrackPointExtension>
        </extensions>
      </trkpt>
      <trkpt lat="56.0264725796878337860107421875" lon="24.12395442835986614227294921875">
        <ele>51.40000152587890625</ele>
        <time>2026-08-01T10:12:48.000Z</time>
        <extensions>
          <ns3:TrackPointExtension>
            <ns3:hr>135</ns3:hr>
            <ns3:cad>58</ns3:cad>
          </ns3:TrackPointExtension>
        </extensions>
      </trkpt>
      <trkpt lat="56.02651859633624553680419921875" lon="24.12371990270912647247314453125">
        <ele>51.40000152587890625</ele>
        <time>2026-08-01T10:12:58.000Z</time>
        <extensions>
          <ns3:TrackPointExtension>
            <ns3:hr>135</ns3:hr>
            <ns3:cad>59</ns3:cad>
          </ns3:TrackPointExtension>
        </extensions>
      </trkpt>
      <trkpt lat="56.02656519971787929534912109375" lon="24.12352946586906909942626953125">
        <ele>51.59999847412109375</ele>
        <time>2026-08-01T10:13:06.000Z</time>
        <extensions>
          <ns3:TrackPointExtension>
            <ns3:hr>132</ns3:hr>
            <ns3:cad>58</ns3:cad>
          </ns3:TrackPointExtension>
        </extensions>
      </trkpt>
      <trkpt lat="56.0265706479549407958984375" lon="24.1235047392547130584716796875">
        <ele>51.59999847412109375</ele>
        <time>2026-08-01T10:13:07.000Z</time>
        <extensions>
          <ns3:TrackPointExtension>
            <ns3:hr>132</ns3:hr>
            <ns3:cad>58</ns3:cad>
          </ns3:TrackPointExtension>
        </extensions>
      </trkpt>
      <trkpt lat="56.02660526521503925323486328125" lon="24.12332058884203433990478515625">
        <ele>52.200000762939453125</ele>
        <time>2026-08-01T10:13:15.000Z</time>
        <extensions>
          <ns3:TrackPointExtension>
            <ns3:hr>132</ns3:hr>
            <ns3:cad>57</ns3:cad>
          </ns3:TrackPointExtension>
        </extensions>
      </trkpt>
      <trkpt lat="56.02664918638765811920166015625" lon="24.123109616339206695556640625">
        <ele>52</ele>
        <time>2026-08-01T10:13:23.000Z</time>
        <extensions>
          <ns3:TrackPointExtension>
            <ns3:hr>132</ns3:hr>
            <ns3:cad>57</ns3:cad>
          </ns3:TrackPointExtension>
        </extensions>
      </trkpt>
      <trkpt lat="56.0266730748116970062255859375" lon="24.12296586669981479644775390625">
        <ele>52.200000762939453125</ele>
        <time>2026-08-01T10:13:30.000Z</time>
        <extensions>
          <ns3:TrackPointExtension>
            <ns3:hr>133</ns3:hr>
            <ns3:cad>58</ns3:cad>
          </ns3:TrackPointExtension>
        </extensions>
      </trkpt>
      <trkpt lat="56.026713810861110687255859375" lon="24.1227765195071697235107421875">
        <ele>52.40000152587890625</ele>
        <time>2026-08-01T10:13:37.000Z</time>
        <extensions>
          <ns3:TrackPointExtension>
            <ns3:hr>133</ns3:hr>
            <ns3:cad>59</ns3:cad>
          </ns3:TrackPointExtension>
        </extensions>
      </trkpt>
      <trkpt lat="56.026734597980976104736328125" lon="24.1226849891245365142822265625">
        <ele>52.59999847412109375</ele>
        <time>2026-08-01T10:13:42.000Z</time>
        <extensions>
          <ns3:TrackPointExtension>
            <ns3:hr>134</ns3:hr>
            <ns3:cad>59</ns3:cad>
          </ns3:TrackPointExtension>
        </extensions>
      </trkpt>
      <trkpt lat="56.02673904038965702056884765625" lon="24.1226635314524173736572265625">
        <ele>52.59999847412109375</ele>
        <time>2026-08-01T10:13:43.000Z</time>
        <extensions>
          <ns3:TrackPointExtension>
            <ns3:hr>134</ns3:hr>
            <ns3:cad>59</ns3:cad>
          </ns3:TrackPointExtension>
        </extensions>
      </trkpt>
      <trkpt lat="56.0267947800457477569580078125" lon="24.12242330610752105712890625">
        <ele>52.59999847412109375</ele>
        <time>2026-08-01T10:13:54.000Z</time>
        <extensions>
          <ns3:TrackPointExtension>
            <ns3:hr>135</ns3:hr>
            <ns3:cad>57</ns3:cad>
          </ns3:TrackPointExtension>
        </extensions>
      </trkpt>
      <trkpt lat="56.026845909655094146728515625" lon="24.12215935997664928436279296875">
        <ele>52.799999237060546875</ele>
        <time>2026-08-01T10:14:06.000Z</time>
        <extensions>
          <ns3:TrackPointExtension>
            <ns3:hr>134</ns3:hr>
            <ns3:cad>58</ns3:cad>
          </ns3:TrackPointExtension>
        </extensions>
      </trkpt>
      <trkpt lat="56.02688689716160297393798828125" lon="24.12197269499301910400390625">
        <ele>52.799999237060546875</ele>
        <time>2026-08-01T10:14:14.000Z</time>
        <extensions>
          <ns3:TrackPointExtension>
            <ns3:hr>134</ns3:hr>
            <ns3:cad>58</ns3:cad>
          </ns3:TrackPointExtension>
        </extensions>
      </trkpt>
      <trkpt lat="56.02692537009716033935546875" lon="24.12178066559135913848876953125">
        <ele>52.59999847412109375</ele>
        <time>2026-08-01T10:14:23.000Z</time>
        <extensions>
          <ns3:TrackPointExtension>
            <ns3:hr>134</ns3:hr>
            <ns3:cad>58</ns3:cad>
          </ns3:TrackPointExtension>
        </extensions>
      </trkpt>
      <trkpt lat="56.02695747278630733489990234375" lon="24.12159877829253673553466796875">
        <ele>53</ele>
        <time>2026-08-01T10:14:31.000Z</time>
        <extensions>
          <ns3:TrackPointExtension>
            <ns3:hr>132</ns3:hr>
            <ns3:cad>59</ns3:cad>
          </ns3:TrackPointExtension>
        </extensions>
      </trkpt>
      <trkpt lat="56.02700457908213138580322265625" lon="24.12138671614229679107666015625">
        <ele>53</ele>
        <time>2026-08-01T10:14:40.000Z</time>
        <extensions>
          <ns3:TrackPointExtension>
            <ns3:hr>131</ns3:hr>
            <ns3:cad>58</ns3:cad>
          </ns3:TrackPointExtension>
        </extensions>
      </trkpt>
      <trkpt lat="56.02705168537795543670654296875" lon="24.1210840456187725067138671875">
        <ele>53.200000762939453125</ele>
        <time>2026-08-01T10:14:52.000Z</time>
        <extensions>
          <ns3:TrackPointExtension>
            <ns3:hr>132</ns3:hr>
            <ns3:cad>57</ns3:cad>
          </ns3:TrackPointExtension>
        </extensions>
      </trkpt>
      <trkpt lat="56.0270593129098415374755859375" lon="24.1209727339446544647216796875">
        <ele>53.59999847412109375</ele>
        <time>2026-08-01T10:14:56.000Z</time>
        <extensions>
          <ns3:TrackPointExtension>
            <ns3:hr>133</ns3:hr>
            <ns3:cad>57</ns3:cad>
          </ns3:TrackPointExtension>
        </extensions>
      </trkpt>
      <trkpt lat="56.0270371846854686737060546875" lon="24.120866619050502777099609375">
        <ele>53.799999237060546875</ele>
        <time>2026-08-01T10:15:02.000Z</time>
        <extensions>
          <ns3:TrackPointExtension>
            <ns3:hr>134</ns3:hr>
            <ns3:cad>57</ns3:cad>
          </ns3:TrackPointExtension>
        </extensions>
      </trkpt>
      <trkpt lat="56.0269463248550891876220703125" lon="24.12074918858706951141357421875">
        <ele>53.799999237060546875</ele>
        <time>2026-08-01T10:15:10.000Z</time>
        <extensions>
          <ns3:TrackPointExtension>
            <ns3:hr>136</ns3:hr>
            <ns3:cad>56</ns3:cad>
          </ns3:TrackPointExtension>
        </extensions>
      </trkpt>
      <trkpt lat="56.0268306545913219451904296875" lon="24.12066637538373470306396484375">
        <ele>53.799999237060546875</ele>
        <time>2026-08-01T10:15:20.000Z</time>
        <extensions>
          <ns3:TrackPointExtension>
            <ns3:hr>138</ns3:hr>
            <ns3:cad>58</ns3:cad>
          </ns3:TrackPointExtension>
        </extensions>
      </trkpt>
      <trkpt lat="56.02670500986278057098388671875" lon="24.1205786168575286865234375">
        <ele>53.799999237060546875</ele>
        <time>2026-08-01T10:15:31.000Z</time>
        <extensions>
          <ns3:TrackPointExtension>
            <ns3:hr>137</ns3:hr>
            <ns3:cad>57</ns3:cad>
          </ns3:TrackPointExtension>
        </extensions>
      </trkpt>
      <trkpt lat="56.02656452916562557220458984375" lon="24.1205117292702198028564453125">
        <ele>53.59999847412109375</ele>
        <time>2026-08-01T10:15:43.000Z</time>
        <extensions>
          <ns3:TrackPointExtension>
            <ns3:hr>137</ns3:hr>
            <ns3:cad>56</ns3:cad>
          </ns3:TrackPointExtension>
        </extensions>
      </trkpt>
      <trkpt lat="56.0264320112764835357666015625" lon="24.1204178519546985626220703125">
        <ele>53.59999847412109375</ele>
        <time>2026-08-01T10:15:54.000Z</time>
        <extensions>
          <ns3:TrackPointExtension>
            <ns3:hr>134</ns3:hr>
            <ns3:cad>56</ns3:cad>
          </ns3:TrackPointExtension>
        </extensions>
      </trkpt>
      <trkpt lat="56.0264025069773197174072265625" lon="24.12040301598608493804931640625">
        <ele>53.59999847412109375</ele>
        <time>2026-08-01T10:15:56.000Z</time>
        <extensions>
          <ns3:TrackPointExtension>
            <ns3:hr>134</ns3:hr>
            <ns3:cad>56</ns3:cad>
          </ns3:TrackPointExtension>
        </extensions>
      </trkpt>
      <trkpt lat="56.02634592913091182708740234375" lon="24.12037569098174571990966796875">
        <ele>53.799999237060546875</ele>
        <time>2026-08-01T10:16:05.000Z</time>
        <extensions>
          <ns3:TrackPointExtension>
            <ns3:hr>133</ns3:hr>
            <ns3:cad>0</ns3:cad>
          </ns3:TrackPointExtension>
        </extensions>
      </trkpt>
      <trkpt lat="56.02631508372724056243896484375" lon="24.1203554905951023101806640625">
        <ele>53.40000152587890625</ele>
        <time>2026-08-01T10:16:13.000Z</time>
        <extensions>
          <ns3:TrackPointExtension>
            <ns3:hr>131</ns3:hr>
            <ns3:cad>0</ns3:cad>
          </ns3:TrackPointExtension>
        </extensions>
      </trkpt>
      <trkpt lat="56.0262710787355899810791015625" lon="24.12031265906989574432373046875">
        <ele>53.40000152587890625</ele>
        <time>2026-08-01T10:16:18.000Z</time>
        <extensions>
          <ns3:TrackPointExtension>
            <ns3:hr>134</ns3:hr>
            <ns3:cad>0</ns3:cad>
          </ns3:TrackPointExtension>
        </extensions>
      </trkpt>
      <trkpt lat="56.02622221224009990692138671875" lon="24.12026706151664257049560546875">
        <ele>53.40000152587890625</ele>
        <time>2026-08-01T10:16:23.000Z</time>
        <extensions>
          <ns3:TrackPointExtension>
            <ns3:hr>136</ns3:hr>
            <ns3:cad>55</ns3:cad>
          </ns3:TrackPointExtension>
        </extensions>
      </trkpt>
      <trkpt lat="56.026118695735931396484375" lon="24.12020134739577770233154296875">
        <ele>53.40000152587890625</ele>
        <time>2026-08-01T10:16:32.000Z</time>
        <extensions>
          <ns3:TrackPointExtension>
            <ns3:hr>134</ns3:hr>
            <ns3:cad>55</ns3:cad>
          </ns3:TrackPointExtension>
        </extensions>
      </trkpt>
      <trkpt lat="56.0260685719549655914306640625" lon="24.120177961885929107666015625">
        <ele>53.59999847412109375</ele>
        <time>2026-08-01T10:16:36.000Z</time>
        <extensions>
          <ns3:TrackPointExtension>
            <ns3:hr>130</ns3:hr>
            <ns3:cad>56</ns3:cad>
          </ns3:TrackPointExtension>
        </extensions>
      </trkpt>
      <trkpt lat="56.026023812592029571533203125" lon="24.1201492957770824432373046875">
        <ele>53.40000152587890625</ele>
        <time>2026-08-01T10:16:40.000Z</time>
        <extensions>
          <ns3:TrackPointExtension>
            <ns3:hr>130</ns3:hr>
            <ns3:cad>57</ns3:cad>
          </ns3:TrackPointExtension>
        </extensions>
      </trkpt>
      <trkpt lat="56.02590051479637622833251953125" lon="24.12007880397140979766845703125">
        <ele>54</ele>
        <time>2026-08-01T10:16:50.000Z</time>
        <extensions>
          <ns3:TrackPointExtension>
            <ns3:hr>129</ns3:hr>
            <ns3:cad>57</ns3:cad>
          </ns3:TrackPointExtension>
        </extensions>
      </trkpt>
      <trkpt lat="56.02577461861073970794677734375" lon="24.12000806070864200592041015625">
        <ele>54</ele>
        <time>2026-08-01T10:17:00.000Z</time>
        <extensions>
          <ns3:TrackPointExtension>
            <ns3:hr>126</ns3:hr>
            <ns3:cad>58</ns3:cad>
          </ns3:TrackPointExtension>
        </extensions>
      </trkpt>
      <trkpt lat="56.02576355449855327606201171875" lon="24.1200024448335170745849609375">
        <ele>54</ele>
        <time>2026-08-01T10:17:01.000Z</time>
        <extensions>
          <ns3:TrackPointExtension>
            <ns3:hr>126</ns3:hr>
            <ns3:cad>57</ns3:cad>
          </ns3:TrackPointExtension>
        </extensions>
      </trkpt>
      <trkpt lat="56.02572952397167682647705078125" lon="24.1199819929897785186767578125">
        <ele>54.200000762939453125</ele>
        <time>2026-08-01T10:17:04.000Z</time>
        <extensions>
          <ns3:TrackPointExtension>
            <ns3:hr>129</ns3:hr>
            <ns3:cad>56</ns3:cad>
          </ns3:TrackPointExtension>
        </extensions>
      </trkpt>
      <trkpt lat="56.02565467357635498046875" lon="24.11993279121816158294677734375">
        <ele>54.40000152587890625</ele>
        <time>2026-08-01T10:17:10.000Z</time>
        <extensions>
          <ns3:TrackPointExtension>
            <ns3:hr>128</ns3:hr>
            <ns3:cad>56</ns3:cad>
          </ns3:TrackPointExtension>
        </extensions>
      </trkpt>
      <trkpt lat="56.02558904327452182769775390625" lon="24.1198874451220035552978515625">
        <ele>54.59999847412109375</ele>
        <time>2026-08-01T10:17:16.000Z</time>
        <extensions>
          <ns3:TrackPointExtension>
            <ns3:hr>126</ns3:hr>
            <ns3:cad>56</ns3:cad>
          </ns3:TrackPointExtension>
        </extensions>
      </trkpt>
      <trkpt lat="56.02555249817669391632080078125" lon="24.1198576055467128753662109375">
        <ele>54.799999237060546875</ele>
        <time>2026-08-01T10:17:20.000Z</time>
        <extensions>
          <ns3:TrackPointExtension>
            <ns3:hr>127</ns3:hr>
            <ns3:cad>56</ns3:cad>
          </ns3:TrackPointExtension>
        </extensions>
      </trkpt>
      <trkpt lat="56.0254355706274509429931640625" lon="24.1197818331420421600341796875">
        <ele>55.200000762939453125</ele>
        <time>2026-08-01T10:17:29.000Z</time>
        <extensions>
          <ns3:TrackPointExtension>
            <ns3:hr>126</ns3:hr>
            <ns3:cad>56</ns3:cad>
          </ns3:TrackPointExtension>
        </extensions>
      </trkpt>
      <trkpt lat="56.02531126700341701507568359375" lon="24.11971469409763813018798828125">
        <ele>55.40000152587890625</ele>
        <time>2026-08-01T10:17:39.000Z</time>
        <extensions>
          <ns3:TrackPointExtension>
            <ns3:hr>127</ns3:hr>
            <ns3:cad>58</ns3:cad>
          </ns3:TrackPointExtension>
        </extensions>
      </trkpt>
      <trkpt lat="56.0252354107797145843505859375" lon="24.1196510754525661468505859375">
        <ele>55.40000152587890625</ele>
        <time>2026-08-01T10:17:46.000Z</time>
        <extensions>
          <ns3:TrackPointExtension>
            <ns3:hr>129</ns3:hr>
            <ns3:cad>55</ns3:cad>
          </ns3:TrackPointExtension>
        </extensions>
      </trkpt>
      <trkpt lat="56.02513491176068782806396484375" lon="24.11956901662051677703857421875">
        <ele>55.40000152587890625</ele>
        <time>2026-08-01T10:17:54.000Z</time>
        <extensions>
          <ns3:TrackPointExtension>
            <ns3:hr>128</ns3:hr>
            <ns3:cad>57</ns3:cad>
          </ns3:TrackPointExtension>
        </extensions>
      </trkpt>
      <trkpt lat="56.02502636611461639404296875" lon="24.11947363056242465972900390625">
        <ele>55.40000152587890625</ele>
        <time>2026-08-01T10:18:04.000Z</time>
        <extensions>
          <ns3:TrackPointExtension>
            <ns3:hr>128</ns3:hr>
            <ns3:cad>57</ns3:cad>
          </ns3:TrackPointExtension>
        </extensions>
      </trkpt>
      <trkpt lat="56.024937517940998077392578125" lon="24.11940322257578372955322265625">
        <ele>55.40000152587890625</ele>
        <time>2026-08-01T10:18:11.000Z</time>
        <extensions>
          <ns3:TrackPointExtension>
            <ns3:hr>129</ns3:hr>
            <ns3:cad>57</ns3:cad>
          </ns3:TrackPointExtension>
        </extensions>
      </trkpt>
      <trkpt lat="56.02481405250728130340576171875" lon="24.11934236995875835418701171875">
        <ele>55.200000762939453125</ele>
        <time>2026-08-01T10:18:20.000Z</time>
        <extensions>
          <ns3:TrackPointExtension>
            <ns3:hr>128</ns3:hr>
            <ns3:cad>57</ns3:cad>
          </ns3:TrackPointExtension>
        </extensions>
      </trkpt>
      <trkpt lat="56.02468899451196193695068359375" lon="24.11926358006894588470458984375">
        <ele>55</ele>
        <time>2026-08-01T10:18:30.000Z</time>
        <extensions>
          <ns3:TrackPointExtension>
            <ns3:hr>127</ns3:hr>
            <ns3:cad>57</ns3:cad>
          </ns3:TrackPointExtension>
        </extensions>
      </trkpt>
      <trkpt lat="56.0245125554502010345458984375" lon="24.11915143020451068878173828125">
        <ele>54.799999237060546875</ele>
        <time>2026-08-01T10:18:45.000Z</time>
        <extensions>
          <ns3:TrackPointExtension>
            <ns3:hr>127</ns3:hr>
            <ns3:cad>56</ns3:cad>
          </ns3:TrackPointExtension>
        </extensions>
      </trkpt>
      <trkpt lat="56.024426557123661041259765625" lon="24.11909309215843677520751953125">
        <ele>54.799999237060546875</ele>
        <time>2026-08-01T10:18:52.000Z</time>
        <extensions>
          <ns3:TrackPointExtension>
            <ns3:hr>128</ns3:hr>
            <ns3:cad>56</ns3:cad>
          </ns3:TrackPointExtension>
        </extensions>
      </trkpt>
      <trkpt lat="56.024318598210811614990234375" lon="24.11901882849633693695068359375">
        <ele>54.59999847412109375</ele>
        <time>2026-08-01T10:19:01.000Z</time>
        <extensions>
          <ns3:TrackPointExtension>
            <ns3:hr>129</ns3:hr>
            <ns3:cad>57</ns3:cad>
          </ns3:TrackPointExtension>
        </extensions>
      </trkpt>
      <trkpt lat="56.02421307004988193511962890625" lon="24.1189302317798137664794921875">
        <ele>54.40000152587890625</ele>
        <time>2026-08-01T10:19:10.000Z</time>
        <extensions>
          <ns3:TrackPointExtension>
            <ns3:hr>125</ns3:hr>
            <ns3:cad>57</ns3:cad>
          </ns3:TrackPointExtension>
        </extensions>
      </trkpt>
      <trkpt lat="56.02419580332934856414794921875" lon="24.118929393589496612548828125">
        <ele>54.40000152587890625</ele>
        <time>2026-08-01T10:19:11.000Z</time>
        <extensions>
          <ns3:TrackPointExtension>
            <ns3:hr>125</ns3:hr>
            <ns3:cad>57</ns3:cad>
          </ns3:TrackPointExtension>
        </extensions>
      </trkpt>
      <trkpt lat="56.02410092018544673919677734375" lon="24.118848256766796112060546875">
        <ele>54.59999847412109375</ele>
        <time>2026-08-01T10:19:19.000Z</time>
        <extensions>
          <ns3:TrackPointExtension>
            <ns3:hr>126</ns3:hr>
            <ns3:cad>56</ns3:cad>
          </ns3:TrackPointExtension>
        </extensions>
      </trkpt>
      <trkpt lat="56.023965217173099517822265625" lon="24.11876485683023929595947265625">
        <ele>54.40000152587890625</ele>
        <time>2026-08-01T10:19:30.000Z</time>
        <extensions>
          <ns3:TrackPointExtension>
            <ns3:hr>126</ns3:hr>
            <ns3:cad>57</ns3:cad>
          </ns3:TrackPointExtension>
        </extensions>
      </trkpt>
      <trkpt lat="56.02388785220682621002197265625" lon="24.118721187114715576171875">
        <ele>54.59999847412109375</ele>
        <time>2026-08-01T10:19:36.000Z</time>
        <extensions>
          <ns3:TrackPointExtension>
            <ns3:hr>126</ns3:hr>
            <ns3:cad>57</ns3:cad>
          </ns3:TrackPointExtension>
        </extensions>
      </trkpt>
      <trkpt lat="56.023786850273609161376953125" lon="24.1186529584228992462158203125">
        <ele>54.40000152587890625</ele>
        <time>2026-08-01T10:19:44.000Z</time>
        <extensions>
          <ns3:TrackPointExtension>
            <ns3:hr>126</ns3:hr>
            <ns3:cad>58</ns3:cad>
          </ns3:TrackPointExtension>
        </extensions>
      </trkpt>
      <trkpt lat="56.02369808591902256011962890625" lon="24.11857743747532367706298828125">
        <ele>54.40000152587890625</ele>
        <time>2026-08-01T10:19:52.000Z</time>
        <extensions>
          <ns3:TrackPointExtension>
            <ns3:hr>126</ns3:hr>
            <ns3:cad>57</ns3:cad>
          </ns3:TrackPointExtension>
        </extensions>
      </trkpt>
      <trkpt lat="56.023592390120029449462890625" lon="24.11849864758551120758056640625">
        <ele>54.200000762939453125</ele>
        <time>2026-08-01T10:20:01.000Z</time>
        <extensions>
          <ns3:TrackPointExtension>
            <ns3:hr>126</ns3:hr>
            <ns3:cad>57</ns3:cad>
          </ns3:TrackPointExtension>
        </extensions>
      </trkpt>
      <trkpt lat="56.0234861075878143310546875" lon="24.11842606030404567718505859375">
        <ele>54.40000152587890625</ele>
        <time>2026-08-01T10:20:09.000Z</time>
        <extensions>
          <ns3:TrackPointExtension>
            <ns3:hr>129</ns3:hr>
            <ns3:cad>56</ns3:cad>
          </ns3:TrackPointExtension>
        </extensions>
      </trkpt>
      <trkpt lat="56.023353673517704010009765625" lon="24.1183451749384403228759765625">
        <ele>54.200000762939453125</ele>
        <time>2026-08-01T10:20:19.000Z</time>
        <extensions>
          <ns3:TrackPointExtension>
            <ns3:hr>129</ns3:hr>
            <ns3:cad>58</ns3:cad>
          </ns3:TrackPointExtension>
        </extensions>
      </trkpt>
      <trkpt lat="56.02326340042054653167724609375" lon="24.11828256212174892425537109375">
        <ele>54.200000762939453125</ele>
        <time>2026-08-01T10:20:27.000Z</time>
        <extensions>
          <ns3:TrackPointExtension>
            <ns3:hr>127</ns3:hr>
            <ns3:cad>57</ns3:cad>
          </ns3:TrackPointExtension>
        </extensions>
      </trkpt>
      <trkpt lat="56.0231684334576129913330078125" lon="24.1182117350399494171142578125">
        <ele>54.200000762939453125</ele>
        <time>2026-08-01T10:20:34.000Z</time>
        <extensions>
          <ns3:TrackPointExtension>
            <ns3:hr>125</ns3:hr>
            <ns3:cad>56</ns3:cad>
          </ns3:TrackPointExtension>
        </extensions>
      </trkpt>
      <trkpt lat="56.0230621509253978729248046875" lon="24.118136800825595855712890625">
        <ele>54.200000762939453125</ele>
        <time>2026-08-01T10:20:43.000Z</time>
        <extensions>
          <ns3:TrackPointExtension>
            <ns3:hr>126</ns3:hr>
            <ns3:cad>57</ns3:cad>
          </ns3:TrackPointExtension>
        </extensions>
      </trkpt>
      <trkpt lat="56.022978164255619049072265625" lon="24.1180756129324436187744140625">
        <ele>54.200000762939453125</ele>
        <time>2026-08-01T10:20:50.000Z</time>
        <extensions>
          <ns3:TrackPointExtension>
            <ns3:hr>129</ns3:hr>
            <ns3:cad>57</ns3:cad>
          </ns3:TrackPointExtension>
        </extensions>
      </trkpt>
      <trkpt lat="56.022882275283336639404296875" lon="24.11800344474613666534423828125">
        <ele>54.40000152587890625</ele>
        <time>2026-08-01T10:20:58.000Z</time>
        <extensions>
          <ns3:TrackPointExtension>
            <ns3:hr>128</ns3:hr>
            <ns3:cad>57</ns3:cad>
          </ns3:TrackPointExtension>
        </extensions>
      </trkpt>
      <trkpt lat="56.02283097803592681884765625" lon="24.11797192879021167755126953125">
        <ele>54.40000152587890625</ele>
        <time>2026-08-01T10:21:02.000Z</time>
        <extensions>
          <ns3:TrackPointExtension>
            <ns3:hr>125</ns3:hr>
            <ns3:cad>57</ns3:cad>
          </ns3:TrackPointExtension>
        </extensions>
      </trkpt>
      <trkpt lat="56.02274506352841854095458984375" lon="24.117920882999897003173828125">
        <ele>54.40000152587890625</ele>
        <time>2026-08-01T10:21:09.000Z</time>
        <extensions>
          <ns3:TrackPointExtension>
            <ns3:hr>127</ns3:hr>
            <ns3:cad>57</ns3:cad>
          </ns3:TrackPointExtension>
        </extensions>
      </trkpt>
      <trkpt lat="56.0226682014763355255126953125" lon="24.11777797155082225799560546875">
        <ele>54.40000152587890625</ele>
        <time>2026-08-01T10:21:17.000Z</time>
        <extensions>
          <ns3:TrackPointExtension>
            <ns3:hr>128</ns3:hr>
            <ns3:cad>57</ns3:cad>
          </ns3:TrackPointExtension>
        </extensions>
      </trkpt>
      <trkpt lat="56.02269846014678478240966796875" lon="24.11761351861059665679931640625">
        <ele>54.200000762939453125</ele>
        <time>2026-08-01T10:21:23.000Z</time>
        <extensions>
          <ns3:TrackPointExtension>
            <ns3:hr>127</ns3:hr>
            <ns3:cad>57</ns3:cad>
          </ns3:TrackPointExtension>
        </extensions>
      </trkpt>
      <trkpt lat="56.0227419622242450714111328125" lon="24.11743749864399433135986328125">
        <ele>54.40000152587890625</ele>
        <time>2026-08-01T10:21:30.000Z</time>
        <extensions>
          <ns3:TrackPointExtension>
            <ns3:hr>130</ns3:hr>
            <ns3:cad>58</ns3:cad>
          </ns3:TrackPointExtension>
        </extensions>
      </trkpt>
      <trkpt lat="56.02274573408067226409912109375" lon="24.11741889081895351409912109375">
        <ele>54.40000152587890625</ele>
        <time>2026-08-01T10:21:31.000Z</time>
        <extensions>
          <ns3:TrackPointExtension>
            <ns3:hr>130</ns3:hr>
            <ns3:cad>59</ns3:cad>
          </ns3:TrackPointExtension>
        </extensions>
      </trkpt>
      <trkpt lat="56.02277657948434352874755859375" lon="24.117240607738494873046875">
        <ele>54.200000762939453125</ele>
        <time>2026-08-01T10:21:39.000Z</time>
        <extensions>
          <ns3:TrackPointExtension>
            <ns3:hr>131</ns3:hr>
            <ns3:cad>56</ns3:cad>
          </ns3:TrackPointExtension>
        </extensions>
      </trkpt>
      <trkpt lat="56.0227929241955280303955078125" lon="24.11714899353682994842529296875">
        <ele>54.200000762939453125</ele>
        <time>2026-08-01T10:21:43.000Z</time>
        <extensions>
          <ns3:TrackPointExtension>
            <ns3:hr>128</ns3:hr>
            <ns3:cad>56</ns3:cad>
          </ns3:TrackPointExtension>
        </extensions>
      </trkpt>
      <trkpt lat="56.022819578647613525390625" lon="24.11702728830277919769287109375">
        <ele>54.200000762939453125</ele>
        <time>2026-08-01T10:21:48.000Z</time>
        <extensions>
          <ns3:TrackPointExtension>
            <ns3:hr>127</ns3:hr>
            <ns3:cad>56</ns3:cad>
          </ns3:TrackPointExtension>
        </extensions>
      </trkpt>
      <trkpt lat="56.022863499820232391357421875" lon="24.116879515349864959716796875">
        <ele>54.200000762939453125</ele>
        <time>2026-08-01T10:21:55.000Z</time>
        <extensions>
          <ns3:TrackPointExtension>
            <ns3:hr>128</ns3:hr>
            <ns3:cad>58</ns3:cad>
          </ns3:TrackPointExtension>
        </extensions>
      </trkpt>
      <trkpt lat="56.02289275266230106353759765625" lon="24.1167269647121429443359375">
        <ele>54</ele>
        <time>2026-08-01T10:22:03.000Z</time>
        <extensions>
          <ns3:TrackPointExtension>
            <ns3:hr>129</ns3:hr>
            <ns3:cad>57</ns3:cad>
          </ns3:TrackPointExtension>
        </extensions>
      </trkpt>
      <trkpt lat="56.02291940711438655853271484375" lon="24.1165558062493801116943359375">
        <ele>54</ele>
        <time>2026-08-01T10:22:10.000Z</time>
        <extensions>
          <ns3:TrackPointExtension>
            <ns3:hr>129</ns3:hr>
            <ns3:cad>58</ns3:cad>
          </ns3:TrackPointExtension>
        </extensions>
      </trkpt>
      <trkpt lat="56.022972799837589263916015625" lon="24.11640300415456295013427734375">
        <ele>54</ele>
        <time>2026-08-01T10:22:17.000Z</time>
        <extensions>
          <ns3:TrackPointExtension>
            <ns3:hr>129</ns3:hr>
            <ns3:cad>57</ns3:cad>
          </ns3:TrackPointExtension>
        </extensions>
      </trkpt>
      <trkpt lat="56.023000963032245635986328125" lon="24.116229079663753509521484375">
        <ele>53.799999237060546875</ele>
        <time>2026-08-01T10:22:25.000Z</time>
        <extensions>
          <ns3:TrackPointExtension>
            <ns3:hr>129</ns3:hr>
            <ns3:cad>58</ns3:cad>
          </ns3:TrackPointExtension>
        </extensions>
      </trkpt>
      <trkpt lat="56.0230225883424282073974609375" lon="24.11607845686376094818115234375">
        <ele>53.59999847412109375</ele>
        <time>2026-08-01T10:22:32.000Z</time>
        <extensions>
          <ns3:TrackPointExtension>
            <ns3:hr>128</ns3:hr>
            <ns3:cad>58</ns3:cad>
          </ns3:TrackPointExtension>
        </extensions>
      </trkpt>
      <trkpt lat="56.02303356863558292388916015625" lon="24.11603453569114208221435546875">
        <ele>53.59999847412109375</ele>
        <time>2026-08-01T10:22:34.000Z</time>
        <extensions>
          <ns3:TrackPointExtension>
            <ns3:hr>127</ns3:hr>
            <ns3:cad>57</ns3:cad>
          </ns3:TrackPointExtension>
        </extensions>
      </trkpt>
      <trkpt lat="56.023072712123394012451171875" lon="24.1158686578273773193359375">
        <ele>53.40000152587890625</ele>
        <time>2026-08-01T10:22:41.000Z</time>
        <extensions>
          <ns3:TrackPointExtension>
            <ns3:hr>127</ns3:hr>
            <ns3:cad>58</ns3:cad>
          </ns3:TrackPointExtension>
        </extensions>
      </trkpt>
      <trkpt lat="56.02312442846596240997314453125" lon="24.115683250129222869873046875">
        <ele>53.200000762939453125</ele>
        <time>2026-08-01T10:22:49.000Z</time>
        <extensions>
          <ns3:TrackPointExtension>
            <ns3:hr>130</ns3:hr>
            <ns3:cad>57</ns3:cad>
          </ns3:TrackPointExtension>
        </extensions>
      </trkpt>
      <trkpt lat="56.02313213981688022613525390625" lon="24.11563857458531856536865234375">
        <ele>53.200000762939453125</ele>
        <time>2026-08-01T10:22:51.000Z</time>
        <extensions>
          <ns3:TrackPointExtension>
            <ns3:hr>130</ns3:hr>
            <ns3:cad>57</ns3:cad>
          </ns3:TrackPointExtension>
        </extensions>
      </trkpt>
      <trkpt lat="56.02316818200051784515380859375" lon="24.11549113690853118896484375">
        <ele>53</ele>
        <time>2026-08-01T10:22:58.000Z</time>
        <extensions>
          <ns3:TrackPointExtension>
            <ns3:hr>128</ns3:hr>
            <ns3:cad>57</ns3:cad>
          </ns3:TrackPointExtension>
        </extensions>
      </trkpt>
      <trkpt lat="56.0231992788612842559814453125" lon="24.11547630093991756439208984375">
        <ele>52.799999237060546875</ele>
        <time>2026-08-01T10:23:03.000Z</time>
        <extensions>
          <ns3:TrackPointExtension>
            <ns3:hr>128</ns3:hr>
            <ns3:cad>56</ns3:cad>
          </ns3:TrackPointExtension>
        </extensions>
      </trkpt>
      <trkpt lat="56.02319718338549137115478515625" lon="24.11547093652188777923583984375">
        <ele>52.59999847412109375</ele>
        <time>2026-08-01T10:23:05.000Z</time>
        <extensions>
          <ns3:TrackPointExtension>
            <ns3:hr>129</ns3:hr>
            <ns3:cad>56</ns3:cad>
          </ns3:TrackPointExtension>
        </extensions>
      </trkpt>
      <trkpt lat="56.02319450117647647857666015625" lon="24.115462638437747955322265625">
        <ele>52.59999847412109375</ele>
        <time>2026-08-01T10:23:06.000Z</time>
        <extensions>
          <ns3:TrackPointExtension>
            <ns3:hr>129</ns3:hr>
            <ns3:cad>0</ns3:cad>
          </ns3:TrackPointExtension>
        </extensions>
      </trkpt>
      <trkpt lat="56.02318461053073406219482421875" lon="24.11544285714626312255859375">
        <ele>52.59999847412109375</ele>
        <time>2026-08-01T10:23:07.000Z</time>
        <extensions>
          <ns3:TrackPointExtension>
            <ns3:hr>131</ns3:hr>
            <ns3:cad>48</ns3:cad>
          </ns3:TrackPointExtension>
        </extensions>
      </trkpt>
      <trkpt lat="56.02318293415009975433349609375" lon="24.1153484769165515899658203125">
        <ele>53</ele>
        <time>2026-08-01T10:23:11.000Z</time>
        <extensions>
          <ns3:TrackPointExtension>
            <ns3:hr>134</ns3:hr>
            <ns3:cad>48</ns3:cad>
          </ns3:TrackPointExtension>
        </extensions>
      </trkpt>
      <trkpt lat="56.02318813093006610870361328125" lon="24.1153209842741489410400390625">
        <ele>53</ele>
        <time>2026-08-01T10:23:12.000Z</time>
        <extensions>
          <ns3:TrackPointExtension>
            <ns3:hr>134</ns3:hr>
            <ns3:cad>0</ns3:cad>
          </ns3:TrackPointExtension>
        </extensions>
      </trkpt>
      <trkpt lat="56.0232318006455898284912109375" lon="24.11517371423542499542236328125">
        <ele>52.799999237060546875</ele>
        <time>2026-08-01T10:23:19.000Z</time>
        <extensions>
          <ns3:TrackPointExtension>
            <ns3:hr>137</ns3:hr>
            <ns3:cad>57</ns3:cad>
          </ns3:TrackPointExtension>
        </extensions>
      </trkpt>
      <trkpt lat="56.023243702948093414306640625" lon="24.11512677557766437530517578125">
        <ele>53</ele>
        <time>2026-08-01T10:23:21.000Z</time>
        <extensions>
          <ns3:TrackPointExtension>
            <ns3:hr>137</ns3:hr>
            <ns3:cad>59</ns3:cad>
          </ns3:TrackPointExtension>
        </extensions>
      </trkpt>
      <trkpt lat="56.02328427135944366455078125" lon="24.11493365652859210968017578125">
        <ele>52.799999237060546875</ele>
        <time>2026-08-01T10:23:29.000Z</time>
        <extensions>
          <ns3:TrackPointExtension>
            <ns3:hr>137</ns3:hr>
            <ns3:cad>58</ns3:cad>
          </ns3:TrackPointExtension>
        </extensions>
      </trkpt>
      <trkpt lat="56.0233015380799770355224609375" lon="24.11484547890722751617431640625">
        <ele>52.799999237060546875</ele>
        <time>2026-08-01T10:23:33.000Z</time>
        <extensions>
          <ns3:TrackPointExtension>
            <ns3:hr>134</ns3:hr>
            <ns3:cad>57</ns3:cad>
          </ns3:TrackPointExtension>
        </extensions>
      </trkpt>
      <trkpt lat="56.0233119316399097442626953125" lon="24.11478445865213871002197265625">
        <ele>52.799999237060546875</ele>
        <time>2026-08-01T10:23:36.000Z</time>
        <extensions>
          <ns3:TrackPointExtension>
            <ns3:hr>133</ns3:hr>
            <ns3:cad>57</ns3:cad>
          </ns3:TrackPointExtension>
        </extensions>
      </trkpt>
      <trkpt lat="56.02333732880651950836181640625" lon="24.1146316565573215484619140625">
        <ele>52.59999847412109375</ele>
        <time>2026-08-01T10:23:44.000Z</time>
        <extensions>
          <ns3:TrackPointExtension>
            <ns3:hr>132</ns3:hr>
            <ns3:cad>57</ns3:cad>
          </ns3:TrackPointExtension>
        </extensions>
      </trkpt>
      <trkpt lat="56.023371107876300811767578125" lon="24.11449025385081768035888671875">
        <ele>52.59999847412109375</ele>
        <time>2026-08-01T10:23:50.000Z</time>
        <extensions>
          <ns3:TrackPointExtension>
            <ns3:hr>131</ns3:hr>
            <ns3:cad>58</ns3:cad>
          </ns3:TrackPointExtension>
        </extensions>
      </trkpt>
      <trkpt lat="56.02341343648731708526611328125" lon="24.11432705819606781005859375">
        <ele>52.59999847412109375</ele>
        <time>2026-08-01T10:23:57.000Z</time>
        <extensions>
          <ns3:TrackPointExtension>
            <ns3:hr>130</ns3:hr>
            <ns3:cad>55</ns3:cad>
          </ns3:TrackPointExtension>
        </extensions>
      </trkpt>
      <trkpt lat="56.0234467126429080963134765625" lon="24.1142843104898929595947265625">
        <ele>52.40000152587890625</ele>
        <time>2026-08-01T10:24:03.000Z</time>
        <extensions>
          <ns3:TrackPointExtension>
            <ns3:hr>128</ns3:hr>
            <ns3:cad>56</ns3:cad>
          </ns3:TrackPointExtension>
        </extensions>
      </trkpt>
      <trkpt lat="56.0234641470015048980712890625" lon="24.114286489784717559814453125">
        <ele>52.200000762939453125</ele>
        <time>2026-08-01T10:24:07.000Z</time>
        <extensions>
          <ns3:TrackPointExtension>
            <ns3:hr>129</ns3:hr>
            <ns3:cad>0</ns3:cad>
          </ns3:TrackPointExtension>
        </extensions>
      </trkpt>
      <trkpt lat="56.02344629354774951934814453125" lon="24.11428741179406642913818359375">
        <ele>52.40000152587890625</ele>
        <time>2026-08-01T10:26:38.000Z</time>
        <extensions>
          <ns3:TrackPointExtension>
            <ns3:hr>118</ns3:hr>
            <ns3:cad>0</ns3:cad>
          </ns3:TrackPointExtension>
        </extensions>
      </trkpt>
      <trkpt lat="56.02343858219683170318603515625" lon="24.1142802871763706207275390625">
        <ele>52.40000152587890625</ele>
        <time>2026-08-01T10:26:39.000Z</time>
        <extensions>
          <ns3:TrackPointExtension>
            <ns3:hr>119</ns3:hr>
            <ns3:cad>0</ns3:cad>
          </ns3:TrackPointExtension>
        </extensions>
      </trkpt>
      <trkpt lat="56.023448221385478973388671875" lon="24.1141894273459911346435546875">
        <ele>53</ele>
        <time>2026-08-01T10:26:44.000Z</time>
        <extensions>
          <ns3:TrackPointExtension>
            <ns3:hr>119</ns3:hr>
            <ns3:cad>0</ns3:cad>
          </ns3:TrackPointExtension>
        </extensions>
      </trkpt>
      <trkpt lat="56.02348149754106998443603515625" lon="24.11404735408723354339599609375">
        <ele>53</ele>
        <time>2026-08-01T10:26:50.000Z</time>
        <extensions>
          <ns3:TrackPointExtension>
            <ns3:hr>120</ns3:hr>
            <ns3:cad>56</ns3:cad>
          </ns3:TrackPointExtension>
        </extensions>
      </trkpt>
      <trkpt lat="56.0235157795250415802001953125" lon="24.1138420812785625457763671875">
        <ele>53</ele>
        <time>2026-08-01T10:26:58.000Z</time>
        <extensions>
          <ns3:TrackPointExtension>
            <ns3:hr>121</ns3:hr>
            <ns3:cad>59</ns3:cad>
          </ns3:TrackPointExtension>
        </extensions>
      </trkpt>
      <trkpt lat="56.02356263436377048492431640625" lon="24.1135983355343341827392578125">
        <ele>52.799999237060546875</ele>
        <time>2026-08-01T10:27:08.000Z</time>
        <extensions>
          <ns3:TrackPointExtension>
            <ns3:hr>123</ns3:hr>
            <ns3:cad>58</ns3:cad>
          </ns3:TrackPointExtension>
        </extensions>
      </trkpt>
      <trkpt lat="56.02359850890934467315673828125" lon="24.11341820843517780303955078125">
        <ele>52.799999237060546875</ele>
        <time>2026-08-01T10:27:16.000Z</time>
        <extensions>
          <ns3:TrackPointExtension>
            <ns3:hr>126</ns3:hr>
            <ns3:cad>59</ns3:cad>
          </ns3:TrackPointExtension>
        </extensions>
      </trkpt>
      <trkpt lat="56.0236026160418987274169921875" lon="24.1133978404104709625244140625">
        <ele>52.799999237060546875</ele>
        <time>2026-08-01T10:27:17.000Z</time>
        <extensions>
          <ns3:TrackPointExtension>
            <ns3:hr>127</ns3:hr>
            <ns3:cad>59</ns3:cad>
          </ns3:TrackPointExtension>
        </extensions>
      </trkpt>
      <trkpt lat="56.0236089862883090972900390625" lon="24.1133555956184864044189453125">
        <ele>52.799999237060546875</ele>
        <time>2026-08-01T10:27:19.000Z</time>
        <extensions>
          <ns3:TrackPointExtension>
            <ns3:hr>131</ns3:hr>
            <ns3:cad>59</ns3:cad>
          </ns3:TrackPointExtension>
        </extensions>
      </trkpt>
      <trkpt lat="56.02362080477178096771240234375" lon="24.1132885403931140899658203125">
        <ele>52.799999237060546875</ele>
        <time>2026-08-01T10:27:22.000Z</time>
        <extensions>
          <ns3:TrackPointExtension>
            <ns3:hr>134</ns3:hr>
            <ns3:cad>59</ns3:cad>
          </ns3:TrackPointExtension>
        </extensions>
      </trkpt>
      <trkpt lat="56.0236552543938159942626953125" lon="24.11314487457275390625">
        <ele>52.799999237060546875</ele>
        <time>2026-08-01T10:27:28.000Z</time>
        <extensions>
          <ns3:TrackPointExtension>
            <ns3:hr>137</ns3:hr>
            <ns3:cad>58</ns3:cad>
          </ns3:TrackPointExtension>
        </extensions>
      </trkpt>
      <trkpt lat="56.02367185056209564208984375" lon="24.1130675934255123138427734375">
        <ele>52.799999237060546875</ele>
        <time>2026-08-01T10:27:31.000Z</time>
        <extensions>
          <ns3:TrackPointExtension>
            <ns3:hr>136</ns3:hr>
            <ns3:cad>59</ns3:cad>
          </ns3:TrackPointExtension>
        </extensions>
      </trkpt>
      <trkpt lat="56.02373211644589900970458984375" lon="24.11283910274505615234375">
        <ele>52.799999237060546875</ele>
        <time>2026-08-01T10:27:41.000Z</time>
        <extensions>
          <ns3:TrackPointExtension>
            <ns3:hr>135</ns3:hr>
            <ns3:cad>59</ns3:cad>
          </ns3:TrackPointExtension>
        </extensions>
      </trkpt>
      <trkpt lat="56.0237501375377178192138671875" lon="24.112793840467929840087890625">
        <ele>52.59999847412109375</ele>
        <time>2026-08-01T10:27:48.000Z</time>
        <extensions>
          <ns3:TrackPointExtension>
            <ns3:hr>135</ns3:hr>
            <ns3:cad>0</ns3:cad>
          </ns3:TrackPointExtension>
        </extensions>
      </trkpt>
      <trkpt lat="56.02377251721918582916259765625" lon="24.1126615740358829498291015625">
        <ele>53</ele>
        <time>2026-08-01T10:27:55.000Z</time>
        <extensions>
          <ns3:TrackPointExtension>
            <ns3:hr>136</ns3:hr>
            <ns3:cad>55</ns3:cad>
          </ns3:TrackPointExtension>
        </extensions>
      </trkpt>
      <trkpt lat="56.02381459437310695648193359375" lon="24.11242595873773097991943359375">
        <ele>52.59999847412109375</ele>
        <time>2026-08-01T10:28:05.000Z</time>
        <extensions>
          <ns3:TrackPointExtension>
            <ns3:hr>134</ns3:hr>
            <ns3:cad>59</ns3:cad>
          </ns3:TrackPointExtension>
        </extensions>
      </trkpt>
      <trkpt lat="56.0238436795771121978759765625" lon="24.11225027404725551605224609375">
        <ele>52.59999847412109375</ele>
        <time>2026-08-01T10:28:12.000Z</time>
        <extensions>
          <ns3:TrackPointExtension>
            <ns3:hr>132</ns3:hr>
            <ns3:cad>59</ns3:cad>
          </ns3:TrackPointExtension>
        </extensions>
      </trkpt>
      <trkpt lat="56.0238946415483951568603515625" lon="24.11206855438649654388427734375">
        <ele>52.40000152587890625</ele>
        <time>2026-08-01T10:28:20.000Z</time>
        <extensions>
          <ns3:TrackPointExtension>
            <ns3:hr>133</ns3:hr>
            <ns3:cad>58</ns3:cad>
          </ns3:TrackPointExtension>
        </extensions>
      </trkpt>
      <trkpt lat="56.02393202483654022216796875" lon="24.11190762184560298919677734375">
        <ele>52.59999847412109375</ele>
        <time>2026-08-01T10:28:27.000Z</time>
        <extensions>
          <ns3:TrackPointExtension>
            <ns3:hr>133</ns3:hr>
            <ns3:cad>60</ns3:cad>
          </ns3:TrackPointExtension>
        </extensions>
      </trkpt>
      <trkpt lat="56.0239667259156703948974609375" lon="24.111724980175495147705078125">
        <ele>52.40000152587890625</ele>
        <time>2026-08-01T10:28:35.000Z</time>
        <extensions>
          <ns3:TrackPointExtension>
            <ns3:hr>133</ns3:hr>
            <ns3:cad>59</ns3:cad>
          </ns3:TrackPointExtension>
        </extensions>
      </trkpt>
      <trkpt lat="56.0240223817527294158935546875" lon="24.111477546393871307373046875">
        <ele>52.40000152587890625</ele>
        <time>2026-08-01T10:28:45.000Z</time>
        <extensions>
          <ns3:TrackPointExtension>
            <ns3:hr>133</ns3:hr>
            <ns3:cad>59</ns3:cad>
          </ns3:TrackPointExtension>
        </extensions>
      </trkpt>
      <trkpt lat="56.02407912723720073699951171875" lon="24.11122240126132965087890625">
        <ele>52.59999847412109375</ele>
        <time>2026-08-01T10:28:56.000Z</time>
        <extensions>
          <ns3:TrackPointExtension>
            <ns3:hr>132</ns3:hr>
            <ns3:cad>59</ns3:cad>
          </ns3:TrackPointExtension>
        </extensions>
      </trkpt>
      <trkpt lat="56.0241058655083179473876953125" lon="24.1110703535377979278564453125">
        <ele>52.59999847412109375</ele>
        <time>2026-08-01T10:29:03.000Z</time>
        <extensions>
          <ns3:TrackPointExtension>
            <ns3:hr>134</ns3:hr>
            <ns3:cad>59</ns3:cad>
          </ns3:TrackPointExtension>
        </extensions>
      </trkpt>
      <trkpt lat="56.024101339280605316162109375" lon="24.11109005101025104522705078125">
        <ele>53.200000762939453125</ele>
        <time>2026-08-01T10:29:11.000Z</time>
        <extensions>
          <ns3:TrackPointExtension>
            <ns3:hr>134</ns3:hr>
            <ns3:cad>0</ns3:cad>
          </ns3:TrackPointExtension>
        </extensions>
      </trkpt>
      <trkpt lat="56.02410326711833477020263671875" lon="24.11109742708504199981689453125">
        <ele>53.200000762939453125</ele>
        <time>2026-08-01T10:29:13.000Z</time>
        <extensions>
          <ns3:TrackPointExtension>
            <ns3:hr>131</ns3:hr>
            <ns3:cad>0</ns3:cad>
          </ns3:TrackPointExtension>
        </extensions>
      </trkpt>
      <trkpt lat="56.02409698069095611572265625" lon="24.11104143597185611724853515625">
        <ele>52.799999237060546875</ele>
        <time>2026-08-01T10:29:18.000Z</time>
        <extensions>
          <ns3:TrackPointExtension>
            <ns3:hr>128</ns3:hr>
            <ns3:cad>53</ns3:cad>
          </ns3:TrackPointExtension>
        </extensions>
      </trkpt>
      <trkpt lat="56.02409429848194122314453125" lon="24.11103464663028717041015625">
        <ele>52.799999237060546875</ele>
        <time>2026-08-01T10:29:19.000Z</time>
        <extensions>
          <ns3:TrackPointExtension>
            <ns3:hr>128</ns3:hr>
            <ns3:cad>53</ns3:cad>
          </ns3:TrackPointExtension>
        </extensions>
      </trkpt>
      <trkpt lat="56.02408650331199169158935546875" lon="24.11103355698287487030029296875">
        <ele>52.59999847412109375</ele>
        <time>2026-08-01T10:29:29.000Z</time>
        <extensions>
          <ns3:TrackPointExtension>
            <ns3:hr>128</ns3:hr>
            <ns3:cad>0</ns3:cad>
          </ns3:TrackPointExtension>
        </extensions>
      </trkpt>
      <trkpt lat="56.0240951366722583770751953125" lon="24.11105685867369174957275390625">
        <ele>52.59999847412109375</ele>
        <time>2026-08-01T10:29:32.000Z</time>
        <extensions>
          <ns3:TrackPointExtension>
            <ns3:hr>131</ns3:hr>
            <ns3:cad>0</ns3:cad>
          </ns3:TrackPointExtension>
        </extensions>
      </trkpt>
      <trkpt lat="56.02410963736474514007568359375" lon="24.11102819256484508514404296875">
        <ele>52.59999847412109375</ele>
        <time>2026-08-01T10:29:34.000Z</time>
        <extensions>
          <ns3:TrackPointExtension>
            <ns3:hr>134</ns3:hr>
            <ns3:cad>0</ns3:cad>
          </ns3:TrackPointExtension>
        </extensions>
      </trkpt>
      <trkpt lat="56.0241276584565639495849609375" lon="24.110982008278369903564453125">
        <ele>52.59999847412109375</ele>
        <time>2026-08-01T10:29:36.000Z</time>
        <extensions>
          <ns3:TrackPointExtension>
            <ns3:hr>135</ns3:hr>
            <ns3:cad>0</ns3:cad>
          </ns3:TrackPointExtension>
        </extensions>
      </trkpt>
      <trkpt lat="56.02419513277709484100341796875" lon="24.11069543100893497467041015625">
        <ele>52.59999847412109375</ele>
        <time>2026-08-01T10:29:48.000Z</time>
        <extensions>
          <ns3:TrackPointExtension>
            <ns3:hr>134</ns3:hr>
            <ns3:cad>57</ns3:cad>
          </ns3:TrackPointExtension>
        </extensions>
      </trkpt>
      <trkpt lat="56.02423771284520626068115234375" lon="24.11044615320861339569091796875">
        <ele>52.799999237060546875</ele>
        <time>2026-08-01T10:29:58.000Z</time>
        <extensions>
          <ns3:TrackPointExtension>
            <ns3:hr>135</ns3:hr>
            <ns3:cad>59</ns3:cad>
          </ns3:TrackPointExtension>
        </extensions>
      </trkpt>
      <trkpt lat="56.02426788769662380218505859375" lon="24.1103065945208072662353515625">
        <ele>52.799999237060546875</ele>
        <time>2026-08-01T10:30:04.000Z</time>
        <extensions>
          <ns3:TrackPointExtension>
            <ns3:hr>132</ns3:hr>
            <ns3:cad>59</ns3:cad>
          </ns3:TrackPointExtension>
        </extensions>
      </trkpt>
      <trkpt lat="56.0242974758148193359375" lon="24.11018832586705684661865234375">
        <ele>52.799999237060546875</ele>
        <time>2026-08-01T10:30:09.000Z</time>
        <extensions>
          <ns3:TrackPointExtension>
            <ns3:hr>130</ns3:hr>
            <ns3:cad>59</ns3:cad>
          </ns3:TrackPointExtension>
        </extensions>
      </trkpt>
      <trkpt lat="56.02431767620146274566650390625" lon="24.11011607386171817779541015625">
        <ele>52.799999237060546875</ele>
        <time>2026-08-01T10:30:12.000Z</time>
        <extensions>
          <ns3:TrackPointExtension>
            <ns3:hr>127</ns3:hr>
            <ns3:cad>59</ns3:cad>
          </ns3:TrackPointExtension>
        </extensions>
      </trkpt>
      <trkpt lat="56.02432253770530223846435546875" lon="24.110092185437679290771484375">
        <ele>52.799999237060546875</ele>
        <time>2026-08-01T10:30:13.000Z</time>
        <extensions>
          <ns3:TrackPointExtension>
            <ns3:hr>124</ns3:hr>
            <ns3:cad>59</ns3:cad>
          </ns3:TrackPointExtension>
        </extensions>
      </trkpt>
      <trkpt lat="56.02434433065354824066162109375" lon="24.1099703125655651092529296875">
        <ele>52.799999237060546875</ele>
        <time>2026-08-01T10:30:18.000Z</time>
        <extensions>
          <ns3:TrackPointExtension>
            <ns3:hr>122</ns3:hr>
            <ns3:cad>58</ns3:cad>
          </ns3:TrackPointExtension>
        </extensions>
      </trkpt>
      <trkpt lat="56.02439344860613346099853515625" lon="24.1097366251051425933837890625">
        <ele>52.799999237060546875</ele>
        <time>2026-08-01T10:30:28.000Z</time>
        <extensions>
          <ns3:TrackPointExtension>
            <ns3:hr>124</ns3:hr>
            <ns3:cad>59</ns3:cad>
          </ns3:TrackPointExtension>
        </extensions>
      </trkpt>
      <trkpt lat="56.024439968168735504150390625" lon="24.1095280833542346954345703125">
        <ele>53</ele>
        <time>2026-08-01T10:30:37.000Z</time>
        <extensions>
          <ns3:TrackPointExtension>
            <ns3:hr>125</ns3:hr>
            <ns3:cad>59</ns3:cad>
          </ns3:TrackPointExtension>
        </extensions>
      </trkpt>
      <trkpt lat="56.02448497898876667022705078125" lon="24.109306968748569488525390625">
        <ele>53.40000152587890625</ele>
        <time>2026-08-01T10:30:46.000Z</time>
        <extensions>
          <ns3:TrackPointExtension>
            <ns3:hr>125</ns3:hr>
            <ns3:cad>59</ns3:cad>
          </ns3:TrackPointExtension>
        </extensions>
      </trkpt>
      <trkpt lat="56.024519093334674835205078125" lon="24.10910756327211856842041015625">
        <ele>53.40000152587890625</ele>
        <time>2026-08-01T10:30:54.000Z</time>
        <extensions>
          <ns3:TrackPointExtension>
            <ns3:hr>127</ns3:hr>
            <ns3:cad>58</ns3:cad>
          </ns3:TrackPointExtension>
        </extensions>
      </trkpt>
      <trkpt lat="56.02456904947757720947265625" lon="24.1089165396988391876220703125">
        <ele>53.40000152587890625</ele>
        <time>2026-08-01T10:31:03.000Z</time>
        <extensions>
          <ns3:TrackPointExtension>
            <ns3:hr>127</ns3:hr>
            <ns3:cad>58</ns3:cad>
          </ns3:TrackPointExtension>
        </extensions>
      </trkpt>
      <trkpt lat="56.02460567839443683624267578125" lon="24.10875066183507442474365234375">
        <ele>53.40000152587890625</ele>
        <time>2026-08-01T10:31:10.000Z</time>
        <extensions>
          <ns3:TrackPointExtension>
            <ns3:hr>127</ns3:hr>
            <ns3:cad>59</ns3:cad>
          </ns3:TrackPointExtension>
        </extensions>
      </trkpt>
      <trkpt lat="56.024612300097942352294921875" lon="24.10869802348315715789794921875">
        <ele>53.59999847412109375</ele>
        <time>2026-08-01T10:31:12.000Z</time>
        <extensions>
          <ns3:TrackPointExtension>
            <ns3:hr>126</ns3:hr>
            <ns3:cad>57</ns3:cad>
          </ns3:TrackPointExtension>
        </extensions>
      </trkpt>
      <trkpt lat="56.024650521576404571533203125" lon="24.108515717089176177978515625">
        <ele>54</ele>
        <time>2026-08-01T10:31:20.000Z</time>
        <extensions>
          <ns3:TrackPointExtension>
            <ns3:hr>127</ns3:hr>
            <ns3:cad>58</ns3:cad>
          </ns3:TrackPointExtension>
        </extensions>
      </trkpt>
      <trkpt lat="56.0247053392231464385986328125" lon="24.1082536987960338592529296875">
        <ele>54.200000762939453125</ele>
        <time>2026-08-01T10:31:31.000Z</time>
        <extensions>
          <ns3:TrackPointExtension>
            <ns3:hr>129</ns3:hr>
            <ns3:cad>59</ns3:cad>
          </ns3:TrackPointExtension>
        </extensions>
      </trkpt>
      <trkpt lat="56.02474062703549861907958984375" lon="24.10810190252959728240966796875">
        <ele>54.200000762939453125</ele>
        <time>2026-08-01T10:31:38.000Z</time>
        <extensions>
          <ns3:TrackPointExtension>
            <ns3:hr>132</ns3:hr>
            <ns3:cad>59</ns3:cad>
          </ns3:TrackPointExtension>
        </extensions>
      </trkpt>
      <trkpt lat="56.0247653536498546600341796875" lon="24.1079895012080669403076171875">
        <ele>54.40000152587890625</ele>
        <time>2026-08-01T10:31:43.000Z</time>
        <extensions>
          <ns3:TrackPointExtension>
            <ns3:hr>135</ns3:hr>
            <ns3:cad>58</ns3:cad>
          </ns3:TrackPointExtension>
        </extensions>
      </trkpt>
      <trkpt lat="56.0248226858675479888916015625" lon="24.107720442116260528564453125">
        <ele>54.59999847412109375</ele>
        <time>2026-08-01T10:31:55.000Z</time>
        <extensions>
          <ns3:TrackPointExtension>
            <ns3:hr>137</ns3:hr>
            <ns3:cad>58</ns3:cad>
          </ns3:TrackPointExtension>
        </extensions>
      </trkpt>
      <trkpt lat="56.02488814853131771087646484375" lon="24.1074339486658573150634765625">
        <ele>54.59999847412109375</ele>
        <time>2026-08-01T10:32:08.000Z</time>
        <extensions>
          <ns3:TrackPointExtension>
            <ns3:hr>135</ns3:hr>
            <ns3:cad>57</ns3:cad>
          </ns3:TrackPointExtension>
        </extensions>
      </trkpt>
      <trkpt lat="56.0249075107276439666748046875" lon="24.10728567279875278472900390625">
        <ele>54.59999847412109375</ele>
        <time>2026-08-01T10:32:15.000Z</time>
        <extensions>
          <ns3:TrackPointExtension>
            <ns3:hr>137</ns3:hr>
            <ns3:cad>58</ns3:cad>
          </ns3:TrackPointExtension>
        </extensions>
      </trkpt>
      <trkpt lat="56.02490893565118312835693359375" lon="24.10724476911127567291259765625">
        <ele>54.59999847412109375</ele>
        <time>2026-08-01T10:32:18.000Z</time>
        <extensions>
          <ns3:TrackPointExtension>
            <ns3:hr>136</ns3:hr>
            <ns3:cad>55</ns3:cad>
          </ns3:TrackPointExtension>
        </extensions>
      </trkpt>
      <trkpt lat="56.024938188493251800537109375" lon="24.10710428841412067413330078125">
        <ele>54.40000152587890625</ele>
        <time>2026-08-01T10:32:24.000Z</time>
        <extensions>
          <ns3:TrackPointExtension>
            <ns3:hr>135</ns3:hr>
            <ns3:cad>58</ns3:cad>
          </ns3:TrackPointExtension>
        </extensions>
      </trkpt>
      <trkpt lat="56.02498588152229785919189453125" lon="24.1068867780268192291259765625">
        <ele>54.799999237060546875</ele>
        <time>2026-08-01T10:32:33.000Z</time>
        <extensions>
          <ns3:TrackPointExtension>
            <ns3:hr>135</ns3:hr>
            <ns3:cad>58</ns3:cad>
          </ns3:TrackPointExtension>
        </extensions>
      </trkpt>
      <trkpt lat="56.02501672692596912384033203125" lon="24.10671302117407321929931640625">
        <ele>54.799999237060546875</ele>
        <time>2026-08-01T10:32:41.000Z</time>
        <extensions>
          <ns3:TrackPointExtension>
            <ns3:hr>135</ns3:hr>
            <ns3:cad>58</ns3:cad>
          </ns3:TrackPointExtension>
        </extensions>
      </trkpt>
      <trkpt lat="56.02506936527788639068603515625" lon="24.10649240948259830474853515625">
        <ele>54.799999237060546875</ele>
        <time>2026-08-01T10:32:51.000Z</time>
        <extensions>
          <ns3:TrackPointExtension>
            <ns3:hr>135</ns3:hr>
            <ns3:cad>58</ns3:cad>
          </ns3:TrackPointExtension>
        </extensions>
      </trkpt>
      <trkpt lat="56.0251277871429920196533203125" lon="24.10625905729830265045166015625">
        <ele>54.40000152587890625</ele>
        <time>2026-08-01T10:33:01.000Z</time>
        <extensions>
          <ns3:TrackPointExtension>
            <ns3:hr>136</ns3:hr>
            <ns3:cad>58</ns3:cad>
          </ns3:TrackPointExtension>
        </extensions>
      </trkpt>
      <trkpt lat="56.0251787491142749786376953125" lon="24.10602067597210407257080078125">
        <ele>54.40000152587890625</ele>
        <time>2026-08-01T10:33:12.000Z</time>
        <extensions>
          <ns3:TrackPointExtension>
            <ns3:hr>135</ns3:hr>
            <ns3:cad>58</ns3:cad>
          </ns3:TrackPointExtension>
        </extensions>
      </trkpt>
      <trkpt lat="56.02521688677370548248291015625" lon="24.1058413870632648468017578125">
        <ele>54.40000152587890625</ele>
        <time>2026-08-01T10:33:20.000Z</time>
        <extensions>
          <ns3:TrackPointExtension>
            <ns3:hr>135</ns3:hr>
            <ns3:cad>58</ns3:cad>
          </ns3:TrackPointExtension>
        </extensions>
      </trkpt>
      <trkpt lat="56.02525033056735992431640625" lon="24.1056854836642742156982421875">
        <ele>53.799999237060546875</ele>
        <time>2026-08-01T10:33:27.000Z</time>
        <extensions>
          <ns3:TrackPointExtension>
            <ns3:hr>131</ns3:hr>
            <ns3:cad>59</ns3:cad>
          </ns3:TrackPointExtension>
        </extensions>
      </trkpt>
      <trkpt lat="56.025255024433135986328125" lon="24.10566545091569423675537109375">
        <ele>53.799999237060546875</ele>
        <time>2026-08-01T10:33:28.000Z</time>
        <extensions>
          <ns3:TrackPointExtension>
            <ns3:hr>128</ns3:hr>
            <ns3:cad>59</ns3:cad>
          </ns3:TrackPointExtension>
        </extensions>
      </trkpt>
      <trkpt lat="56.0252602212131023406982421875" lon="24.10564600490033626556396484375">
        <ele>53.799999237060546875</ele>
        <time>2026-08-01T10:33:29.000Z</time>
        <extensions>
          <ns3:TrackPointExtension>
            <ns3:hr>126</ns3:hr>
            <ns3:cad>59</ns3:cad>
          </ns3:TrackPointExtension>
        </extensions>
      </trkpt>
      <trkpt lat="56.02527488954365253448486328125" lon="24.10558305680751800537109375">
        <ele>53.799999237060546875</ele>
        <time>2026-08-01T10:33:32.000Z</time>
        <extensions>
          <ns3:TrackPointExtension>
            <ns3:hr>122</ns3:hr>
            <ns3:cad>59</ns3:cad>
          </ns3:TrackPointExtension>
        </extensions>
      </trkpt>
      <trkpt lat="56.0253074951469898223876953125" lon="24.10543913953006267547607421875">
        <ele>53.799999237060546875</ele>
        <time>2026-08-01T10:33:38.000Z</time>
        <extensions>
          <ns3:TrackPointExtension>
            <ns3:hr>121</ns3:hr>
            <ns3:cad>58</ns3:cad>
          </ns3:TrackPointExtension>
        </extensions>
      </trkpt>
      <trkpt lat="56.02532300166785717010498046875" lon="24.105344004929065704345703125">
        <ele>53.59999847412109375</ele>
        <time>2026-08-01T10:33:43.000Z</time>
        <extensions>
          <ns3:TrackPointExtension>
            <ns3:hr>122</ns3:hr>
            <ns3:cad>57</ns3:cad>
          </ns3:TrackPointExtension>
        </extensions>
      </trkpt>
      <trkpt lat="56.02534093894064426422119140625" lon="24.10523713566362857818603515625">
        <ele>53.40000152587890625</ele>
        <time>2026-08-01T10:33:47.000Z</time>
        <extensions>
          <ns3:TrackPointExtension>
            <ns3:hr>121</ns3:hr>
            <ns3:cad>58</ns3:cad>
          </ns3:TrackPointExtension>
        </extensions>
      </trkpt>
      <trkpt lat="56.0253836028277873992919921875" lon="24.1050739400088787078857421875">
        <ele>53.799999237060546875</ele>
        <time>2026-08-01T10:33:54.000Z</time>
        <extensions>
          <ns3:TrackPointExtension>
            <ns3:hr>122</ns3:hr>
            <ns3:cad>58</ns3:cad>
          </ns3:TrackPointExtension>
        </extensions>
      </trkpt>
      <trkpt lat="56.0254288651049137115478515625" lon="24.10488836467266082763671875">
        <ele>53.59999847412109375</ele>
        <time>2026-08-01T10:34:03.000Z</time>
        <extensions>
          <ns3:TrackPointExtension>
            <ns3:hr>122</ns3:hr>
            <ns3:cad>59</ns3:cad>
          </ns3:TrackPointExtension>
        </extensions>
      </trkpt>
      <trkpt lat="56.02546624839305877685546875" lon="24.10469063557684421539306640625">
        <ele>53.59999847412109375</ele>
        <time>2026-08-01T10:34:11.000Z</time>
        <extensions>
          <ns3:TrackPointExtension>
            <ns3:hr>121</ns3:hr>
            <ns3:cad>60</ns3:cad>
          </ns3:TrackPointExtension>
        </extensions>
      </trkpt>
      <trkpt lat="56.02549969218671321868896484375" lon="24.10448469221591949462890625">
        <ele>53.799999237060546875</ele>
        <time>2026-08-01T10:34:19.000Z</time>
        <extensions>
          <ns3:TrackPointExtension>
            <ns3:hr>123</ns3:hr>
            <ns3:cad>59</ns3:cad>
          </ns3:TrackPointExtension>
        </extensions>
      </trkpt>
      <trkpt lat="56.0255408473312854766845703125" lon="24.10430758260190486907958984375">
        <ele>53.40000152587890625</ele>
        <time>2026-08-01T10:34:27.000Z</time>
        <extensions>
          <ns3:TrackPointExtension>
            <ns3:hr>125</ns3:hr>
            <ns3:cad>59</ns3:cad>
          </ns3:TrackPointExtension>
        </extensions>
      </trkpt>
      <trkpt lat="56.0255730338394641876220703125" lon="24.1041690297424793243408203125">
        <ele>53.40000152587890625</ele>
        <time>2026-08-01T10:34:33.000Z</time>
        <extensions>
          <ns3:TrackPointExtension>
            <ns3:hr>127</ns3:hr>
            <ns3:cad>59</ns3:cad>
          </ns3:TrackPointExtension>
        </extensions>
      </trkpt>
      <trkpt lat="56.02561921812593936920166015625" lon="24.10393911413848400115966796875">
        <ele>53.40000152587890625</ele>
        <time>2026-08-01T10:34:42.000Z</time>
        <extensions>
          <ns3:TrackPointExtension>
            <ns3:hr>130</ns3:hr>
            <ns3:cad>59</ns3:cad>
          </ns3:TrackPointExtension>
        </extensions>
      </trkpt>
      <trkpt lat="56.02566347457468509674072265625" lon="24.10371280275285243988037109375">
        <ele>53.200000762939453125</ele>
        <time>2026-08-01T10:34:51.000Z</time>
        <extensions>
          <ns3:TrackPointExtension>
            <ns3:hr>132</ns3:hr>
            <ns3:cad>58</ns3:cad>
          </ns3:TrackPointExtension>
        </extensions>
      </trkpt>
      <trkpt lat="56.025716364383697509765625" lon="24.1035048477351665496826171875">
        <ele>53.200000762939453125</ele>
        <time>2026-08-01T10:35:00.000Z</time>
        <extensions>
          <ns3:TrackPointExtension>
            <ns3:hr>132</ns3:hr>
            <ns3:cad>58</ns3:cad>
          </ns3:TrackPointExtension>
        </extensions>
      </trkpt>
      <trkpt lat="56.02574896998703479766845703125" lon="24.103249870240688323974609375">
        <ele>52.799999237060546875</ele>
        <time>2026-08-01T10:35:10.000Z</time>
        <extensions>
          <ns3:TrackPointExtension>
            <ns3:hr>131</ns3:hr>
            <ns3:cad>58</ns3:cad>
          </ns3:TrackPointExtension>
        </extensions>
      </trkpt>
      <trkpt lat="56.02578811347484588623046875" lon="24.10305465571582317352294921875">
        <ele>52.799999237060546875</ele>
        <time>2026-08-01T10:35:18.000Z</time>
        <extensions>
          <ns3:TrackPointExtension>
            <ns3:hr>129</ns3:hr>
            <ns3:cad>58</ns3:cad>
          </ns3:TrackPointExtension>
        </extensions>
      </trkpt>
      <trkpt lat="56.02579976432025432586669921875" lon="24.1028547473251819610595703125">
        <ele>52.59999847412109375</ele>
        <time>2026-08-01T10:35:27.000Z</time>
        <extensions>
          <ns3:TrackPointExtension>
            <ns3:hr>127</ns3:hr>
            <ns3:cad>58</ns3:cad>
          </ns3:TrackPointExtension>
        </extensions>
      </trkpt>
      <trkpt lat="56.02579976432025432586669921875" lon="24.10285122692584991455078125">
        <ele>52.59999847412109375</ele>
        <time>2026-08-01T10:35:28.000Z</time>
        <extensions>
          <ns3:TrackPointExtension>
            <ns3:hr>128</ns3:hr>
            <ns3:cad>58</ns3:cad>
          </ns3:TrackPointExtension>
        </extensions>
      </trkpt>
      <trkpt lat="56.02580160833895206451416015625" lon="24.1028000973165035247802734375">
        <ele>52.40000152587890625</ele>
        <time>2026-08-01T10:35:39.000Z</time>
        <extensions>
          <ns3:TrackPointExtension>
            <ns3:hr>127</ns3:hr>
            <ns3:cad>0</ns3:cad>
          </ns3:TrackPointExtension>
        </extensions>
      </trkpt>
      <trkpt lat="56.02580328471958637237548828125" lon="24.1027987562119960784912109375">
        <ele>52.59999847412109375</ele>
        <time>2026-08-01T10:35:42.000Z</time>
        <extensions>
          <ns3:TrackPointExtension>
            <ns3:hr>130</ns3:hr>
            <ns3:cad>0</ns3:cad>
          </ns3:TrackPointExtension>
        </extensions>
      </trkpt>
      <trkpt lat="56.02580328471958637237548828125" lon="24.1027987562119960784912109375">
        <ele>52.59999847412109375</ele>
        <time>2026-08-01T10:35:43.000Z</time>
        <extensions>
          <ns3:TrackPointExtension>
            <ns3:hr>137</ns3:hr>
            <ns3:cad>0</ns3:cad>
          </ns3:TrackPointExtension>
        </extensions>
      </trkpt>
      <trkpt lat="56.0258035361766815185546875" lon="24.10279917530715465545654296875">
        <ele>52.59999847412109375</ele>
        <time>2026-08-01T10:35:44.000Z</time>
        <extensions>
          <ns3:TrackPointExtension>
            <ns3:hr>140</ns3:hr>
            <ns3:cad>0</ns3:cad>
          </ns3:TrackPointExtension>
        </extensions>
      </trkpt>
      <trkpt lat="56.0258050449192523956298828125" lon="24.10281241871416568756103515625">
        <ele>52.59999847412109375</ele>
        <time>2026-08-01T10:35:45.000Z</time>
        <extensions>
          <ns3:TrackPointExtension>
            <ns3:hr>140</ns3:hr>
            <ns3:cad>0</ns3:cad>
          </ns3:TrackPointExtension>
        </extensions>
      </trkpt>
      <trkpt lat="56.02580831386148929595947265625" lon="24.10283421166241168975830078125">
        <ele>52.59999847412109375</ele>
        <time>2026-08-01T10:35:48.000Z</time>
        <extensions>
          <ns3:TrackPointExtension>
            <ns3:hr>137</ns3:hr>
            <ns3:cad>0</ns3:cad>
          </ns3:TrackPointExtension>
        </extensions>
      </trkpt>
      <trkpt lat="56.02580730803310871124267578125" lon="24.1028410010039806365966796875">
        <ele>52.59999847412109375</ele>
        <time>2026-08-01T10:35:49.000Z</time>
        <extensions>
          <ns3:TrackPointExtension>
            <ns3:hr>136</ns3:hr>
            <ns3:cad>0</ns3:cad>
          </ns3:TrackPointExtension>
        </extensions>
      </trkpt>
      <trkpt lat="56.02576732635498046875" lon="24.10283270291984081268310546875">
        <ele>52.59999847412109375</ele>
        <time>2026-08-01T10:35:54.000Z</time>
        <extensions>
          <ns3:TrackPointExtension>
            <ns3:hr>133</ns3:hr>
            <ns3:cad>0</ns3:cad>
          </ns3:TrackPointExtension>
        </extensions>
      </trkpt>
      <trkpt lat="56.025753915309906005859375" lon="24.10282147116959095001220703125">
        <ele>52.59999847412109375</ele>
        <time>2026-08-01T10:35:55.000Z</time>
        <extensions>
          <ns3:TrackPointExtension>
            <ns3:hr>134</ns3:hr>
            <ns3:cad>0</ns3:cad>
          </ns3:TrackPointExtension>
        </extensions>
      </trkpt>
      <trkpt lat="56.02562374435365200042724609375" lon="24.10275877453386783599853515625">
        <ele>52.40000152587890625</ele>
        <time>2026-08-01T10:36:05.000Z</time>
        <extensions>
          <ns3:TrackPointExtension>
            <ns3:hr>134</ns3:hr>
            <ns3:cad>58</ns3:cad>
          </ns3:TrackPointExtension>
        </extensions>
      </trkpt>
      <trkpt lat="56.02550388313829898834228515625" lon="24.102683924138545989990234375">
        <ele>52.40000152587890625</ele>
        <time>2026-08-01T10:36:14.000Z</time>
        <extensions>
          <ns3:TrackPointExtension>
            <ns3:hr>132</ns3:hr>
            <ns3:cad>58</ns3:cad>
          </ns3:TrackPointExtension>
        </extensions>
      </trkpt>
      <trkpt lat="56.02542609907686710357666015625" lon="24.10263170488178730010986328125">
        <ele>52.200000762939453125</ele>
        <time>2026-08-01T10:36:20.000Z</time>
        <extensions>
          <ns3:TrackPointExtension>
            <ns3:hr>129</ns3:hr>
            <ns3:cad>58</ns3:cad>
          </ns3:TrackPointExtension>
        </extensions>
      </trkpt>
      <trkpt lat="56.0254097543656826019287109375" lon="24.102599434554576873779296875">
        <ele>52.200000762939453125</ele>
        <time>2026-08-01T10:36:22.000Z</time>
        <extensions>
          <ns3:TrackPointExtension>
            <ns3:hr>128</ns3:hr>
            <ns3:cad>58</ns3:cad>
          </ns3:TrackPointExtension>
        </extensions>
      </trkpt>
      <trkpt lat="56.025329120457172393798828125" lon="24.102493487298488616943359375">
        <ele>51.799999237060546875</ele>
        <time>2026-08-01T10:36:29.000Z</time>
        <extensions>
          <ns3:TrackPointExtension>
            <ns3:hr>126</ns3:hr>
            <ns3:cad>58</ns3:cad>
          </ns3:TrackPointExtension>
        </extensions>
      </trkpt>
      <trkpt lat="56.02522040717303752899169921875" lon="24.10236281342804431915283203125">
        <ele>52</ele>
        <time>2026-08-01T10:36:38.000Z</time>
        <extensions>
          <ns3:TrackPointExtension>
            <ns3:hr>125</ns3:hr>
            <ns3:cad>57</ns3:cad>
          </ns3:TrackPointExtension>
        </extensions>
      </trkpt>
      <trkpt lat="56.02512150071561336517333984375" lon="24.102221243083477020263671875">
        <ele>52</ele>
        <time>2026-08-01T10:36:47.000Z</time>
        <extensions>
          <ns3:TrackPointExtension>
            <ns3:hr>127</ns3:hr>
            <ns3:cad>58</ns3:cad>
          </ns3:TrackPointExtension>
        </extensions>
      </trkpt>
      <trkpt lat="56.02506835944950580596923828125" lon="24.10210079513490200042724609375">
        <ele>52</ele>
        <time>2026-08-01T10:36:54.000Z</time>
        <extensions>
          <ns3:TrackPointExtension>
            <ns3:hr>128</ns3:hr>
            <ns3:cad>56</ns3:cad>
          </ns3:TrackPointExtension>
        </extensions>
      </trkpt>
      <trkpt lat="56.02497179992496967315673828125" lon="24.1019506752490997314453125">
        <ele>52</ele>
        <time>2026-08-01T10:37:04.000Z</time>
        <extensions>
          <ns3:TrackPointExtension>
            <ns3:hr>128</ns3:hr>
            <ns3:cad>58</ns3:cad>
          </ns3:TrackPointExtension>
        </extensions>
      </trkpt>
      <trkpt lat="56.02488228119909763336181640625" lon="24.1017999686300754547119140625">
        <ele>51.59999847412109375</ele>
        <time>2026-08-01T10:37:12.000Z</time>
        <extensions>
          <ns3:TrackPointExtension>
            <ns3:hr>127</ns3:hr>
            <ns3:cad>57</ns3:cad>
          </ns3:TrackPointExtension>
        </extensions>
      </trkpt>
      <trkpt lat="56.02486853487789630889892578125" lon="24.101780019700527191162109375">
        <ele>51.59999847412109375</ele>
        <time>2026-08-01T10:37:13.000Z</time>
        <extensions>
          <ns3:TrackPointExtension>
            <ns3:hr>127</ns3:hr>
            <ns3:cad>57</ns3:cad>
          </ns3:TrackPointExtension>
        </extensions>
      </trkpt>
      <trkpt lat="56.02481623180210590362548828125" lon="24.101700894534587860107421875">
        <ele>51.59999847412109375</ele>
        <time>2026-08-01T10:37:18.000Z</time>
        <extensions>
          <ns3:TrackPointExtension>
            <ns3:hr>130</ns3:hr>
            <ns3:cad>58</ns3:cad>
          </ns3:TrackPointExtension>
        </extensions>
      </trkpt>
      <trkpt lat="56.02478706277906894683837890625" lon="24.1016551293432712554931640625">
        <ele>51.799999237060546875</ele>
        <time>2026-08-01T10:37:21.000Z</time>
        <extensions>
          <ns3:TrackPointExtension>
            <ns3:hr>130</ns3:hr>
            <ns3:cad>58</ns3:cad>
          </ns3:TrackPointExtension>
        </extensions>
      </trkpt>
      <trkpt lat="56.02472168393433094024658203125" lon="24.10154222510755062103271484375">
        <ele>51.40000152587890625</ele>
        <time>2026-08-01T10:37:29.000Z</time>
        <extensions>
          <ns3:TrackPointExtension>
            <ns3:hr>130</ns3:hr>
            <ns3:cad>56</ns3:cad>
          </ns3:TrackPointExtension>
        </extensions>
      </trkpt>
      <trkpt lat="56.0246540419757366180419921875" lon="24.10141850821673870086669921875">
        <ele>51.59999847412109375</ele>
        <time>2026-08-01T10:37:36.000Z</time>
        <extensions>
          <ns3:TrackPointExtension>
            <ns3:hr>130</ns3:hr>
            <ns3:cad>58</ns3:cad>
          </ns3:TrackPointExtension>
        </extensions>
      </trkpt>
      <trkpt lat="56.0245544649660587310791015625" lon="24.1012935340404510498046875">
        <ele>51.40000152587890625</ele>
        <time>2026-08-01T10:37:45.000Z</time>
        <extensions>
          <ns3:TrackPointExtension>
            <ns3:hr>130</ns3:hr>
            <ns3:cad>56</ns3:cad>
          </ns3:TrackPointExtension>
        </extensions>
      </trkpt>
      <trkpt lat="56.0244937799870967864990234375" lon="24.10119739361107349395751953125">
        <ele>51.200000762939453125</ele>
        <time>2026-08-01T10:37:54.000Z</time>
        <extensions>
          <ns3:TrackPointExtension>
            <ns3:hr>131</ns3:hr>
            <ns3:cad>52</ns3:cad>
          </ns3:TrackPointExtension>
        </extensions>
      </trkpt>
      <trkpt lat="56.02446771226823329925537109375" lon="24.101179540157318115234375">
        <ele>51.40000152587890625</ele>
        <time>2026-08-01T10:37:58.000Z</time>
        <extensions>
          <ns3:TrackPointExtension>
            <ns3:hr>128</ns3:hr>
            <ns3:cad>0</ns3:cad>
          </ns3:TrackPointExtension>
        </extensions>
      </trkpt>
      <trkpt lat="56.02445111609995365142822265625" lon="24.1011468507349491119384765625">
        <ele>51.40000152587890625</ele>
        <time>2026-08-01T10:38:00.000Z</time>
        <extensions>
          <ns3:TrackPointExtension>
            <ns3:hr>127</ns3:hr>
            <ns3:cad>0</ns3:cad>
          </ns3:TrackPointExtension>
        </extensions>
      </trkpt>
      <trkpt lat="56.0244032554328441619873046875" lon="24.10102388821542263031005859375">
        <ele>51.200000762939453125</ele>
        <time>2026-08-01T10:38:07.000Z</time>
        <extensions>
          <ns3:TrackPointExtension>
            <ns3:hr>126</ns3:hr>
            <ns3:cad>58</ns3:cad>
          </ns3:TrackPointExtension>
        </extensions>
      </trkpt>
      <trkpt lat="56.0243888385593891143798828125" lon="24.10098516382277011871337890625">
        <ele>51</ele>
        <time>2026-08-01T10:38:10.000Z</time>
        <extensions>
          <ns3:TrackPointExtension>
            <ns3:hr>126</ns3:hr>
            <ns3:cad>52</ns3:cad>
          </ns3:TrackPointExtension>
        </extensions>
      </trkpt>
      <trkpt lat="56.0243667103350162506103515625" lon="24.10093118436634540557861328125">
        <ele>51.200000762939453125</ele>
        <time>2026-08-01T10:38:13.000Z</time>
        <extensions>
          <ns3:TrackPointExtension>
            <ns3:hr>126</ns3:hr>
            <ns3:cad>52</ns3:cad>
          </ns3:TrackPointExtension>
        </extensions>
      </trkpt>
      <trkpt lat="56.02430778555572032928466796875" lon="24.10084853880107402801513671875">
        <ele>51.40000152587890625</ele>
        <time>2026-08-01T10:38:19.000Z</time>
        <extensions>
          <ns3:TrackPointExtension>
            <ns3:hr>125</ns3:hr>
            <ns3:cad>57</ns3:cad>
          </ns3:TrackPointExtension>
        </extensions>
      </trkpt>
      <trkpt lat="56.024258919060230255126953125" lon="24.10073764622211456298828125">
        <ele>51.40000152587890625</ele>
        <time>2026-08-01T10:38:25.000Z</time>
        <extensions>
          <ns3:TrackPointExtension>
            <ns3:hr>123</ns3:hr>
            <ns3:cad>54</ns3:cad>
          </ns3:TrackPointExtension>
        </extensions>
      </trkpt>
      <trkpt lat="56.0242191888391971588134765625" lon="24.1006452776491641998291015625">
        <ele>51.200000762939453125</ele>
        <time>2026-08-01T10:38:29.000Z</time>
        <extensions>
          <ns3:TrackPointExtension>
            <ns3:hr>120</ns3:hr>
            <ns3:cad>54</ns3:cad>
          </ns3:TrackPointExtension>
        </extensions>
      </trkpt>
      <trkpt lat="56.02419890463352203369140625" lon="24.1005852632224559783935546875">
        <ele>51.200000762939453125</ele>
        <time>2026-08-01T10:38:32.000Z</time>
        <extensions>
          <ns3:TrackPointExtension>
            <ns3:hr>121</ns3:hr>
            <ns3:cad>56</ns3:cad>
          </ns3:TrackPointExtension>
        </extensions>
      </trkpt>
      <trkpt lat="56.02419462986290454864501953125" lon="24.100537486374378204345703125">
        <ele>51.200000762939453125</ele>
        <time>2026-08-01T10:38:35.000Z</time>
        <extensions>
          <ns3:TrackPointExtension>
            <ns3:hr>125</ns3:hr>
            <ns3:cad>56</ns3:cad>
          </ns3:TrackPointExtension>
        </extensions>
      </trkpt>
      <trkpt lat="56.02418121881783008575439453125" lon="24.10050387494266033172607421875">
        <ele>51.200000762939453125</ele>
        <time>2026-08-01T10:38:37.000Z</time>
        <extensions>
          <ns3:TrackPointExtension>
            <ns3:hr>127</ns3:hr>
            <ns3:cad>57</ns3:cad>
          </ns3:TrackPointExtension>
        </extensions>
      </trkpt>
      <trkpt lat="56.02416898123919963836669921875" lon="24.10049222409725189208984375">
        <ele>51.200000762939453125</ele>
        <time>2026-08-01T10:38:38.000Z</time>
        <extensions>
          <ns3:TrackPointExtension>
            <ns3:hr>127</ns3:hr>
            <ns3:cad>57</ns3:cad>
          </ns3:TrackPointExtension>
        </extensions>
      </trkpt>
      <trkpt lat="56.02410477586090564727783203125" lon="24.10039776004850864410400390625">
        <ele>51.40000152587890625</ele>
        <time>2026-08-01T10:38:43.000Z</time>
        <extensions>
          <ns3:TrackPointExtension>
            <ns3:hr>130</ns3:hr>
            <ns3:cad>0</ns3:cad>
          </ns3:TrackPointExtension>
        </extensions>
      </trkpt>
      <trkpt lat="56.02404375560581684112548828125" lon="24.1003123484551906585693359375">
        <ele>51.59999847412109375</ele>
        <time>2026-08-01T10:38:49.000Z</time>
        <extensions>
          <ns3:TrackPointExtension>
            <ns3:hr>130</ns3:hr>
            <ns3:cad>56</ns3:cad>
          </ns3:TrackPointExtension>
        </extensions>
      </trkpt>
      <trkpt lat="56.0239643789827823638916015625" lon="24.100216291844844818115234375">
        <ele>51.59999847412109375</ele>
        <time>2026-08-01T10:38:56.000Z</time>
        <extensions>
          <ns3:TrackPointExtension>
            <ns3:hr>130</ns3:hr>
            <ns3:cad>56</ns3:cad>
          </ns3:TrackPointExtension>
        </extensions>
      </trkpt>
      <trkpt lat="56.0239207930862903594970703125" lon="24.1001430340111255645751953125">
        <ele>51.59999847412109375</ele>
        <time>2026-08-01T10:39:01.000Z</time>
        <extensions>
          <ns3:TrackPointExtension>
            <ns3:hr>133</ns3:hr>
            <ns3:cad>56</ns3:cad>
          </ns3:TrackPointExtension>
        </extensions>
      </trkpt>
      <trkpt lat="56.0239072144031524658203125" lon="24.10011361353099346160888671875">
        <ele>51.59999847412109375</ele>
        <time>2026-08-01T10:39:03.000Z</time>
        <extensions>
          <ns3:TrackPointExtension>
            <ns3:hr>134</ns3:hr>
            <ns3:cad>56</ns3:cad>
          </ns3:TrackPointExtension>
        </extensions>
      </trkpt>
      <trkpt lat="56.02384694851934909820556640625" lon="24.100004397332668304443359375">
        <ele>51.59999847412109375</ele>
        <time>2026-08-01T10:39:09.000Z</time>
        <extensions>
          <ns3:TrackPointExtension>
            <ns3:hr>133</ns3:hr>
            <ns3:cad>57</ns3:cad>
          </ns3:TrackPointExtension>
        </extensions>
      </trkpt>
      <trkpt lat="56.02376866154372692108154296875" lon="24.09984908066689968109130859375">
        <ele>51.59999847412109375</ele>
        <time>2026-08-01T10:39:18.000Z</time>
        <extensions>
          <ns3:TrackPointExtension>
            <ns3:hr>135</ns3:hr>
            <ns3:cad>56</ns3:cad>
          </ns3:TrackPointExtension>
        </extensions>
      </trkpt>
      <trkpt lat="56.02371971122920513153076171875" lon="24.09972100518643856048583984375">
        <ele>51.59999847412109375</ele>
        <time>2026-08-01T10:39:25.000Z</time>
        <extensions>
          <ns3:TrackPointExtension>
            <ns3:hr>135</ns3:hr>
            <ns3:cad>57</ns3:cad>
          </ns3:TrackPointExtension>
        </extensions>
      </trkpt>
      <trkpt lat="56.02369423024356365203857421875" lon="24.09963165409862995147705078125">
        <ele>51.40000152587890625</ele>
        <time>2026-08-01T10:39:29.000Z</time>
        <extensions>
          <ns3:TrackPointExtension>
            <ns3:hr>138</ns3:hr>
            <ns3:cad>55</ns3:cad>
          </ns3:TrackPointExtension>
        </extensions>
      </trkpt>
      <trkpt lat="56.02366237901151180267333984375" lon="24.09953190945088863372802734375">
        <ele>51.40000152587890625</ele>
        <time>2026-08-01T10:39:34.000Z</time>
        <extensions>
          <ns3:TrackPointExtension>
            <ns3:hr>138</ns3:hr>
            <ns3:cad>56</ns3:cad>
          </ns3:TrackPointExtension>
        </extensions>
      </trkpt>
      <trkpt lat="56.0236183740198612213134765625" lon="24.0993596613407135009765625">
        <ele>51.40000152587890625</ele>
        <time>2026-08-01T10:39:43.000Z</time>
        <extensions>
          <ns3:TrackPointExtension>
            <ns3:hr>137</ns3:hr>
            <ns3:cad>55</ns3:cad>
          </ns3:TrackPointExtension>
        </extensions>
      </trkpt>
      <trkpt lat="56.02357168681919574737548828125" lon="24.09918188117444515228271484375">
        <ele>51.40000152587890625</ele>
        <time>2026-08-01T10:39:51.000Z</time>
        <extensions>
          <ns3:TrackPointExtension>
            <ns3:hr>137</ns3:hr>
            <ns3:cad>55</ns3:cad>
          </ns3:TrackPointExtension>
        </extensions>
      </trkpt>
      <trkpt lat="56.02353229187428951263427734375" lon="24.09903368912637233734130859375">
        <ele>51.40000152587890625</ele>
        <time>2026-08-01T10:39:58.000Z</time>
        <extensions>
          <ns3:TrackPointExtension>
            <ns3:hr>136</ns3:hr>
            <ns3:cad>55</ns3:cad>
          </ns3:TrackPointExtension>
        </extensions>
      </trkpt>
      <trkpt lat="56.02347663603723049163818359375" lon="24.09882833249866962432861328125">
        <ele>51.200000762939453125</ele>
        <time>2026-08-01T10:40:08.000Z</time>
        <extensions>
          <ns3:TrackPointExtension>
            <ns3:hr>135</ns3:hr>
            <ns3:cad>56</ns3:cad>
          </ns3:TrackPointExtension>
        </extensions>
      </trkpt>
      <trkpt lat="56.02345802821218967437744140625" lon="24.0987405739724636077880859375">
        <ele>51.40000152587890625</ele>
        <time>2026-08-01T10:40:14.000Z</time>
        <extensions>
          <ns3:TrackPointExtension>
            <ns3:hr>133</ns3:hr>
            <ns3:cad>0</ns3:cad>
          </ns3:TrackPointExtension>
        </extensions>
      </trkpt>
      <trkpt lat="56.02345065213739871978759765625" lon="24.09871132113039493560791015625">
        <ele>51.40000152587890625</ele>
        <time>2026-08-01T10:40:20.000Z</time>
        <extensions>
          <ns3:TrackPointExtension>
            <ns3:hr>135</ns3:hr>
            <ns3:cad>0</ns3:cad>
          </ns3:TrackPointExtension>
        </extensions>
      </trkpt>
      <trkpt lat="56.02345065213739871978759765625" lon="24.0987181104719638824462890625">
        <ele>51.40000152587890625</ele>
        <time>2026-08-01T10:40:21.000Z</time>
        <extensions>
          <ns3:TrackPointExtension>
            <ns3:hr>135</ns3:hr>
            <ns3:cad>0</ns3:cad>
          </ns3:TrackPointExtension>
        </extensions>
      </trkpt>
      <trkpt lat="56.02345484308898448944091796875" lon="24.0987130813300609588623046875">
        <ele>51.40000152587890625</ele>
        <time>2026-08-01T10:40:28.000Z</time>
        <extensions>
          <ns3:TrackPointExtension>
            <ns3:hr>137</ns3:hr>
            <ns3:cad>0</ns3:cad>
          </ns3:TrackPointExtension>
        </extensions>
      </trkpt>
      <trkpt lat="56.02342282421886920928955078125" lon="24.0986651368439197540283203125">
        <ele>51.200000762939453125</ele>
        <time>2026-08-01T10:40:34.000Z</time>
        <extensions>
          <ns3:TrackPointExtension>
            <ns3:hr>138</ns3:hr>
            <ns3:cad>0</ns3:cad>
          </ns3:TrackPointExtension>
        </extensions>
      </trkpt>
      <trkpt lat="56.0233722813427448272705078125" lon="24.0984938107430934906005859375">
        <ele>51</ele>
        <time>2026-08-01T10:40:43.000Z</time>
        <extensions>
          <ns3:TrackPointExtension>
            <ns3:hr>135</ns3:hr>
            <ns3:cad>55</ns3:cad>
          </ns3:TrackPointExtension>
        </extensions>
      </trkpt>
      <trkpt lat="56.02335828356444835662841796875" lon="24.09843186847865581512451171875">
        <ele>51</ele>
        <time>2026-08-01T10:40:46.000Z</time>
        <extensions>
          <ns3:TrackPointExtension>
            <ns3:hr>132</ns3:hr>
            <ns3:cad>56</ns3:cad>
          </ns3:TrackPointExtension>
        </extensions>
      </trkpt>
      <trkpt lat="56.0233424417674541473388671875" lon="24.098321311175823211669921875">
        <ele>51</ele>
        <time>2026-08-01T10:40:51.000Z</time>
        <extensions>
          <ns3:TrackPointExtension>
            <ns3:hr>129</ns3:hr>
            <ns3:cad>56</ns3:cad>
          </ns3:TrackPointExtension>
        </extensions>
      </trkpt>
      <trkpt lat="56.02332827635109424591064453125" lon="24.09826490096747875213623046875">
        <ele>50.799999237060546875</ele>
        <time>2026-08-01T10:40:53.000Z</time>
        <extensions>
          <ns3:TrackPointExtension>
            <ns3:hr>128</ns3:hr>
            <ns3:cad>56</ns3:cad>
          </ns3:TrackPointExtension>
        </extensions>
      </trkpt>
      <trkpt lat="56.02329407818615436553955078125" lon="24.09813934005796909332275390625">
        <ele>51</ele>
        <time>2026-08-01T10:40:59.000Z</time>
        <extensions>
          <ns3:TrackPointExtension>
            <ns3:hr>125</ns3:hr>
            <ns3:cad>56</ns3:cad>
          </ns3:TrackPointExtension>
        </extensions>
      </trkpt>
      <trkpt lat="56.02328293025493621826171875" lon="24.09806876443326473236083984375">
        <ele>50.799999237060546875</ele>
        <time>2026-08-01T10:41:02.000Z</time>
        <extensions>
          <ns3:TrackPointExtension>
            <ns3:hr>126</ns3:hr>
            <ns3:cad>56</ns3:cad>
          </ns3:TrackPointExtension>
        </extensions>
      </trkpt>
      <trkpt lat="56.0232274420559406280517578125" lon="24.09790598787367343902587890625">
        <ele>51</ele>
        <time>2026-08-01T10:41:10.000Z</time>
        <extensions>
          <ns3:TrackPointExtension>
            <ns3:hr>126</ns3:hr>
            <ns3:cad>56</ns3:cad>
          </ns3:TrackPointExtension>
        </extensions>
      </trkpt>
      <trkpt lat="56.02319584228098392486572265625" lon="24.097776822745800018310546875">
        <ele>51</ele>
        <time>2026-08-01T10:41:16.000Z</time>
        <extensions>
          <ns3:TrackPointExtension>
            <ns3:hr>129</ns3:hr>
            <ns3:cad>56</ns3:cad>
          </ns3:TrackPointExtension>
        </extensions>
      </trkpt>
      <trkpt lat="56.02318544872105121612548828125" lon="24.09773130901157855987548828125">
        <ele>51.200000762939453125</ele>
        <time>2026-08-01T10:41:18.000Z</time>
        <extensions>
          <ns3:TrackPointExtension>
            <ns3:hr>130</ns3:hr>
            <ns3:cad>57</ns3:cad>
          </ns3:TrackPointExtension>
        </extensions>
      </trkpt>
      <trkpt lat="56.02314345538616180419921875" lon="24.09754405729472637176513671875">
        <ele>51.200000762939453125</ele>
        <time>2026-08-01T10:41:26.000Z</time>
        <extensions>
          <ns3:TrackPointExtension>
            <ns3:hr>130</ns3:hr>
            <ns3:cad>57</ns3:cad>
          </ns3:TrackPointExtension>
        </extensions>
      </trkpt>
      <trkpt lat="56.0230762325227260589599609375" lon="24.097320847213268280029296875">
        <ele>51</ele>
        <time>2026-08-01T10:41:36.000Z</time>
        <extensions>
          <ns3:TrackPointExtension>
            <ns3:hr>131</ns3:hr>
            <ns3:cad>56</ns3:cad>
          </ns3:TrackPointExtension>
        </extensions>
      </trkpt>
      <trkpt lat="56.023035161197185516357421875" lon="24.0971443243324756622314453125">
        <ele>50.59999847412109375</ele>
        <time>2026-08-01T10:41:44.000Z</time>
        <extensions>
          <ns3:TrackPointExtension>
            <ns3:hr>130</ns3:hr>
            <ns3:cad>56</ns3:cad>
          </ns3:TrackPointExtension>
        </extensions>
      </trkpt>
      <trkpt lat="56.02302812039852142333984375" lon="24.09712395630776882171630859375">
        <ele>50.59999847412109375</ele>
        <time>2026-08-01T10:41:45.000Z</time>
        <extensions>
          <ns3:TrackPointExtension>
            <ns3:hr>130</ns3:hr>
            <ns3:cad>56</ns3:cad>
          </ns3:TrackPointExtension>
        </extensions>
      </trkpt>
      <trkpt lat="56.0229749791324138641357421875" lon="24.09695330075919628143310546875">
        <ele>50.200000762939453125</ele>
        <time>2026-08-01T10:41:53.000Z</time>
        <extensions>
          <ns3:TrackPointExtension>
            <ns3:hr>131</ns3:hr>
            <ns3:cad>57</ns3:cad>
          </ns3:TrackPointExtension>
        </extensions>
      </trkpt>
      <trkpt lat="56.0229282081127166748046875" lon="24.0968100540339946746826171875">
        <ele>49.799999237060546875</ele>
        <time>2026-08-01T10:42:00.000Z</time>
        <extensions>
          <ns3:TrackPointExtension>
            <ns3:hr>130</ns3:hr>
            <ns3:cad>56</ns3:cad>
          </ns3:TrackPointExtension>
        </extensions>
      </trkpt>
      <trkpt lat="56.0228477418422698974609375" lon="24.0966896899044513702392578125">
        <ele>49.799999237060546875</ele>
        <time>2026-08-01T10:42:08.000Z</time>
        <extensions>
          <ns3:TrackPointExtension>
            <ns3:hr>129</ns3:hr>
            <ns3:cad>56</ns3:cad>
          </ns3:TrackPointExtension>
        </extensions>
      </trkpt>
      <trkpt lat="56.0228435508906841278076171875" lon="24.09669429995119571685791015625">
        <ele>50.200000762939453125</ele>
        <time>2026-08-01T10:42:14.000Z</time>
        <extensions>
          <ns3:TrackPointExtension>
            <ns3:hr>132</ns3:hr>
            <ns3:cad>0</ns3:cad>
          </ns3:TrackPointExtension>
        </extensions>
      </trkpt>
      <trkpt lat="56.02284816093742847442626953125" lon="24.09669849090278148651123046875">
        <ele>50.200000762939453125</ele>
        <time>2026-08-01T10:42:16.000Z</time>
        <extensions>
          <ns3:TrackPointExtension>
            <ns3:hr>132</ns3:hr>
            <ns3:cad>0</ns3:cad>
          </ns3:TrackPointExtension>
        </extensions>
      </trkpt>
      <trkpt lat="56.02285285480320453643798828125" lon="24.09669966436922550201416015625">
        <ele>50.200000762939453125</ele>
        <time>2026-08-01T10:42:17.000Z</time>
        <extensions>
          <ns3:TrackPointExtension>
            <ns3:hr>132</ns3:hr>
            <ns3:cad>0</ns3:cad>
          </ns3:TrackPointExtension>
        </extensions>
      </trkpt>
      <trkpt lat="56.0228368453681468963623046875" lon="24.09671089611947536468505859375">
        <ele>49.799999237060546875</ele>
        <time>2026-08-01T10:42:22.000Z</time>
        <extensions>
          <ns3:TrackPointExtension>
            <ns3:hr>132</ns3:hr>
            <ns3:cad>0</ns3:cad>
          </ns3:TrackPointExtension>
        </extensions>
      </trkpt>
      <trkpt lat="56.022829972207546234130859375" lon="24.096720702946186065673828125">
        <ele>49.799999237060546875</ele>
        <time>2026-08-01T10:42:23.000Z</time>
        <extensions>
          <ns3:TrackPointExtension>
            <ns3:hr>132</ns3:hr>
            <ns3:cad>0</ns3:cad>
          </ns3:TrackPointExtension>
        </extensions>
      </trkpt>
      <trkpt lat="56.0227412916719913482666015625" lon="24.096792452037334442138671875">
        <ele>49.59999847412109375</ele>
        <time>2026-08-01T10:42:30.000Z</time>
        <extensions>
          <ns3:TrackPointExtension>
            <ns3:hr>133</ns3:hr>
            <ns3:cad>54</ns3:cad>
          </ns3:TrackPointExtension>
        </extensions>
      </trkpt>
      <trkpt lat="56.02264498360455036163330078125" lon="24.096891693770885467529296875">
        <ele>49.799999237060546875</ele>
        <time>2026-08-01T10:42:37.000Z</time>
        <extensions>
          <ns3:TrackPointExtension>
            <ns3:hr>134</ns3:hr>
            <ns3:cad>54</ns3:cad>
          </ns3:TrackPointExtension>
        </extensions>
      </trkpt>
      <trkpt lat="56.0225830413401126861572265625" lon="24.09694860689342021942138671875">
        <ele>50</ele>
        <time>2026-08-01T10:42:42.000Z</time>
        <extensions>
          <ns3:TrackPointExtension>
            <ns3:hr>131</ns3:hr>
            <ns3:cad>55</ns3:cad>
          </ns3:TrackPointExtension>
        </extensions>
      </trkpt>
      <trkpt lat="56.0225491784512996673583984375" lon="24.09696050919592380523681640625">
        <ele>50</ele>
        <time>2026-08-01T10:42:44.000Z</time>
        <extensions>
          <ns3:TrackPointExtension>
            <ns3:hr>130</ns3:hr>
            <ns3:cad>55</ns3:cad>
          </ns3:TrackPointExtension>
        </extensions>
      </trkpt>
      <trkpt lat="56.0225270502269268035888671875" lon="24.09694810397922992706298828125">
        <ele>50</ele>
        <time>2026-08-01T10:42:46.000Z</time>
        <extensions>
          <ns3:TrackPointExtension>
            <ns3:hr>129</ns3:hr>
            <ns3:cad>55</ns3:cad>
          </ns3:TrackPointExtension>
        </extensions>
      </trkpt>
      <trkpt lat="56.0224683769047260284423828125" lon="24.096945337951183319091796875">
        <ele>50</ele>
        <time>2026-08-01T10:42:50.000Z</time>
        <extensions>
          <ns3:TrackPointExtension>
            <ns3:hr>129</ns3:hr>
            <ns3:cad>56</ns3:cad>
          </ns3:TrackPointExtension>
        </extensions>
      </trkpt>
      <trkpt lat="56.02240584790706634521484375" lon="24.09693293273448944091796875">
        <ele>50.200000762939453125</ele>
        <time>2026-08-01T10:42:54.000Z</time>
        <extensions>
          <ns3:TrackPointExtension>
            <ns3:hr>126</ns3:hr>
            <ns3:cad>56</ns3:cad>
          </ns3:TrackPointExtension>
        </extensions>
      </trkpt>
      <trkpt lat="56.0223711468279361724853515625" lon="24.0969334356486797332763671875">
        <ele>50.200000762939453125</ele>
        <time>2026-08-01T10:42:57.000Z</time>
        <extensions>
          <ns3:TrackPointExtension>
            <ns3:hr>123</ns3:hr>
            <ns3:cad>56</ns3:cad>
          </ns3:TrackPointExtension>
        </extensions>
      </trkpt>
      <trkpt lat="56.0222749225795269012451171875" lon="24.09693703986704349517822265625">
        <ele>50.59999847412109375</ele>
        <time>2026-08-01T10:43:05.000Z</time>
        <extensions>
          <ns3:TrackPointExtension>
            <ns3:hr>126</ns3:hr>
            <ns3:cad>55</ns3:cad>
          </ns3:TrackPointExtension>
        </extensions>
      </trkpt>
      <trkpt lat="56.022229827940464019775390625" lon="24.09693268127739429473876953125">
        <ele>50.59999847412109375</ele>
        <time>2026-08-01T10:43:08.000Z</time>
        <extensions>
          <ns3:TrackPointExtension>
            <ns3:hr>129</ns3:hr>
            <ns3:cad>56</ns3:cad>
          </ns3:TrackPointExtension>
        </extensions>
      </trkpt>
      <trkpt lat="56.022153384983539581298828125" lon="24.09690736792981624603271484375">
        <ele>50.799999237060546875</ele>
        <time>2026-08-01T10:43:12.000Z</time>
        <extensions>
          <ns3:TrackPointExtension>
            <ns3:hr>129</ns3:hr>
            <ns3:cad>57</ns3:cad>
          </ns3:TrackPointExtension>
        </extensions>
      </trkpt>
      <trkpt lat="56.0220754332840442657470703125" lon="24.09686160273849964141845703125">
        <ele>50.799999237060546875</ele>
        <time>2026-08-01T10:43:19.000Z</time>
        <extensions>
          <ns3:TrackPointExtension>
            <ns3:hr>129</ns3:hr>
            <ns3:cad>56</ns3:cad>
          </ns3:TrackPointExtension>
        </extensions>
      </trkpt>
      <trkpt lat="56.02198650129139423370361328125" lon="24.0967902727425098419189453125">
        <ele>50.799999237060546875</ele>
        <time>2026-08-01T10:43:27.000Z</time>
        <extensions>
          <ns3:TrackPointExtension>
            <ns3:hr>131</ns3:hr>
            <ns3:cad>55</ns3:cad>
          </ns3:TrackPointExtension>
        </extensions>
      </trkpt>
      <trkpt lat="56.02192439138889312744140625" lon="24.096773676574230194091796875">
        <ele>50.59999847412109375</ele>
        <time>2026-08-01T10:43:34.000Z</time>
        <extensions>
          <ns3:TrackPointExtension>
            <ns3:hr>131</ns3:hr>
            <ns3:cad>54</ns3:cad>
          </ns3:TrackPointExtension>
        </extensions>
      </trkpt>
      <trkpt lat="56.02185825817286968231201171875" lon="24.096771664917469024658203125">
        <ele>50.40000152587890625</ele>
        <time>2026-08-01T10:43:42.000Z</time>
        <extensions>
          <ns3:TrackPointExtension>
            <ns3:hr>131</ns3:hr>
            <ns3:cad>0</ns3:cad>
          </ns3:TrackPointExtension>
        </extensions>
      </trkpt>
      <trkpt lat="56.0217981599271297454833984375" lon="24.09677141346037387847900390625">
        <ele>50.799999237060546875</ele>
        <time>2026-08-01T10:43:48.000Z</time>
        <extensions>
          <ns3:TrackPointExtension>
            <ns3:hr>133</ns3:hr>
            <ns3:cad>52</ns3:cad>
          </ns3:TrackPointExtension>
        </extensions>
      </trkpt>
      <trkpt lat="56.02173655293881893157958984375" lon="24.09675951115787029266357421875">
        <ele>50.799999237060546875</ele>
        <time>2026-08-01T10:43:55.000Z</time>
        <extensions>
          <ns3:TrackPointExtension>
            <ns3:hr>130</ns3:hr>
            <ns3:cad>0</ns3:cad>
          </ns3:TrackPointExtension>
        </extensions>
      </trkpt>
      <trkpt lat="56.0217173583805561065673828125" lon="24.09677334129810333251953125">
        <ele>50.799999237060546875</ele>
        <time>2026-08-01T10:43:57.000Z</time>
        <extensions>
          <ns3:TrackPointExtension>
            <ns3:hr>130</ns3:hr>
            <ns3:cad>42</ns3:cad>
          </ns3:TrackPointExtension>
        </extensions>
      </trkpt>
      <trkpt lat="56.0216959007084369659423828125" lon="24.096801839768886566162109375">
        <ele>50.799999237060546875</ele>
        <time>2026-08-01T10:44:02.000Z</time>
        <extensions>
          <ns3:TrackPointExtension>
            <ns3:hr>133</ns3:hr>
            <ns3:cad>43</ns3:cad>
          </ns3:TrackPointExtension>
        </extensions>
      </trkpt>
      <trkpt lat="56.0216838307678699493408203125" lon="24.0968043543398380279541015625">
        <ele>50.799999237060546875</ele>
        <time>2026-08-01T10:44:04.000Z</time>
        <extensions>
          <ns3:TrackPointExtension>
            <ns3:hr>133</ns3:hr>
            <ns3:cad>0</ns3:cad>
          </ns3:TrackPointExtension>
        </extensions>
      </trkpt>
      <trkpt lat="56.02164284326136112213134765625" lon="24.096818603575229644775390625">
        <ele>51</ele>
        <time>2026-08-01T10:44:10.000Z</time>
        <extensions>
          <ns3:TrackPointExtension>
            <ns3:hr>133</ns3:hr>
            <ns3:cad>17</ns3:cad>
          </ns3:TrackPointExtension>
        </extensions>
      </trkpt>
      <trkpt lat="56.02162959985435009002685546875" lon="24.09681550227105617523193359375">
        <ele>50.799999237060546875</ele>
        <time>2026-08-01T10:44:16.000Z</time>
        <extensions>
          <ns3:TrackPointExtension>
            <ns3:hr>132</ns3:hr>
            <ns3:cad>0</ns3:cad>
          </ns3:TrackPointExtension>
        </extensions>
      </trkpt>
      <trkpt lat="56.0216043703258037567138671875" lon="24.09684651531279087066650390625">
        <ele>50.59999847412109375</ele>
        <time>2026-08-01T10:44:24.000Z</time>
        <extensions>
          <ns3:TrackPointExtension>
            <ns3:hr>131</ns3:hr>
            <ns3:cad>0</ns3:cad>
          </ns3:TrackPointExtension>
        </extensions>
      </trkpt>
      <trkpt lat="56.0216150991618633270263671875" lon="24.0968395583331584930419921875">
        <ele>50.59999847412109375</ele>
        <time>2026-08-01T10:44:29.000Z</time>
        <extensions>
          <ns3:TrackPointExtension>
            <ns3:hr>138</ns3:hr>
            <ns3:cad>0</ns3:cad>
          </ns3:TrackPointExtension>
        </extensions>
      </trkpt>
      <trkpt lat="56.0216040350496768951416015625" lon="24.09684835933148860931396484375">
        <ele>50.59999847412109375</ele>
        <time>2026-08-01T10:44:32.000Z</time>
        <extensions>
          <ns3:TrackPointExtension>
            <ns3:hr>140</ns3:hr>
            <ns3:cad>0</ns3:cad>
          </ns3:TrackPointExtension>
        </extensions>
      </trkpt>
      <trkpt lat="56.02156925015151500701904296875" lon="24.09684785641729831695556640625">
        <ele>51</ele>
        <time>2026-08-01T10:44:41.000Z</time>
        <extensions>
          <ns3:TrackPointExtension>
            <ns3:hr>139</ns3:hr>
            <ns3:cad>0</ns3:cad>
          </ns3:TrackPointExtension>
        </extensions>
      </trkpt>
      <trkpt lat="56.02156338281929492950439453125" lon="24.09684844315052032470703125">
        <ele>50.799999237060546875</ele>
        <time>2026-08-01T10:44:50.000Z</time>
        <extensions>
          <ns3:TrackPointExtension>
            <ns3:hr>141</ns3:hr>
            <ns3:cad>0</ns3:cad>
          </ns3:TrackPointExtension>
        </extensions>
      </trkpt>
      <trkpt lat="56.02156757377088069915771484375" lon="24.096819274127483367919921875">
        <ele>50.59999847412109375</ele>
        <time>2026-08-01T10:44:56.000Z</time>
        <extensions>
          <ns3:TrackPointExtension>
            <ns3:hr>138</ns3:hr>
            <ns3:cad>0</ns3:cad>
          </ns3:TrackPointExtension>
        </extensions>
      </trkpt>
      <trkpt lat="56.02156388573348522186279296875" lon="24.0968134067952632904052734375">
        <ele>50.59999847412109375</ele>
        <time>2026-08-01T10:44:57.000Z</time>
        <extensions>
          <ns3:TrackPointExtension>
            <ns3:hr>135</ns3:hr>
            <ns3:cad>0</ns3:cad>
          </ns3:TrackPointExtension>
        </extensions>
      </trkpt>
      <trkpt lat="56.0215621255338191986083984375" lon="24.09681600518524646759033203125">
        <ele>50.799999237060546875</ele>
        <time>2026-08-01T10:44:58.000Z</time>
        <extensions>
          <ns3:TrackPointExtension>
            <ns3:hr>133</ns3:hr>
            <ns3:cad>0</ns3:cad>
          </ns3:TrackPointExtension>
        </extensions>
      </trkpt>
      <trkpt lat="56.02154326625168323516845703125" lon="24.0968251414597034454345703125">
        <ele>51.200000762939453125</ele>
        <time>2026-08-01T10:45:04.000Z</time>
        <extensions>
          <ns3:TrackPointExtension>
            <ns3:hr>130</ns3:hr>
            <ns3:cad>0</ns3:cad>
          </ns3:TrackPointExtension>
        </extensions>
      </trkpt>
      <trkpt lat="56.02151057682931423187255859375" lon="24.096839725971221923828125">
        <ele>51</ele>
        <time>2026-08-01T10:45:11.000Z</time>
        <extensions>
          <ns3:TrackPointExtension>
            <ns3:hr>132</ns3:hr>
            <ns3:cad>0</ns3:cad>
          </ns3:TrackPointExtension>
        </extensions>
      </trkpt>
      <trkpt lat="56.0214826650917530059814453125" lon="24.0968196094036102294921875">
        <ele>51</ele>
        <time>2026-08-01T10:45:17.000Z</time>
        <extensions>
          <ns3:TrackPointExtension>
            <ns3:hr>132</ns3:hr>
            <ns3:cad>59</ns3:cad>
          </ns3:TrackPointExtension>
        </extensions>
      </trkpt>
      <trkpt lat="56.02148191072046756744384765625" lon="24.096828661859035491943359375">
        <ele>51</ele>
        <time>2026-08-01T10:45:21.000Z</time>
        <extensions>
          <ns3:TrackPointExtension>
            <ns3:hr>135</ns3:hr>
            <ns3:cad>0</ns3:cad>
          </ns3:TrackPointExtension>
        </extensions>
      </trkpt>
      <trkpt lat="56.0214585252106189727783203125" lon="24.09682773984968662261962890625">
        <ele>51</ele>
        <time>2026-08-01T10:45:26.000Z</time>
        <extensions>
          <ns3:TrackPointExtension>
            <ns3:hr>134</ns3:hr>
            <ns3:cad>0</ns3:cad>
          </ns3:TrackPointExtension>
        </extensions>
      </trkpt>
      <trkpt lat="56.02143128402531147003173828125" lon="24.09679756499826908111572265625">
        <ele>51.200000762939453125</ele>
        <time>2026-08-01T10:45:32.000Z</time>
        <extensions>
          <ns3:TrackPointExtension>
            <ns3:hr>135</ns3:hr>
            <ns3:cad>0</ns3:cad>
          </ns3:TrackPointExtension>
        </extensions>
      </trkpt>
      <trkpt lat="56.0214092396199703216552734375" lon="24.09674442373216152191162109375">
        <ele>51.200000762939453125</ele>
        <time>2026-08-01T10:45:38.000Z</time>
        <extensions>
          <ns3:TrackPointExtension>
            <ns3:hr>134</ns3:hr>
            <ns3:cad>0</ns3:cad>
          </ns3:TrackPointExtension>
        </extensions>
      </trkpt>
      <trkpt lat="56.02137587964534759521484375" lon="24.09670653752982616424560546875">
        <ele>51.40000152587890625</ele>
        <time>2026-08-01T10:45:43.000Z</time>
        <extensions>
          <ns3:TrackPointExtension>
            <ns3:hr>138</ns3:hr>
            <ns3:cad>0</ns3:cad>
          </ns3:TrackPointExtension>
        </extensions>
      </trkpt>
      <trkpt lat="56.0213591158390045166015625" lon="24.096699245274066925048828125">
        <ele>51.59999847412109375</ele>
        <time>2026-08-01T10:45:45.000Z</time>
        <extensions>
          <ns3:TrackPointExtension>
            <ns3:hr>140</ns3:hr>
            <ns3:cad>0</ns3:cad>
          </ns3:TrackPointExtension>
        </extensions>
      </trkpt>
      <trkpt lat="56.02134997956454753875732421875" lon="24.09669916145503520965576171875">
        <ele>51.59999847412109375</ele>
        <time>2026-08-01T10:45:46.000Z</time>
        <extensions>
          <ns3:TrackPointExtension>
            <ns3:hr>141</ns3:hr>
            <ns3:cad>0</ns3:cad>
          </ns3:TrackPointExtension>
        </extensions>
      </trkpt>
      <trkpt lat="56.02127605117857456207275390625" lon="24.096700586378574371337890625">
        <ele>51.799999237060546875</ele>
        <time>2026-08-01T10:45:53.000Z</time>
        <extensions>
          <ns3:TrackPointExtension>
            <ns3:hr>142</ns3:hr>
            <ns3:cad>0</ns3:cad>
          </ns3:TrackPointExtension>
        </extensions>
      </trkpt>
      <trkpt lat="56.02122592739760875701904296875" lon="24.096700251102447509765625">
        <ele>52</ele>
        <time>2026-08-01T10:46:00.000Z</time>
        <extensions>
          <ns3:TrackPointExtension>
            <ns3:hr>143</ns3:hr>
            <ns3:cad>0</ns3:cad>
          </ns3:TrackPointExtension>
        </extensions>
      </trkpt>
      <trkpt lat="56.02115719579160213470458984375" lon="24.0966876782476902008056640625">
        <ele>52</ele>
        <time>2026-08-01T10:46:08.000Z</time>
        <extensions>
          <ns3:TrackPointExtension>
            <ns3:hr>144</ns3:hr>
            <ns3:cad>0</ns3:cad>
          </ns3:TrackPointExtension>
        </extensions>
      </trkpt>
      <trkpt lat="56.0210635699331760406494140625" lon="24.09665398299694061279296875">
        <ele>52.200000762939453125</ele>
        <time>2026-08-01T10:46:17.000Z</time>
        <extensions>
          <ns3:TrackPointExtension>
            <ns3:hr>143</ns3:hr>
            <ns3:cad>51</ns3:cad>
          </ns3:TrackPointExtension>
        </extensions>
      </trkpt>
      <trkpt lat="56.02097916416823863983154296875" lon="24.09662908874452114105224609375">
        <ele>52.40000152587890625</ele>
        <time>2026-08-01T10:46:25.000Z</time>
        <extensions>
          <ns3:TrackPointExtension>
            <ns3:hr>143</ns3:hr>
            <ns3:cad>59</ns3:cad>
          </ns3:TrackPointExtension>
        </extensions>
      </trkpt>
      <trkpt lat="56.02091227658092975616455078125" lon="24.0966075472533702850341796875">
        <ele>52.59999847412109375</ele>
        <time>2026-08-01T10:46:30.000Z</time>
        <extensions>
          <ns3:TrackPointExtension>
            <ns3:hr>140</ns3:hr>
            <ns3:cad>55</ns3:cad>
          </ns3:TrackPointExtension>
        </extensions>
      </trkpt>
      <trkpt lat="56.0208841972053050994873046875" lon="24.09660344012081623077392578125">
        <ele>52.59999847412109375</ele>
        <time>2026-08-01T10:46:32.000Z</time>
        <extensions>
          <ns3:TrackPointExtension>
            <ns3:hr>139</ns3:hr>
            <ns3:cad>54</ns3:cad>
          </ns3:TrackPointExtension>
        </extensions>
      </trkpt>
      <trkpt lat="56.02084882557392120361328125" lon="24.09659757278859615325927734375">
        <ele>52.59999847412109375</ele>
        <time>2026-08-01T10:46:35.000Z</time>
        <extensions>
          <ns3:TrackPointExtension>
            <ns3:hr>140</ns3:hr>
            <ns3:cad>55</ns3:cad>
          </ns3:TrackPointExtension>
        </extensions>
      </trkpt>
      <trkpt lat="56.02077565155923366546630859375" lon="24.09658131189644336700439453125">
        <ele>52.59999847412109375</ele>
        <time>2026-08-01T10:46:41.000Z</time>
        <extensions>
          <ns3:TrackPointExtension>
            <ns3:hr>140</ns3:hr>
            <ns3:cad>56</ns3:cad>
          </ns3:TrackPointExtension>
        </extensions>
      </trkpt>
      <trkpt lat="56.02066643536090850830078125" lon="24.0965585969388484954833984375">
        <ele>52.59999847412109375</ele>
        <time>2026-08-01T10:46:49.000Z</time>
        <extensions>
          <ns3:TrackPointExtension>
            <ns3:hr>137</ns3:hr>
            <ns3:cad>56</ns3:cad>
          </ns3:TrackPointExtension>
        </extensions>
      </trkpt>
      <trkpt lat="56.0206429660320281982421875" lon="24.0965512208640575408935546875">
        <ele>52.59999847412109375</ele>
        <time>2026-08-01T10:46:51.000Z</time>
        <extensions>
          <ns3:TrackPointExtension>
            <ns3:hr>136</ns3:hr>
            <ns3:cad>56</ns3:cad>
          </ns3:TrackPointExtension>
        </extensions>
      </trkpt>
      <trkpt lat="56.02055889554321765899658203125" lon="24.096536971628665924072265625">
        <ele>52.59999847412109375</ele>
        <time>2026-08-01T10:46:58.000Z</time>
        <extensions>
          <ns3:TrackPointExtension>
            <ns3:hr>136</ns3:hr>
            <ns3:cad>56</ns3:cad>
          </ns3:TrackPointExtension>
        </extensions>
      </trkpt>
      <trkpt lat="56.0204607434570789337158203125" lon="24.096523225307464599609375">
        <ele>52.799999237060546875</ele>
        <time>2026-08-01T10:47:06.000Z</time>
        <extensions>
          <ns3:TrackPointExtension>
            <ns3:hr>135</ns3:hr>
            <ns3:cad>56</ns3:cad>
          </ns3:TrackPointExtension>
        </extensions>
      </trkpt>
      <trkpt lat="56.0203806124627590179443359375" lon="24.09649715758860111236572265625">
        <ele>52.799999237060546875</ele>
        <time>2026-08-01T10:47:12.000Z</time>
        <extensions>
          <ns3:TrackPointExtension>
            <ns3:hr>135</ns3:hr>
            <ns3:cad>56</ns3:cad>
          </ns3:TrackPointExtension>
        </extensions>
      </trkpt>
      <trkpt lat="56.020281873643398284912109375" lon="24.09649833105504512786865234375">
        <ele>52.59999847412109375</ele>
        <time>2026-08-01T10:47:19.000Z</time>
        <extensions>
          <ns3:TrackPointExtension>
            <ns3:hr>135</ns3:hr>
            <ns3:cad>56</ns3:cad>
          </ns3:TrackPointExtension>
        </extensions>
      </trkpt>
      <trkpt lat="56.0201569832861423492431640625" lon="24.09648307599127292633056640625">
        <ele>52.59999847412109375</ele>
        <time>2026-08-01T10:47:28.000Z</time>
        <extensions>
          <ns3:TrackPointExtension>
            <ns3:hr>135</ns3:hr>
            <ns3:cad>60</ns3:cad>
          </ns3:TrackPointExtension>
        </extensions>
      </trkpt>
      <trkpt lat="56.02007240988314151763916015625" lon="24.09644535742700099945068359375">
        <ele>52.59999847412109375</ele>
        <time>2026-08-01T10:47:35.000Z</time>
        <extensions>
          <ns3:TrackPointExtension>
            <ns3:hr>134</ns3:hr>
            <ns3:cad>55</ns3:cad>
          </ns3:TrackPointExtension>
        </extensions>
      </trkpt>
      <trkpt lat="56.01998222060501575469970703125" lon="24.09643999300897121429443359375">
        <ele>52.59999847412109375</ele>
        <time>2026-08-01T10:47:43.000Z</time>
        <extensions>
          <ns3:TrackPointExtension>
            <ns3:hr>133</ns3:hr>
            <ns3:cad>53</ns3:cad>
          </ns3:TrackPointExtension>
        </extensions>
      </trkpt>
      <trkpt lat="56.0198649577796459197998046875" lon="24.09643429331481456756591796875">
        <ele>52.59999847412109375</ele>
        <time>2026-08-01T10:47:52.000Z</time>
        <extensions>
          <ns3:TrackPointExtension>
            <ns3:hr>133</ns3:hr>
            <ns3:cad>54</ns3:cad>
          </ns3:TrackPointExtension>
        </extensions>
      </trkpt>
      <trkpt lat="56.0197766125202178955078125" lon="24.0964016877114772796630859375">
        <ele>52.59999847412109375</ele>
        <time>2026-08-01T10:48:00.000Z</time>
        <extensions>
          <ns3:TrackPointExtension>
            <ns3:hr>134</ns3:hr>
            <ns3:cad>53</ns3:cad>
          </ns3:TrackPointExtension>
        </extensions>
      </trkpt>
      <trkpt lat="56.019636802375316619873046875" lon="24.096366651356220245361328125">
        <ele>52.59999847412109375</ele>
        <time>2026-08-01T10:48:12.000Z</time>
        <extensions>
          <ns3:TrackPointExtension>
            <ns3:hr>134</ns3:hr>
            <ns3:cad>55</ns3:cad>
          </ns3:TrackPointExtension>
        </extensions>
      </trkpt>
      <trkpt lat="56.0195263288915157318115234375" lon="24.096362628042697906494140625">
        <ele>52.59999847412109375</ele>
        <time>2026-08-01T10:48:21.000Z</time>
        <extensions>
          <ns3:TrackPointExtension>
            <ns3:hr>135</ns3:hr>
            <ns3:cad>56</ns3:cad>
          </ns3:TrackPointExtension>
        </extensions>
      </trkpt>
      <trkpt lat="56.01944267749786376953125" lon="24.09630957059562206268310546875">
        <ele>52.59999847412109375</ele>
        <time>2026-08-01T10:48:28.000Z</time>
        <extensions>
          <ns3:TrackPointExtension>
            <ns3:hr>135</ns3:hr>
            <ns3:cad>55</ns3:cad>
          </ns3:TrackPointExtension>
        </extensions>
      </trkpt>
      <trkpt lat="56.019358523190021514892578125" lon="24.09623824059963226318359375">
        <ele>52.59999847412109375</ele>
        <time>2026-08-01T10:48:37.000Z</time>
        <extensions>
          <ns3:TrackPointExtension>
            <ns3:hr>136</ns3:hr>
            <ns3:cad>56</ns3:cad>
          </ns3:TrackPointExtension>
        </extensions>
      </trkpt>
      <trkpt lat="56.0193117521703243255615234375" lon="24.09618987701833248138427734375">
        <ele>52.40000152587890625</ele>
        <time>2026-08-01T10:48:44.000Z</time>
        <extensions>
          <ns3:TrackPointExtension>
            <ns3:hr>135</ns3:hr>
            <ns3:cad>0</ns3:cad>
          </ns3:TrackPointExtension>
        </extensions>
      </trkpt>
      <trkpt lat="56.01927026174962520599365234375" lon="24.0961566008627414703369140625">
        <ele>52.59999847412109375</ele>
        <time>2026-08-01T10:48:50.000Z</time>
        <extensions>
          <ns3:TrackPointExtension>
            <ns3:hr>138</ns3:hr>
            <ns3:cad>53</ns3:cad>
          </ns3:TrackPointExtension>
        </extensions>
      </trkpt>
      <trkpt lat="56.0192557610571384429931640625" lon="24.096143357455730438232421875">
        <ele>52.40000152587890625</ele>
        <time>2026-08-01T10:48:52.000Z</time>
        <extensions>
          <ns3:TrackPointExtension>
            <ns3:hr>140</ns3:hr>
            <ns3:cad>53</ns3:cad>
          </ns3:TrackPointExtension>
        </extensions>
      </trkpt>
      <trkpt lat="56.01920069195330142974853515625" lon="24.096064902842044830322265625">
        <ele>52.200000762939453125</ele>
        <time>2026-08-01T10:48:59.000Z</time>
        <extensions>
          <ns3:TrackPointExtension>
            <ns3:hr>138</ns3:hr>
            <ns3:cad>45</ns3:cad>
          </ns3:TrackPointExtension>
        </extensions>
      </trkpt>
      <trkpt lat="56.01914218626916408538818359375" lon="24.0959500707685947418212890625">
        <ele>52</ele>
        <time>2026-08-01T10:49:08.000Z</time>
        <extensions>
          <ns3:TrackPointExtension>
            <ns3:hr>140</ns3:hr>
            <ns3:cad>51</ns3:cad>
          </ns3:TrackPointExtension>
        </extensions>
      </trkpt>
      <trkpt lat="56.01906825788319110870361328125" lon="24.0958981029689311981201171875">
        <ele>52.200000762939453125</ele>
        <time>2026-08-01T10:49:15.000Z</time>
        <extensions>
          <ns3:TrackPointExtension>
            <ns3:hr>141</ns3:hr>
            <ns3:cad>53</ns3:cad>
          </ns3:TrackPointExtension>
        </extensions>
      </trkpt>
      <trkpt lat="56.01901545189321041107177734375" lon="24.09582861699163913726806640625">
        <ele>52</ele>
        <time>2026-08-01T10:49:20.000Z</time>
        <extensions>
          <ns3:TrackPointExtension>
            <ns3:hr>138</ns3:hr>
            <ns3:cad>55</ns3:cad>
          </ns3:TrackPointExtension>
        </extensions>
      </trkpt>
      <trkpt lat="56.01898058317601680755615234375" lon="24.09579575993120670318603515625">
        <ele>52</ele>
        <time>2026-08-01T10:49:23.000Z</time>
        <extensions>
          <ns3:TrackPointExtension>
            <ns3:hr>137</ns3:hr>
            <ns3:cad>55</ns3:cad>
          </ns3:TrackPointExtension>
        </extensions>
      </trkpt>
      <trkpt lat="56.0189198143780231475830078125" lon="24.0957194007933139801025390625">
        <ele>52</ele>
        <time>2026-08-01T10:49:30.000Z</time>
        <extensions>
          <ns3:TrackPointExtension>
            <ns3:hr>135</ns3:hr>
            <ns3:cad>51</ns3:cad>
          </ns3:TrackPointExtension>
        </extensions>
      </trkpt>
      <trkpt lat="56.01885401643812656402587890625" lon="24.0956030599772930145263671875">
        <ele>52</ele>
        <time>2026-08-01T10:49:37.000Z</time>
        <extensions>
          <ns3:TrackPointExtension>
            <ns3:hr>136</ns3:hr>
            <ns3:cad>60</ns3:cad>
          </ns3:TrackPointExtension>
        </extensions>
      </trkpt>
      <trkpt lat="56.0187595523893833160400390625" lon="24.09547523595392704010009765625">
        <ele>51.799999237060546875</ele>
        <time>2026-08-01T10:49:46.000Z</time>
        <extensions>
          <ns3:TrackPointExtension>
            <ns3:hr>137</ns3:hr>
            <ns3:cad>56</ns3:cad>
          </ns3:TrackPointExtension>
        </extensions>
      </trkpt>
      <trkpt lat="56.0186499170958995819091796875" lon="24.09534062258899211883544921875">
        <ele>51.799999237060546875</ele>
        <time>2026-08-01T10:49:56.000Z</time>
        <extensions>
          <ns3:TrackPointExtension>
            <ns3:hr>135</ns3:hr>
            <ns3:cad>56</ns3:cad>
          </ns3:TrackPointExtension>
        </extensions>
      </trkpt>
      <trkpt lat="56.01859685964882373809814453125" lon="24.09525361843407154083251953125">
        <ele>51.59999847412109375</ele>
        <time>2026-08-01T10:50:02.000Z</time>
        <extensions>
          <ns3:TrackPointExtension>
            <ns3:hr>133</ns3:hr>
            <ns3:cad>56</ns3:cad>
          </ns3:TrackPointExtension>
        </extensions>
      </trkpt>
      <trkpt lat="56.018571294844150543212890625" lon="24.09523048438131809234619140625">
        <ele>51.59999847412109375</ele>
        <time>2026-08-01T10:50:04.000Z</time>
        <extensions>
          <ns3:TrackPointExtension>
            <ns3:hr>133</ns3:hr>
            <ns3:cad>56</ns3:cad>
          </ns3:TrackPointExtension>
        </extensions>
      </trkpt>
      <trkpt lat="56.0184970311820507049560546875" lon="24.095140211284160614013671875">
        <ele>51.799999237060546875</ele>
        <time>2026-08-01T10:50:12.000Z</time>
        <extensions>
          <ns3:TrackPointExtension>
            <ns3:hr>134</ns3:hr>
            <ns3:cad>55</ns3:cad>
          </ns3:TrackPointExtension>
        </extensions>
      </trkpt>
      <trkpt lat="56.01842637173831462860107421875" lon="24.09503996372222900390625">
        <ele>51.799999237060546875</ele>
        <time>2026-08-01T10:50:19.000Z</time>
        <extensions>
          <ns3:TrackPointExtension>
            <ns3:hr>133</ns3:hr>
            <ns3:cad>56</ns3:cad>
          </ns3:TrackPointExtension>
        </extensions>
      </trkpt>
      <trkpt lat="56.01834104396402835845947265625" lon="24.09495078027248382568359375">
        <ele>51.799999237060546875</ele>
        <time>2026-08-01T10:50:27.000Z</time>
        <extensions>
          <ns3:TrackPointExtension>
            <ns3:hr>133</ns3:hr>
            <ns3:cad>56</ns3:cad>
          </ns3:TrackPointExtension>
        </extensions>
      </trkpt>
      <trkpt lat="56.01824574172496795654296875" lon="24.09485832788050174713134765625">
        <ele>51.799999237060546875</ele>
        <time>2026-08-01T10:50:34.000Z</time>
        <extensions>
          <ns3:TrackPointExtension>
            <ns3:hr>134</ns3:hr>
            <ns3:cad>57</ns3:cad>
          </ns3:TrackPointExtension>
        </extensions>
      </trkpt>
      <trkpt lat="56.018144823610782623291015625" lon="24.09479118883609771728515625">
        <ele>51.799999237060546875</ele>
        <time>2026-08-01T10:50:42.000Z</time>
        <extensions>
          <ns3:TrackPointExtension>
            <ns3:hr>135</ns3:hr>
            <ns3:cad>57</ns3:cad>
          </ns3:TrackPointExtension>
        </extensions>
      </trkpt>
      <trkpt lat="56.01804633624851703643798828125" lon="24.09471449442207813262939453125">
        <ele>51.799999237060546875</ele>
        <time>2026-08-01T10:50:50.000Z</time>
        <extensions>
          <ns3:TrackPointExtension>
            <ns3:hr>134</ns3:hr>
            <ns3:cad>57</ns3:cad>
          </ns3:TrackPointExtension>
        </extensions>
      </trkpt>
      <trkpt lat="56.01791306398808956146240234375" lon="24.09465749748051166534423828125">
        <ele>52</ele>
        <time>2026-08-01T10:50:59.000Z</time>
        <extensions>
          <ns3:TrackPointExtension>
            <ns3:hr>136</ns3:hr>
            <ns3:cad>55</ns3:cad>
          </ns3:TrackPointExtension>
        </extensions>
      </trkpt>
      <trkpt lat="56.017823629081249237060546875" lon="24.09460720606148242950439453125">
        <ele>51.59999847412109375</ele>
        <time>2026-08-01T10:51:06.000Z</time>
        <extensions>
          <ns3:TrackPointExtension>
            <ns3:hr>136</ns3:hr>
            <ns3:cad>58</ns3:cad>
          </ns3:TrackPointExtension>
        </extensions>
      </trkpt>
      <trkpt lat="56.01772405207157135009765625" lon="24.09458189271390438079833984375">
        <ele>51.59999847412109375</ele>
        <time>2026-08-01T10:51:13.000Z</time>
        <extensions>
          <ns3:TrackPointExtension>
            <ns3:hr>136</ns3:hr>
            <ns3:cad>57</ns3:cad>
          </ns3:TrackPointExtension>
        </extensions>
      </trkpt>
      <trkpt lat="56.01761248894035816192626953125" lon="24.09454065375030040740966796875">
        <ele>51.799999237060546875</ele>
        <time>2026-08-01T10:51:20.000Z</time>
        <extensions>
          <ns3:TrackPointExtension>
            <ns3:hr>134</ns3:hr>
            <ns3:cad>57</ns3:cad>
          </ns3:TrackPointExtension>
        </extensions>
      </trkpt>
      <trkpt lat="56.017503775656223297119140625" lon="24.0944619476795196533203125">
        <ele>51.799999237060546875</ele>
        <time>2026-08-01T10:51:29.000Z</time>
        <extensions>
          <ns3:TrackPointExtension>
            <ns3:hr>135</ns3:hr>
            <ns3:cad>57</ns3:cad>
          </ns3:TrackPointExtension>
        </extensions>
      </trkpt>
      <trkpt lat="56.01739950478076934814453125" lon="24.0943870134651660919189453125">
        <ele>52.40000152587890625</ele>
        <time>2026-08-01T10:51:37.000Z</time>
        <extensions>
          <ns3:TrackPointExtension>
            <ns3:hr>136</ns3:hr>
            <ns3:cad>57</ns3:cad>
          </ns3:TrackPointExtension>
        </extensions>
      </trkpt>
      <trkpt lat="56.01735499687492847442626953125" lon="24.0943759493529796600341796875">
        <ele>52.799999237060546875</ele>
        <time>2026-08-01T10:51:40.000Z</time>
        <extensions>
          <ns3:TrackPointExtension>
            <ns3:hr>137</ns3:hr>
            <ns3:cad>57</ns3:cad>
          </ns3:TrackPointExtension>
        </extensions>
      </trkpt>
      <trkpt lat="56.0173130035400390625" lon="24.09442297182977199554443359375">
        <ele>53</ele>
        <time>2026-08-01T10:51:43.000Z</time>
        <extensions>
          <ns3:TrackPointExtension>
            <ns3:hr>137</ns3:hr>
            <ns3:cad>56</ns3:cad>
          </ns3:TrackPointExtension>
        </extensions>
      </trkpt>
      <trkpt lat="56.01727637462317943572998046875" lon="24.09456965513527393341064453125">
        <ele>53.200000762939453125</ele>
        <time>2026-08-01T10:51:49.000Z</time>
        <extensions>
          <ns3:TrackPointExtension>
            <ns3:hr>140</ns3:hr>
            <ns3:cad>56</ns3:cad>
          </ns3:TrackPointExtension>
        </extensions>
      </trkpt>
      <trkpt lat="56.0172705911099910736083984375" lon="24.094593040645122528076171875">
        <ele>53.200000762939453125</ele>
        <time>2026-08-01T10:51:50.000Z</time>
        <extensions>
          <ns3:TrackPointExtension>
            <ns3:hr>140</ns3:hr>
            <ns3:cad>56</ns3:cad>
          </ns3:TrackPointExtension>
        </extensions>
      </trkpt>
      <trkpt lat="56.0172447748482227325439453125" lon="24.0948188491165637969970703125">
        <ele>53.200000762939453125</ele>
        <time>2026-08-01T10:51:59.000Z</time>
        <extensions>
          <ns3:TrackPointExtension>
            <ns3:hr>142</ns3:hr>
            <ns3:cad>59</ns3:cad>
          </ns3:TrackPointExtension>
        </extensions>
      </trkpt>
      <trkpt lat="56.01720328442752361297607421875" lon="24.09502026624977588653564453125">
        <ele>53.200000762939453125</ele>
        <time>2026-08-01T10:52:07.000Z</time>
        <extensions>
          <ns3:TrackPointExtension>
            <ns3:hr>140</ns3:hr>
            <ns3:cad>59</ns3:cad>
          </ns3:TrackPointExtension>
        </extensions>
      </trkpt>
      <trkpt lat="56.01717411540448665618896484375" lon="24.09511012025177478790283203125">
        <ele>53.40000152587890625</ele>
        <time>2026-08-01T10:52:11.000Z</time>
        <extensions>
          <ns3:TrackPointExtension>
            <ns3:hr>137</ns3:hr>
            <ns3:cad>60</ns3:cad>
          </ns3:TrackPointExtension>
        </extensions>
      </trkpt>
      <trkpt lat="56.01716087199747562408447265625" lon="24.09514926373958587646484375">
        <ele>53.40000152587890625</ele>
        <time>2026-08-01T10:52:13.000Z</time>
        <extensions>
          <ns3:TrackPointExtension>
            <ns3:hr>134</ns3:hr>
            <ns3:cad>60</ns3:cad>
          </ns3:TrackPointExtension>
        </extensions>
      </trkpt>
      <trkpt lat="56.0171565972268581390380859375" lon="24.09517700783908367156982421875">
        <ele>53.40000152587890625</ele>
        <time>2026-08-01T10:52:14.000Z</time>
        <extensions>
          <ns3:TrackPointExtension>
            <ns3:hr>133</ns3:hr>
            <ns3:cad>60</ns3:cad>
          </ns3:TrackPointExtension>
        </extensions>
      </trkpt>
      <trkpt lat="56.01711158640682697296142578125" lon="24.095386974513530731201171875">
        <ele>53.40000152587890625</ele>
        <time>2026-08-01T10:52:23.000Z</time>
        <extensions>
          <ns3:TrackPointExtension>
            <ns3:hr>132</ns3:hr>
            <ns3:cad>59</ns3:cad>
          </ns3:TrackPointExtension>
        </extensions>
      </trkpt>
      <trkpt lat="56.01705727167427539825439453125" lon="24.09554916433990001678466796875">
        <ele>53.59999847412109375</ele>
        <time>2026-08-01T10:52:30.000Z</time>
        <extensions>
          <ns3:TrackPointExtension>
            <ns3:hr>133</ns3:hr>
            <ns3:cad>59</ns3:cad>
          </ns3:TrackPointExtension>
        </extensions>
      </trkpt>
      <trkpt lat="56.0170275159180164337158203125" lon="24.09574228338897228240966796875">
        <ele>53.40000152587890625</ele>
        <time>2026-08-01T10:52:38.000Z</time>
        <extensions>
          <ns3:TrackPointExtension>
            <ns3:hr>132</ns3:hr>
            <ns3:cad>59</ns3:cad>
          </ns3:TrackPointExtension>
        </extensions>
      </trkpt>
      <trkpt lat="56.0169872827827930450439453125" lon="24.095928110182285308837890625">
        <ele>53.59999847412109375</ele>
        <time>2026-08-01T10:52:46.000Z</time>
        <extensions>
          <ns3:TrackPointExtension>
            <ns3:hr>133</ns3:hr>
            <ns3:cad>59</ns3:cad>
          </ns3:TrackPointExtension>
        </extensions>
      </trkpt>
      <trkpt lat="56.0169388353824615478515625" lon="24.0961183793842792510986328125">
        <ele>53.40000152587890625</ele>
        <time>2026-08-01T10:52:53.000Z</time>
        <extensions>
          <ns3:TrackPointExtension>
            <ns3:hr>133</ns3:hr>
            <ns3:cad>57</ns3:cad>
          </ns3:TrackPointExtension>
        </extensions>
      </trkpt>
      <trkpt lat="56.0168905556201934814453125" lon="24.0963470377027988433837890625">
        <ele>53.40000152587890625</ele>
        <time>2026-08-01T10:53:02.000Z</time>
        <extensions>
          <ns3:TrackPointExtension>
            <ns3:hr>134</ns3:hr>
            <ns3:cad>59</ns3:cad>
          </ns3:TrackPointExtension>
        </extensions>
      </trkpt>
      <trkpt lat="56.0168602131307125091552734375" lon="24.09655868075788021087646484375">
        <ele>53.40000152587890625</ele>
        <time>2026-08-01T10:53:11.000Z</time>
        <extensions>
          <ns3:TrackPointExtension>
            <ns3:hr>133</ns3:hr>
            <ns3:cad>59</ns3:cad>
          </ns3:TrackPointExtension>
        </extensions>
      </trkpt>
      <trkpt lat="56.016838587820529937744140625" lon="24.09666244871914386749267578125">
        <ele>53.799999237060546875</ele>
        <time>2026-08-01T10:53:16.000Z</time>
        <extensions>
          <ns3:TrackPointExtension>
            <ns3:hr>132</ns3:hr>
            <ns3:cad>60</ns3:cad>
          </ns3:TrackPointExtension>
        </extensions>
      </trkpt>
      <trkpt lat="56.0168293677270412445068359375" lon="24.0967171825468540191650390625">
        <ele>53.59999847412109375</ele>
        <time>2026-08-01T10:53:18.000Z</time>
        <extensions>
          <ns3:TrackPointExtension>
            <ns3:hr>131</ns3:hr>
            <ns3:cad>59</ns3:cad>
          </ns3:TrackPointExtension>
        </extensions>
      </trkpt>
      <trkpt lat="56.01678066886961460113525390625" lon="24.09693025052547454833984375">
        <ele>53.59999847412109375</ele>
        <time>2026-08-01T10:53:27.000Z</time>
        <extensions>
          <ns3:TrackPointExtension>
            <ns3:hr>130</ns3:hr>
            <ns3:cad>59</ns3:cad>
          </ns3:TrackPointExtension>
        </extensions>
      </trkpt>
      <trkpt lat="56.01673171855509281158447265625" lon="24.09715354442596435546875">
        <ele>53.59999847412109375</ele>
        <time>2026-08-01T10:53:36.000Z</time>
        <extensions>
          <ns3:TrackPointExtension>
            <ns3:hr>131</ns3:hr>
            <ns3:cad>59</ns3:cad>
          </ns3:TrackPointExtension>
        </extensions>
      </trkpt>
      <trkpt lat="56.01669098250567913055419921875" lon="24.09734523855149745941162109375">
        <ele>53.59999847412109375</ele>
        <time>2026-08-01T10:53:44.000Z</time>
        <extensions>
          <ns3:TrackPointExtension>
            <ns3:hr>132</ns3:hr>
            <ns3:cad>58</ns3:cad>
          </ns3:TrackPointExtension>
        </extensions>
      </trkpt>
      <trkpt lat="56.0166396014392375946044921875" lon="24.0975349210202693939208984375">
        <ele>53.59999847412109375</ele>
        <time>2026-08-01T10:53:52.000Z</time>
        <extensions>
          <ns3:TrackPointExtension>
            <ns3:hr>133</ns3:hr>
            <ns3:cad>59</ns3:cad>
          </ns3:TrackPointExtension>
        </extensions>
      </trkpt>
      <trkpt lat="56.01660548709332942962646484375" lon="24.0977166406810283660888671875">
        <ele>53.59999847412109375</ele>
        <time>2026-08-01T10:54:00.000Z</time>
        <extensions>
          <ns3:TrackPointExtension>
            <ns3:hr>133</ns3:hr>
            <ns3:cad>59</ns3:cad>
          </ns3:TrackPointExtension>
        </extensions>
      </trkpt>
      <trkpt lat="56.01655284874141216278076171875" lon="24.0979543514549732208251953125">
        <ele>53.40000152587890625</ele>
        <time>2026-08-01T10:54:09.000Z</time>
        <extensions>
          <ns3:TrackPointExtension>
            <ns3:hr>131</ns3:hr>
            <ns3:cad>60</ns3:cad>
          </ns3:TrackPointExtension>
        </extensions>
      </trkpt>
      <trkpt lat="56.01651010103523731231689453125" lon="24.09816616214811801910400390625">
        <ele>53.40000152587890625</ele>
        <time>2026-08-01T10:54:18.000Z</time>
        <extensions>
          <ns3:TrackPointExtension>
            <ns3:hr>131</ns3:hr>
            <ns3:cad>60</ns3:cad>
          </ns3:TrackPointExtension>
        </extensions>
      </trkpt>
      <trkpt lat="56.016457714140415191650390625" lon="24.09836883656680583953857421875">
        <ele>53.200000762939453125</ele>
        <time>2026-08-01T10:54:26.000Z</time>
        <extensions>
          <ns3:TrackPointExtension>
            <ns3:hr>131</ns3:hr>
            <ns3:cad>60</ns3:cad>
          </ns3:TrackPointExtension>
        </extensions>
      </trkpt>
      <trkpt lat="56.016401387751102447509765625" lon="24.09863655455410480499267578125">
        <ele>53.200000762939453125</ele>
        <time>2026-08-01T10:54:36.000Z</time>
        <extensions>
          <ns3:TrackPointExtension>
            <ns3:hr>130</ns3:hr>
            <ns3:cad>59</ns3:cad>
          </ns3:TrackPointExtension>
        </extensions>
      </trkpt>
      <trkpt lat="56.0163603164255619049072265625" lon="24.098803438246250152587890625">
        <ele>53.200000762939453125</ele>
        <time>2026-08-01T10:54:44.000Z</time>
        <extensions>
          <ns3:TrackPointExtension>
            <ns3:hr>130</ns3:hr>
            <ns3:cad>59</ns3:cad>
          </ns3:TrackPointExtension>
        </extensions>
      </trkpt>
      <trkpt lat="56.01632569916546344757080078125" lon="24.098986499011516571044921875">
        <ele>53.200000762939453125</ele>
        <time>2026-08-01T10:54:52.000Z</time>
        <extensions>
          <ns3:TrackPointExtension>
            <ns3:hr>130</ns3:hr>
            <ns3:cad>58</ns3:cad>
          </ns3:TrackPointExtension>
        </extensions>
      </trkpt>
      <trkpt lat="56.01627926342189311981201171875" lon="24.0992102958261966705322265625">
        <ele>53.200000762939453125</ele>
        <time>2026-08-01T10:55:01.000Z</time>
        <extensions>
          <ns3:TrackPointExtension>
            <ns3:hr>131</ns3:hr>
            <ns3:cad>59</ns3:cad>
          </ns3:TrackPointExtension>
        </extensions>
      </trkpt>
      <trkpt lat="56.01622545160353183746337890625" lon="24.09946166910231113433837890625">
        <ele>53.200000762939453125</ele>
        <time>2026-08-01T10:55:11.000Z</time>
        <extensions>
          <ns3:TrackPointExtension>
            <ns3:hr>132</ns3:hr>
            <ns3:cad>60</ns3:cad>
          </ns3:TrackPointExtension>
        </extensions>
      </trkpt>
      <trkpt lat="56.01618974469602108001708984375" lon="24.0996545366942882537841796875">
        <ele>53.200000762939453125</ele>
        <time>2026-08-01T10:55:19.000Z</time>
        <extensions>
          <ns3:TrackPointExtension>
            <ns3:hr>132</ns3:hr>
            <ns3:cad>60</ns3:cad>
          </ns3:TrackPointExtension>
        </extensions>
      </trkpt>
      <trkpt lat="56.01615420542657375335693359375" lon="24.09981429576873779296875">
        <ele>53.200000762939453125</ele>
        <time>2026-08-01T10:55:26.000Z</time>
        <extensions>
          <ns3:TrackPointExtension>
            <ns3:hr>131</ns3:hr>
            <ns3:cad>59</ns3:cad>
          </ns3:TrackPointExtension>
        </extensions>
      </trkpt>
      <trkpt lat="56.0161014832556247711181640625" lon="24.10001303069293498992919921875">
        <ele>53.200000762939453125</ele>
        <time>2026-08-01T10:55:35.000Z</time>
        <extensions>
          <ns3:TrackPointExtension>
            <ns3:hr>130</ns3:hr>
            <ns3:cad>58</ns3:cad>
          </ns3:TrackPointExtension>
        </extensions>
      </trkpt>
      <trkpt lat="56.01605144329369068145751953125" lon="24.1002201475203037261962890625">
        <ele>53.200000762939453125</ele>
        <time>2026-08-01T10:55:43.000Z</time>
        <extensions>
          <ns3:TrackPointExtension>
            <ns3:hr>131</ns3:hr>
            <ns3:cad>60</ns3:cad>
          </ns3:TrackPointExtension>
        </extensions>
      </trkpt>
      <trkpt lat="56.01605261676013469696044921875" lon="24.1003126837313175201416015625">
        <ele>52.799999237060546875</ele>
        <time>2026-08-01T10:55:48.000Z</time>
        <extensions>
          <ns3:TrackPointExtension>
            <ns3:hr>131</ns3:hr>
            <ns3:cad>58</ns3:cad>
          </ns3:TrackPointExtension>
        </extensions>
      </trkpt>
      <trkpt lat="56.0160589031875133514404296875" lon="24.10033422522246837615966796875">
        <ele>53.200000762939453125</ele>
        <time>2026-08-01T10:55:55.000Z</time>
        <extensions>
          <ns3:TrackPointExtension>
            <ns3:hr>131</ns3:hr>
            <ns3:cad>0</ns3:cad>
          </ns3:TrackPointExtension>
        </extensions>
      </trkpt>
      <trkpt lat="56.0160589031875133514404296875" lon="24.10033422522246837615966796875">
        <ele>53.200000762939453125</ele>
        <time>2026-08-01T10:55:59.000Z</time>
        <extensions>
          <ns3:TrackPointExtension>
            <ns3:hr>134</ns3:hr>
            <ns3:cad>0</ns3:cad>
          </ns3:TrackPointExtension>
        </extensions>
      </trkpt>
      <trkpt lat="56.01605680771172046661376953125" lon="24.10033724270761013031005859375">
        <ele>52.799999237060546875</ele>
        <time>2026-08-01T10:56:04.000Z</time>
        <extensions>
          <ns3:TrackPointExtension>
            <ns3:hr>137</ns3:hr>
            <ns3:cad>0</ns3:cad>
          </ns3:TrackPointExtension>
        </extensions>
      </trkpt>
      <trkpt lat="56.016055047512054443359375" lon="24.10033824853599071502685546875">
        <ele>52.799999237060546875</ele>
        <time>2026-08-01T10:56:05.000Z</time>
        <extensions>
          <ns3:TrackPointExtension>
            <ns3:hr>137</ns3:hr>
            <ns3:cad>0</ns3:cad>
          </ns3:TrackPointExtension>
        </extensions>
      </trkpt>
      <trkpt lat="56.01604775525629520416259765625" lon="24.100364483892917633056640625">
        <ele>52.799999237060546875</ele>
        <time>2026-08-01T10:56:13.000Z</time>
        <extensions>
          <ns3:TrackPointExtension>
            <ns3:hr>139</ns3:hr>
            <ns3:cad>0</ns3:cad>
          </ns3:TrackPointExtension>
        </extensions>
      </trkpt>
      <trkpt lat="56.01603434421122074127197265625" lon="24.10041469149291515350341796875">
        <ele>52.59999847412109375</ele>
        <time>2026-08-01T10:56:17.000Z</time>
        <extensions>
          <ns3:TrackPointExtension>
            <ns3:hr>140</ns3:hr>
            <ns3:cad>0</ns3:cad>
          </ns3:TrackPointExtension>
        </extensions>
      </trkpt>
      <trkpt lat="56.0159821249544620513916015625" lon="24.10067587159574031829833984375">
        <ele>52.40000152587890625</ele>
        <time>2026-08-01T10:56:30.000Z</time>
        <extensions>
          <ns3:TrackPointExtension>
            <ns3:hr>141</ns3:hr>
            <ns3:cad>58</ns3:cad>
          </ns3:TrackPointExtension>
        </extensions>
      </trkpt>
      <trkpt lat="56.0159670375287532806396484375" lon="24.10074393264949321746826171875">
        <ele>52.200000762939453125</ele>
        <time>2026-08-01T10:56:33.000Z</time>
        <extensions>
          <ns3:TrackPointExtension>
            <ns3:hr>138</ns3:hr>
            <ns3:cad>59</ns3:cad>
          </ns3:TrackPointExtension>
        </extensions>
      </trkpt>
      <trkpt lat="56.01592856459319591522216796875" lon="24.1008994169533252716064453125">
        <ele>52.200000762939453125</ele>
        <time>2026-08-01T10:56:39.000Z</time>
        <extensions>
          <ns3:TrackPointExtension>
            <ns3:hr>136</ns3:hr>
            <ns3:cad>59</ns3:cad>
          </ns3:TrackPointExtension>
        </extensions>
      </trkpt>
      <trkpt lat="56.01590593345463275909423828125" lon="24.10099287517368793487548828125">
        <ele>52.200000762939453125</ele>
        <time>2026-08-01T10:56:43.000Z</time>
        <extensions>
          <ns3:TrackPointExtension>
            <ns3:hr>133</ns3:hr>
            <ns3:cad>58</ns3:cad>
          </ns3:TrackPointExtension>
        </extensions>
      </trkpt>
      <trkpt lat="56.015898473560810089111328125" lon="24.10103428177535533905029296875">
        <ele>52</ele>
        <time>2026-08-01T10:56:45.000Z</time>
        <extensions>
          <ns3:TrackPointExtension>
            <ns3:hr>129</ns3:hr>
            <ns3:cad>58</ns3:cad>
          </ns3:TrackPointExtension>
        </extensions>
      </trkpt>
      <trkpt lat="56.01588363759219646453857421875" lon="24.10110619850456714630126953125">
        <ele>52</ele>
        <time>2026-08-01T10:56:48.000Z</time>
        <extensions>
          <ns3:TrackPointExtension>
            <ns3:hr>127</ns3:hr>
            <ns3:cad>59</ns3:cad>
          </ns3:TrackPointExtension>
        </extensions>
      </trkpt>
      <trkpt lat="56.0158476792275905609130859375" lon="24.10131189040839672088623046875">
        <ele>52</ele>
        <time>2026-08-01T10:56:56.000Z</time>
        <extensions>
          <ns3:TrackPointExtension>
            <ns3:hr>126</ns3:hr>
            <ns3:cad>59</ns3:cad>
          </ns3:TrackPointExtension>
        </extensions>
      </trkpt>
      <trkpt lat="56.01578607223927974700927734375" lon="24.10153023898601531982421875">
        <ele>52</ele>
        <time>2026-08-01T10:57:05.000Z</time>
        <extensions>
          <ns3:TrackPointExtension>
            <ns3:hr>125</ns3:hr>
            <ns3:cad>58</ns3:cad>
          </ns3:TrackPointExtension>
        </extensions>
      </trkpt>
      <trkpt lat="56.01572924293577671051025390625" lon="24.10175529308617115020751953125">
        <ele>52</ele>
        <time>2026-08-01T10:57:14.000Z</time>
        <extensions>
          <ns3:TrackPointExtension>
            <ns3:hr>125</ns3:hr>
            <ns3:cad>59</ns3:cad>
          </ns3:TrackPointExtension>
        </extensions>
      </trkpt>
      <trkpt lat="56.0156874172389507293701171875" lon="24.10195981152355670928955078125">
        <ele>52</ele>
        <time>2026-08-01T10:57:22.000Z</time>
        <extensions>
          <ns3:TrackPointExtension>
            <ns3:hr>125</ns3:hr>
            <ns3:cad>59</ns3:cad>
          </ns3:TrackPointExtension>
        </extensions>
      </trkpt>
      <trkpt lat="56.01563251577317714691162109375" lon="24.10217857919633388519287109375">
        <ele>51.799999237060546875</ele>
        <time>2026-08-01T10:57:31.000Z</time>
        <extensions>
          <ns3:TrackPointExtension>
            <ns3:hr>125</ns3:hr>
            <ns3:cad>60</ns3:cad>
          </ns3:TrackPointExtension>
        </extensions>
      </trkpt>
      <trkpt lat="56.0156032629311084747314453125" lon="24.10232727415859699249267578125">
        <ele>51.799999237060546875</ele>
        <time>2026-08-01T10:57:37.000Z</time>
        <extensions>
          <ns3:TrackPointExtension>
            <ns3:hr>126</ns3:hr>
            <ns3:cad>59</ns3:cad>
          </ns3:TrackPointExtension>
        </extensions>
      </trkpt>
      <trkpt lat="56.01554266177117824554443359375" lon="24.10253648646175861358642578125">
        <ele>51.799999237060546875</ele>
        <time>2026-08-01T10:57:46.000Z</time>
        <extensions>
          <ns3:TrackPointExtension>
            <ns3:hr>126</ns3:hr>
            <ns3:cad>61</ns3:cad>
          </ns3:TrackPointExtension>
        </extensions>
      </trkpt>
      <trkpt lat="56.0155026800930500030517578125" lon="24.1027330420911312103271484375">
        <ele>52</ele>
        <time>2026-08-01T10:57:54.000Z</time>
        <extensions>
          <ns3:TrackPointExtension>
            <ns3:hr>127</ns3:hr>
            <ns3:cad>60</ns3:cad>
          </ns3:TrackPointExtension>
        </extensions>
      </trkpt>
      <trkpt lat="56.0154691524803638458251953125" lon="24.10289757885038852691650390625">
        <ele>52.200000762939453125</ele>
        <time>2026-08-01T10:58:01.000Z</time>
        <extensions>
          <ns3:TrackPointExtension>
            <ns3:hr>128</ns3:hr>
            <ns3:cad>60</ns3:cad>
          </ns3:TrackPointExtension>
        </extensions>
      </trkpt>
      <trkpt lat="56.01540972478687763214111328125" lon="24.10317443311214447021484375">
        <ele>52.40000152587890625</ele>
        <time>2026-08-01T10:58:12.000Z</time>
        <extensions>
          <ns3:TrackPointExtension>
            <ns3:hr>129</ns3:hr>
            <ns3:cad>59</ns3:cad>
          </ns3:TrackPointExtension>
        </extensions>
      </trkpt>
      <trkpt lat="56.0153692401945590972900390625" lon="24.10335724242031574249267578125">
        <ele>52.59999847412109375</ele>
        <time>2026-08-01T10:58:20.000Z</time>
        <extensions>
          <ns3:TrackPointExtension>
            <ns3:hr>129</ns3:hr>
            <ns3:cad>59</ns3:cad>
          </ns3:TrackPointExtension>
        </extensions>
      </trkpt>
      <trkpt lat="56.015347279608249664306640625" lon="24.1035340167582035064697265625">
        <ele>53</ele>
        <time>2026-08-01T10:58:28.000Z</time>
        <extensions>
          <ns3:TrackPointExtension>
            <ns3:hr>129</ns3:hr>
            <ns3:cad>59</ns3:cad>
          </ns3:TrackPointExtension>
        </extensions>
      </trkpt>
      <trkpt lat="56.015322469174861907958984375" lon="24.1037563048303127288818359375">
        <ele>53.200000762939453125</ele>
        <time>2026-08-01T10:58:36.000Z</time>
        <extensions>
          <ns3:TrackPointExtension>
            <ns3:hr>129</ns3:hr>
            <ns3:cad>59</ns3:cad>
          </ns3:TrackPointExtension>
        </extensions>
      </trkpt>
      <trkpt lat="56.01530645973980426788330078125" lon="24.10394246689975261688232421875">
        <ele>53.200000762939453125</ele>
        <time>2026-08-01T10:58:43.000Z</time>
        <extensions>
          <ns3:TrackPointExtension>
            <ns3:hr>130</ns3:hr>
            <ns3:cad>61</ns3:cad>
          </ns3:TrackPointExtension>
        </extensions>
      </trkpt>
      <trkpt lat="56.01530562154948711395263671875" lon="24.10416123457252979278564453125">
        <ele>53.40000152587890625</ele>
        <time>2026-08-01T10:58:52.000Z</time>
        <extensions>
          <ns3:TrackPointExtension>
            <ns3:hr>129</ns3:hr>
            <ns3:cad>60</ns3:cad>
          </ns3:TrackPointExtension>
        </extensions>
      </trkpt>
      <trkpt lat="56.01530729793012142181396484375" lon="24.1043512523174285888671875">
        <ele>53.40000152587890625</ele>
        <time>2026-08-01T10:58:59.000Z</time>
        <extensions>
          <ns3:TrackPointExtension>
            <ns3:hr>130</ns3:hr>
            <ns3:cad>60</ns3:cad>
          </ns3:TrackPointExtension>
        </extensions>
      </trkpt>
      <trkpt lat="56.01530796848237514495849609375" lon="24.1045425273478031158447265625">
        <ele>53.40000152587890625</ele>
        <time>2026-08-01T10:59:06.000Z</time>
        <extensions>
          <ns3:TrackPointExtension>
            <ns3:hr>130</ns3:hr>
            <ns3:cad>59</ns3:cad>
          </ns3:TrackPointExtension>
        </extensions>
      </trkpt>
      <trkpt lat="56.015302352607250213623046875" lon="24.1048278473317623138427734375">
        <ele>53.59999847412109375</ele>
        <time>2026-08-01T10:59:17.000Z</time>
        <extensions>
          <ns3:TrackPointExtension>
            <ns3:hr>130</ns3:hr>
            <ns3:cad>60</ns3:cad>
          </ns3:TrackPointExtension>
        </extensions>
      </trkpt>
      <trkpt lat="56.01530930958688259124755859375" lon="24.10500613041222095489501953125">
        <ele>53.59999847412109375</ele>
        <time>2026-08-01T10:59:24.000Z</time>
        <extensions>
          <ns3:TrackPointExtension>
            <ns3:hr>130</ns3:hr>
            <ns3:cad>58</ns3:cad>
          </ns3:TrackPointExtension>
        </extensions>
      </trkpt>
      <trkpt lat="56.0153068788349628448486328125" lon="24.10519304685294628143310546875">
        <ele>53.59999847412109375</ele>
        <time>2026-08-01T10:59:31.000Z</time>
        <extensions>
          <ns3:TrackPointExtension>
            <ns3:hr>129</ns3:hr>
            <ns3:cad>59</ns3:cad>
          </ns3:TrackPointExtension>
        </extensions>
      </trkpt>
      <trkpt lat="56.01529271341860294342041015625" lon="24.10542991943657398223876953125">
        <ele>53.59999847412109375</ele>
        <time>2026-08-01T10:59:40.000Z</time>
        <extensions>
          <ns3:TrackPointExtension>
            <ns3:hr>129</ns3:hr>
            <ns3:cad>60</ns3:cad>
          </ns3:TrackPointExtension>
        </extensions>
      </trkpt>
      <trkpt lat="56.01529472507536411285400390625" lon="24.1056385450065135955810546875">
        <ele>53.59999847412109375</ele>
        <time>2026-08-01T10:59:48.000Z</time>
        <extensions>
          <ns3:TrackPointExtension>
            <ns3:hr>129</ns3:hr>
            <ns3:cad>60</ns3:cad>
          </ns3:TrackPointExtension>
        </extensions>
      </trkpt>
      <trkpt lat="56.01530210115015506744384765625" lon="24.10585303790867328643798828125">
        <ele>53.59999847412109375</ele>
        <time>2026-08-01T10:59:56.000Z</time>
        <extensions>
          <ns3:TrackPointExtension>
            <ns3:hr>128</ns3:hr>
            <ns3:cad>60</ns3:cad>
          </ns3:TrackPointExtension>
        </extensions>
      </trkpt>
      <trkpt lat="56.015301682054996490478515625" lon="24.10587835125625133514404296875">
        <ele>53.799999237060546875</ele>
        <time>2026-08-01T10:59:57.000Z</time>
        <extensions>
          <ns3:TrackPointExtension>
            <ns3:hr>128</ns3:hr>
            <ns3:cad>60</ns3:cad>
          </ns3:TrackPointExtension>
        </extensions>
      </trkpt>
      <trkpt lat="56.01531132124364376068115234375" lon="24.10604833625257015228271484375">
        <ele>53.799999237060546875</ele>
        <time>2026-08-01T11:00:04.000Z</time>
        <extensions>
          <ns3:TrackPointExtension>
            <ns3:hr>128</ns3:hr>
            <ns3:cad>60</ns3:cad>
          </ns3:TrackPointExtension>
        </extensions>
      </trkpt>
      <trkpt lat="56.015320457518100738525390625" lon="24.10626878030598163604736328125">
        <ele>53.799999237060546875</ele>
        <time>2026-08-01T11:00:13.000Z</time>
        <extensions>
          <ns3:TrackPointExtension>
            <ns3:hr>128</ns3:hr>
            <ns3:cad>60</ns3:cad>
          </ns3:TrackPointExtension>
        </extensions>
      </trkpt>
      <trkpt lat="56.01531517691910266876220703125" lon="24.10643063485622406005859375">
        <ele>53.799999237060546875</ele>
        <time>2026-08-01T11:00:19.000Z</time>
        <extensions>
          <ns3:TrackPointExtension>
            <ns3:hr>127</ns3:hr>
            <ns3:cad>60</ns3:cad>
          </ns3:TrackPointExtension>
        </extensions>
      </trkpt>
      <trkpt lat="56.0153226368129253387451171875" lon="24.10668552853167057037353515625">
        <ele>53.799999237060546875</ele>
        <time>2026-08-01T11:00:29.000Z</time>
        <extensions>
          <ns3:TrackPointExtension>
            <ns3:hr>127</ns3:hr>
            <ns3:cad>60</ns3:cad>
          </ns3:TrackPointExtension>
        </extensions>
      </trkpt>
      <trkpt lat="56.01531350053846836090087890625" lon="24.10688216798007488250732421875">
        <ele>54</ele>
        <time>2026-08-01T11:00:37.000Z</time>
        <extensions>
          <ns3:TrackPointExtension>
            <ns3:hr>127</ns3:hr>
            <ns3:cad>59</ns3:cad>
          </ns3:TrackPointExtension>
        </extensions>
      </trkpt>
      <trkpt lat="56.01532020606100559234619140625" lon="24.10708283074200153350830078125">
        <ele>54</ele>
        <time>2026-08-01T11:00:45.000Z</time>
        <extensions>
          <ns3:TrackPointExtension>
            <ns3:hr>128</ns3:hr>
            <ns3:cad>58</ns3:cad>
          </ns3:TrackPointExtension>
        </extensions>
      </trkpt>
      <trkpt lat="56.01533562876284122467041015625" lon="24.10719866864383220672607421875">
        <ele>54</ele>
        <time>2026-08-01T11:00:52.000Z</time>
        <extensions>
          <ns3:TrackPointExtension>
            <ns3:hr>127</ns3:hr>
            <ns3:cad>0</ns3:cad>
          </ns3:TrackPointExtension>
        </extensions>
      </trkpt>
      <trkpt lat="56.01536261849105358123779296875" lon="24.10718567669391632080078125">
        <ele>54.59999847412109375</ele>
        <time>2026-08-01T11:00:59.000Z</time>
        <extensions>
          <ns3:TrackPointExtension>
            <ns3:hr>128</ns3:hr>
            <ns3:cad>0</ns3:cad>
          </ns3:TrackPointExtension>
        </extensions>
      </trkpt>
      <trkpt lat="56.01535138674080371856689453125" lon="24.10718073137104511260986328125">
        <ele>54.59999847412109375</ele>
        <time>2026-08-01T11:01:03.000Z</time>
        <extensions>
          <ns3:TrackPointExtension>
            <ns3:hr>131</ns3:hr>
            <ns3:cad>0</ns3:cad>
          </ns3:TrackPointExtension>
        </extensions>
      </trkpt>
      <trkpt lat="56.015349291265010833740234375" lon="24.1071878559887409210205078125">
        <ele>54.59999847412109375</ele>
        <time>2026-08-01T11:01:04.000Z</time>
        <extensions>
          <ns3:TrackPointExtension>
            <ns3:hr>134</ns3:hr>
            <ns3:cad>0</ns3:cad>
          </ns3:TrackPointExtension>
        </extensions>
      </trkpt>
      <trkpt lat="56.01535239256918430328369140625" lon="24.10722725093364715576171875">
        <ele>54.40000152587890625</ele>
        <time>2026-08-01T11:01:06.000Z</time>
        <extensions>
          <ns3:TrackPointExtension>
            <ns3:hr>135</ns3:hr>
            <ns3:cad>0</ns3:cad>
          </ns3:TrackPointExtension>
        </extensions>
      </trkpt>
      <trkpt lat="56.0153429210186004638671875" lon="24.10740293562412261962890625">
        <ele>54.200000762939453125</ele>
        <time>2026-08-01T11:01:12.000Z</time>
        <extensions>
          <ns3:TrackPointExtension>
            <ns3:hr>136</ns3:hr>
            <ns3:cad>60</ns3:cad>
          </ns3:TrackPointExtension>
        </extensions>
      </trkpt>
      <trkpt lat="56.015330851078033447265625" lon="24.1076289117336273193359375">
        <ele>54.40000152587890625</ele>
        <time>2026-08-01T11:01:20.000Z</time>
        <extensions>
          <ns3:TrackPointExtension>
            <ns3:hr>135</ns3:hr>
            <ns3:cad>59</ns3:cad>
          </ns3:TrackPointExtension>
        </extensions>
      </trkpt>
      <trkpt lat="56.01532959379255771636962890625" lon="24.10786695778369903564453125">
        <ele>54.40000152587890625</ele>
        <time>2026-08-01T11:01:29.000Z</time>
        <extensions>
          <ns3:TrackPointExtension>
            <ns3:hr>132</ns3:hr>
            <ns3:cad>60</ns3:cad>
          </ns3:TrackPointExtension>
        </extensions>
      </trkpt>
      <trkpt lat="56.01533043198287487030029296875" lon="24.107888750731945037841796875">
        <ele>54.40000152587890625</ele>
        <time>2026-08-01T11:01:30.000Z</time>
        <extensions>
          <ns3:TrackPointExtension>
            <ns3:hr>132</ns3:hr>
            <ns3:cad>60</ns3:cad>
          </ns3:TrackPointExtension>
        </extensions>
      </trkpt>
      <trkpt lat="56.01533210836350917816162109375" lon="24.1080947779119014739990234375">
        <ele>54.40000152587890625</ele>
        <time>2026-08-01T11:01:38.000Z</time>
        <extensions>
          <ns3:TrackPointExtension>
            <ns3:hr>129</ns3:hr>
            <ns3:cad>60</ns3:cad>
          </ns3:TrackPointExtension>
        </extensions>
      </trkpt>
      <trkpt lat="56.01533286273479461669921875" lon="24.10812503658235073089599609375">
        <ele>54.40000152587890625</ele>
        <time>2026-08-01T11:01:39.000Z</time>
        <extensions>
          <ns3:TrackPointExtension>
            <ns3:hr>129</ns3:hr>
            <ns3:cad>60</ns3:cad>
          </ns3:TrackPointExtension>
        </extensions>
      </trkpt>
      <trkpt lat="56.0153390653431415557861328125" lon="24.10835444927215576171875">
        <ele>54.59999847412109375</ele>
        <time>2026-08-01T11:01:48.000Z</time>
        <extensions>
          <ns3:TrackPointExtension>
            <ns3:hr>127</ns3:hr>
            <ns3:cad>59</ns3:cad>
          </ns3:TrackPointExtension>
        </extensions>
      </trkpt>
      <trkpt lat="56.01534468121826648712158203125" lon="24.10862602293491363525390625">
        <ele>54.59999847412109375</ele>
        <time>2026-08-01T11:01:58.000Z</time>
        <extensions>
          <ns3:TrackPointExtension>
            <ns3:hr>126</ns3:hr>
            <ns3:cad>61</ns3:cad>
          </ns3:TrackPointExtension>
        </extensions>
      </trkpt>
      <trkpt lat="56.0153340362012386322021484375" lon="24.10879726521670818328857421875">
        <ele>54.799999237060546875</ele>
        <time>2026-08-01T11:02:05.000Z</time>
        <extensions>
          <ns3:TrackPointExtension>
            <ns3:hr>126</ns3:hr>
            <ns3:cad>59</ns3:cad>
          </ns3:TrackPointExtension>
        </extensions>
      </trkpt>
      <trkpt lat="56.0153333656489849090576171875" lon="24.10887739621102809906005859375">
        <ele>54.799999237060546875</ele>
        <time>2026-08-01T11:02:08.000Z</time>
        <extensions>
          <ns3:TrackPointExtension>
            <ns3:hr>126</ns3:hr>
            <ns3:cad>59</ns3:cad>
          </ns3:TrackPointExtension>
        </extensions>
      </trkpt>
      <trkpt lat="56.0152874328196048736572265625" lon="24.10917143337428569793701171875">
        <ele>55.200000762939453125</ele>
        <time>2026-08-01T11:02:19.000Z</time>
        <extensions>
          <ns3:TrackPointExtension>
            <ns3:hr>126</ns3:hr>
            <ns3:cad>59</ns3:cad>
          </ns3:TrackPointExtension>
        </extensions>
      </trkpt>
      <trkpt lat="56.0152275860309600830078125" lon="24.10934862680733203887939453125">
        <ele>55</ele>
        <time>2026-08-01T11:02:28.000Z</time>
        <extensions>
          <ns3:TrackPointExtension>
            <ns3:hr>128</ns3:hr>
            <ns3:cad>59</ns3:cad>
          </ns3:TrackPointExtension>
        </extensions>
      </trkpt>
      <trkpt lat="56.01516346447169780731201171875" lon="24.10946865566074848175048828125">
        <ele>54.799999237060546875</ele>
        <time>2026-08-01T11:02:35.000Z</time>
        <extensions>
          <ns3:TrackPointExtension>
            <ns3:hr>128</ns3:hr>
            <ns3:cad>59</ns3:cad>
          </ns3:TrackPointExtension>
        </extensions>
      </trkpt>
      <trkpt lat="56.01504494436085224151611328125" lon="24.1096330247819423675537109375">
        <ele>54.799999237060546875</ele>
        <time>2026-08-01T11:02:45.000Z</time>
        <extensions>
          <ns3:TrackPointExtension>
            <ns3:hr>127</ns3:hr>
            <ns3:cad>60</ns3:cad>
          </ns3:TrackPointExtension>
        </extensions>
      </trkpt>
      <trkpt lat="56.01496028713881969451904296875" lon="24.10972430370748043060302734375">
        <ele>55</ele>
        <time>2026-08-01T11:02:52.000Z</time>
        <extensions>
          <ns3:TrackPointExtension>
            <ns3:hr>126</ns3:hr>
            <ns3:cad>59</ns3:cad>
          </ns3:TrackPointExtension>
        </extensions>
      </trkpt>
      <trkpt lat="56.0148629732429981231689453125" lon="24.10986847244203090667724609375">
        <ele>55</ele>
        <time>2026-08-01T11:03:00.000Z</time>
        <extensions>
          <ns3:TrackPointExtension>
            <ns3:hr>125</ns3:hr>
            <ns3:cad>59</ns3:cad>
          </ns3:TrackPointExtension>
        </extensions>
      </trkpt>
      <trkpt lat="56.01477521471679210662841796875" lon="24.10998716019093990325927734375">
        <ele>55.40000152587890625</ele>
        <time>2026-08-01T11:03:07.000Z</time>
        <extensions>
          <ns3:TrackPointExtension>
            <ns3:hr>128</ns3:hr>
            <ns3:cad>59</ns3:cad>
          </ns3:TrackPointExtension>
        </extensions>
      </trkpt>
      <trkpt lat="56.01475845091044902801513671875" lon="24.11000928841531276702880859375">
        <ele>55.40000152587890625</ele>
        <time>2026-08-01T11:03:09.000Z</time>
        <extensions>
          <ns3:TrackPointExtension>
            <ns3:hr>128</ns3:hr>
            <ns3:cad>59</ns3:cad>
          </ns3:TrackPointExtension>
        </extensions>
      </trkpt>
      <trkpt lat="56.0146976821124553680419921875" lon="24.11008891649544239044189453125">
        <ele>55.200000762939453125</ele>
        <time>2026-08-01T11:03:14.000Z</time>
        <extensions>
          <ns3:TrackPointExtension>
            <ns3:hr>130</ns3:hr>
            <ns3:cad>59</ns3:cad>
          </ns3:TrackPointExtension>
        </extensions>
      </trkpt>
      <trkpt lat="56.0146215744316577911376953125" lon="24.11017843522131443023681640625">
        <ele>55.40000152587890625</ele>
        <time>2026-08-01T11:03:22.000Z</time>
        <extensions>
          <ns3:TrackPointExtension>
            <ns3:hr>131</ns3:hr>
            <ns3:cad>59</ns3:cad>
          </ns3:TrackPointExtension>
        </extensions>
      </trkpt>
      <trkpt lat="56.01455904543399810791015625" lon="24.11025521345436573028564453125">
        <ele>55.59999847412109375</ele>
        <time>2026-08-01T11:03:27.000Z</time>
        <extensions>
          <ns3:TrackPointExtension>
            <ns3:hr>128</ns3:hr>
            <ns3:cad>59</ns3:cad>
          </ns3:TrackPointExtension>
        </extensions>
      </trkpt>
      <trkpt lat="56.01453088223934173583984375" lon="24.1102938540279865264892578125">
        <ele>55.59999847412109375</ele>
        <time>2026-08-01T11:03:29.000Z</time>
        <extensions>
          <ns3:TrackPointExtension>
            <ns3:hr>126</ns3:hr>
            <ns3:cad>59</ns3:cad>
          </ns3:TrackPointExtension>
        </extensions>
      </trkpt>
      <trkpt lat="56.01444027386605739593505859375" lon="24.11041648127138614654541015625">
        <ele>55.799999237060546875</ele>
        <time>2026-08-01T11:03:36.000Z</time>
        <extensions>
          <ns3:TrackPointExtension>
            <ns3:hr>126</ns3:hr>
            <ns3:cad>59</ns3:cad>
          </ns3:TrackPointExtension>
        </extensions>
      </trkpt>
      <trkpt lat="56.01434673182666301727294921875" lon="24.1105728037655353546142578125">
        <ele>56</ele>
        <time>2026-08-01T11:03:45.000Z</time>
        <extensions>
          <ns3:TrackPointExtension>
            <ns3:hr>128</ns3:hr>
            <ns3:cad>59</ns3:cad>
          </ns3:TrackPointExtension>
        </extensions>
      </trkpt>
      <trkpt lat="56.0142567940056324005126953125" lon="24.1107035614550113677978515625">
        <ele>56</ele>
        <time>2026-08-01T11:03:54.000Z</time>
        <extensions>
          <ns3:TrackPointExtension>
            <ns3:hr>128</ns3:hr>
            <ns3:cad>59</ns3:cad>
          </ns3:TrackPointExtension>
        </extensions>
      </trkpt>
      <trkpt lat="56.0141696222126483917236328125" lon="24.11085468716919422149658203125">
        <ele>56</ele>
        <time>2026-08-01T11:04:02.000Z</time>
        <extensions>
          <ns3:TrackPointExtension>
            <ns3:hr>126</ns3:hr>
            <ns3:cad>59</ns3:cad>
          </ns3:TrackPointExtension>
        </extensions>
      </trkpt>
      <trkpt lat="56.01408286951482295989990234375" lon="24.11104344762861728668212890625">
        <ele>56.200000762939453125</ele>
        <time>2026-08-01T11:04:11.000Z</time>
        <extensions>
          <ns3:TrackPointExtension>
            <ns3:hr>128</ns3:hr>
            <ns3:cad>59</ns3:cad>
          </ns3:TrackPointExtension>
        </extensions>
      </trkpt>
      <trkpt lat="56.01401162333786487579345703125" lon="24.11120505072176456451416015625">
        <ele>56.200000762939453125</ele>
        <time>2026-08-01T11:04:19.000Z</time>
        <extensions>
          <ns3:TrackPointExtension>
            <ns3:hr>128</ns3:hr>
            <ns3:cad>59</ns3:cad>
          </ns3:TrackPointExtension>
        </extensions>
      </trkpt>
      <trkpt lat="56.0139483399689197540283203125" lon="24.11131937988102436065673828125">
        <ele>56.40000152587890625</ele>
        <time>2026-08-01T11:04:25.000Z</time>
        <extensions>
          <ns3:TrackPointExtension>
            <ns3:hr>130</ns3:hr>
            <ns3:cad>59</ns3:cad>
          </ns3:TrackPointExtension>
        </extensions>
      </trkpt>
      <trkpt lat="56.01392109878361225128173828125" lon="24.11146975122392177581787109375">
        <ele>56.200000762939453125</ele>
        <time>2026-08-01T11:04:32.000Z</time>
        <extensions>
          <ns3:TrackPointExtension>
            <ns3:hr>129</ns3:hr>
            <ns3:cad>59</ns3:cad>
          </ns3:TrackPointExtension>
        </extensions>
      </trkpt>
      <trkpt lat="56.01393434219062328338623046875" lon="24.11146782338619232177734375">
        <ele>56.40000152587890625</ele>
        <time>2026-08-01T11:04:38.000Z</time>
        <extensions>
          <ns3:TrackPointExtension>
            <ns3:hr>129</ns3:hr>
            <ns3:cad>0</ns3:cad>
          </ns3:TrackPointExtension>
        </extensions>
      </trkpt>
      <trkpt lat="56.01394205354154109954833984375" lon="24.11147830076515674591064453125">
        <ele>56.40000152587890625</ele>
        <time>2026-08-01T11:04:48.000Z</time>
        <extensions>
          <ns3:TrackPointExtension>
            <ns3:hr>130</ns3:hr>
            <ns3:cad>0</ns3:cad>
          </ns3:TrackPointExtension>
        </extensions>
      </trkpt>
      <trkpt lat="56.01392579264938831329345703125" lon="24.11150847561657428741455078125">
        <ele>56</ele>
        <time>2026-08-01T11:04:51.000Z</time>
        <extensions>
          <ns3:TrackPointExtension>
            <ns3:hr>133</ns3:hr>
            <ns3:cad>0</ns3:cad>
          </ns3:TrackPointExtension>
        </extensions>
      </trkpt>
      <trkpt lat="56.01390986703336238861083984375" lon="24.11158659495413303375244140625">
        <ele>56</ele>
        <time>2026-08-01T11:04:55.000Z</time>
        <extensions>
          <ns3:TrackPointExtension>
            <ns3:hr>133</ns3:hr>
            <ns3:cad>54</ns3:cad>
          </ns3:TrackPointExtension>
        </extensions>
      </trkpt>
      <trkpt lat="56.01389125920832157135009765625" lon="24.1116763651371002197265625">
        <ele>56</ele>
        <time>2026-08-01T11:04:59.000Z</time>
        <extensions>
          <ns3:TrackPointExtension>
            <ns3:hr>130</ns3:hr>
            <ns3:cad>54</ns3:cad>
          </ns3:TrackPointExtension>
        </extensions>
      </trkpt>
      <trkpt lat="56.01388036273419857025146484375" lon="24.11172405816614627838134765625">
        <ele>56.200000762939453125</ele>
        <time>2026-08-01T11:05:01.000Z</time>
        <extensions>
          <ns3:TrackPointExtension>
            <ns3:hr>127</ns3:hr>
            <ns3:cad>54</ns3:cad>
          </ns3:TrackPointExtension>
        </extensions>
      </trkpt>
      <trkpt lat="56.01387751288712024688720703125" lon="24.11172891966998577117919921875">
        <ele>56.200000762939453125</ele>
        <time>2026-08-01T11:05:02.000Z</time>
        <extensions>
          <ns3:TrackPointExtension>
            <ns3:hr>127</ns3:hr>
            <ns3:cad>0</ns3:cad>
          </ns3:TrackPointExtension>
        </extensions>
      </trkpt>
      <trkpt lat="56.013837866485118865966796875" lon="24.11180041730403900146484375">
        <ele>56.200000762939453125</ele>
        <time>2026-08-01T11:05:11.000Z</time>
        <extensions>
          <ns3:TrackPointExtension>
            <ns3:hr>130</ns3:hr>
            <ns3:cad>0</ns3:cad>
          </ns3:TrackPointExtension>
        </extensions>
      </trkpt>
      <trkpt lat="56.01376452483236789703369140625" lon="24.11190594546496868133544921875">
        <ele>56.200000762939453125</ele>
        <time>2026-08-01T11:05:17.000Z</time>
        <extensions>
          <ns3:TrackPointExtension>
            <ns3:hr>128</ns3:hr>
            <ns3:cad>58</ns3:cad>
          </ns3:TrackPointExtension>
        </extensions>
      </trkpt>
      <trkpt lat="56.01370451040565967559814453125" lon="24.11205966956913471221923828125">
        <ele>56.40000152587890625</ele>
        <time>2026-08-01T11:05:25.000Z</time>
        <extensions>
          <ns3:TrackPointExtension>
            <ns3:hr>128</ns3:hr>
            <ns3:cad>59</ns3:cad>
          </ns3:TrackPointExtension>
        </extensions>
      </trkpt>
      <trkpt lat="56.013630665838718414306640625" lon="24.11227407865226268768310546875">
        <ele>56</ele>
        <time>2026-08-01T11:05:35.000Z</time>
        <extensions>
          <ns3:TrackPointExtension>
            <ns3:hr>127</ns3:hr>
            <ns3:cad>60</ns3:cad>
          </ns3:TrackPointExtension>
        </extensions>
      </trkpt>
      <trkpt lat="56.01356436498463153839111328125" lon="24.11245311610400676727294921875">
        <ele>55.799999237060546875</ele>
        <time>2026-08-01T11:05:43.000Z</time>
        <extensions>
          <ns3:TrackPointExtension>
            <ns3:hr>128</ns3:hr>
            <ns3:cad>58</ns3:cad>
          </ns3:TrackPointExtension>
        </extensions>
      </trkpt>
      <trkpt lat="56.01352832280099391937255859375" lon="24.112572558224201202392578125">
        <ele>55.799999237060546875</ele>
        <time>2026-08-01T11:05:48.000Z</time>
        <extensions>
          <ns3:TrackPointExtension>
            <ns3:hr>125</ns3:hr>
            <ns3:cad>60</ns3:cad>
          </ns3:TrackPointExtension>
        </extensions>
      </trkpt>
      <trkpt lat="56.01349798031151294708251953125" lon="24.11265470087528228759765625">
        <ele>55.799999237060546875</ele>
        <time>2026-08-01T11:05:52.000Z</time>
        <extensions>
          <ns3:TrackPointExtension>
            <ns3:hr>124</ns3:hr>
            <ns3:cad>59</ns3:cad>
          </ns3:TrackPointExtension>
        </extensions>
      </trkpt>
      <trkpt lat="56.01342639885842800140380859375" lon="24.1128536872565746307373046875">
        <ele>55.799999237060546875</ele>
        <time>2026-08-01T11:06:01.000Z</time>
        <extensions>
          <ns3:TrackPointExtension>
            <ns3:hr>124</ns3:hr>
            <ns3:cad>59</ns3:cad>
          </ns3:TrackPointExtension>
        </extensions>
      </trkpt>
      <trkpt lat="56.01337191648781299591064453125" lon="24.11301118321716785430908203125">
        <ele>55.799999237060546875</ele>
        <time>2026-08-01T11:06:09.000Z</time>
        <extensions>
          <ns3:TrackPointExtension>
            <ns3:hr>124</ns3:hr>
            <ns3:cad>60</ns3:cad>
          </ns3:TrackPointExtension>
        </extensions>
      </trkpt>
      <trkpt lat="56.01331290788948535919189453125" lon="24.11320715211331844329833984375">
        <ele>55.40000152587890625</ele>
        <time>2026-08-01T11:06:18.000Z</time>
        <extensions>
          <ns3:TrackPointExtension>
            <ns3:hr>123</ns3:hr>
            <ns3:cad>61</ns3:cad>
          </ns3:TrackPointExtension>
        </extensions>
      </trkpt>
      <trkpt lat="56.01324032060801982879638671875" lon="24.11337261088192462921142578125">
        <ele>55.59999847412109375</ele>
        <time>2026-08-01T11:06:25.000Z</time>
        <extensions>
          <ns3:TrackPointExtension>
            <ns3:hr>123</ns3:hr>
            <ns3:cad>59</ns3:cad>
          </ns3:TrackPointExtension>
        </extensions>
      </trkpt>
      <trkpt lat="56.01317628286778926849365234375" lon="24.11356572993099689483642578125">
        <ele>55.59999847412109375</ele>
        <time>2026-08-01T11:06:34.000Z</time>
        <extensions>
          <ns3:TrackPointExtension>
            <ns3:hr>121</ns3:hr>
            <ns3:cad>59</ns3:cad>
          </ns3:TrackPointExtension>
        </extensions>
      </trkpt>
      <trkpt lat="56.01313303224742412567138671875" lon="24.11370738409459590911865234375">
        <ele>55.40000152587890625</ele>
        <time>2026-08-01T11:06:41.000Z</time>
        <extensions>
          <ns3:TrackPointExtension>
            <ns3:hr>122</ns3:hr>
            <ns3:cad>59</ns3:cad>
          </ns3:TrackPointExtension>
        </extensions>
      </trkpt>
      <trkpt lat="56.01307335309684276580810546875" lon="24.11388323642313480377197265625">
        <ele>55.200000762939453125</ele>
        <time>2026-08-01T11:06:49.000Z</time>
        <extensions>
          <ns3:TrackPointExtension>
            <ns3:hr>122</ns3:hr>
            <ns3:cad>60</ns3:cad>
          </ns3:TrackPointExtension>
        </extensions>
      </trkpt>
      <trkpt lat="56.01299372501671314239501953125" lon="24.114088006317615509033203125">
        <ele>55</ele>
        <time>2026-08-01T11:06:58.000Z</time>
        <extensions>
          <ns3:TrackPointExtension>
            <ns3:hr>122</ns3:hr>
            <ns3:cad>60</ns3:cad>
          </ns3:TrackPointExtension>
        </extensions>
      </trkpt>
      <trkpt lat="56.0129374824464321136474609375" lon="24.11423946730792522430419921875">
        <ele>54.799999237060546875</ele>
        <time>2026-08-01T11:07:05.000Z</time>
        <extensions>
          <ns3:TrackPointExtension>
            <ns3:hr>121</ns3:hr>
            <ns3:cad>60</ns3:cad>
          </ns3:TrackPointExtension>
        </extensions>
      </trkpt>
      <trkpt lat="56.012921892106533050537109375" lon="24.114281795918941497802734375">
        <ele>54.59999847412109375</ele>
        <time>2026-08-01T11:07:07.000Z</time>
        <extensions>
          <ns3:TrackPointExtension>
            <ns3:hr>121</ns3:hr>
            <ns3:cad>60</ns3:cad>
          </ns3:TrackPointExtension>
        </extensions>
      </trkpt>
      <trkpt lat="56.0128466226160526275634765625" lon="24.1144898347556591033935546875">
        <ele>54.40000152587890625</ele>
        <time>2026-08-01T11:07:17.000Z</time>
        <extensions>
          <ns3:TrackPointExtension>
            <ns3:hr>122</ns3:hr>
            <ns3:cad>59</ns3:cad>
          </ns3:TrackPointExtension>
        </extensions>
      </trkpt>
      <trkpt lat="56.01277814246714115142822265625" lon="24.11469443701207637786865234375">
        <ele>54.40000152587890625</ele>
        <time>2026-08-01T11:07:26.000Z</time>
        <extensions>
          <ns3:TrackPointExtension>
            <ns3:hr>123</ns3:hr>
            <ns3:cad>60</ns3:cad>
          </ns3:TrackPointExtension>
        </extensions>
      </trkpt>
      <trkpt lat="56.01271527819335460662841796875" lon="24.1148891486227512359619140625">
        <ele>54.40000152587890625</ele>
        <time>2026-08-01T11:07:35.000Z</time>
        <extensions>
          <ns3:TrackPointExtension>
            <ns3:hr>126</ns3:hr>
            <ns3:cad>59</ns3:cad>
          </ns3:TrackPointExtension>
        </extensions>
      </trkpt>
      <trkpt lat="56.01270035840570926666259765625" lon="24.1149340756237506866455078125">
        <ele>54.40000152587890625</ele>
        <time>2026-08-01T11:07:37.000Z</time>
        <extensions>
          <ns3:TrackPointExtension>
            <ns3:hr>126</ns3:hr>
            <ns3:cad>60</ns3:cad>
          </ns3:TrackPointExtension>
        </extensions>
      </trkpt>
      <trkpt lat="56.01266079582273960113525390625" lon="24.11508436314761638641357421875">
        <ele>54.59999847412109375</ele>
        <time>2026-08-01T11:07:44.000Z</time>
        <extensions>
          <ns3:TrackPointExtension>
            <ns3:hr>126</ns3:hr>
            <ns3:cad>60</ns3:cad>
          </ns3:TrackPointExtension>
        </extensions>
      </trkpt>
      <trkpt lat="56.012579239904880523681640625" lon="24.1153013706207275390625">
        <ele>54.40000152587890625</ele>
        <time>2026-08-01T11:07:53.000Z</time>
        <extensions>
          <ns3:TrackPointExtension>
            <ns3:hr>127</ns3:hr>
            <ns3:cad>60</ns3:cad>
          </ns3:TrackPointExtension>
        </extensions>
      </trkpt>
      <trkpt lat="56.01251176558434963226318359375" lon="24.11547210998833179473876953125">
        <ele>54.40000152587890625</ele>
        <time>2026-08-01T11:08:01.000Z</time>
        <extensions>
          <ns3:TrackPointExtension>
            <ns3:hr>126</ns3:hr>
            <ns3:cad>60</ns3:cad>
          </ns3:TrackPointExtension>
        </extensions>
      </trkpt>
      <trkpt lat="56.012471280992031097412109375" lon="24.115622900426387786865234375">
        <ele>54.40000152587890625</ele>
        <time>2026-08-01T11:08:08.000Z</time>
        <extensions>
          <ns3:TrackPointExtension>
            <ns3:hr>125</ns3:hr>
            <ns3:cad>60</ns3:cad>
          </ns3:TrackPointExtension>
        </extensions>
      </trkpt>
      <trkpt lat="56.012414954602718353271484375" lon="24.11580855958163738250732421875">
        <ele>54.200000762939453125</ele>
        <time>2026-08-01T11:08:17.000Z</time>
        <extensions>
          <ns3:TrackPointExtension>
            <ns3:hr>125</ns3:hr>
            <ns3:cad>59</ns3:cad>
          </ns3:TrackPointExtension>
        </extensions>
      </trkpt>
      <trkpt lat="56.01232820190489292144775390625" lon="24.1160210408270359039306640625">
        <ele>54.40000152587890625</ele>
        <time>2026-08-01T11:08:26.000Z</time>
        <extensions>
          <ns3:TrackPointExtension>
            <ns3:hr>125</ns3:hr>
            <ns3:cad>60</ns3:cad>
          </ns3:TrackPointExtension>
        </extensions>
      </trkpt>
      <trkpt lat="56.01223734207451343536376953125" lon="24.1162999905645847320556640625">
        <ele>54.40000152587890625</ele>
        <time>2026-08-01T11:08:38.000Z</time>
        <extensions>
          <ns3:TrackPointExtension>
            <ns3:hr>127</ns3:hr>
            <ns3:cad>60</ns3:cad>
          </ns3:TrackPointExtension>
        </extensions>
      </trkpt>
      <trkpt lat="56.012231223285198211669921875" lon="24.11631801165640354156494140625">
        <ele>54.40000152587890625</ele>
        <time>2026-08-01T11:08:39.000Z</time>
        <extensions>
          <ns3:TrackPointExtension>
            <ns3:hr>127</ns3:hr>
            <ns3:cad>60</ns3:cad>
          </ns3:TrackPointExtension>
        </extensions>
      </trkpt>
      <trkpt lat="56.01213156245648860931396484375" lon="24.11658774130046367645263671875">
        <ele>54.200000762939453125</ele>
        <time>2026-08-01T11:08:51.000Z</time>
        <extensions>
          <ns3:TrackPointExtension>
            <ns3:hr>127</ns3:hr>
            <ns3:cad>59</ns3:cad>
          </ns3:TrackPointExtension>
        </extensions>
      </trkpt>
      <trkpt lat="56.01208277978003025054931640625" lon="24.1167516075074672698974609375">
        <ele>54</ele>
        <time>2026-08-01T11:08:59.000Z</time>
        <extensions>
          <ns3:TrackPointExtension>
            <ns3:hr>126</ns3:hr>
            <ns3:cad>59</ns3:cad>
          </ns3:TrackPointExtension>
        </extensions>
      </trkpt>
      <trkpt lat="56.012030057609081268310546875" lon="24.116900302469730377197265625">
        <ele>54</ele>
        <time>2026-08-01T11:09:06.000Z</time>
        <extensions>
          <ns3:TrackPointExtension>
            <ns3:hr>127</ns3:hr>
            <ns3:cad>59</ns3:cad>
          </ns3:TrackPointExtension>
        </extensions>
      </trkpt>
      <trkpt lat="56.01195394992828369140625" lon="24.11704489029943943023681640625">
        <ele>54</ele>
        <time>2026-08-01T11:09:13.000Z</time>
        <extensions>
          <ns3:TrackPointExtension>
            <ns3:hr>126</ns3:hr>
            <ns3:cad>59</ns3:cad>
          </ns3:TrackPointExtension>
        </extensions>
      </trkpt>
      <trkpt lat="56.01191841065883636474609375" lon="24.11716282367706298828125">
        <ele>53.799999237060546875</ele>
        <time>2026-08-01T11:09:18.000Z</time>
        <extensions>
          <ns3:TrackPointExtension>
            <ns3:hr>127</ns3:hr>
            <ns3:cad>59</ns3:cad>
          </ns3:TrackPointExtension>
        </extensions>
      </trkpt>
      <trkpt lat="56.01190290413796901702880859375" lon="24.11721604876220226287841796875">
        <ele>53.799999237060546875</ele>
        <time>2026-08-01T11:09:20.000Z</time>
        <extensions>
          <ns3:TrackPointExtension>
            <ns3:hr>127</ns3:hr>
            <ns3:cad>59</ns3:cad>
          </ns3:TrackPointExtension>
        </extensions>
      </trkpt>
      <trkpt lat="56.01187792606651782989501953125" lon="24.11746834404766559600830078125">
        <ele>53.59999847412109375</ele>
        <time>2026-08-01T11:09:30.000Z</time>
        <extensions>
          <ns3:TrackPointExtension>
            <ns3:hr>126</ns3:hr>
            <ns3:cad>59</ns3:cad>
          </ns3:TrackPointExtension>
        </extensions>
      </trkpt>
      <trkpt lat="56.01189033128321170806884765625" lon="24.11766112782061100006103515625">
        <ele>53.200000762939453125</ele>
        <time>2026-08-01T11:09:38.000Z</time>
        <extensions>
          <ns3:TrackPointExtension>
            <ns3:hr>124</ns3:hr>
            <ns3:cad>58</ns3:cad>
          </ns3:TrackPointExtension>
        </extensions>
      </trkpt>
      <trkpt lat="56.01189251057803630828857421875" lon="24.11780881695449352264404296875">
        <ele>53.200000762939453125</ele>
        <time>2026-08-01T11:09:44.000Z</time>
        <extensions>
          <ns3:TrackPointExtension>
            <ns3:hr>124</ns3:hr>
            <ns3:cad>60</ns3:cad>
          </ns3:TrackPointExtension>
        </extensions>
      </trkpt>
      <trkpt lat="56.011881865561008453369140625" lon="24.117994643747806549072265625">
        <ele>53</ele>
        <time>2026-08-01T11:09:51.000Z</time>
        <extensions>
          <ns3:TrackPointExtension>
            <ns3:hr>124</ns3:hr>
            <ns3:cad>59</ns3:cad>
          </ns3:TrackPointExtension>
        </extensions>
      </trkpt>
      <trkpt lat="56.01184171624481678009033203125" lon="24.118211902678012847900390625">
        <ele>53.200000762939453125</ele>
        <time>2026-08-01T11:10:00.000Z</time>
        <extensions>
          <ns3:TrackPointExtension>
            <ns3:hr>126</ns3:hr>
            <ns3:cad>60</ns3:cad>
          </ns3:TrackPointExtension>
        </extensions>
      </trkpt>
      <trkpt lat="56.01180978119373321533203125" lon="24.11838063038885593414306640625">
        <ele>53.200000762939453125</ele>
        <time>2026-08-01T11:10:07.000Z</time>
        <extensions>
          <ns3:TrackPointExtension>
            <ns3:hr>125</ns3:hr>
            <ns3:cad>60</ns3:cad>
          </ns3:TrackPointExtension>
        </extensions>
      </trkpt>
      <trkpt lat="56.011752448976039886474609375" lon="24.1185842268168926239013671875">
        <ele>53.200000762939453125</ele>
        <time>2026-08-01T11:10:16.000Z</time>
        <extensions>
          <ns3:TrackPointExtension>
            <ns3:hr>126</ns3:hr>
            <ns3:cad>59</ns3:cad>
          </ns3:TrackPointExtension>
        </extensions>
      </trkpt>
      <trkpt lat="56.01170123554766178131103515625" lon="24.1188108734786510467529296875">
        <ele>53.40000152587890625</ele>
        <time>2026-08-01T11:10:25.000Z</time>
        <extensions>
          <ns3:TrackPointExtension>
            <ns3:hr>126</ns3:hr>
            <ns3:cad>59</ns3:cad>
          </ns3:TrackPointExtension>
        </extensions>
      </trkpt>
      <trkpt lat="56.011653207242488861083984375" lon="24.11896585486829280853271484375">
        <ele>53.40000152587890625</ele>
        <time>2026-08-01T11:10:32.000Z</time>
        <extensions>
          <ns3:TrackPointExtension>
            <ns3:hr>127</ns3:hr>
            <ns3:cad>59</ns3:cad>
          </ns3:TrackPointExtension>
        </extensions>
      </trkpt>
      <trkpt lat="56.0116017423570156097412109375" lon="24.1191484965384006500244140625">
        <ele>53.40000152587890625</ele>
        <time>2026-08-01T11:10:40.000Z</time>
        <extensions>
          <ns3:TrackPointExtension>
            <ns3:hr>127</ns3:hr>
            <ns3:cad>59</ns3:cad>
          </ns3:TrackPointExtension>
        </extensions>
      </trkpt>
      <trkpt lat="56.01156561635434627532958984375" lon="24.119341112673282623291015625">
        <ele>53.40000152587890625</ele>
        <time>2026-08-01T11:10:48.000Z</time>
        <extensions>
          <ns3:TrackPointExtension>
            <ns3:hr>127</ns3:hr>
            <ns3:cad>60</ns3:cad>
          </ns3:TrackPointExtension>
        </extensions>
      </trkpt>
      <trkpt lat="56.0115125589072704315185546875" lon="24.1195575334131717681884765625">
        <ele>53.40000152587890625</ele>
        <time>2026-08-01T11:10:57.000Z</time>
        <extensions>
          <ns3:TrackPointExtension>
            <ns3:hr>126</ns3:hr>
            <ns3:cad>59</ns3:cad>
          </ns3:TrackPointExtension>
        </extensions>
      </trkpt>
      <trkpt lat="56.01145899854600429534912109375" lon="24.11977370269596576690673828125">
        <ele>53.40000152587890625</ele>
        <time>2026-08-01T11:11:06.000Z</time>
        <extensions>
          <ns3:TrackPointExtension>
            <ns3:hr>126</ns3:hr>
            <ns3:cad>59</ns3:cad>
          </ns3:TrackPointExtension>
        </extensions>
      </trkpt>
      <trkpt lat="56.01143234409391880035400390625" lon="24.1198973357677459716796875">
        <ele>53.40000152587890625</ele>
        <time>2026-08-01T11:11:12.000Z</time>
        <extensions>
          <ns3:TrackPointExtension>
            <ns3:hr>126</ns3:hr>
            <ns3:cad>61</ns3:cad>
          </ns3:TrackPointExtension>
        </extensions>
      </trkpt>
      <trkpt lat="56.01138825528323650360107421875" lon="24.120074026286602020263671875">
        <ele>53.40000152587890625</ele>
        <time>2026-08-01T11:11:20.000Z</time>
        <extensions>
          <ns3:TrackPointExtension>
            <ns3:hr>126</ns3:hr>
            <ns3:cad>59</ns3:cad>
          </ns3:TrackPointExtension>
        </extensions>
      </trkpt>
      <trkpt lat="56.0113303363323211669921875" lon="24.12029639817774295806884765625">
        <ele>53.40000152587890625</ele>
        <time>2026-08-01T11:11:29.000Z</time>
        <extensions>
          <ns3:TrackPointExtension>
            <ns3:hr>126</ns3:hr>
            <ns3:cad>59</ns3:cad>
          </ns3:TrackPointExtension>
        </extensions>
      </trkpt>
      <trkpt lat="56.0112835653126239776611328125" lon="24.12053863517940044403076171875">
        <ele>53.40000152587890625</ele>
        <time>2026-08-01T11:11:39.000Z</time>
        <extensions>
          <ns3:TrackPointExtension>
            <ns3:hr>128</ns3:hr>
            <ns3:cad>59</ns3:cad>
          </ns3:TrackPointExtension>
        </extensions>
      </trkpt>
      <trkpt lat="56.01125054061412811279296875" lon="24.1207075305283069610595703125">
        <ele>53.59999847412109375</ele>
        <time>2026-08-01T11:11:46.000Z</time>
        <extensions>
          <ns3:TrackPointExtension>
            <ns3:hr>129</ns3:hr>
            <ns3:cad>60</ns3:cad>
          </ns3:TrackPointExtension>
        </extensions>
      </trkpt>
      <trkpt lat="56.011197902262210845947265625" lon="24.12093962542712688446044921875">
        <ele>53.59999847412109375</ele>
        <time>2026-08-01T11:11:56.000Z</time>
        <extensions>
          <ns3:TrackPointExtension>
            <ns3:hr>130</ns3:hr>
            <ns3:cad>59</ns3:cad>
          </ns3:TrackPointExtension>
        </extensions>
      </trkpt>
      <trkpt lat="56.01117602549493312835693359375" lon="24.1210471652448177337646484375">
        <ele>53.799999237060546875</ele>
        <time>2026-08-01T11:12:01.000Z</time>
        <extensions>
          <ns3:TrackPointExtension>
            <ns3:hr>127</ns3:hr>
            <ns3:cad>59</ns3:cad>
          </ns3:TrackPointExtension>
        </extensions>
      </trkpt>
      <trkpt lat="56.01114735938608646392822265625" lon="24.12117029540240764617919921875">
        <ele>53.799999237060546875</ele>
        <time>2026-08-01T11:12:06.000Z</time>
        <extensions>
          <ns3:TrackPointExtension>
            <ns3:hr>128</ns3:hr>
            <ns3:cad>59</ns3:cad>
          </ns3:TrackPointExtension>
        </extensions>
      </trkpt>
      <trkpt lat="56.01111064665019512176513671875" lon="24.1213874705135822296142578125">
        <ele>53.59999847412109375</ele>
        <time>2026-08-01T11:12:15.000Z</time>
        <extensions>
          <ns3:TrackPointExtension>
            <ns3:hr>127</ns3:hr>
            <ns3:cad>59</ns3:cad>
          </ns3:TrackPointExtension>
        </extensions>
      </trkpt>
      <trkpt lat="56.011056415736675262451171875" lon="24.1216134466230869293212890625">
        <ele>53.59999847412109375</ele>
        <time>2026-08-01T11:12:24.000Z</time>
        <extensions>
          <ns3:TrackPointExtension>
            <ns3:hr>128</ns3:hr>
            <ns3:cad>60</ns3:cad>
          </ns3:TrackPointExtension>
        </extensions>
      </trkpt>
      <trkpt lat="56.01101048290729522705078125" lon="24.12180597893893718719482421875">
        <ele>53.59999847412109375</ele>
        <time>2026-08-01T11:12:32.000Z</time>
        <extensions>
          <ns3:TrackPointExtension>
            <ns3:hr>128</ns3:hr>
            <ns3:cad>59</ns3:cad>
          </ns3:TrackPointExtension>
        </extensions>
      </trkpt>
      <trkpt lat="56.01094485260546207427978515625" lon="24.122090041637420654296875">
        <ele>53.59999847412109375</ele>
        <time>2026-08-01T11:12:44.000Z</time>
        <extensions>
          <ns3:TrackPointExtension>
            <ns3:hr>128</ns3:hr>
            <ns3:cad>60</ns3:cad>
          </ns3:TrackPointExtension>
        </extensions>
      </trkpt>
      <trkpt lat="56.0108842514455318450927734375" lon="24.12234560586512088775634765625">
        <ele>53.40000152587890625</ele>
        <time>2026-08-01T11:12:55.000Z</time>
        <extensions>
          <ns3:TrackPointExtension>
            <ns3:hr>127</ns3:hr>
            <ns3:cad>59</ns3:cad>
          </ns3:TrackPointExtension>
        </extensions>
      </trkpt>
      <trkpt lat="56.01082717068493366241455078125" lon="24.1225917823612689971923828125">
        <ele>53.59999847412109375</ele>
        <time>2026-08-01T11:13:05.000Z</time>
        <extensions>
          <ns3:TrackPointExtension>
            <ns3:hr>126</ns3:hr>
            <ns3:cad>60</ns3:cad>
          </ns3:TrackPointExtension>
        </extensions>
      </trkpt>
      <trkpt lat="56.01075835525989532470703125" lon="24.1228613443672657012939453125">
        <ele>53.59999847412109375</ele>
        <time>2026-08-01T11:13:16.000Z</time>
        <extensions>
          <ns3:TrackPointExtension>
            <ns3:hr>127</ns3:hr>
            <ns3:cad>60</ns3:cad>
          </ns3:TrackPointExtension>
        </extensions>
      </trkpt>
      <trkpt lat="56.01069943048059940338134765625" lon="24.12312277592718601226806640625">
        <ele>53.40000152587890625</ele>
        <time>2026-08-01T11:13:27.000Z</time>
        <extensions>
          <ns3:TrackPointExtension>
            <ns3:hr>126</ns3:hr>
            <ns3:cad>60</ns3:cad>
          </ns3:TrackPointExtension>
        </extensions>
      </trkpt>
      <trkpt lat="56.010656096041202545166015625" lon="24.123323522508144378662109375">
        <ele>53.59999847412109375</ele>
        <time>2026-08-01T11:13:35.000Z</time>
        <extensions>
          <ns3:TrackPointExtension>
            <ns3:hr>127</ns3:hr>
            <ns3:cad>60</ns3:cad>
          </ns3:TrackPointExtension>
        </extensions>
      </trkpt>
      <trkpt lat="56.01060236804187297821044921875" lon="24.12354312837123870849609375">
        <ele>53.59999847412109375</ele>
        <time>2026-08-01T11:13:44.000Z</time>
        <extensions>
          <ns3:TrackPointExtension>
            <ns3:hr>129</ns3:hr>
            <ns3:cad>59</ns3:cad>
          </ns3:TrackPointExtension>
        </extensions>
      </trkpt>
      <trkpt lat="56.01055526174604892730712890625" lon="24.12374085746705532073974609375">
        <ele>53.59999847412109375</ele>
        <time>2026-08-01T11:13:52.000Z</time>
        <extensions>
          <ns3:TrackPointExtension>
            <ns3:hr>129</ns3:hr>
            <ns3:cad>59</ns3:cad>
          </ns3:TrackPointExtension>
        </extensions>
      </trkpt>
      <trkpt lat="56.01049549877643585205078125" lon="24.12401653826236724853515625">
        <ele>53.59999847412109375</ele>
        <time>2026-08-01T11:14:04.000Z</time>
        <extensions>
          <ns3:TrackPointExtension>
            <ns3:hr>128</ns3:hr>
            <ns3:cad>59</ns3:cad>
          </ns3:TrackPointExtension>
        </extensions>
      </trkpt>
      <trkpt lat="56.01045937277376651763916015625" lon="24.12419222295284271240234375">
        <ele>53.59999847412109375</ele>
        <time>2026-08-01T11:14:11.000Z</time>
        <extensions>
          <ns3:TrackPointExtension>
            <ns3:hr>126</ns3:hr>
            <ns3:cad>60</ns3:cad>
          </ns3:TrackPointExtension>
        </extensions>
      </trkpt>
      <trkpt lat="56.01043154485523700714111328125" lon="24.12428853102028369903564453125">
        <ele>53.59999847412109375</ele>
        <time>2026-08-01T11:14:15.000Z</time>
        <extensions>
          <ns3:TrackPointExtension>
            <ns3:hr>129</ns3:hr>
            <ns3:cad>60</ns3:cad>
          </ns3:TrackPointExtension>
        </extensions>
      </trkpt>
      <trkpt lat="56.0104022920131683349609375" lon="24.12441216409206390380859375">
        <ele>53.40000152587890625</ele>
        <time>2026-08-01T11:14:20.000Z</time>
        <extensions>
          <ns3:TrackPointExtension>
            <ns3:hr>129</ns3:hr>
            <ns3:cad>60</ns3:cad>
          </ns3:TrackPointExtension>
        </extensions>
      </trkpt>
      <trkpt lat="56.0104048065841197967529296875" lon="24.1246354579925537109375">
        <ele>53.59999847412109375</ele>
        <time>2026-08-01T11:14:29.000Z</time>
        <extensions>
          <ns3:TrackPointExtension>
            <ns3:hr>129</ns3:hr>
            <ns3:cad>59</ns3:cad>
          </ns3:TrackPointExtension>
        </extensions>
      </trkpt>
      <trkpt lat="56.0104611329734325408935546875" lon="24.12486637942492961883544921875">
        <ele>53.40000152587890625</ele>
        <time>2026-08-01T11:14:38.000Z</time>
        <extensions>
          <ns3:TrackPointExtension>
            <ns3:hr>128</ns3:hr>
            <ns3:cad>59</ns3:cad>
          </ns3:TrackPointExtension>
        </extensions>
      </trkpt>
      <trkpt lat="56.0105399228632450103759765625" lon="24.12501306273043155670166015625">
        <ele>53.200000762939453125</ele>
        <time>2026-08-01T11:14:46.000Z</time>
        <extensions>
          <ns3:TrackPointExtension>
            <ns3:hr>126</ns3:hr>
            <ns3:cad>61</ns3:cad>
          </ns3:TrackPointExtension>
        </extensions>
      </trkpt>
      <trkpt lat="56.01061158813536167144775390625" lon="24.1251526214182376861572265625">
        <ele>53</ele>
        <time>2026-08-01T11:14:53.000Z</time>
        <extensions>
          <ns3:TrackPointExtension>
            <ns3:hr>123</ns3:hr>
            <ns3:cad>60</ns3:cad>
          </ns3:TrackPointExtension>
        </extensions>
      </trkpt>
      <trkpt lat="56.01063455455005168914794921875" lon="24.1251985542476177215576171875">
        <ele>53</ele>
        <time>2026-08-01T11:14:56.000Z</time>
        <extensions>
          <ns3:TrackPointExtension>
            <ns3:hr>123</ns3:hr>
            <ns3:cad>60</ns3:cad>
          </ns3:TrackPointExtension>
        </extensions>
      </trkpt>
      <trkpt lat="56.01075257174670696258544921875" lon="24.12542142905294895172119140625">
        <ele>52.799999237060546875</ele>
        <time>2026-08-01T11:15:08.000Z</time>
        <extensions>
          <ns3:TrackPointExtension>
            <ns3:hr>125</ns3:hr>
            <ns3:cad>59</ns3:cad>
          </ns3:TrackPointExtension>
        </extensions>
      </trkpt>
      <trkpt lat="56.010804958641529083251953125" lon="24.1255130432546138763427734375">
        <ele>52.799999237060546875</ele>
        <time>2026-08-01T11:15:13.000Z</time>
        <extensions>
          <ns3:TrackPointExtension>
            <ns3:hr>124</ns3:hr>
            <ns3:cad>59</ns3:cad>
          </ns3:TrackPointExtension>
        </extensions>
      </trkpt>
      <trkpt lat="56.0108490474522113800048828125" lon="24.12558655254542827606201171875">
        <ele>52.799999237060546875</ele>
        <time>2026-08-01T11:15:17.000Z</time>
        <extensions>
          <ns3:TrackPointExtension>
            <ns3:hr>124</ns3:hr>
            <ns3:cad>59</ns3:cad>
          </ns3:TrackPointExtension>
        </extensions>
      </trkpt>
      <trkpt lat="56.01092062890529632568359375" lon="24.12571446038782596588134765625">
        <ele>52.799999237060546875</ele>
        <time>2026-08-01T11:15:24.000Z</time>
        <extensions>
          <ns3:TrackPointExtension>
            <ns3:hr>125</ns3:hr>
            <ns3:cad>60</ns3:cad>
          </ns3:TrackPointExtension>
        </extensions>
      </trkpt>
      <trkpt lat="56.011007130146026611328125" lon="24.1258821822702884674072265625">
        <ele>52.59999847412109375</ele>
        <time>2026-08-01T11:15:33.000Z</time>
        <extensions>
          <ns3:TrackPointExtension>
            <ns3:hr>125</ns3:hr>
            <ns3:cad>59</ns3:cad>
          </ns3:TrackPointExtension>
        </extensions>
      </trkpt>
      <trkpt lat="56.01114585064351558685302734375" lon="24.12612919695675373077392578125">
        <ele>52.59999847412109375</ele>
        <time>2026-08-01T11:15:46.000Z</time>
        <extensions>
          <ns3:TrackPointExtension>
            <ns3:hr>124</ns3:hr>
            <ns3:cad>59</ns3:cad>
          </ns3:TrackPointExtension>
        </extensions>
      </trkpt>
      <trkpt lat="56.01125280372798442840576171875" lon="24.12633706815540790557861328125">
        <ele>52.40000152587890625</ele>
        <time>2026-08-01T11:15:57.000Z</time>
        <extensions>
          <ns3:TrackPointExtension>
            <ns3:hr>125</ns3:hr>
            <ns3:cad>60</ns3:cad>
          </ns3:TrackPointExtension>
        </extensions>
      </trkpt>
      <trkpt lat="56.0113452561199665069580078125" lon="24.12653169594705104827880859375">
        <ele>52.40000152587890625</ele>
        <time>2026-08-01T11:16:07.000Z</time>
        <extensions>
          <ns3:TrackPointExtension>
            <ns3:hr>124</ns3:hr>
            <ns3:cad>60</ns3:cad>
          </ns3:TrackPointExtension>
        </extensions>
      </trkpt>
      <trkpt lat="56.011419184505939483642578125" lon="24.12670570425689220428466796875">
        <ele>52.200000762939453125</ele>
        <time>2026-08-01T11:16:15.000Z</time>
        <extensions>
          <ns3:TrackPointExtension>
            <ns3:hr>127</ns3:hr>
            <ns3:cad>59</ns3:cad>
          </ns3:TrackPointExtension>
        </extensions>
      </trkpt>
      <trkpt lat="56.011439301073551177978515625" lon="24.12674258463084697723388671875">
        <ele>52.200000762939453125</ele>
        <time>2026-08-01T11:16:17.000Z</time>
        <extensions>
          <ns3:TrackPointExtension>
            <ns3:hr>127</ns3:hr>
            <ns3:cad>60</ns3:cad>
          </ns3:TrackPointExtension>
        </extensions>
      </trkpt>
      <trkpt lat="56.011499650776386260986328125" lon="24.1269071213901042938232421875">
        <ele>52.200000762939453125</ele>
        <time>2026-08-01T11:16:25.000Z</time>
        <extensions>
          <ns3:TrackPointExtension>
            <ns3:hr>127</ns3:hr>
            <ns3:cad>60</ns3:cad>
          </ns3:TrackPointExtension>
        </extensions>
      </trkpt>
      <trkpt lat="56.0115910135209560394287109375" lon="24.12716939114034175872802734375">
        <ele>52.200000762939453125</ele>
        <time>2026-08-01T11:16:37.000Z</time>
        <extensions>
          <ns3:TrackPointExtension>
            <ns3:hr>129</ns3:hr>
            <ns3:cad>59</ns3:cad>
          </ns3:TrackPointExtension>
        </extensions>
      </trkpt>
      <trkpt lat="56.01165563799440860748291015625" lon="24.12734876386821269989013671875">
        <ele>52.200000762939453125</ele>
        <time>2026-08-01T11:16:46.000Z</time>
        <extensions>
          <ns3:TrackPointExtension>
            <ns3:hr>129</ns3:hr>
            <ns3:cad>59</ns3:cad>
          </ns3:TrackPointExtension>
        </extensions>
      </trkpt>
      <trkpt lat="56.01170928217470645904541015625" lon="24.12753283046185970306396484375">
        <ele>51.799999237060546875</ele>
        <time>2026-08-01T11:16:54.000Z</time>
        <extensions>
          <ns3:TrackPointExtension>
            <ns3:hr>130</ns3:hr>
            <ns3:cad>58</ns3:cad>
          </ns3:TrackPointExtension>
        </extensions>
      </trkpt>
      <trkpt lat="56.0117224417626857757568359375" lon="24.1275739856064319610595703125">
        <ele>52</ele>
        <time>2026-08-01T11:17:00.000Z</time>
        <extensions>
          <ns3:TrackPointExtension>
            <ns3:hr>128</ns3:hr>
            <ns3:cad>0</ns3:cad>
          </ns3:TrackPointExtension>
        </extensions>
      </trkpt>
      <trkpt lat="56.01171783171594142913818359375" lon="24.1275751590728759765625">
        <ele>51.59999847412109375</ele>
        <time>2026-08-01T11:17:04.000Z</time>
        <extensions>
          <ns3:TrackPointExtension>
            <ns3:hr>130</ns3:hr>
            <ns3:cad>0</ns3:cad>
          </ns3:TrackPointExtension>
        </extensions>
      </trkpt>
      <trkpt lat="56.01172797381877899169921875" lon="24.1276189126074314117431640625">
        <ele>51.59999847412109375</ele>
        <time>2026-08-01T11:17:08.000Z</time>
        <extensions>
          <ns3:TrackPointExtension>
            <ns3:hr>132</ns3:hr>
            <ns3:cad>68</ns3:cad>
          </ns3:TrackPointExtension>
        </extensions>
      </trkpt>
      <trkpt lat="56.01180332712829113006591796875" lon="24.12782770581543445587158203125">
        <ele>52</ele>
        <time>2026-08-01T11:17:18.000Z</time>
        <extensions>
          <ns3:TrackPointExtension>
            <ns3:hr>132</ns3:hr>
            <ns3:cad>58</ns3:cad>
          </ns3:TrackPointExtension>
        </extensions>
      </trkpt>
      <trkpt lat="56.01187876425683498382568359375" lon="24.12804655730724334716796875">
        <ele>52.200000762939453125</ele>
        <time>2026-08-01T11:17:28.000Z</time>
        <extensions>
          <ns3:TrackPointExtension>
            <ns3:hr>133</ns3:hr>
            <ns3:cad>60</ns3:cad>
          </ns3:TrackPointExtension>
        </extensions>
      </trkpt>
      <trkpt lat="56.01194322109222412109375" lon="24.12823858670890331268310546875">
        <ele>52.200000762939453125</ele>
        <time>2026-08-01T11:17:37.000Z</time>
        <extensions>
          <ns3:TrackPointExtension>
            <ns3:hr>132</ns3:hr>
            <ns3:cad>60</ns3:cad>
          </ns3:TrackPointExtension>
        </extensions>
      </trkpt>
      <trkpt lat="56.01200063712894916534423828125" lon="24.128415696322917938232421875">
        <ele>52</ele>
        <time>2026-08-01T11:17:45.000Z</time>
        <extensions>
          <ns3:TrackPointExtension>
            <ns3:hr>129</ns3:hr>
            <ns3:cad>59</ns3:cad>
          </ns3:TrackPointExtension>
        </extensions>
      </trkpt>
      <trkpt lat="56.0120205022394657135009765625" lon="24.12848417647182941436767578125">
        <ele>52.200000762939453125</ele>
        <time>2026-08-01T11:17:48.000Z</time>
        <extensions>
          <ns3:TrackPointExtension>
            <ns3:hr>129</ns3:hr>
            <ns3:cad>59</ns3:cad>
          </ns3:TrackPointExtension>
        </extensions>
      </trkpt>
      <trkpt lat="56.0120899043977260589599609375" lon="24.12869540043175220489501953125">
        <ele>52.40000152587890625</ele>
        <time>2026-08-01T11:17:58.000Z</time>
        <extensions>
          <ns3:TrackPointExtension>
            <ns3:hr>129</ns3:hr>
            <ns3:cad>60</ns3:cad>
          </ns3:TrackPointExtension>
        </extensions>
      </trkpt>
      <trkpt lat="56.01218973286449909210205078125" lon="24.128977619111537933349609375">
        <ele>52.59999847412109375</ele>
        <time>2026-08-01T11:18:11.000Z</time>
        <extensions>
          <ns3:TrackPointExtension>
            <ns3:hr>128</ns3:hr>
            <ns3:cad>59</ns3:cad>
          </ns3:TrackPointExtension>
        </extensions>
      </trkpt>
      <trkpt lat="56.01220540702342987060546875" lon="24.12902447395026683807373046875">
        <ele>52.59999847412109375</ele>
        <time>2026-08-01T11:18:13.000Z</time>
        <extensions>
          <ns3:TrackPointExtension>
            <ns3:hr>129</ns3:hr>
            <ns3:cad>59</ns3:cad>
          </ns3:TrackPointExtension>
        </extensions>
      </trkpt>
      <trkpt lat="56.012233234941959381103515625" lon="24.1291196085512638092041015625">
        <ele>52.59999847412109375</ele>
        <time>2026-08-01T11:18:17.000Z</time>
        <extensions>
          <ns3:TrackPointExtension>
            <ns3:hr>127</ns3:hr>
            <ns3:cad>59</ns3:cad>
          </ns3:TrackPointExtension>
        </extensions>
      </trkpt>
      <trkpt lat="56.0122883878648281097412109375" lon="24.12932136096060276031494140625">
        <ele>52.799999237060546875</ele>
        <time>2026-08-01T11:18:26.000Z</time>
        <extensions>
          <ns3:TrackPointExtension>
            <ns3:hr>126</ns3:hr>
            <ns3:cad>59</ns3:cad>
          </ns3:TrackPointExtension>
        </extensions>
      </trkpt>
      <trkpt lat="56.012366674840450286865234375" lon="24.12955957464873790740966796875">
        <ele>53</ele>
        <time>2026-08-01T11:18:37.000Z</time>
        <extensions>
          <ns3:TrackPointExtension>
            <ns3:hr>127</ns3:hr>
            <ns3:cad>59</ns3:cad>
          </ns3:TrackPointExtension>
        </extensions>
      </trkpt>
      <trkpt lat="56.01243381388485431671142578125" lon="24.1297544538974761962890625">
        <ele>52.799999237060546875</ele>
        <time>2026-08-01T11:18:46.000Z</time>
        <extensions>
          <ns3:TrackPointExtension>
            <ns3:hr>127</ns3:hr>
            <ns3:cad>59</ns3:cad>
          </ns3:TrackPointExtension>
        </extensions>
      </trkpt>
      <trkpt lat="56.012527607381343841552734375" lon="24.1300439648330211639404296875">
        <ele>53.200000762939453125</ele>
        <time>2026-08-01T11:18:59.000Z</time>
        <extensions>
          <ns3:TrackPointExtension>
            <ns3:hr>126</ns3:hr>
            <ns3:cad>61</ns3:cad>
          </ns3:TrackPointExtension>
        </extensions>
      </trkpt>
      <trkpt lat="56.012535989284515380859375" lon="24.130064584314823150634765625">
        <ele>53.200000762939453125</ele>
        <time>2026-08-01T11:19:00.000Z</time>
        <extensions>
          <ns3:TrackPointExtension>
            <ns3:hr>125</ns3:hr>
            <ns3:cad>61</ns3:cad>
          </ns3:TrackPointExtension>
        </extensions>
      </trkpt>
      <trkpt lat="56.012613773345947265625" lon="24.1303165443241596221923828125">
        <ele>53</ele>
        <time>2026-08-01T11:19:11.000Z</time>
        <extensions>
          <ns3:TrackPointExtension>
            <ns3:hr>126</ns3:hr>
            <ns3:cad>60</ns3:cad>
          </ns3:TrackPointExtension>
        </extensions>
      </trkpt>
      <trkpt lat="56.012705303728580474853515625" lon="24.13061535917222499847412109375">
        <ele>53.59999847412109375</ele>
        <time>2026-08-01T11:19:24.000Z</time>
        <extensions>
          <ns3:TrackPointExtension>
            <ns3:hr>126</ns3:hr>
            <ns3:cad>62</ns3:cad>
          </ns3:TrackPointExtension>
        </extensions>
      </trkpt>
      <trkpt lat="56.0127416811883449554443359375" lon="24.13070420734584331512451171875">
        <ele>53.40000152587890625</ele>
        <time>2026-08-01T11:19:28.000Z</time>
        <extensions>
          <ns3:TrackPointExtension>
            <ns3:hr>130</ns3:hr>
            <ns3:cad>60</ns3:cad>
          </ns3:TrackPointExtension>
        </extensions>
      </trkpt>
      <trkpt lat="56.0127680003643035888671875" lon="24.13077310658991336822509765625">
        <ele>53.40000152587890625</ele>
        <time>2026-08-01T11:19:31.000Z</time>
        <extensions>
          <ns3:TrackPointExtension>
            <ns3:hr>133</ns3:hr>
            <ns3:cad>59</ns3:cad>
          </ns3:TrackPointExtension>
        </extensions>
      </trkpt>
      <trkpt lat="56.0127842612564563751220703125" lon="24.13082021288573741912841796875">
        <ele>53.40000152587890625</ele>
        <time>2026-08-01T11:19:33.000Z</time>
        <extensions>
          <ns3:TrackPointExtension>
            <ns3:hr>133</ns3:hr>
            <ns3:cad>59</ns3:cad>
          </ns3:TrackPointExtension>
        </extensions>
      </trkpt>
      <trkpt lat="56.01285181939601898193359375" lon="24.13102649152278900146484375">
        <ele>53.59999847412109375</ele>
        <time>2026-08-01T11:19:42.000Z</time>
        <extensions>
          <ns3:TrackPointExtension>
            <ns3:hr>132</ns3:hr>
            <ns3:cad>62</ns3:cad>
          </ns3:TrackPointExtension>
        </extensions>
      </trkpt>
      <trkpt lat="56.01285927928984165191650390625" lon="24.1310501284897327423095703125">
        <ele>53.799999237060546875</ele>
        <time>2026-08-01T11:19:43.000Z</time>
        <extensions>
          <ns3:TrackPointExtension>
            <ns3:hr>132</ns3:hr>
            <ns3:cad>62</ns3:cad>
          </ns3:TrackPointExtension>
        </extensions>
      </trkpt>
      <trkpt lat="56.012918539345264434814453125" lon="24.1312409006059169769287109375">
        <ele>53.59999847412109375</ele>
        <time>2026-08-01T11:19:52.000Z</time>
        <extensions>
          <ns3:TrackPointExtension>
            <ns3:hr>132</ns3:hr>
            <ns3:cad>60</ns3:cad>
          </ns3:TrackPointExtension>
        </extensions>
      </trkpt>
      <trkpt lat="56.012980900704860687255859375" lon="24.13144282065331935882568359375">
        <ele>53.59999847412109375</ele>
        <time>2026-08-01T11:20:01.000Z</time>
        <extensions>
          <ns3:TrackPointExtension>
            <ns3:hr>131</ns3:hr>
            <ns3:cad>59</ns3:cad>
          </ns3:TrackPointExtension>
        </extensions>
      </trkpt>
      <trkpt lat="56.01304820738732814788818359375" lon="24.131653122603893280029296875">
        <ele>53.200000762939453125</ele>
        <time>2026-08-01T11:20:11.000Z</time>
        <extensions>
          <ns3:TrackPointExtension>
            <ns3:hr>130</ns3:hr>
            <ns3:cad>59</ns3:cad>
          </ns3:TrackPointExtension>
        </extensions>
      </trkpt>
      <trkpt lat="56.01310604251921176910400390625" lon="24.131832830607891082763671875">
        <ele>53</ele>
        <time>2026-08-01T11:20:19.000Z</time>
        <extensions>
          <ns3:TrackPointExtension>
            <ns3:hr>130</ns3:hr>
            <ns3:cad>59</ns3:cad>
          </ns3:TrackPointExtension>
        </extensions>
      </trkpt>
      <trkpt lat="56.01317376829683780670166015625" lon="24.13205905817449092864990234375">
        <ele>52.59999847412109375</ele>
        <time>2026-08-01T11:20:29.000Z</time>
        <extensions>
          <ns3:TrackPointExtension>
            <ns3:hr>132</ns3:hr>
            <ns3:cad>59</ns3:cad>
          </ns3:TrackPointExtension>
        </extensions>
      </trkpt>
      <trkpt lat="56.013182066380977630615234375" lon="24.132081605494022369384765625">
        <ele>52.59999847412109375</ele>
        <time>2026-08-01T11:20:30.000Z</time>
        <extensions>
          <ns3:TrackPointExtension>
            <ns3:hr>132</ns3:hr>
            <ns3:cad>59</ns3:cad>
          </ns3:TrackPointExtension>
        </extensions>
      </trkpt>
      <trkpt lat="56.01323579438030719757080078125" lon="24.13223071955144405364990234375">
        <ele>52.59999847412109375</ele>
        <time>2026-08-01T11:20:37.000Z</time>
        <extensions>
          <ns3:TrackPointExtension>
            <ns3:hr>135</ns3:hr>
            <ns3:cad>59</ns3:cad>
          </ns3:TrackPointExtension>
        </extensions>
      </trkpt>
      <trkpt lat="56.0132419131696224212646484375" lon="24.13225452415645122528076171875">
        <ele>52.40000152587890625</ele>
        <time>2026-08-01T11:20:38.000Z</time>
        <extensions>
          <ns3:TrackPointExtension>
            <ns3:hr>135</ns3:hr>
            <ns3:cad>56</ns3:cad>
          </ns3:TrackPointExtension>
        </extensions>
      </trkpt>
      <trkpt lat="56.01330452598631381988525390625" lon="24.13247086107730865478515625">
        <ele>52.40000152587890625</ele>
        <time>2026-08-01T11:20:47.000Z</time>
        <extensions>
          <ns3:TrackPointExtension>
            <ns3:hr>134</ns3:hr>
            <ns3:cad>59</ns3:cad>
          </ns3:TrackPointExtension>
        </extensions>
      </trkpt>
      <trkpt lat="56.0133813880383968353271484375" lon="24.13268007338047027587890625">
        <ele>52.59999847412109375</ele>
        <time>2026-08-01T11:20:57.000Z</time>
        <extensions>
          <ns3:TrackPointExtension>
            <ns3:hr>133</ns3:hr>
            <ns3:cad>59</ns3:cad>
          </ns3:TrackPointExtension>
        </extensions>
      </trkpt>
      <trkpt lat="56.013405025005340576171875" lon="24.13275090046226978302001953125">
        <ele>52.799999237060546875</ele>
        <time>2026-08-01T11:21:00.000Z</time>
        <extensions>
          <ns3:TrackPointExtension>
            <ns3:hr>130</ns3:hr>
            <ns3:cad>60</ns3:cad>
          </ns3:TrackPointExtension>
        </extensions>
      </trkpt>
      <trkpt lat="56.01343930698931217193603515625" lon="24.13285852409899234771728515625">
        <ele>52.40000152587890625</ele>
        <time>2026-08-01T11:21:05.000Z</time>
        <extensions>
          <ns3:TrackPointExtension>
            <ns3:hr>130</ns3:hr>
            <ns3:cad>59</ns3:cad>
          </ns3:TrackPointExtension>
        </extensions>
      </trkpt>
      <trkpt lat="56.013504602015018463134765625" lon="24.133074022829532623291015625">
        <ele>52.40000152587890625</ele>
        <time>2026-08-01T11:21:15.000Z</time>
        <extensions>
          <ns3:TrackPointExtension>
            <ns3:hr>129</ns3:hr>
            <ns3:cad>58</ns3:cad>
          </ns3:TrackPointExtension>
        </extensions>
      </trkpt>
      <trkpt lat="56.01353335194289684295654296875" lon="24.13316018879413604736328125">
        <ele>52.40000152587890625</ele>
        <time>2026-08-01T11:21:19.000Z</time>
        <extensions>
          <ns3:TrackPointExtension>
            <ns3:hr>132</ns3:hr>
            <ns3:cad>58</ns3:cad>
          </ns3:TrackPointExtension>
        </extensions>
      </trkpt>
      <trkpt lat="56.0135686397552490234375" lon="24.13326571695506572723388671875">
        <ele>52.200000762939453125</ele>
        <time>2026-08-01T11:21:24.000Z</time>
        <extensions>
          <ns3:TrackPointExtension>
            <ns3:hr>133</ns3:hr>
            <ns3:cad>58</ns3:cad>
          </ns3:TrackPointExtension>
        </extensions>
      </trkpt>
      <trkpt lat="56.01364768110215663909912109375" lon="24.13350141607224941253662109375">
        <ele>52.200000762939453125</ele>
        <time>2026-08-01T11:21:35.000Z</time>
        <extensions>
          <ns3:TrackPointExtension>
            <ns3:hr>133</ns3:hr>
            <ns3:cad>60</ns3:cad>
          </ns3:TrackPointExtension>
        </extensions>
      </trkpt>
      <trkpt lat="56.01371842436492443084716796875" lon="24.133696295320987701416015625">
        <ele>52</ele>
        <time>2026-08-01T11:21:44.000Z</time>
        <extensions>
          <ns3:TrackPointExtension>
            <ns3:hr>135</ns3:hr>
            <ns3:cad>60</ns3:cad>
          </ns3:TrackPointExtension>
        </extensions>
      </trkpt>
      <trkpt lat="56.01379654370248317718505859375" lon="24.13394984789192676544189453125">
        <ele>52.200000762939453125</ele>
        <time>2026-08-01T11:21:56.000Z</time>
        <extensions>
          <ns3:TrackPointExtension>
            <ns3:hr>134</ns3:hr>
            <ns3:cad>60</ns3:cad>
          </ns3:TrackPointExtension>
        </extensions>
      </trkpt>
      <trkpt lat="56.0138410516083240509033203125" lon="24.1341128759086132049560546875">
        <ele>52.200000762939453125</ele>
        <time>2026-08-01T11:22:03.000Z</time>
        <extensions>
          <ns3:TrackPointExtension>
            <ns3:hr>132</ns3:hr>
            <ns3:cad>61</ns3:cad>
          </ns3:TrackPointExtension>
        </extensions>
      </trkpt>
      <trkpt lat="56.0138799436390399932861328125" lon="24.134301804006099700927734375">
        <ele>52.200000762939453125</ele>
        <time>2026-08-01T11:22:11.000Z</time>
        <extensions>
          <ns3:TrackPointExtension>
            <ns3:hr>132</ns3:hr>
            <ns3:cad>59</ns3:cad>
          </ns3:TrackPointExtension>
        </extensions>
      </trkpt>
      <trkpt lat="56.01391070522367954254150390625" lon="24.13442552089691162109375">
        <ele>51.799999237060546875</ele>
        <time>2026-08-01T11:22:16.000Z</time>
        <extensions>
          <ns3:TrackPointExtension>
            <ns3:hr>135</ns3:hr>
            <ns3:cad>59</ns3:cad>
          </ns3:TrackPointExtension>
        </extensions>
      </trkpt>
      <trkpt lat="56.01392864249646663665771484375" lon="24.13451026193797588348388671875">
        <ele>51.59999847412109375</ele>
        <time>2026-08-01T11:22:20.000Z</time>
        <extensions>
          <ns3:TrackPointExtension>
            <ns3:hr>133</ns3:hr>
            <ns3:cad>59</ns3:cad>
          </ns3:TrackPointExtension>
        </extensions>
      </trkpt>
      <trkpt lat="56.0139597393572330474853515625" lon="24.13468100130558013916015625">
        <ele>51.799999237060546875</ele>
        <time>2026-08-01T11:22:27.000Z</time>
        <extensions>
          <ns3:TrackPointExtension>
            <ns3:hr>134</ns3:hr>
            <ns3:cad>59</ns3:cad>
          </ns3:TrackPointExtension>
        </extensions>
      </trkpt>
      <trkpt lat="56.01399234496057033538818359375" lon="24.134881831705570220947265625">
        <ele>51.799999237060546875</ele>
        <time>2026-08-01T11:22:35.000Z</time>
        <extensions>
          <ns3:TrackPointExtension>
            <ns3:hr>134</ns3:hr>
            <ns3:cad>59</ns3:cad>
          </ns3:TrackPointExtension>
        </extensions>
      </trkpt>
      <trkpt lat="56.01403475739061832427978515625" lon="24.13518500514328479766845703125">
        <ele>51.799999237060546875</ele>
        <time>2026-08-01T11:22:47.000Z</time>
        <extensions>
          <ns3:TrackPointExtension>
            <ns3:hr>133</ns3:hr>
            <ns3:cad>60</ns3:cad>
          </ns3:TrackPointExtension>
        </extensions>
      </trkpt>
      <trkpt lat="56.014063842594623565673828125" lon="24.13537158630788326263427734375">
        <ele>51.59999847412109375</ele>
        <time>2026-08-01T11:22:55.000Z</time>
        <extensions>
          <ns3:TrackPointExtension>
            <ns3:hr>133</ns3:hr>
            <ns3:cad>59</ns3:cad>
          </ns3:TrackPointExtension>
        </extensions>
      </trkpt>
      <trkpt lat="56.0140841268002986907958984375" lon="24.13547686301171779632568359375">
        <ele>51.59999847412109375</ele>
        <time>2026-08-01T11:22:59.000Z</time>
        <extensions>
          <ns3:TrackPointExtension>
            <ns3:hr>134</ns3:hr>
            <ns3:cad>59</ns3:cad>
          </ns3:TrackPointExtension>
        </extensions>
      </trkpt>
      <trkpt lat="56.0141220130026340484619140625" lon="24.1357232071459293365478515625">
        <ele>51.59999847412109375</ele>
        <time>2026-08-01T11:23:09.000Z</time>
        <extensions>
          <ns3:TrackPointExtension>
            <ns3:hr>135</ns3:hr>
            <ns3:cad>58</ns3:cad>
          </ns3:TrackPointExtension>
        </extensions>
      </trkpt>
      <trkpt lat="56.01417439989745616912841796875" lon="24.13603685796260833740234375">
        <ele>51.59999847412109375</ele>
        <time>2026-08-01T11:23:22.000Z</time>
        <extensions>
          <ns3:TrackPointExtension>
            <ns3:hr>134</ns3:hr>
            <ns3:cad>61</ns3:cad>
          </ns3:TrackPointExtension>
        </extensions>
      </trkpt>
      <trkpt lat="56.0142259486019611358642578125" lon="24.13635226897895336151123046875">
        <ele>51.40000152587890625</ele>
        <time>2026-08-01T11:23:35.000Z</time>
        <extensions>
          <ns3:TrackPointExtension>
            <ns3:hr>133</ns3:hr>
            <ns3:cad>58</ns3:cad>
          </ns3:TrackPointExtension>
        </extensions>
      </trkpt>
      <trkpt lat="56.01423089392483234405517578125" lon="24.13637749850749969482421875">
        <ele>51.40000152587890625</ele>
        <time>2026-08-01T11:23:36.000Z</time>
        <extensions>
          <ns3:TrackPointExtension>
            <ns3:hr>132</ns3:hr>
            <ns3:cad>60</ns3:cad>
          </ns3:TrackPointExtension>
        </extensions>
      </trkpt>
      <trkpt lat="56.0142547823488712310791015625" lon="24.1365699470043182373046875">
        <ele>51.200000762939453125</ele>
        <time>2026-08-01T11:23:44.000Z</time>
        <extensions>
          <ns3:TrackPointExtension>
            <ns3:hr>133</ns3:hr>
            <ns3:cad>60</ns3:cad>
          </ns3:TrackPointExtension>
        </extensions>
      </trkpt>
      <trkpt lat="56.0143017210066318511962890625" lon="24.13688988424837589263916015625">
        <ele>51.200000762939453125</ele>
        <time>2026-08-01T11:23:57.000Z</time>
        <extensions>
          <ns3:TrackPointExtension>
            <ns3:hr>135</ns3:hr>
            <ns3:cad>60</ns3:cad>
          </ns3:TrackPointExtension>
        </extensions>
      </trkpt>
      <trkpt lat="56.0143090970814228057861328125" lon="24.1369392536580562591552734375">
        <ele>51.200000762939453125</ele>
        <time>2026-08-01T11:23:59.000Z</time>
        <extensions>
          <ns3:TrackPointExtension>
            <ns3:hr>135</ns3:hr>
            <ns3:cad>60</ns3:cad>
          </ns3:TrackPointExtension>
        </extensions>
      </trkpt>
      <trkpt lat="56.01435653865337371826171875" lon="24.137231446802616119384765625">
        <ele>51</ele>
        <time>2026-08-01T11:24:11.000Z</time>
        <extensions>
          <ns3:TrackPointExtension>
            <ns3:hr>135</ns3:hr>
            <ns3:cad>59</ns3:cad>
          </ns3:TrackPointExtension>
        </extensions>
      </trkpt>
      <trkpt lat="56.0144053213298320770263671875" lon="24.1374242305755615234375">
        <ele>51</ele>
        <time>2026-08-01T11:24:19.000Z</time>
        <extensions>
          <ns3:TrackPointExtension>
            <ns3:hr>133</ns3:hr>
            <ns3:cad>59</ns3:cad>
          </ns3:TrackPointExtension>
        </extensions>
      </trkpt>
      <trkpt lat="56.01444379426538944244384765625" lon="24.1376255638897418975830078125">
        <ele>51</ele>
        <time>2026-08-01T11:24:27.000Z</time>
        <extensions>
          <ns3:TrackPointExtension>
            <ns3:hr>132</ns3:hr>
            <ns3:cad>58</ns3:cad>
          </ns3:TrackPointExtension>
        </extensions>
      </trkpt>
      <trkpt lat="56.014506407082080841064453125" lon="24.13786947727203369140625">
        <ele>51</ele>
        <time>2026-08-01T11:24:37.000Z</time>
        <extensions>
          <ns3:TrackPointExtension>
            <ns3:hr>134</ns3:hr>
            <ns3:cad>59</ns3:cad>
          </ns3:TrackPointExtension>
        </extensions>
      </trkpt>
      <trkpt lat="56.01458829827606678009033203125" lon="24.13812537677586078643798828125">
        <ele>51</ele>
        <time>2026-08-01T11:24:49.000Z</time>
        <extensions>
          <ns3:TrackPointExtension>
            <ns3:hr>135</ns3:hr>
            <ns3:cad>59</ns3:cad>
          </ns3:TrackPointExtension>
        </extensions>
      </trkpt>
      <trkpt lat="56.014671027660369873046875" lon="24.1383397020399570465087890625">
        <ele>51</ele>
        <time>2026-08-01T11:24:59.000Z</time>
        <extensions>
          <ns3:TrackPointExtension>
            <ns3:hr>138</ns3:hr>
            <ns3:cad>60</ns3:cad>
          </ns3:TrackPointExtension>
        </extensions>
      </trkpt>
      <trkpt lat="56.01468821056187152862548828125" lon="24.13838471285998821258544921875">
        <ele>51</ele>
        <time>2026-08-01T11:25:01.000Z</time>
        <extensions>
          <ns3:TrackPointExtension>
            <ns3:hr>138</ns3:hr>
            <ns3:cad>61</ns3:cad>
          </ns3:TrackPointExtension>
        </extensions>
      </trkpt>
      <trkpt lat="56.0147442854940891265869140625" lon="24.13853692822158336639404296875">
        <ele>50.799999237060546875</ele>
        <time>2026-08-01T11:25:08.000Z</time>
        <extensions>
          <ns3:TrackPointExtension>
            <ns3:hr>134</ns3:hr>
            <ns3:cad>60</ns3:cad>
          </ns3:TrackPointExtension>
        </extensions>
      </trkpt>
      <trkpt lat="56.0147727839648723602294921875" lon="24.13861890323460102081298828125">
        <ele>51</ele>
        <time>2026-08-01T11:25:12.000Z</time>
        <extensions>
          <ns3:TrackPointExtension>
            <ns3:hr>133</ns3:hr>
            <ns3:cad>61</ns3:cad>
          </ns3:TrackPointExtension>
        </extensions>
      </trkpt>
      <trkpt lat="56.01485718972980976104736328125" lon="24.13883180357515811920166015625">
        <ele>50.799999237060546875</ele>
        <time>2026-08-01T11:25:22.000Z</time>
        <extensions>
          <ns3:TrackPointExtension>
            <ns3:hr>135</ns3:hr>
            <ns3:cad>60</ns3:cad>
          </ns3:TrackPointExtension>
        </extensions>
      </trkpt>
      <trkpt lat="56.01489691995084285736083984375" lon="24.1389388404786586761474609375">
        <ele>50.59999847412109375</ele>
        <time>2026-08-01T11:25:27.000Z</time>
        <extensions>
          <ns3:TrackPointExtension>
            <ns3:hr>136</ns3:hr>
            <ns3:cad>60</ns3:cad>
          </ns3:TrackPointExtension>
        </extensions>
      </trkpt>
      <trkpt lat="56.01496875286102294921875" lon="24.1391195543110370635986328125">
        <ele>50.799999237060546875</ele>
        <time>2026-08-01T11:25:35.000Z</time>
        <extensions>
          <ns3:TrackPointExtension>
            <ns3:hr>135</ns3:hr>
            <ns3:cad>60</ns3:cad>
          </ns3:TrackPointExtension>
        </extensions>
      </trkpt>
      <trkpt lat="56.01502616889774799346923828125" lon="24.1392593644559383392333984375">
        <ele>51</ele>
        <time>2026-08-01T11:25:42.000Z</time>
        <extensions>
          <ns3:TrackPointExtension>
            <ns3:hr>132</ns3:hr>
            <ns3:cad>59</ns3:cad>
          </ns3:TrackPointExtension>
        </extensions>
      </trkpt>
      <trkpt lat="56.01507268846035003662109375" lon="24.13936573080718517303466796875">
        <ele>51.200000762939453125</ele>
        <time>2026-08-01T11:25:47.000Z</time>
        <extensions>
          <ns3:TrackPointExtension>
            <ns3:hr>129</ns3:hr>
            <ns3:cad>61</ns3:cad>
          </ns3:TrackPointExtension>
        </extensions>
      </trkpt>
      <trkpt lat="56.0151409171521663665771484375" lon="24.139555580914020538330078125">
        <ele>50.799999237060546875</ele>
        <time>2026-08-01T11:25:56.000Z</time>
        <extensions>
          <ns3:TrackPointExtension>
            <ns3:hr>130</ns3:hr>
            <ns3:cad>59</ns3:cad>
          </ns3:TrackPointExtension>
        </extensions>
      </trkpt>
      <trkpt lat="56.01515893824398517608642578125" lon="24.13959606550633907318115234375">
        <ele>50.799999237060546875</ele>
        <time>2026-08-01T11:25:58.000Z</time>
        <extensions>
          <ns3:TrackPointExtension>
            <ns3:hr>134</ns3:hr>
            <ns3:cad>59</ns3:cad>
          </ns3:TrackPointExtension>
        </extensions>
      </trkpt>
      <trkpt lat="56.0152249038219451904296875" lon="24.13976219482719898223876953125">
        <ele>51</ele>
        <time>2026-08-01T11:26:06.000Z</time>
        <extensions>
          <ns3:TrackPointExtension>
            <ns3:hr>135</ns3:hr>
            <ns3:cad>60</ns3:cad>
          </ns3:TrackPointExtension>
        </extensions>
      </trkpt>
      <trkpt lat="56.01533529348671436309814453125" lon="24.14004734717309474945068359375">
        <ele>51.200000762939453125</ele>
        <time>2026-08-01T11:26:19.000Z</time>
        <extensions>
          <ns3:TrackPointExtension>
            <ns3:hr>133</ns3:hr>
            <ns3:cad>59</ns3:cad>
          </ns3:TrackPointExtension>
        </extensions>
      </trkpt>
      <trkpt lat="56.01541643030941486358642578125" lon="24.14024113677442073822021484375">
        <ele>51.40000152587890625</ele>
        <time>2026-08-01T11:26:28.000Z</time>
        <extensions>
          <ns3:TrackPointExtension>
            <ns3:hr>134</ns3:hr>
            <ns3:cad>60</ns3:cad>
          </ns3:TrackPointExtension>
        </extensions>
      </trkpt>
      <trkpt lat="56.01543637923896312713623046875" lon="24.140307940542697906494140625">
        <ele>51.799999237060546875</ele>
        <time>2026-08-01T11:26:31.000Z</time>
        <extensions>
          <ns3:TrackPointExtension>
            <ns3:hr>134</ns3:hr>
            <ns3:cad>60</ns3:cad>
          </ns3:TrackPointExtension>
        </extensions>
      </trkpt>
      <trkpt lat="56.0154775343835353851318359375" lon="24.1404157318174839019775390625">
        <ele>51.200000762939453125</ele>
        <time>2026-08-01T11:26:36.000Z</time>
        <extensions>
          <ns3:TrackPointExtension>
            <ns3:hr>136</ns3:hr>
            <ns3:cad>59</ns3:cad>
          </ns3:TrackPointExtension>
        </extensions>
      </trkpt>
      <trkpt lat="56.01558767259120941162109375" lon="24.14070834405720233917236328125">
        <ele>51.40000152587890625</ele>
        <time>2026-08-01T11:26:49.000Z</time>
        <extensions>
          <ns3:TrackPointExtension>
            <ns3:hr>135</ns3:hr>
            <ns3:cad>60</ns3:cad>
          </ns3:TrackPointExtension>
        </extensions>
      </trkpt>
      <trkpt lat="56.015651039779186248779296875" lon="24.14086257107555866241455078125">
        <ele>51.200000762939453125</ele>
        <time>2026-08-01T11:26:57.000Z</time>
        <extensions>
          <ns3:TrackPointExtension>
            <ns3:hr>136</ns3:hr>
            <ns3:cad>58</ns3:cad>
          </ns3:TrackPointExtension>
        </extensions>
      </trkpt>
      <trkpt lat="56.01572848856449127197265625" lon="24.14107228629291057586669921875">
        <ele>51</ele>
        <time>2026-08-01T11:27:07.000Z</time>
        <extensions>
          <ns3:TrackPointExtension>
            <ns3:hr>134</ns3:hr>
            <ns3:cad>59</ns3:cad>
          </ns3:TrackPointExtension>
        </extensions>
      </trkpt>
      <trkpt lat="56.01581121794879436492919921875" lon="24.141318462789058685302734375">
        <ele>51.200000762939453125</ele>
        <time>2026-08-01T11:27:18.000Z</time>
        <extensions>
          <ns3:TrackPointExtension>
            <ns3:hr>132</ns3:hr>
            <ns3:cad>59</ns3:cad>
          </ns3:TrackPointExtension>
        </extensions>
      </trkpt>
      <trkpt lat="56.0158686339855194091796875" lon="24.1414705105125904083251953125">
        <ele>51.200000762939453125</ele>
        <time>2026-08-01T11:27:25.000Z</time>
        <extensions>
          <ns3:TrackPointExtension>
            <ns3:hr>135</ns3:hr>
            <ns3:cad>59</ns3:cad>
          </ns3:TrackPointExtension>
        </extensions>
      </trkpt>
      <trkpt lat="56.01589478552341461181640625" lon="24.14153228513896465301513671875">
        <ele>51.200000762939453125</ele>
        <time>2026-08-01T11:27:28.000Z</time>
        <extensions>
          <ns3:TrackPointExtension>
            <ns3:hr>135</ns3:hr>
            <ns3:cad>59</ns3:cad>
          </ns3:TrackPointExtension>
        </extensions>
      </trkpt>
      <trkpt lat="56.01599813438951969146728515625" lon="24.1417906992137432098388671875">
        <ele>51.40000152587890625</ele>
        <time>2026-08-01T11:27:40.000Z</time>
        <extensions>
          <ns3:TrackPointExtension>
            <ns3:hr>134</ns3:hr>
            <ns3:cad>60</ns3:cad>
          </ns3:TrackPointExtension>
        </extensions>
      </trkpt>
      <trkpt lat="56.01600551046431064605712890625" lon="24.14181140251457691192626953125">
        <ele>51.40000152587890625</ele>
        <time>2026-08-01T11:27:41.000Z</time>
        <extensions>
          <ns3:TrackPointExtension>
            <ns3:hr>134</ns3:hr>
            <ns3:cad>60</ns3:cad>
          </ns3:TrackPointExtension>
        </extensions>
      </trkpt>
      <trkpt lat="56.0160994715988636016845703125" lon="24.14206319488584995269775390625">
        <ele>51.59999847412109375</ele>
        <time>2026-08-01T11:27:53.000Z</time>
        <extensions>
          <ns3:TrackPointExtension>
            <ns3:hr>132</ns3:hr>
            <ns3:cad>58</ns3:cad>
          </ns3:TrackPointExtension>
        </extensions>
      </trkpt>
      <trkpt lat="56.01618387736380100250244140625" lon="24.1422859020531177520751953125">
        <ele>51.799999237060546875</ele>
        <time>2026-08-01T11:28:03.000Z</time>
        <extensions>
          <ns3:TrackPointExtension>
            <ns3:hr>131</ns3:hr>
            <ns3:cad>60</ns3:cad>
          </ns3:TrackPointExtension>
        </extensions>
      </trkpt>
      <trkpt lat="56.01629250682890415191650390625" lon="24.14256158284842967987060546875">
        <ele>51.799999237060546875</ele>
        <time>2026-08-01T11:28:16.000Z</time>
        <extensions>
          <ns3:TrackPointExtension>
            <ns3:hr>134</ns3:hr>
            <ns3:cad>60</ns3:cad>
          </ns3:TrackPointExtension>
        </extensions>
      </trkpt>
      <trkpt lat="56.01630642078816890716552734375" lon="24.14260550402104854583740234375">
        <ele>51.799999237060546875</ele>
        <time>2026-08-01T11:28:18.000Z</time>
        <extensions>
          <ns3:TrackPointExtension>
            <ns3:hr>134</ns3:hr>
            <ns3:cad>59</ns3:cad>
          </ns3:TrackPointExtension>
        </extensions>
      </trkpt>
      <trkpt lat="56.016410104930400848388671875" lon="24.14288587868213653564453125">
        <ele>51.799999237060546875</ele>
        <time>2026-08-01T11:28:31.000Z</time>
        <extensions>
          <ns3:TrackPointExtension>
            <ns3:hr>133</ns3:hr>
            <ns3:cad>60</ns3:cad>
          </ns3:TrackPointExtension>
        </extensions>
      </trkpt>
      <trkpt lat="56.0164184868335723876953125" lon="24.14290976710617542266845703125">
        <ele>51.59999847412109375</ele>
        <time>2026-08-01T11:28:32.000Z</time>
        <extensions>
          <ns3:TrackPointExtension>
            <ns3:hr>132</ns3:hr>
            <ns3:cad>60</ns3:cad>
          </ns3:TrackPointExtension>
        </extensions>
      </trkpt>
      <trkpt lat="56.01652770303189754486083984375" lon="24.14318737573921680450439453125">
        <ele>51.40000152587890625</ele>
        <time>2026-08-01T11:28:45.000Z</time>
        <extensions>
          <ns3:TrackPointExtension>
            <ns3:hr>130</ns3:hr>
            <ns3:cad>59</ns3:cad>
          </ns3:TrackPointExtension>
        </extensions>
      </trkpt>
      <trkpt lat="56.016610600054264068603515625" lon="24.1433943249285221099853515625">
        <ele>51.200000762939453125</ele>
        <time>2026-08-01T11:28:55.000Z</time>
        <extensions>
          <ns3:TrackPointExtension>
            <ns3:hr>132</ns3:hr>
            <ns3:cad>60</ns3:cad>
          </ns3:TrackPointExtension>
        </extensions>
      </trkpt>
      <trkpt lat="56.01667589507997035980224609375" lon="24.1435703448951244354248046875">
        <ele>51</ele>
        <time>2026-08-01T11:29:03.000Z</time>
        <extensions>
          <ns3:TrackPointExtension>
            <ns3:hr>135</ns3:hr>
            <ns3:cad>61</ns3:cad>
          </ns3:TrackPointExtension>
        </extensions>
      </trkpt>
      <trkpt lat="56.01671948097646236419677734375" lon="24.14367771707475185394287109375">
        <ele>51</ele>
        <time>2026-08-01T11:29:08.000Z</time>
        <extensions>
          <ns3:TrackPointExtension>
            <ns3:hr>133</ns3:hr>
            <ns3:cad>61</ns3:cad>
          </ns3:TrackPointExtension>
        </extensions>
      </trkpt>
      <trkpt lat="56.01681687869131565093994140625" lon="24.14394342340528964996337890625">
        <ele>51.200000762939453125</ele>
        <time>2026-08-01T11:29:20.000Z</time>
        <extensions>
          <ns3:TrackPointExtension>
            <ns3:hr>133</ns3:hr>
            <ns3:cad>61</ns3:cad>
          </ns3:TrackPointExtension>
        </extensions>
      </trkpt>
      <trkpt lat="56.01686079986393451690673828125" lon="24.14406864903867244720458984375">
        <ele>51.200000762939453125</ele>
        <time>2026-08-01T11:29:26.000Z</time>
        <extensions>
          <ns3:TrackPointExtension>
            <ns3:hr>136</ns3:hr>
            <ns3:cad>60</ns3:cad>
          </ns3:TrackPointExtension>
        </extensions>
      </trkpt>
      <trkpt lat="56.01689524948596954345703125" lon="24.14415883831679821014404296875">
        <ele>51.200000762939453125</ele>
        <time>2026-08-01T11:29:30.000Z</time>
        <extensions>
          <ns3:TrackPointExtension>
            <ns3:hr>135</ns3:hr>
            <ns3:cad>60</ns3:cad>
          </ns3:TrackPointExtension>
        </extensions>
      </trkpt>
      <trkpt lat="56.01697714067995548248291015625" lon="24.1443797014653682708740234375">
        <ele>51.40000152587890625</ele>
        <time>2026-08-01T11:29:40.000Z</time>
        <extensions>
          <ns3:TrackPointExtension>
            <ns3:hr>135</ns3:hr>
            <ns3:cad>60</ns3:cad>
          </ns3:TrackPointExtension>
        </extensions>
      </trkpt>
      <trkpt lat="56.01699851453304290771484375" lon="24.14445103146135807037353515625">
        <ele>51.40000152587890625</ele>
        <time>2026-08-01T11:29:43.000Z</time>
        <extensions>
          <ns3:TrackPointExtension>
            <ns3:hr>132</ns3:hr>
            <ns3:cad>60</ns3:cad>
          </ns3:TrackPointExtension>
        </extensions>
      </trkpt>
      <trkpt lat="56.0170540027320384979248046875" lon="24.14462856017053127288818359375">
        <ele>51.40000152587890625</ele>
        <time>2026-08-01T11:29:51.000Z</time>
        <extensions>
          <ns3:TrackPointExtension>
            <ns3:hr>134</ns3:hr>
            <ns3:cad>60</ns3:cad>
          </ns3:TrackPointExtension>
        </extensions>
      </trkpt>
      <trkpt lat="56.01711653172969818115234375" lon="24.14483676664531230926513671875">
        <ele>51.200000762939453125</ele>
        <time>2026-08-01T11:30:00.000Z</time>
        <extensions>
          <ns3:TrackPointExtension>
            <ns3:hr>134</ns3:hr>
            <ns3:cad>60</ns3:cad>
          </ns3:TrackPointExtension>
        </extensions>
      </trkpt>
      <trkpt lat="56.0171861015260219573974609375" lon="24.14506676606833934783935546875">
        <ele>51.200000762939453125</ele>
        <time>2026-08-01T11:30:11.000Z</time>
        <extensions>
          <ns3:TrackPointExtension>
            <ns3:hr>134</ns3:hr>
            <ns3:cad>59</ns3:cad>
          </ns3:TrackPointExtension>
        </extensions>
      </trkpt>
      <trkpt lat="56.0172343812882900238037109375" lon="24.14523675106465816497802734375">
        <ele>51</ele>
        <time>2026-08-01T11:30:18.000Z</time>
        <extensions>
          <ns3:TrackPointExtension>
            <ns3:hr>133</ns3:hr>
            <ns3:cad>59</ns3:cad>
          </ns3:TrackPointExtension>
        </extensions>
      </trkpt>
      <trkpt lat="56.01728928275406360626220703125" lon="24.145406819880008697509765625">
        <ele>51.200000762939453125</ele>
        <time>2026-08-01T11:30:26.000Z</time>
        <extensions>
          <ns3:TrackPointExtension>
            <ns3:hr>133</ns3:hr>
            <ns3:cad>0</ns3:cad>
          </ns3:TrackPointExtension>
        </extensions>
      </trkpt>
      <trkpt lat="56.0173554159700870513916015625" lon="24.14561661891639232635498046875">
        <ele>51.200000762939453125</ele>
        <time>2026-08-01T11:30:35.000Z</time>
        <extensions>
          <ns3:TrackPointExtension>
            <ns3:hr>135</ns3:hr>
            <ns3:cad>59</ns3:cad>
          </ns3:TrackPointExtension>
        </extensions>
      </trkpt>
      <trkpt lat="56.01738617755472660064697265625" lon="24.14573631249368190765380859375">
        <ele>50.799999237060546875</ele>
        <time>2026-08-01T11:30:40.000Z</time>
        <extensions>
          <ns3:TrackPointExtension>
            <ns3:hr>135</ns3:hr>
            <ns3:cad>60</ns3:cad>
          </ns3:TrackPointExtension>
        </extensions>
      </trkpt>
      <trkpt lat="56.0173986665904521942138671875" lon="24.14578475989401340484619140625">
        <ele>50.799999237060546875</ele>
        <time>2026-08-01T11:30:42.000Z</time>
        <extensions>
          <ns3:TrackPointExtension>
            <ns3:hr>136</ns3:hr>
            <ns3:cad>59</ns3:cad>
          </ns3:TrackPointExtension>
        </extensions>
      </trkpt>
      <trkpt lat="56.017462201416492462158203125" lon="24.14609069935977458953857421875">
        <ele>50.59999847412109375</ele>
        <time>2026-08-01T11:30:55.000Z</time>
        <extensions>
          <ns3:TrackPointExtension>
            <ns3:hr>135</ns3:hr>
            <ns3:cad>60</ns3:cad>
          </ns3:TrackPointExtension>
        </extensions>
      </trkpt>
      <trkpt lat="56.01750721223652362823486328125" lon="24.1463655419647693634033203125">
        <ele>50.40000152587890625</ele>
        <time>2026-08-01T11:31:06.000Z</time>
        <extensions>
          <ns3:TrackPointExtension>
            <ns3:hr>136</ns3:hr>
            <ns3:cad>60</ns3:cad>
          </ns3:TrackPointExtension>
        </extensions>
      </trkpt>
      <trkpt lat="56.01756437681615352630615234375" lon="24.14668145589530467987060546875">
        <ele>50.200000762939453125</ele>
        <time>2026-08-01T11:31:19.000Z</time>
        <extensions>
          <ns3:TrackPointExtension>
            <ns3:hr>135</ns3:hr>
            <ns3:cad>59</ns3:cad>
          </ns3:TrackPointExtension>
        </extensions>
      </trkpt>
      <trkpt lat="56.01759036071598529815673828125" lon="24.1468999721109867095947265625">
        <ele>50.200000762939453125</ele>
        <time>2026-08-01T11:31:28.000Z</time>
        <extensions>
          <ns3:TrackPointExtension>
            <ns3:hr>133</ns3:hr>
            <ns3:cad>59</ns3:cad>
          </ns3:TrackPointExtension>
        </extensions>
      </trkpt>
      <trkpt lat="56.017626486718654632568359375" lon="24.14710826240479946136474609375">
        <ele>50</ele>
        <time>2026-08-01T11:31:37.000Z</time>
        <extensions>
          <ns3:TrackPointExtension>
            <ns3:hr>132</ns3:hr>
            <ns3:cad>58</ns3:cad>
          </ns3:TrackPointExtension>
        </extensions>
      </trkpt>
      <trkpt lat="56.01766563020646572113037109375" lon="24.14732401259243488311767578125">
        <ele>49.799999237060546875</ele>
        <time>2026-08-01T11:31:46.000Z</time>
        <extensions>
          <ns3:TrackPointExtension>
            <ns3:hr>132</ns3:hr>
            <ns3:cad>58</ns3:cad>
          </ns3:TrackPointExtension>
        </extensions>
      </trkpt>
      <trkpt lat="56.0176719166338443756103515625" lon="24.14736919105052947998046875">
        <ele>49.799999237060546875</ele>
        <time>2026-08-01T11:31:48.000Z</time>
        <extensions>
          <ns3:TrackPointExtension>
            <ns3:hr>132</ns3:hr>
            <ns3:cad>58</ns3:cad>
          </ns3:TrackPointExtension>
        </extensions>
      </trkpt>
      <trkpt lat="56.01772782392799854278564453125" lon="24.14768896065652370452880859375">
        <ele>49.40000152587890625</ele>
        <time>2026-08-01T11:32:01.000Z</time>
        <extensions>
          <ns3:TrackPointExtension>
            <ns3:hr>130</ns3:hr>
            <ns3:cad>59</ns3:cad>
          </ns3:TrackPointExtension>
        </extensions>
      </trkpt>
      <trkpt lat="56.01772849448025226593017578125" lon="24.147710166871547698974609375">
        <ele>49.40000152587890625</ele>
        <time>2026-08-01T11:32:02.000Z</time>
        <extensions>
          <ns3:TrackPointExtension>
            <ns3:hr>130</ns3:hr>
            <ns3:cad>59</ns3:cad>
          </ns3:TrackPointExtension>
        </extensions>
      </trkpt>
      <trkpt lat="56.0177728347480297088623046875" lon="24.1480243206024169921875">
        <ele>49.200000762939453125</ele>
        <time>2026-08-01T11:32:15.000Z</time>
        <extensions>
          <ns3:TrackPointExtension>
            <ns3:hr>128</ns3:hr>
            <ns3:cad>59</ns3:cad>
          </ns3:TrackPointExtension>
        </extensions>
      </trkpt>
      <trkpt lat="56.01780024357140064239501953125" lon="24.1482290066778659820556640625">
        <ele>49.200000762939453125</ele>
        <time>2026-08-01T11:32:23.000Z</time>
        <extensions>
          <ns3:TrackPointExtension>
            <ns3:hr>129</ns3:hr>
            <ns3:cad>59</ns3:cad>
          </ns3:TrackPointExtension>
        </extensions>
      </trkpt>
      <trkpt lat="56.01783159188926219940185546875" lon="24.148453809320926666259765625">
        <ele>49.200000762939453125</ele>
        <time>2026-08-01T11:32:32.000Z</time>
        <extensions>
          <ns3:TrackPointExtension>
            <ns3:hr>132</ns3:hr>
            <ns3:cad>59</ns3:cad>
          </ns3:TrackPointExtension>
        </extensions>
      </trkpt>
      <trkpt lat="56.01783913560211658477783203125" lon="24.1485046036541461944580078125">
        <ele>49.200000762939453125</ele>
        <time>2026-08-01T11:32:34.000Z</time>
        <extensions>
          <ns3:TrackPointExtension>
            <ns3:hr>133</ns3:hr>
            <ns3:cad>59</ns3:cad>
          </ns3:TrackPointExtension>
        </extensions>
      </trkpt>
      <trkpt lat="56.01789646781980991363525390625" lon="24.1488120518624782562255859375">
        <ele>49.200000762939453125</ele>
        <time>2026-08-01T11:32:46.000Z</time>
        <extensions>
          <ns3:TrackPointExtension>
            <ns3:hr>133</ns3:hr>
            <ns3:cad>59</ns3:cad>
          </ns3:TrackPointExtension>
        </extensions>
      </trkpt>
      <trkpt lat="56.01791138760745525360107421875" lon="24.14893484674394130706787109375">
        <ele>49</ele>
        <time>2026-08-01T11:32:51.000Z</time>
        <extensions>
          <ns3:TrackPointExtension>
            <ns3:hr>130</ns3:hr>
            <ns3:cad>60</ns3:cad>
          </ns3:TrackPointExtension>
        </extensions>
      </trkpt>
      <trkpt lat="56.01794709451496601104736328125" lon="24.14913902990520000457763671875">
        <ele>49</ele>
        <time>2026-08-01T11:32:59.000Z</time>
        <extensions>
          <ns3:TrackPointExtension>
            <ns3:hr>130</ns3:hr>
            <ns3:cad>60</ns3:cad>
          </ns3:TrackPointExtension>
        </extensions>
      </trkpt>
      <trkpt lat="56.01799034513533115386962890625" lon="24.14939182810485363006591796875">
        <ele>48.799999237060546875</ele>
        <time>2026-08-01T11:33:09.000Z</time>
        <extensions>
          <ns3:TrackPointExtension>
            <ns3:hr>129</ns3:hr>
            <ns3:cad>58</ns3:cad>
          </ns3:TrackPointExtension>
        </extensions>
      </trkpt>
      <trkpt lat="56.0180165804922580718994140625" lon="24.1495687700808048248291015625">
        <ele>48.799999237060546875</ele>
        <time>2026-08-01T11:33:16.000Z</time>
        <extensions>
          <ns3:TrackPointExtension>
            <ns3:hr>132</ns3:hr>
            <ns3:cad>59</ns3:cad>
          </ns3:TrackPointExtension>
        </extensions>
      </trkpt>
      <trkpt lat="56.01802018471062183380126953125" lon="24.14959366433322429656982421875">
        <ele>48.799999237060546875</ele>
        <time>2026-08-01T11:33:17.000Z</time>
        <extensions>
          <ns3:TrackPointExtension>
            <ns3:hr>132</ns3:hr>
            <ns3:cad>59</ns3:cad>
          </ns3:TrackPointExtension>
        </extensions>
      </trkpt>
      <trkpt lat="56.01805790327489376068115234375" lon="24.14982165209949016571044921875">
        <ele>48.799999237060546875</ele>
        <time>2026-08-01T11:33:26.000Z</time>
        <extensions>
          <ns3:TrackPointExtension>
            <ns3:hr>134</ns3:hr>
            <ns3:cad>60</ns3:cad>
          </ns3:TrackPointExtension>
        </extensions>
      </trkpt>
      <trkpt lat="56.01807382889091968536376953125" lon="24.1499104164540767669677734375">
        <ele>48.59999847412109375</ele>
        <time>2026-08-01T11:33:30.000Z</time>
        <extensions>
          <ns3:TrackPointExtension>
            <ns3:hr>133</ns3:hr>
            <ns3:cad>59</ns3:cad>
          </ns3:TrackPointExtension>
        </extensions>
      </trkpt>
      <trkpt lat="56.0181278921663761138916015625" lon="24.15024326182901859283447265625">
        <ele>48.59999847412109375</ele>
        <time>2026-08-01T11:33:43.000Z</time>
        <extensions>
          <ns3:TrackPointExtension>
            <ns3:hr>131</ns3:hr>
            <ns3:cad>60</ns3:cad>
          </ns3:TrackPointExtension>
        </extensions>
      </trkpt>
      <trkpt lat="56.018170304596424102783203125" lon="24.150562696158885955810546875">
        <ele>48.200000762939453125</ele>
        <time>2026-08-01T11:33:56.000Z</time>
        <extensions>
          <ns3:TrackPointExtension>
            <ns3:hr>133</ns3:hr>
            <ns3:cad>59</ns3:cad>
          </ns3:TrackPointExtension>
        </extensions>
      </trkpt>
      <trkpt lat="56.01817189715802669525146484375" lon="24.15058742277324199676513671875">
        <ele>48.200000762939453125</ele>
        <time>2026-08-01T11:33:57.000Z</time>
        <extensions>
          <ns3:TrackPointExtension>
            <ns3:hr>133</ns3:hr>
            <ns3:cad>59</ns3:cad>
          </ns3:TrackPointExtension>
        </extensions>
      </trkpt>
      <trkpt lat="56.0181976296007633209228515625" lon="24.15084172971546649932861328125">
        <ele>49</ele>
        <time>2026-08-01T11:34:07.000Z</time>
        <extensions>
          <ns3:TrackPointExtension>
            <ns3:hr>131</ns3:hr>
            <ns3:cad>60</ns3:cad>
          </ns3:TrackPointExtension>
        </extensions>
      </trkpt>
      <trkpt lat="56.0182257927954196929931640625" lon="24.15114280767738819122314453125">
        <ele>48.799999237060546875</ele>
        <time>2026-08-01T11:34:19.000Z</time>
        <extensions>
          <ns3:TrackPointExtension>
            <ns3:hr>130</ns3:hr>
            <ns3:cad>60</ns3:cad>
          </ns3:TrackPointExtension>
        </extensions>
      </trkpt>
      <trkpt lat="56.0182638466358184814453125" lon="24.15144807659089565277099609375">
        <ele>49</ele>
        <time>2026-08-01T11:34:31.000Z</time>
        <extensions>
          <ns3:TrackPointExtension>
            <ns3:hr>132</ns3:hr>
            <ns3:cad>60</ns3:cad>
          </ns3:TrackPointExtension>
        </extensions>
      </trkpt>
      <trkpt lat="56.0182894952595233917236328125" lon="24.15178905241191387176513671875">
        <ele>49.200000762939453125</ele>
        <time>2026-08-01T11:34:44.000Z</time>
        <extensions>
          <ns3:TrackPointExtension>
            <ns3:hr>133</ns3:hr>
            <ns3:cad>59</ns3:cad>
          </ns3:TrackPointExtension>
        </extensions>
      </trkpt>
      <trkpt lat="56.018291674554347991943359375" lon="24.1518134437501430511474609375">
        <ele>49.200000762939453125</ele>
        <time>2026-08-01T11:34:45.000Z</time>
        <extensions>
          <ns3:TrackPointExtension>
            <ns3:hr>134</ns3:hr>
            <ns3:cad>59</ns3:cad>
          </ns3:TrackPointExtension>
        </extensions>
      </trkpt>
      <trkpt lat="56.01830567233264446258544921875" lon="24.15201016701757907867431640625">
        <ele>49.59999847412109375</ele>
        <time>2026-08-01T11:34:53.000Z</time>
        <extensions>
          <ns3:TrackPointExtension>
            <ns3:hr>131</ns3:hr>
            <ns3:cad>58</ns3:cad>
          </ns3:TrackPointExtension>
        </extensions>
      </trkpt>
      <trkpt lat="56.018310450017452239990234375" lon="24.1520565189421176910400390625">
        <ele>49.59999847412109375</ele>
        <time>2026-08-01T11:34:55.000Z</time>
        <extensions>
          <ns3:TrackPointExtension>
            <ns3:hr>131</ns3:hr>
            <ns3:cad>59</ns3:cad>
          </ns3:TrackPointExtension>
        </extensions>
      </trkpt>
      <trkpt lat="56.01831355132162570953369140625" lon="24.15221317671239376068115234375">
        <ele>49.799999237060546875</ele>
        <time>2026-08-01T11:35:01.000Z</time>
        <extensions>
          <ns3:TrackPointExtension>
            <ns3:hr>132</ns3:hr>
            <ns3:cad>59</ns3:cad>
          </ns3:TrackPointExtension>
        </extensions>
      </trkpt>
      <trkpt lat="56.0183220170438289642333984375" lon="24.1522637195885181427001953125">
        <ele>50</ele>
        <time>2026-08-01T11:35:03.000Z</time>
        <extensions>
          <ns3:TrackPointExtension>
            <ns3:hr>131</ns3:hr>
            <ns3:cad>59</ns3:cad>
          </ns3:TrackPointExtension>
        </extensions>
      </trkpt>
      <trkpt lat="56.0183337517082691192626953125" lon="24.1524209640920162200927734375">
        <ele>49.59999847412109375</ele>
        <time>2026-08-01T11:35:09.000Z</time>
        <extensions>
          <ns3:TrackPointExtension>
            <ns3:hr>134</ns3:hr>
            <ns3:cad>59</ns3:cad>
          </ns3:TrackPointExtension>
        </extensions>
      </trkpt>
      <trkpt lat="56.01834590546786785125732421875" lon="24.15256756357848644256591796875">
        <ele>49.59999847412109375</ele>
        <time>2026-08-01T11:35:15.000Z</time>
        <extensions>
          <ns3:TrackPointExtension>
            <ns3:hr>133</ns3:hr>
            <ns3:cad>59</ns3:cad>
          </ns3:TrackPointExtension>
        </extensions>
      </trkpt>
      <trkpt lat="56.01837205700576305389404296875" lon="24.15279395878314971923828125">
        <ele>49.799999237060546875</ele>
        <time>2026-08-01T11:35:24.000Z</time>
        <extensions>
          <ns3:TrackPointExtension>
            <ns3:hr>132</ns3:hr>
            <ns3:cad>59</ns3:cad>
          </ns3:TrackPointExtension>
        </extensions>
      </trkpt>
      <trkpt lat="56.0183833725750446319580078125" lon="24.15297592990100383758544921875">
        <ele>49.59999847412109375</ele>
        <time>2026-08-01T11:35:31.000Z</time>
        <extensions>
          <ns3:TrackPointExtension>
            <ns3:hr>132</ns3:hr>
            <ns3:cad>59</ns3:cad>
          </ns3:TrackPointExtension>
        </extensions>
      </trkpt>
      <trkpt lat="56.01840340532362461090087890625" lon="24.1532685421407222747802734375">
        <ele>49.59999847412109375</ele>
        <time>2026-08-01T11:35:43.000Z</time>
        <extensions>
          <ns3:TrackPointExtension>
            <ns3:hr>133</ns3:hr>
            <ns3:cad>58</ns3:cad>
          </ns3:TrackPointExtension>
        </extensions>
      </trkpt>
      <trkpt lat="56.01841899566352367401123046875" lon="24.15349493734538555145263671875">
        <ele>49.59999847412109375</ele>
        <time>2026-08-01T11:35:52.000Z</time>
        <extensions>
          <ns3:TrackPointExtension>
            <ns3:hr>133</ns3:hr>
            <ns3:cad>58</ns3:cad>
          </ns3:TrackPointExtension>
        </extensions>
      </trkpt>
      <trkpt lat="56.018431149423122406005859375" lon="24.15367749519646167755126953125">
        <ele>49.59999847412109375</ele>
        <time>2026-08-01T11:35:59.000Z</time>
        <extensions>
          <ns3:TrackPointExtension>
            <ns3:hr>133</ns3:hr>
            <ns3:cad>60</ns3:cad>
          </ns3:TrackPointExtension>
        </extensions>
      </trkpt>
      <trkpt lat="56.01844950579106807708740234375" lon="24.15395694784820079803466796875">
        <ele>49.40000152587890625</ele>
        <time>2026-08-01T11:36:10.000Z</time>
        <extensions>
          <ns3:TrackPointExtension>
            <ns3:hr>135</ns3:hr>
            <ns3:cad>59</ns3:cad>
          </ns3:TrackPointExtension>
        </extensions>
      </trkpt>
      <trkpt lat="56.01848169229924678802490234375" lon="24.1542351432144641876220703125">
        <ele>49.40000152587890625</ele>
        <time>2026-08-01T11:36:21.000Z</time>
        <extensions>
          <ns3:TrackPointExtension>
            <ns3:hr>134</ns3:hr>
            <ns3:cad>59</ns3:cad>
          </ns3:TrackPointExtension>
        </extensions>
      </trkpt>
      <trkpt lat="56.01850247941911220550537109375" lon="24.1544359736144542694091796875">
        <ele>49.59999847412109375</ele>
        <time>2026-08-01T11:36:29.000Z</time>
        <extensions>
          <ns3:TrackPointExtension>
            <ns3:hr>132</ns3:hr>
            <ns3:cad>59</ns3:cad>
          </ns3:TrackPointExtension>
        </extensions>
      </trkpt>
      <trkpt lat="56.0185184888541698455810546875" lon="24.15472238324582576751708984375">
        <ele>50</ele>
        <time>2026-08-01T11:36:40.000Z</time>
        <extensions>
          <ns3:TrackPointExtension>
            <ns3:hr>132</ns3:hr>
            <ns3:cad>58</ns3:cad>
          </ns3:TrackPointExtension>
        </extensions>
      </trkpt>
      <trkpt lat="56.01853382773697376251220703125" lon="24.15499194525182247161865234375">
        <ele>50.799999237060546875</ele>
        <time>2026-08-01T11:36:51.000Z</time>
        <extensions>
          <ns3:TrackPointExtension>
            <ns3:hr>133</ns3:hr>
            <ns3:cad>58</ns3:cad>
          </ns3:TrackPointExtension>
        </extensions>
      </trkpt>
      <trkpt lat="56.018572635948657989501953125" lon="24.15529201738536357879638671875">
        <ele>51</ele>
        <time>2026-08-01T11:37:03.000Z</time>
        <extensions>
          <ns3:TrackPointExtension>
            <ns3:hr>134</ns3:hr>
            <ns3:cad>58</ns3:cad>
          </ns3:TrackPointExtension>
        </extensions>
      </trkpt>
      <trkpt lat="56.01857892237603664398193359375" lon="24.15548832155764102935791015625">
        <ele>51.40000152587890625</ele>
        <time>2026-08-01T11:37:11.000Z</time>
        <extensions>
          <ns3:TrackPointExtension>
            <ns3:hr>135</ns3:hr>
            <ns3:cad>58</ns3:cad>
          </ns3:TrackPointExtension>
        </extensions>
      </trkpt>
      <trkpt lat="56.018590070307254791259765625" lon="24.15568781085312366485595703125">
        <ele>51.40000152587890625</ele>
        <time>2026-08-01T11:37:19.000Z</time>
        <extensions>
          <ns3:TrackPointExtension>
            <ns3:hr>136</ns3:hr>
            <ns3:cad>58</ns3:cad>
          </ns3:TrackPointExtension>
        </extensions>
      </trkpt>
      <trkpt lat="56.0186066664755344390869140625" lon="24.1558555327355861663818359375">
        <ele>51</ele>
        <time>2026-08-01T11:37:26.000Z</time>
        <extensions>
          <ns3:TrackPointExtension>
            <ns3:hr>138</ns3:hr>
            <ns3:cad>57</ns3:cad>
          </ns3:TrackPointExtension>
        </extensions>
      </trkpt>
      <trkpt lat="56.0186398588120937347412109375" lon="24.15618066675961017608642578125">
        <ele>51.799999237060546875</ele>
        <time>2026-08-01T11:37:39.000Z</time>
        <extensions>
          <ns3:TrackPointExtension>
            <ns3:hr>138</ns3:hr>
            <ns3:cad>58</ns3:cad>
          </ns3:TrackPointExtension>
        </extensions>
      </trkpt>
      <trkpt lat="56.0186532698571681976318359375" lon="24.15638434700667858123779296875">
        <ele>52</ele>
        <time>2026-08-01T11:37:47.000Z</time>
        <extensions>
          <ns3:TrackPointExtension>
            <ns3:hr>136</ns3:hr>
            <ns3:cad>58</ns3:cad>
          </ns3:TrackPointExtension>
        </extensions>
      </trkpt>
      <trkpt lat="56.0186556167900562286376953125" lon="24.156409241259098052978515625">
        <ele>52</ele>
        <time>2026-08-01T11:37:48.000Z</time>
        <extensions>
          <ns3:TrackPointExtension>
            <ns3:hr>136</ns3:hr>
            <ns3:cad>58</ns3:cad>
          </ns3:TrackPointExtension>
        </extensions>
      </trkpt>
      <trkpt lat="56.0186841152608394622802734375" lon="24.15664820931851863861083984375">
        <ele>52</ele>
        <time>2026-08-01T11:37:57.000Z</time>
        <extensions>
          <ns3:TrackPointExtension>
            <ns3:hr>136</ns3:hr>
            <ns3:cad>58</ns3:cad>
          </ns3:TrackPointExtension>
        </extensions>
      </trkpt>
      <trkpt lat="56.01870632730424404144287109375" lon="24.1569777019321918487548828125">
        <ele>52</ele>
        <time>2026-08-01T11:38:10.000Z</time>
        <extensions>
          <ns3:TrackPointExtension>
            <ns3:hr>136</ns3:hr>
            <ns3:cad>59</ns3:cad>
          </ns3:TrackPointExtension>
        </extensions>
      </trkpt>
      <trkpt lat="56.01870842278003692626953125" lon="24.15700293146073818206787109375">
        <ele>52</ele>
        <time>2026-08-01T11:38:11.000Z</time>
        <extensions>
          <ns3:TrackPointExtension>
            <ns3:hr>136</ns3:hr>
            <ns3:cad>59</ns3:cad>
          </ns3:TrackPointExtension>
        </extensions>
      </trkpt>
      <trkpt lat="56.0187434591352939605712890625" lon="24.15728942491114139556884765625">
        <ele>52.59999847412109375</ele>
        <time>2026-08-01T11:38:23.000Z</time>
        <extensions>
          <ns3:TrackPointExtension>
            <ns3:hr>136</ns3:hr>
            <ns3:cad>59</ns3:cad>
          </ns3:TrackPointExtension>
        </extensions>
      </trkpt>
      <trkpt lat="56.01876248605549335479736328125" lon="24.15753736160695552825927734375">
        <ele>52.59999847412109375</ele>
        <time>2026-08-01T11:38:33.000Z</time>
        <extensions>
          <ns3:TrackPointExtension>
            <ns3:hr>136</ns3:hr>
            <ns3:cad>58</ns3:cad>
          </ns3:TrackPointExtension>
        </extensions>
      </trkpt>
      <trkpt lat="56.0187813453376293182373046875" lon="24.1577894054353237152099609375">
        <ele>52.799999237060546875</ele>
        <time>2026-08-01T11:38:43.000Z</time>
        <extensions>
          <ns3:TrackPointExtension>
            <ns3:hr>135</ns3:hr>
            <ns3:cad>59</ns3:cad>
          </ns3:TrackPointExtension>
        </extensions>
      </trkpt>
      <trkpt lat="56.01881168782711029052734375" lon="24.15801823139190673828125">
        <ele>52.799999237060546875</ele>
        <time>2026-08-01T11:38:52.000Z</time>
        <extensions>
          <ns3:TrackPointExtension>
            <ns3:hr>133</ns3:hr>
            <ns3:cad>59</ns3:cad>
          </ns3:TrackPointExtension>
        </extensions>
      </trkpt>
      <trkpt lat="56.01883742026984691619873046875" lon="24.15827773511409759521484375">
        <ele>52.799999237060546875</ele>
        <time>2026-08-01T11:39:02.000Z</time>
        <extensions>
          <ns3:TrackPointExtension>
            <ns3:hr>135</ns3:hr>
            <ns3:cad>60</ns3:cad>
          </ns3:TrackPointExtension>
        </extensions>
      </trkpt>
      <trkpt lat="56.018864326179027557373046875" lon="24.15858526714146137237548828125">
        <ele>52.59999847412109375</ele>
        <time>2026-08-01T11:39:14.000Z</time>
        <extensions>
          <ns3:TrackPointExtension>
            <ns3:hr>135</ns3:hr>
            <ns3:cad>59</ns3:cad>
          </ns3:TrackPointExtension>
        </extensions>
      </trkpt>
      <trkpt lat="56.0188889689743518829345703125" lon="24.15890939533710479736328125">
        <ele>52.40000152587890625</ele>
        <time>2026-08-01T11:39:27.000Z</time>
        <extensions>
          <ns3:TrackPointExtension>
            <ns3:hr>133</ns3:hr>
            <ns3:cad>59</ns3:cad>
          </ns3:TrackPointExtension>
        </extensions>
      </trkpt>
      <trkpt lat="56.0189087502658367156982421875" lon="24.15916713885962963104248046875">
        <ele>52.40000152587890625</ele>
        <time>2026-08-01T11:39:37.000Z</time>
        <extensions>
          <ns3:TrackPointExtension>
            <ns3:hr>135</ns3:hr>
            <ns3:cad>59</ns3:cad>
          </ns3:TrackPointExtension>
        </extensions>
      </trkpt>
      <trkpt lat="56.01893766783177852630615234375" lon="24.15951155126094818115234375">
        <ele>52.40000152587890625</ele>
        <time>2026-08-01T11:39:51.000Z</time>
        <extensions>
          <ns3:TrackPointExtension>
            <ns3:hr>134</ns3:hr>
            <ns3:cad>60</ns3:cad>
          </ns3:TrackPointExtension>
        </extensions>
      </trkpt>
      <trkpt lat="56.01895250380039215087890625" lon="24.15976367890834808349609375">
        <ele>52.40000152587890625</ele>
        <time>2026-08-01T11:40:01.000Z</time>
        <extensions>
          <ns3:TrackPointExtension>
            <ns3:hr>134</ns3:hr>
            <ns3:cad>59</ns3:cad>
          </ns3:TrackPointExtension>
        </extensions>
      </trkpt>
      <trkpt lat="56.0189623944461345672607421875" lon="24.159996695816516876220703125">
        <ele>52.200000762939453125</ele>
        <time>2026-08-01T11:40:10.000Z</time>
        <extensions>
          <ns3:TrackPointExtension>
            <ns3:hr>133</ns3:hr>
            <ns3:cad>58</ns3:cad>
          </ns3:TrackPointExtension>
        </extensions>
      </trkpt>
      <trkpt lat="56.0189831815659999847412109375" lon="24.16018034331500530242919921875">
        <ele>52.59999847412109375</ele>
        <time>2026-08-01T11:40:17.000Z</time>
        <extensions>
          <ns3:TrackPointExtension>
            <ns3:hr>134</ns3:hr>
            <ns3:cad>59</ns3:cad>
          </ns3:TrackPointExtension>
        </extensions>
      </trkpt>
      <trkpt lat="56.0189959220588207244873046875" lon="24.16036306880414485931396484375">
        <ele>52</ele>
        <time>2026-08-01T11:40:24.000Z</time>
        <extensions>
          <ns3:TrackPointExtension>
            <ns3:hr>134</ns3:hr>
            <ns3:cad>59</ns3:cad>
          </ns3:TrackPointExtension>
        </extensions>
      </trkpt>
      <trkpt lat="56.019008159637451171875" lon="24.1605658270418643951416015625">
        <ele>51.799999237060546875</ele>
        <time>2026-08-01T11:40:32.000Z</time>
        <extensions>
          <ns3:TrackPointExtension>
            <ns3:hr>134</ns3:hr>
            <ns3:cad>60</ns3:cad>
          </ns3:TrackPointExtension>
        </extensions>
      </trkpt>
      <trkpt lat="56.01902970112860202789306640625" lon="24.16082440875470638275146484375">
        <ele>51.40000152587890625</ele>
        <time>2026-08-01T11:40:42.000Z</time>
        <extensions>
          <ns3:TrackPointExtension>
            <ns3:hr>132</ns3:hr>
            <ns3:cad>60</ns3:cad>
          </ns3:TrackPointExtension>
        </extensions>
      </trkpt>
      <trkpt lat="56.01904260925948619842529296875" lon="24.1610276699066162109375">
        <ele>50.799999237060546875</ele>
        <time>2026-08-01T11:40:50.000Z</time>
        <extensions>
          <ns3:TrackPointExtension>
            <ns3:hr>134</ns3:hr>
            <ns3:cad>60</ns3:cad>
          </ns3:TrackPointExtension>
        </extensions>
      </trkpt>
      <trkpt lat="56.01904495619237422943115234375" lon="24.16108441539108753204345703125">
        <ele>50.59999847412109375</ele>
        <time>2026-08-01T11:40:52.000Z</time>
        <extensions>
          <ns3:TrackPointExtension>
            <ns3:hr>135</ns3:hr>
            <ns3:cad>60</ns3:cad>
          </ns3:TrackPointExtension>
        </extensions>
      </trkpt>
      <trkpt lat="56.01905417628586292266845703125" lon="24.16140091605484485626220703125">
        <ele>50.40000152587890625</ele>
        <time>2026-08-01T11:41:04.000Z</time>
        <extensions>
          <ns3:TrackPointExtension>
            <ns3:hr>133</ns3:hr>
            <ns3:cad>60</ns3:cad>
          </ns3:TrackPointExtension>
        </extensions>
      </trkpt>
      <trkpt lat="56.01909239776432514190673828125" lon="24.16167676448822021484375">
        <ele>50.40000152587890625</ele>
        <time>2026-08-01T11:41:15.000Z</time>
        <extensions>
          <ns3:TrackPointExtension>
            <ns3:hr>131</ns3:hr>
            <ns3:cad>60</ns3:cad>
          </ns3:TrackPointExtension>
        </extensions>
      </trkpt>
      <trkpt lat="56.0191521607339382171630859375" lon="24.1618495993316173553466796875">
        <ele>50.40000152587890625</ele>
        <time>2026-08-01T11:41:23.000Z</time>
        <extensions>
          <ns3:TrackPointExtension>
            <ns3:hr>132</ns3:hr>
            <ns3:cad>59</ns3:cad>
          </ns3:TrackPointExtension>
        </extensions>
      </trkpt>
      <trkpt lat="56.01927713491022586822509765625" lon="24.16202075779438018798828125">
        <ele>50.200000762939453125</ele>
        <time>2026-08-01T11:41:34.000Z</time>
        <extensions>
          <ns3:TrackPointExtension>
            <ns3:hr>132</ns3:hr>
            <ns3:cad>59</ns3:cad>
          </ns3:TrackPointExtension>
        </extensions>
      </trkpt>
      <trkpt lat="56.01939599029719829559326171875" lon="24.16211388073861598968505859375">
        <ele>50</ele>
        <time>2026-08-01T11:41:43.000Z</time>
        <extensions>
          <ns3:TrackPointExtension>
            <ns3:hr>132</ns3:hr>
            <ns3:cad>59</ns3:cad>
          </ns3:TrackPointExtension>
        </extensions>
      </trkpt>
      <trkpt lat="56.01943739689886569976806640625" lon="24.162136428058147430419921875">
        <ele>49.799999237060546875</ele>
        <time>2026-08-01T11:41:46.000Z</time>
        <extensions>
          <ns3:TrackPointExtension>
            <ns3:hr>132</ns3:hr>
            <ns3:cad>59</ns3:cad>
          </ns3:TrackPointExtension>
        </extensions>
      </trkpt>
      <trkpt lat="56.01958684623241424560546875" lon="24.16223541833460330963134765625">
        <ele>49.799999237060546875</ele>
        <time>2026-08-01T11:41:57.000Z</time>
        <extensions>
          <ns3:TrackPointExtension>
            <ns3:hr>133</ns3:hr>
            <ns3:cad>59</ns3:cad>
          </ns3:TrackPointExtension>
        </extensions>
      </trkpt>
      <trkpt lat="56.0197633691132068634033203125" lon="24.16234689764678478240966796875">
        <ele>49.40000152587890625</ele>
        <time>2026-08-01T11:42:10.000Z</time>
        <extensions>
          <ns3:TrackPointExtension>
            <ns3:hr>134</ns3:hr>
            <ns3:cad>60</ns3:cad>
          </ns3:TrackPointExtension>
        </extensions>
      </trkpt>
      <trkpt lat="56.01991198025643825531005859375" lon="24.16244848631322383880615234375">
        <ele>49.200000762939453125</ele>
        <time>2026-08-01T11:42:21.000Z</time>
        <extensions>
          <ns3:TrackPointExtension>
            <ns3:hr>134</ns3:hr>
            <ns3:cad>61</ns3:cad>
          </ns3:TrackPointExtension>
        </extensions>
      </trkpt>
      <trkpt lat="56.02007794193923473358154296875" lon="24.1625520028173923492431640625">
        <ele>49.200000762939453125</ele>
        <time>2026-08-01T11:42:33.000Z</time>
        <extensions>
          <ns3:TrackPointExtension>
            <ns3:hr>132</ns3:hr>
            <ns3:cad>58</ns3:cad>
          </ns3:TrackPointExtension>
        </extensions>
      </trkpt>
      <trkpt lat="56.02022118866443634033203125" lon="24.16264696978032588958740234375">
        <ele>49.200000762939453125</ele>
        <time>2026-08-01T11:42:44.000Z</time>
        <extensions>
          <ns3:TrackPointExtension>
            <ns3:hr>130</ns3:hr>
            <ns3:cad>60</ns3:cad>
          </ns3:TrackPointExtension>
        </extensions>
      </trkpt>
      <trkpt lat="56.0203940235078334808349609375" lon="24.16276381351053714752197265625">
        <ele>49</ele>
        <time>2026-08-01T11:42:57.000Z</time>
        <extensions>
          <ns3:TrackPointExtension>
            <ns3:hr>128</ns3:hr>
            <ns3:cad>59</ns3:cad>
          </ns3:TrackPointExtension>
        </extensions>
      </trkpt>
      <trkpt lat="56.02049200795590877532958984375" lon="24.16282852180302143096923828125">
        <ele>49</ele>
        <time>2026-08-01T11:43:04.000Z</time>
        <extensions>
          <ns3:TrackPointExtension>
            <ns3:hr>130</ns3:hr>
            <ns3:cad>61</ns3:cad>
          </ns3:TrackPointExtension>
        </extensions>
      </trkpt>
      <trkpt lat="56.02052084170281887054443359375" lon="24.16284796781837940216064453125">
        <ele>48.799999237060546875</ele>
        <time>2026-08-01T11:43:06.000Z</time>
        <extensions>
          <ns3:TrackPointExtension>
            <ns3:hr>130</ns3:hr>
            <ns3:cad>61</ns3:cad>
          </ns3:TrackPointExtension>
        </extensions>
      </trkpt>
      <trkpt lat="56.0205448977649211883544921875" lon="24.16288300417363643646240234375">
        <ele>49</ele>
        <time>2026-08-01T11:43:12.000Z</time>
        <extensions>
          <ns3:TrackPointExtension>
            <ns3:hr>132</ns3:hr>
            <ns3:cad>0</ns3:cad>
          </ns3:TrackPointExtension>
        </extensions>
      </trkpt>
      <trkpt lat="56.02052972652018070220947265625" lon="24.16288451291620731353759765625">
        <ele>48.799999237060546875</ele>
        <time>2026-08-01T11:43:14.000Z</time>
        <extensions>
          <ns3:TrackPointExtension>
            <ns3:hr>132</ns3:hr>
            <ns3:cad>0</ns3:cad>
          </ns3:TrackPointExtension>
        </extensions>
      </trkpt>
      <trkpt lat="56.02048144675791263580322265625" lon="24.162945449352264404296875">
        <ele>48.59999847412109375</ele>
        <time>2026-08-01T11:43:18.000Z</time>
        <extensions>
          <ns3:TrackPointExtension>
            <ns3:hr>134</ns3:hr>
            <ns3:cad>0</ns3:cad>
          </ns3:TrackPointExtension>
        </extensions>
      </trkpt>
      <trkpt lat="56.02042847312986850738525390625" lon="24.16316807270050048828125">
        <ele>48.200000762939453125</ele>
        <time>2026-08-01T11:43:28.000Z</time>
        <extensions>
          <ns3:TrackPointExtension>
            <ns3:hr>136</ns3:hr>
            <ns3:cad>59</ns3:cad>
          </ns3:TrackPointExtension>
        </extensions>
      </trkpt>
      <trkpt lat="56.0203970409929752349853515625" lon="24.1633311845362186431884765625">
        <ele>48</ele>
        <time>2026-08-01T11:43:34.000Z</time>
        <extensions>
          <ns3:TrackPointExtension>
            <ns3:hr>133</ns3:hr>
            <ns3:cad>60</ns3:cad>
          </ns3:TrackPointExtension>
        </extensions>
      </trkpt>
      <trkpt lat="56.0203809477388858795166015625" lon="24.16340335272252559661865234375">
        <ele>48</ele>
        <time>2026-08-01T11:43:37.000Z</time>
        <extensions>
          <ns3:TrackPointExtension>
            <ns3:hr>130</ns3:hr>
            <ns3:cad>60</ns3:cad>
          </ns3:TrackPointExtension>
        </extensions>
      </trkpt>
      <trkpt lat="56.0203769244253635406494140625" lon="24.16342799551784992218017578125">
        <ele>48</ele>
        <time>2026-08-01T11:43:38.000Z</time>
        <extensions>
          <ns3:TrackPointExtension>
            <ns3:hr>130</ns3:hr>
            <ns3:cad>60</ns3:cad>
          </ns3:TrackPointExtension>
        </extensions>
      </trkpt>
      <trkpt lat="56.0203350149095058441162109375" lon="24.163641147315502166748046875">
        <ele>48</ele>
        <time>2026-08-01T11:43:47.000Z</time>
        <extensions>
          <ns3:TrackPointExtension>
            <ns3:hr>130</ns3:hr>
            <ns3:cad>61</ns3:cad>
          </ns3:TrackPointExtension>
        </extensions>
      </trkpt>
      <trkpt lat="56.0203242860734462738037109375" lon="24.163689427077770233154296875">
        <ele>47.799999237060546875</ele>
        <time>2026-08-01T11:43:49.000Z</time>
        <extensions>
          <ns3:TrackPointExtension>
            <ns3:hr>131</ns3:hr>
            <ns3:cad>61</ns3:cad>
          </ns3:TrackPointExtension>
        </extensions>
      </trkpt>
      <trkpt lat="56.020274497568607330322265625" lon="24.16392051614820957183837890625">
        <ele>47.40000152587890625</ele>
        <time>2026-08-01T11:43:58.000Z</time>
        <extensions>
          <ns3:TrackPointExtension>
            <ns3:hr>131</ns3:hr>
            <ns3:cad>60</ns3:cad>
          </ns3:TrackPointExtension>
        </extensions>
      </trkpt>
      <trkpt lat="56.020236946642398834228515625" lon="24.1640493459999561309814453125">
        <ele>46.59999847412109375</ele>
        <time>2026-08-01T11:44:04.000Z</time>
        <extensions>
          <ns3:TrackPointExtension>
            <ns3:hr>131</ns3:hr>
            <ns3:cad>60</ns3:cad>
          </ns3:TrackPointExtension>
        </extensions>
      </trkpt>
      <trkpt lat="56.0202250443398952484130859375" lon="24.16412151418626308441162109375">
        <ele>46.40000152587890625</ele>
        <time>2026-08-01T11:44:07.000Z</time>
        <extensions>
          <ns3:TrackPointExtension>
            <ns3:hr>131</ns3:hr>
            <ns3:cad>60</ns3:cad>
          </ns3:TrackPointExtension>
        </extensions>
      </trkpt>
      <trkpt lat="56.02021909318864345550537109375" lon="24.16428454220294952392578125">
        <ele>45.59999847412109375</ele>
        <time>2026-08-01T11:44:13.000Z</time>
        <extensions>
          <ns3:TrackPointExtension>
            <ns3:hr>129</ns3:hr>
            <ns3:cad>59</ns3:cad>
          </ns3:TrackPointExtension>
        </extensions>
      </trkpt>
      <trkpt lat="56.0202146507799625396728515625" lon="24.1643698699772357940673828125">
        <ele>45.200000762939453125</ele>
        <time>2026-08-01T11:44:17.000Z</time>
        <extensions>
          <ns3:TrackPointExtension>
            <ns3:hr>129</ns3:hr>
            <ns3:cad>59</ns3:cad>
          </ns3:TrackPointExtension>
        </extensions>
      </trkpt>
      <trkpt lat="56.02020819671452045440673828125" lon="24.16443114168941974639892578125">
        <ele>44.59999847412109375</ele>
        <time>2026-08-01T11:44:20.000Z</time>
        <extensions>
          <ns3:TrackPointExtension>
            <ns3:hr>128</ns3:hr>
            <ns3:cad>58</ns3:cad>
          </ns3:TrackPointExtension>
        </extensions>
      </trkpt>
      <trkpt lat="56.020163856446743011474609375" lon="24.16456349194049835205078125">
        <ele>45.200000762939453125</ele>
        <time>2026-08-01T11:44:26.000Z</time>
        <extensions>
          <ns3:TrackPointExtension>
            <ns3:hr>127</ns3:hr>
            <ns3:cad>59</ns3:cad>
          </ns3:TrackPointExtension>
        </extensions>
      </trkpt>
      <trkpt lat="56.0201063565909862518310546875" lon="24.16472568176686763763427734375">
        <ele>45.200000762939453125</ele>
        <time>2026-08-01T11:44:34.000Z</time>
        <extensions>
          <ns3:TrackPointExtension>
            <ns3:hr>127</ns3:hr>
            <ns3:cad>56</ns3:cad>
          </ns3:TrackPointExtension>
        </extensions>
      </trkpt>
      <trkpt lat="56.0200604237616062164306640625" lon="24.16490321047604084014892578125">
        <ele>45.40000152587890625</ele>
        <time>2026-08-01T11:44:43.000Z</time>
        <extensions>
          <ns3:TrackPointExtension>
            <ns3:hr>127</ns3:hr>
            <ns3:cad>59</ns3:cad>
          </ns3:TrackPointExtension>
        </extensions>
      </trkpt>
      <trkpt lat="56.0200382955372333526611328125" lon="24.16497378610074520111083984375">
        <ele>45.799999237060546875</ele>
        <time>2026-08-01T11:44:46.000Z</time>
        <extensions>
          <ns3:TrackPointExtension>
            <ns3:hr>127</ns3:hr>
            <ns3:cad>58</ns3:cad>
          </ns3:TrackPointExtension>
        </extensions>
      </trkpt>
      <trkpt lat="56.0200299136340618133544921875" lon="24.1650786437094211578369140625">
        <ele>46.40000152587890625</ele>
        <time>2026-08-01T11:44:50.000Z</time>
        <extensions>
          <ns3:TrackPointExtension>
            <ns3:hr>131</ns3:hr>
            <ns3:cad>58</ns3:cad>
          </ns3:TrackPointExtension>
        </extensions>
      </trkpt>
      <trkpt lat="56.02002480067312717437744140625" lon="24.16518299840390682220458984375">
        <ele>46.799999237060546875</ele>
        <time>2026-08-01T11:44:54.000Z</time>
        <extensions>
          <ns3:TrackPointExtension>
            <ns3:hr>133</ns3:hr>
            <ns3:cad>58</ns3:cad>
          </ns3:TrackPointExtension>
        </extensions>
      </trkpt>
      <trkpt lat="56.02001524530351161956787109375" lon="24.1653339564800262451171875">
        <ele>47.40000152587890625</ele>
        <time>2026-08-01T11:45:00.000Z</time>
        <extensions>
          <ns3:TrackPointExtension>
            <ns3:hr>136</ns3:hr>
            <ns3:cad>59</ns3:cad>
          </ns3:TrackPointExtension>
        </extensions>
      </trkpt>
      <trkpt lat="56.02001373656094074249267578125" lon="24.16541584767401218414306640625">
        <ele>47.40000152587890625</ele>
        <time>2026-08-01T11:45:03.000Z</time>
        <extensions>
          <ns3:TrackPointExtension>
            <ns3:hr>139</ns3:hr>
            <ns3:cad>59</ns3:cad>
          </ns3:TrackPointExtension>
        </extensions>
      </trkpt>
      <trkpt lat="56.020011641085147857666015625" lon="24.16549229063093662261962890625">
        <ele>47.40000152587890625</ele>
        <time>2026-08-01T11:45:06.000Z</time>
        <extensions>
          <ns3:TrackPointExtension>
            <ns3:hr>140</ns3:hr>
            <ns3:cad>59</ns3:cad>
          </ns3:TrackPointExtension>
        </extensions>
      </trkpt>
      <trkpt lat="56.01997719146311283111572265625" lon="24.1656921990215778350830078125">
        <ele>47.799999237060546875</ele>
        <time>2026-08-01T11:45:14.000Z</time>
        <extensions>
          <ns3:TrackPointExtension>
            <ns3:hr>139</ns3:hr>
            <ns3:cad>61</ns3:cad>
          </ns3:TrackPointExtension>
        </extensions>
      </trkpt>
      <trkpt lat="56.0199709050357341766357421875" lon="24.16571474634110927581787109375">
        <ele>47.799999237060546875</ele>
        <time>2026-08-01T11:45:15.000Z</time>
        <extensions>
          <ns3:TrackPointExtension>
            <ns3:hr>139</ns3:hr>
            <ns3:cad>61</ns3:cad>
          </ns3:TrackPointExtension>
        </extensions>
      </trkpt>
      <trkpt lat="56.0199491120874881744384765625" lon="24.16594223119318485260009765625">
        <ele>48.200000762939453125</ele>
        <time>2026-08-01T11:45:24.000Z</time>
        <extensions>
          <ns3:TrackPointExtension>
            <ns3:hr>138</ns3:hr>
            <ns3:cad>61</ns3:cad>
          </ns3:TrackPointExtension>
        </extensions>
      </trkpt>
      <trkpt lat="56.01995053701102733612060546875" lon="24.16615362279117107391357421875">
        <ele>48</ele>
        <time>2026-08-01T11:45:32.000Z</time>
        <extensions>
          <ns3:TrackPointExtension>
            <ns3:hr>138</ns3:hr>
            <ns3:cad>58</ns3:cad>
          </ns3:TrackPointExtension>
        </extensions>
      </trkpt>
      <trkpt lat="56.01994223892688751220703125" lon="24.16635780595242977142333984375">
        <ele>48.200000762939453125</ele>
        <time>2026-08-01T11:45:39.000Z</time>
        <extensions>
          <ns3:TrackPointExtension>
            <ns3:hr>138</ns3:hr>
            <ns3:cad>60</ns3:cad>
          </ns3:TrackPointExtension>
        </extensions>
      </trkpt>
      <trkpt lat="56.01989530026912689208984375" lon="24.1665625758469104766845703125">
        <ele>48.40000152587890625</ele>
        <time>2026-08-01T11:45:47.000Z</time>
        <extensions>
          <ns3:TrackPointExtension>
            <ns3:hr>138</ns3:hr>
            <ns3:cad>61</ns3:cad>
          </ns3:TrackPointExtension>
        </extensions>
      </trkpt>
      <trkpt lat="56.01988012902438640594482421875" lon="24.1666581295430660247802734375">
        <ele>48.799999237060546875</ele>
        <time>2026-08-01T11:45:51.000Z</time>
        <extensions>
          <ns3:TrackPointExtension>
            <ns3:hr>138</ns3:hr>
            <ns3:cad>61</ns3:cad>
          </ns3:TrackPointExtension>
        </extensions>
      </trkpt>
      <trkpt lat="56.019862778484821319580078125" lon="24.16675913147628307342529296875">
        <ele>48.799999237060546875</ele>
        <time>2026-08-01T11:45:55.000Z</time>
        <extensions>
          <ns3:TrackPointExtension>
            <ns3:hr>137</ns3:hr>
            <ns3:cad>60</ns3:cad>
          </ns3:TrackPointExtension>
        </extensions>
      </trkpt>
      <trkpt lat="56.0198378004133701324462890625" lon="24.16703741066157817840576171875">
        <ele>49</ele>
        <time>2026-08-01T11:46:06.000Z</time>
        <extensions>
          <ns3:TrackPointExtension>
            <ns3:hr>137</ns3:hr>
            <ns3:cad>61</ns3:cad>
          </ns3:TrackPointExtension>
        </extensions>
      </trkpt>
      <trkpt lat="56.0198247246444225311279296875" lon="24.1672398336231708526611328125">
        <ele>49</ele>
        <time>2026-08-01T11:46:14.000Z</time>
        <extensions>
          <ns3:TrackPointExtension>
            <ns3:hr>136</ns3:hr>
            <ns3:cad>61</ns3:cad>
          </ns3:TrackPointExtension>
        </extensions>
      </trkpt>
      <trkpt lat="56.0198005847632884979248046875" lon="24.1675124131143093109130859375">
        <ele>49.200000762939453125</ele>
        <time>2026-08-01T11:46:25.000Z</time>
        <extensions>
          <ns3:TrackPointExtension>
            <ns3:hr>136</ns3:hr>
            <ns3:cad>60</ns3:cad>
          </ns3:TrackPointExtension>
        </extensions>
      </trkpt>
      <trkpt lat="56.0198592580854892730712890625" lon="24.1676245629787445068359375">
        <ele>49.59999847412109375</ele>
        <time>2026-08-01T11:46:33.000Z</time>
        <extensions>
          <ns3:TrackPointExtension>
            <ns3:hr>135</ns3:hr>
            <ns3:cad>59</ns3:cad>
          </ns3:TrackPointExtension>
        </extensions>
      </trkpt>
      <trkpt lat="56.01996445097029209136962890625" lon="24.1676240600645542144775390625">
        <ele>49.40000152587890625</ele>
        <time>2026-08-01T11:46:42.000Z</time>
        <extensions>
          <ns3:TrackPointExtension>
            <ns3:hr>135</ns3:hr>
            <ns3:cad>59</ns3:cad>
          </ns3:TrackPointExtension>
        </extensions>
      </trkpt>
      <trkpt lat="56.02009923197329044342041015625" lon="24.1676277481019496917724609375">
        <ele>49.200000762939453125</ele>
        <time>2026-08-01T11:46:50.000Z</time>
        <extensions>
          <ns3:TrackPointExtension>
            <ns3:hr>135</ns3:hr>
            <ns3:cad>59</ns3:cad>
          </ns3:TrackPointExtension>
        </extensions>
      </trkpt>
      <trkpt lat="56.0202833823859691619873046875" lon="24.16764459572732448577880859375">
        <ele>49.200000762939453125</ele>
        <time>2026-08-01T11:47:02.000Z</time>
        <extensions>
          <ns3:TrackPointExtension>
            <ns3:hr>135</ns3:hr>
            <ns3:cad>61</ns3:cad>
          </ns3:TrackPointExtension>
        </extensions>
      </trkpt>
      <trkpt lat="56.02041271515190601348876953125" lon="24.16768684051930904388427734375">
        <ele>49.40000152587890625</ele>
        <time>2026-08-01T11:47:10.000Z</time>
        <extensions>
          <ns3:TrackPointExtension>
            <ns3:hr>133</ns3:hr>
            <ns3:cad>59</ns3:cad>
          </ns3:TrackPointExtension>
        </extensions>
      </trkpt>
      <trkpt lat="56.02056224830448627471923828125" lon="24.167675860226154327392578125">
        <ele>48.799999237060546875</ele>
        <time>2026-08-01T11:47:21.000Z</time>
        <extensions>
          <ns3:TrackPointExtension>
            <ns3:hr>135</ns3:hr>
            <ns3:cad>60</ns3:cad>
          </ns3:TrackPointExtension>
        </extensions>
      </trkpt>
      <trkpt lat="56.02060030214488506317138671875" lon="24.16766890324652194976806640625">
        <ele>48.799999237060546875</ele>
        <time>2026-08-01T11:47:24.000Z</time>
        <extensions>
          <ns3:TrackPointExtension>
            <ns3:hr>138</ns3:hr>
            <ns3:cad>60</ns3:cad>
          </ns3:TrackPointExtension>
        </extensions>
      </trkpt>
      <trkpt lat="56.02069619111716747283935546875" lon="24.16767309419810771942138671875">
        <ele>48.799999237060546875</ele>
        <time>2026-08-01T11:47:30.000Z</time>
        <extensions>
          <ns3:TrackPointExtension>
            <ns3:hr>138</ns3:hr>
            <ns3:cad>60</ns3:cad>
          </ns3:TrackPointExtension>
        </extensions>
      </trkpt>
      <trkpt lat="56.02084186859428882598876953125" lon="24.16768466122448444366455078125">
        <ele>48.799999237060546875</ele>
        <time>2026-08-01T11:47:40.000Z</time>
        <extensions>
          <ns3:TrackPointExtension>
            <ns3:hr>136</ns3:hr>
            <ns3:cad>61</ns3:cad>
          </ns3:TrackPointExtension>
        </extensions>
      </trkpt>
      <trkpt lat="56.0209086723625659942626953125" lon="24.1676914505660533905029296875">
        <ele>48.799999237060546875</ele>
        <time>2026-08-01T11:47:44.000Z</time>
        <extensions>
          <ns3:TrackPointExtension>
            <ns3:hr>132</ns3:hr>
            <ns3:cad>61</ns3:cad>
          </ns3:TrackPointExtension>
        </extensions>
      </trkpt>
      <trkpt lat="56.02099877782166004180908203125" lon="24.16770176030695438385009765625">
        <ele>48.799999237060546875</ele>
        <time>2026-08-01T11:47:50.000Z</time>
        <extensions>
          <ns3:TrackPointExtension>
            <ns3:hr>132</ns3:hr>
            <ns3:cad>61</ns3:cad>
          </ns3:TrackPointExtension>
        </extensions>
      </trkpt>
      <trkpt lat="56.021182425320148468017578125" lon="24.167708046734333038330078125">
        <ele>48.799999237060546875</ele>
        <time>2026-08-01T11:48:02.000Z</time>
        <extensions>
          <ns3:TrackPointExtension>
            <ns3:hr>134</ns3:hr>
            <ns3:cad>60</ns3:cad>
          </ns3:TrackPointExtension>
        </extensions>
      </trkpt>
      <trkpt lat="56.02135215885937213897705078125" lon="24.16771709918975830078125">
        <ele>48.59999847412109375</ele>
        <time>2026-08-01T11:48:14.000Z</time>
        <extensions>
          <ns3:TrackPointExtension>
            <ns3:hr>134</ns3:hr>
            <ns3:cad>60</ns3:cad>
          </ns3:TrackPointExtension>
        </extensions>
      </trkpt>
      <trkpt lat="56.02148509584367275238037109375" lon="24.16774417273700237274169921875">
        <ele>48.59999847412109375</ele>
        <time>2026-08-01T11:48:23.000Z</time>
        <extensions>
          <ns3:TrackPointExtension>
            <ns3:hr>134</ns3:hr>
            <ns3:cad>59</ns3:cad>
          </ns3:TrackPointExtension>
        </extensions>
      </trkpt>
      <trkpt lat="56.02167092263698577880859375" lon="24.167765043675899505615234375">
        <ele>48.59999847412109375</ele>
        <time>2026-08-01T11:48:35.000Z</time>
        <extensions>
          <ns3:TrackPointExtension>
            <ns3:hr>134</ns3:hr>
            <ns3:cad>60</ns3:cad>
          </ns3:TrackPointExtension>
        </extensions>
      </trkpt>
      <trkpt lat="56.02168458513915538787841796875" lon="24.16776604950428009033203125">
        <ele>48.59999847412109375</ele>
        <time>2026-08-01T11:48:36.000Z</time>
        <extensions>
          <ns3:TrackPointExtension>
            <ns3:hr>135</ns3:hr>
            <ns3:cad>60</ns3:cad>
          </ns3:TrackPointExtension>
        </extensions>
      </trkpt>
      <trkpt lat="56.02188139222562313079833984375" lon="24.16778993792831897735595703125">
        <ele>48.40000152587890625</ele>
        <time>2026-08-01T11:48:49.000Z</time>
        <extensions>
          <ns3:TrackPointExtension>
            <ns3:hr>135</ns3:hr>
            <ns3:cad>60</ns3:cad>
          </ns3:TrackPointExtension>
        </extensions>
      </trkpt>
      <trkpt lat="56.02207870222628116607666015625" lon="24.167823381721973419189453125">
        <ele>48.200000762939453125</ele>
        <time>2026-08-01T11:49:02.000Z</time>
        <extensions>
          <ns3:TrackPointExtension>
            <ns3:hr>133</ns3:hr>
            <ns3:cad>61</ns3:cad>
          </ns3:TrackPointExtension>
        </extensions>
      </trkpt>
      <trkpt lat="56.02222136221826076507568359375" lon="24.16784173808991909027099609375">
        <ele>48.59999847412109375</ele>
        <time>2026-08-01T11:49:12.000Z</time>
        <extensions>
          <ns3:TrackPointExtension>
            <ns3:hr>134</ns3:hr>
            <ns3:cad>59</ns3:cad>
          </ns3:TrackPointExtension>
        </extensions>
      </trkpt>
      <trkpt lat="56.02232445962727069854736328125" lon="24.16786269284784793853759765625">
        <ele>48.200000762939453125</ele>
        <time>2026-08-01T11:49:19.000Z</time>
        <extensions>
          <ns3:TrackPointExtension>
            <ns3:hr>134</ns3:hr>
            <ns3:cad>61</ns3:cad>
          </ns3:TrackPointExtension>
        </extensions>
      </trkpt>
      <trkpt lat="56.02244432084262371063232421875" lon="24.16788951493799686431884765625">
        <ele>48</ele>
        <time>2026-08-01T11:49:27.000Z</time>
        <extensions>
          <ns3:TrackPointExtension>
            <ns3:hr>134</ns3:hr>
            <ns3:cad>60</ns3:cad>
          </ns3:TrackPointExtension>
        </extensions>
      </trkpt>
      <trkpt lat="56.0225884057581424713134765625" lon="24.16790711693465709686279296875">
        <ele>48.200000762939453125</ele>
        <time>2026-08-01T11:49:37.000Z</time>
        <extensions>
          <ns3:TrackPointExtension>
            <ns3:hr>134</ns3:hr>
            <ns3:cad>60</ns3:cad>
          </ns3:TrackPointExtension>
        </extensions>
      </trkpt>
      <trkpt lat="56.0227171517908573150634765625" lon="24.16794617660343647003173828125">
        <ele>48.200000762939453125</ele>
        <time>2026-08-01T11:49:47.000Z</time>
        <extensions>
          <ns3:TrackPointExtension>
            <ns3:hr>134</ns3:hr>
            <ns3:cad>60</ns3:cad>
          </ns3:TrackPointExtension>
        </extensions>
      </trkpt>
      <trkpt lat="56.022884286940097808837890625" lon="24.16796981357038021087646484375">
        <ele>48</ele>
        <time>2026-08-01T11:49:57.000Z</time>
        <extensions>
          <ns3:TrackPointExtension>
            <ns3:hr>134</ns3:hr>
            <ns3:cad>60</ns3:cad>
          </ns3:TrackPointExtension>
        </extensions>
      </trkpt>
      <trkpt lat="56.02299367077648639678955078125" lon="24.1679831407964229583740234375">
        <ele>48</ele>
        <time>2026-08-01T11:50:05.000Z</time>
        <extensions>
          <ns3:TrackPointExtension>
            <ns3:hr>135</ns3:hr>
            <ns3:cad>60</ns3:cad>
          </ns3:TrackPointExtension>
        </extensions>
      </trkpt>
      <trkpt lat="56.023050248622894287109375" lon="24.16799361817538738250732421875">
        <ele>47.799999237060546875</ele>
        <time>2026-08-01T11:50:09.000Z</time>
        <extensions>
          <ns3:TrackPointExtension>
            <ns3:hr>132</ns3:hr>
            <ns3:cad>60</ns3:cad>
          </ns3:TrackPointExtension>
        </extensions>
      </trkpt>
      <trkpt lat="56.02312375791370868682861328125" lon="24.16801004670560359954833984375">
        <ele>47.799999237060546875</ele>
        <time>2026-08-01T11:50:14.000Z</time>
        <extensions>
          <ns3:TrackPointExtension>
            <ns3:hr>134</ns3:hr>
            <ns3:cad>60</ns3:cad>
          </ns3:TrackPointExtension>
        </extensions>
      </trkpt>
      <trkpt lat="56.023261137306690216064453125" lon="24.16801591403782367706298828125">
        <ele>47.59999847412109375</ele>
        <time>2026-08-01T11:50:23.000Z</time>
        <extensions>
          <ns3:TrackPointExtension>
            <ns3:hr>133</ns3:hr>
            <ns3:cad>60</ns3:cad>
          </ns3:TrackPointExtension>
        </extensions>
      </trkpt>
      <trkpt lat="56.0234071500599384307861328125" lon="24.1680441610515117645263671875">
        <ele>47.59999847412109375</ele>
        <time>2026-08-01T11:50:33.000Z</time>
        <extensions>
          <ns3:TrackPointExtension>
            <ns3:hr>133</ns3:hr>
            <ns3:cad>60</ns3:cad>
          </ns3:TrackPointExtension>
        </extensions>
      </trkpt>
      <trkpt lat="56.023527681827545166015625" lon="24.168067462742328643798828125">
        <ele>47.40000152587890625</ele>
        <time>2026-08-01T11:50:41.000Z</time>
        <extensions>
          <ns3:TrackPointExtension>
            <ns3:hr>134</ns3:hr>
            <ns3:cad>60</ns3:cad>
          </ns3:TrackPointExtension>
        </extensions>
      </trkpt>
      <trkpt lat="56.0236549191176891326904296875" lon="24.16813359595835208892822265625">
        <ele>47.40000152587890625</ele>
        <time>2026-08-01T11:50:51.000Z</time>
        <extensions>
          <ns3:TrackPointExtension>
            <ns3:hr>132</ns3:hr>
            <ns3:cad>59</ns3:cad>
          </ns3:TrackPointExtension>
        </extensions>
      </trkpt>
      <trkpt lat="56.02378827519714832305908203125" lon="24.16815723292529582977294921875">
        <ele>47.799999237060546875</ele>
        <time>2026-08-01T11:51:00.000Z</time>
        <extensions>
          <ns3:TrackPointExtension>
            <ns3:hr>131</ns3:hr>
            <ns3:cad>59</ns3:cad>
          </ns3:TrackPointExtension>
        </extensions>
      </trkpt>
      <trkpt lat="56.02393445558845996856689453125" lon="24.16819059289991855621337890625">
        <ele>48</ele>
        <time>2026-08-01T11:51:10.000Z</time>
        <extensions>
          <ns3:TrackPointExtension>
            <ns3:hr>132</ns3:hr>
            <ns3:cad>60</ns3:cad>
          </ns3:TrackPointExtension>
        </extensions>
      </trkpt>
      <trkpt lat="56.02408088743686676025390625" lon="24.168229065835475921630859375">
        <ele>48</ele>
        <time>2026-08-01T11:51:20.000Z</time>
        <extensions>
          <ns3:TrackPointExtension>
            <ns3:hr>132</ns3:hr>
            <ns3:cad>60</ns3:cad>
          </ns3:TrackPointExtension>
        </extensions>
      </trkpt>
      <trkpt lat="56.02422840893268585205078125" lon="24.16823769919574260711669921875">
        <ele>47.799999237060546875</ele>
        <time>2026-08-01T11:51:28.000Z</time>
        <extensions>
          <ns3:TrackPointExtension>
            <ns3:hr>131</ns3:hr>
            <ns3:cad>60</ns3:cad>
          </ns3:TrackPointExtension>
        </extensions>
      </trkpt>
      <trkpt lat="56.02433728985488414764404296875" lon="24.168253876268863677978515625">
        <ele>47.799999237060546875</ele>
        <time>2026-08-01T11:51:36.000Z</time>
        <extensions>
          <ns3:TrackPointExtension>
            <ns3:hr>131</ns3:hr>
            <ns3:cad>59</ns3:cad>
          </ns3:TrackPointExtension>
        </extensions>
      </trkpt>
      <trkpt lat="56.02434575557708740234375" lon="24.168261587619781494140625">
        <ele>48</ele>
        <time>2026-08-01T11:51:37.000Z</time>
        <extensions>
          <ns3:TrackPointExtension>
            <ns3:hr>130</ns3:hr>
            <ns3:cad>59</ns3:cad>
          </ns3:TrackPointExtension>
        </extensions>
      </trkpt>
    </trkseg>
  </trk>
</gpx>
